<?xml version="1.0"?>
<gpx version="1.1" creator="GPS Visualizer http://www.gpsvisualizer.com/" xmlns="http://www.topografix.com/GPX/1/1" xmlns:xsi="http://www.w3.org/2001/XMLSchema-instance" xsi:schemaLocation="http://www.topografix.com/GPX/1/1 http://www.topografix.com/GPX/1/1/gpx.xsd">
<trk>
  <name>2016-09-18-01</name>
  <trkseg>
    <trkpt lat="48.496737" lon="2.634877">
      <ele>93.064</ele>
      <time>2016-09-18T07:37:54Z</time>
    </trkpt>
    <trkpt lat="48.496724" lon="2.634919">
      <ele>93.121</ele>
      <time>2016-09-18T07:37:59Z</time>
    </trkpt>
    <trkpt lat="48.496838" lon="2.6349">
      <ele>93.874</ele>
      <time>2016-09-18T07:38:07Z</time>
    </trkpt>
    <trkpt lat="48.496739" lon="2.634898">
      <ele>93.154</ele>
      <time>2016-09-18T07:38:10Z</time>
    </trkpt>
    <trkpt lat="48.496834" lon="2.634802">
      <ele>93.492</ele>
      <time>2016-09-18T07:38:13Z</time>
    </trkpt>
    <trkpt lat="48.496766" lon="2.634711">
      <ele>92.701</ele>
      <time>2016-09-18T07:38:20Z</time>
    </trkpt>
    <trkpt lat="48.49667" lon="2.634729">
      <ele>92.048</ele>
      <time>2016-09-18T07:38:25Z</time>
    </trkpt>
    <trkpt lat="48.496596" lon="2.63486">
      <ele>92.242</ele>
      <time>2016-09-18T07:38:29Z</time>
    </trkpt>
    <trkpt lat="48.496521" lon="2.634992">
      <ele>92.447</ele>
      <time>2016-09-18T07:38:31Z</time>
    </trkpt>
    <trkpt lat="48.496458" lon="2.63511">
      <ele>92.249</ele>
      <time>2016-09-18T07:38:33Z</time>
    </trkpt>
    <trkpt lat="48.496332" lon="2.635286">
      <ele>91.795</ele>
      <time>2016-09-18T07:38:35Z</time>
    </trkpt>
    <trkpt lat="48.496212" lon="2.635365">
      <ele>91.363</ele>
      <time>2016-09-18T07:38:38Z</time>
    </trkpt>
    <trkpt lat="48.496129" lon="2.635491">
      <ele>91.064</ele>
      <time>2016-09-18T07:38:41Z</time>
    </trkpt>
    <trkpt lat="48.496043" lon="2.635598">
      <ele>91.0</ele>
      <time>2016-09-18T07:38:43Z</time>
    </trkpt>
    <trkpt lat="48.495927" lon="2.635771">
      <ele>91.0</ele>
      <time>2016-09-18T07:38:46Z</time>
    </trkpt>
    <trkpt lat="48.495855" lon="2.635884">
      <ele>91.014</ele>
      <time>2016-09-18T07:38:47Z</time>
    </trkpt>
    <trkpt lat="48.49571" lon="2.636012">
      <ele>91.286</ele>
      <time>2016-09-18T07:38:51Z</time>
    </trkpt>
    <trkpt lat="48.495634" lon="2.636163">
      <ele>91.77</ele>
      <time>2016-09-18T07:38:53Z</time>
    </trkpt>
    <trkpt lat="48.495495" lon="2.636288">
      <ele>92.357</ele>
      <time>2016-09-18T07:38:57Z</time>
    </trkpt>
    <trkpt lat="48.49542" lon="2.63639">
      <ele>92.982</ele>
      <time>2016-09-18T07:38:59Z</time>
    </trkpt>
    <trkpt lat="48.495341" lon="2.636502">
      <ele>94.045</ele>
      <time>2016-09-18T07:39:02Z</time>
    </trkpt>
    <trkpt lat="48.495253" lon="2.636606">
      <ele>94.801</ele>
      <time>2016-09-18T07:39:04Z</time>
    </trkpt>
    <trkpt lat="48.495159" lon="2.636767">
      <ele>95.0</ele>
      <time>2016-09-18T07:39:07Z</time>
    </trkpt>
    <trkpt lat="48.495067" lon="2.63685">
      <ele>95.0</ele>
      <time>2016-09-18T07:39:09Z</time>
    </trkpt>
    <trkpt lat="48.495007" lon="2.63695">
      <ele>94.98</ele>
      <time>2016-09-18T07:39:11Z</time>
    </trkpt>
    <trkpt lat="48.494915" lon="2.637071">
      <ele>94.211</ele>
      <time>2016-09-18T07:39:15Z</time>
    </trkpt>
    <trkpt lat="48.494836" lon="2.637146">
      <ele>93.95</ele>
      <time>2016-09-18T07:39:16Z</time>
    </trkpt>
    <trkpt lat="48.494751" lon="2.637255">
      <ele>93.988</ele>
      <time>2016-09-18T07:39:18Z</time>
    </trkpt>
    <trkpt lat="48.494677" lon="2.637345">
      <ele>93.837</ele>
      <time>2016-09-18T07:39:20Z</time>
    </trkpt>
    <trkpt lat="48.494584" lon="2.637441">
      <ele>93.502</ele>
      <time>2016-09-18T07:39:23Z</time>
    </trkpt>
    <trkpt lat="48.494483" lon="2.637549">
      <ele>93.291</ele>
      <time>2016-09-18T07:39:25Z</time>
    </trkpt>
    <trkpt lat="48.494397" lon="2.637644">
      <ele>93.518</ele>
      <time>2016-09-18T07:39:27Z</time>
    </trkpt>
    <trkpt lat="48.49431" lon="2.637695">
      <ele>93.702</ele>
      <time>2016-09-18T07:39:30Z</time>
    </trkpt>
    <trkpt lat="48.494256" lon="2.637854">
      <ele>94.274</ele>
      <time>2016-09-18T07:39:32Z</time>
    </trkpt>
    <trkpt lat="48.494138" lon="2.637936">
      <ele>94.673</ele>
      <time>2016-09-18T07:39:34Z</time>
    </trkpt>
    <trkpt lat="48.494031" lon="2.637989">
      <ele>95.249</ele>
      <time>2016-09-18T07:39:36Z</time>
    </trkpt>
    <trkpt lat="48.493973" lon="2.638139">
      <ele>95.998</ele>
      <time>2016-09-18T07:39:38Z</time>
    </trkpt>
    <trkpt lat="48.493797" lon="2.638273">
      <ele>96.783</ele>
      <time>2016-09-18T07:39:42Z</time>
    </trkpt>
    <trkpt lat="48.493707" lon="2.638448">
      <ele>97.27</ele>
      <time>2016-09-18T07:39:46Z</time>
    </trkpt>
    <trkpt lat="48.493651" lon="2.638572">
      <ele>97.736</ele>
      <time>2016-09-18T07:39:48Z</time>
    </trkpt>
    <trkpt lat="48.493558" lon="2.638741">
      <ele>98.102</ele>
      <time>2016-09-18T07:39:52Z</time>
    </trkpt>
    <trkpt lat="48.493467" lon="2.638802">
      <ele>98.162</ele>
      <time>2016-09-18T07:39:53Z</time>
    </trkpt>
    <trkpt lat="48.493366" lon="2.638926">
      <ele>97.866</ele>
      <time>2016-09-18T07:39:55Z</time>
    </trkpt>
    <trkpt lat="48.493275" lon="2.639028">
      <ele>97.919</ele>
      <time>2016-09-18T07:39:58Z</time>
    </trkpt>
    <trkpt lat="48.493204" lon="2.639181">
      <ele>97.931</ele>
      <time>2016-09-18T07:40:02Z</time>
    </trkpt>
    <trkpt lat="48.493141" lon="2.639309">
      <ele>98.385</ele>
      <time>2016-09-18T07:40:06Z</time>
    </trkpt>
    <trkpt lat="48.493052" lon="2.63935">
      <ele>99.017</ele>
      <time>2016-09-18T07:40:09Z</time>
    </trkpt>
    <trkpt lat="48.492929" lon="2.639389">
      <ele>99.547</ele>
      <time>2016-09-18T07:40:12Z</time>
    </trkpt>
    <trkpt lat="48.492895" lon="2.639526">
      <ele>99.578</ele>
      <time>2016-09-18T07:40:18Z</time>
    </trkpt>
    <trkpt lat="48.492771" lon="2.63968">
      <ele>100.004</ele>
      <time>2016-09-18T07:40:21Z</time>
    </trkpt>
    <trkpt lat="48.492678" lon="2.639749">
      <ele>100.0</ele>
      <time>2016-09-18T07:40:23Z</time>
    </trkpt>
    <trkpt lat="48.492571" lon="2.639876">
      <ele>100.0</ele>
      <time>2016-09-18T07:40:25Z</time>
    </trkpt>
    <trkpt lat="48.492452" lon="2.640044">
      <ele>100.158</ele>
      <time>2016-09-18T07:40:27Z</time>
    </trkpt>
    <trkpt lat="48.492353" lon="2.64008">
      <ele>100.288</ele>
      <time>2016-09-18T07:40:29Z</time>
    </trkpt>
    <trkpt lat="48.492282" lon="2.640177">
      <ele>100.637</ele>
      <time>2016-09-18T07:40:33Z</time>
    </trkpt>
    <trkpt lat="48.492165" lon="2.640306">
      <ele>101.206</ele>
      <time>2016-09-18T07:40:35Z</time>
    </trkpt>
    <trkpt lat="48.492063" lon="2.640491">
      <ele>101.573</ele>
      <time>2016-09-18T07:40:37Z</time>
    </trkpt>
    <trkpt lat="48.491999" lon="2.640606">
      <ele>101.804</ele>
      <time>2016-09-18T07:40:38Z</time>
    </trkpt>
    <trkpt lat="48.491909" lon="2.640731">
      <ele>102.047</ele>
      <time>2016-09-18T07:40:40Z</time>
    </trkpt>
    <trkpt lat="48.491804" lon="2.640831">
      <ele>102.004</ele>
      <time>2016-09-18T07:40:43Z</time>
    </trkpt>
    <trkpt lat="48.491697" lon="2.640937">
      <ele>101.959</ele>
      <time>2016-09-18T07:40:48Z</time>
    </trkpt>
    <trkpt lat="48.491621" lon="2.641039">
      <ele>102.122</ele>
      <time>2016-09-18T07:40:51Z</time>
    </trkpt>
    <trkpt lat="48.49153" lon="2.641135">
      <ele>102.406</ele>
      <time>2016-09-18T07:40:54Z</time>
    </trkpt>
    <trkpt lat="48.491443" lon="2.641241">
      <ele>102.338</ele>
      <time>2016-09-18T07:40:56Z</time>
    </trkpt>
    <trkpt lat="48.49137" lon="2.641354">
      <ele>102.185</ele>
      <time>2016-09-18T07:40:58Z</time>
    </trkpt>
    <trkpt lat="48.491308" lon="2.641452">
      <ele>102.225</ele>
      <time>2016-09-18T07:40:59Z</time>
    </trkpt>
    <trkpt lat="48.491222" lon="2.641544">
      <ele>102.265</ele>
      <time>2016-09-18T07:41:01Z</time>
    </trkpt>
    <trkpt lat="48.49114" lon="2.641642">
      <ele>102.08</ele>
      <time>2016-09-18T07:41:05Z</time>
    </trkpt>
    <trkpt lat="48.491029" lon="2.64177">
      <ele>101.704</ele>
      <time>2016-09-18T07:41:09Z</time>
    </trkpt>
    <trkpt lat="48.490913" lon="2.641866">
      <ele>101.287</ele>
      <time>2016-09-18T07:41:11Z</time>
    </trkpt>
    <trkpt lat="48.490825" lon="2.641925">
      <ele>100.972</ele>
      <time>2016-09-18T07:41:13Z</time>
    </trkpt>
    <trkpt lat="48.490743" lon="2.642056">
      <ele>100.805</ele>
      <time>2016-09-18T07:41:15Z</time>
    </trkpt>
    <trkpt lat="48.490692" lon="2.642182">
      <ele>100.926</ele>
      <time>2016-09-18T07:41:18Z</time>
    </trkpt>
    <trkpt lat="48.490597" lon="2.642325">
      <ele>101.315</ele>
      <time>2016-09-18T07:41:21Z</time>
    </trkpt>
    <trkpt lat="48.490526" lon="2.642458">
      <ele>101.849</ele>
      <time>2016-09-18T07:41:23Z</time>
    </trkpt>
    <trkpt lat="48.490415" lon="2.642544">
      <ele>102.0</ele>
      <time>2016-09-18T07:41:26Z</time>
    </trkpt>
    <trkpt lat="48.490342" lon="2.64265">
      <ele>102.0</ele>
      <time>2016-09-18T07:41:29Z</time>
    </trkpt>
    <trkpt lat="48.490243" lon="2.64271">
      <ele>101.875</ele>
      <time>2016-09-18T07:41:31Z</time>
    </trkpt>
    <trkpt lat="48.490151" lon="2.642892">
      <ele>101.955</ele>
      <time>2016-09-18T07:41:34Z</time>
    </trkpt>
    <trkpt lat="48.490038" lon="2.643023">
      <ele>102.02</ele>
      <time>2016-09-18T07:41:36Z</time>
    </trkpt>
    <trkpt lat="48.489928" lon="2.643183">
      <ele>102.34</ele>
      <time>2016-09-18T07:41:38Z</time>
    </trkpt>
    <trkpt lat="48.489826" lon="2.64334">
      <ele>102.365</ele>
      <time>2016-09-18T07:41:42Z</time>
    </trkpt>
    <trkpt lat="48.489746" lon="2.643438">
      <ele>102.053</ele>
      <time>2016-09-18T07:41:44Z</time>
    </trkpt>
    <trkpt lat="48.489652" lon="2.643522">
      <ele>101.575</ele>
      <time>2016-09-18T07:41:46Z</time>
    </trkpt>
    <trkpt lat="48.489599" lon="2.643657">
      <ele>101.021</ele>
      <time>2016-09-18T07:41:48Z</time>
    </trkpt>
    <trkpt lat="48.489563" lon="2.64382">
      <ele>100.533</ele>
      <time>2016-09-18T07:41:51Z</time>
    </trkpt>
    <trkpt lat="48.489524" lon="2.643955">
      <ele>100.286</ele>
      <time>2016-09-18T07:41:54Z</time>
    </trkpt>
    <trkpt lat="48.489494" lon="2.644121">
      <ele>100.178</ele>
      <time>2016-09-18T07:41:57Z</time>
    </trkpt>
    <trkpt lat="48.489442" lon="2.644299">
      <ele>99.497</ele>
      <time>2016-09-18T07:41:59Z</time>
    </trkpt>
    <trkpt lat="48.489358" lon="2.644413">
      <ele>98.18</ele>
      <time>2016-09-18T07:42:01Z</time>
    </trkpt>
    <trkpt lat="48.489377" lon="2.644553">
      <ele>97.976</ele>
      <time>2016-09-18T07:42:03Z</time>
    </trkpt>
    <trkpt lat="48.489336" lon="2.644726">
      <ele>97.206</ele>
      <time>2016-09-18T07:42:05Z</time>
    </trkpt>
    <trkpt lat="48.48929" lon="2.644896">
      <ele>96.262</ele>
      <time>2016-09-18T07:42:07Z</time>
    </trkpt>
    <trkpt lat="48.489252" lon="2.645078">
      <ele>95.895</ele>
      <time>2016-09-18T07:42:09Z</time>
    </trkpt>
    <trkpt lat="48.489218" lon="2.645279">
      <ele>96.374</ele>
      <time>2016-09-18T07:42:11Z</time>
    </trkpt>
    <trkpt lat="48.489192" lon="2.645449">
      <ele>96.799</ele>
      <time>2016-09-18T07:42:14Z</time>
    </trkpt>
    <trkpt lat="48.489125" lon="2.645683">
      <ele>98.389</ele>
      <time>2016-09-18T07:42:17Z</time>
    </trkpt>
    <trkpt lat="48.489061" lon="2.64584">
      <ele>99.629</ele>
      <time>2016-09-18T07:42:19Z</time>
    </trkpt>
    <trkpt lat="48.489015" lon="2.646054">
      <ele>99.888</ele>
      <time>2016-09-18T07:42:21Z</time>
    </trkpt>
    <trkpt lat="48.488976" lon="2.646205">
      <ele>99.768</ele>
      <time>2016-09-18T07:42:23Z</time>
    </trkpt>
    <trkpt lat="48.488952" lon="2.646354">
      <ele>99.324</ele>
      <time>2016-09-18T07:42:25Z</time>
    </trkpt>
    <trkpt lat="48.4889" lon="2.646497">
      <ele>99.04</ele>
      <time>2016-09-18T07:42:26Z</time>
    </trkpt>
    <trkpt lat="48.488813" lon="2.646665">
      <ele>98.454</ele>
      <time>2016-09-18T07:42:30Z</time>
    </trkpt>
    <trkpt lat="48.488763" lon="2.646892">
      <ele>98.461</ele>
      <time>2016-09-18T07:42:33Z</time>
    </trkpt>
    <trkpt lat="48.488738" lon="2.647051">
      <ele>98.84</ele>
      <time>2016-09-18T07:42:35Z</time>
    </trkpt>
    <trkpt lat="48.488609" lon="2.647207">
      <ele>98.93</ele>
      <time>2016-09-18T07:42:39Z</time>
    </trkpt>
    <trkpt lat="48.488494" lon="2.647411">
      <ele>98.836</ele>
      <time>2016-09-18T07:42:41Z</time>
    </trkpt>
    <trkpt lat="48.488434" lon="2.647518">
      <ele>98.79</ele>
      <time>2016-09-18T07:42:43Z</time>
    </trkpt>
    <trkpt lat="48.48834" lon="2.647718">
      <ele>98.833</ele>
      <time>2016-09-18T07:42:45Z</time>
    </trkpt>
    <trkpt lat="48.488296" lon="2.64785">
      <ele>98.866</ele>
      <time>2016-09-18T07:42:48Z</time>
    </trkpt>
    <trkpt lat="48.488202" lon="2.647962">
      <ele>98.527</ele>
      <time>2016-09-18T07:42:49Z</time>
    </trkpt>
    <trkpt lat="48.488123" lon="2.648093">
      <ele>98.243</ele>
      <time>2016-09-18T07:42:52Z</time>
    </trkpt>
    <trkpt lat="48.488105" lon="2.648263">
      <ele>98.178</ele>
      <time>2016-09-18T07:42:58Z</time>
    </trkpt>
    <trkpt lat="48.488009" lon="2.648346">
      <ele>97.71</ele>
      <time>2016-09-18T07:43:01Z</time>
    </trkpt>
    <trkpt lat="48.488006" lon="2.648483">
      <ele>98.182</ele>
      <time>2016-09-18T07:43:03Z</time>
    </trkpt>
    <trkpt lat="48.487927" lon="2.648574">
      <ele>97.941</ele>
      <time>2016-09-18T07:43:04Z</time>
    </trkpt>
    <trkpt lat="48.487831" lon="2.648779">
      <ele>97.872</ele>
      <time>2016-09-18T07:43:06Z</time>
    </trkpt>
    <trkpt lat="48.487769" lon="2.648894">
      <ele>97.924</ele>
      <time>2016-09-18T07:43:07Z</time>
    </trkpt>
    <trkpt lat="48.4877" lon="2.649055">
      <ele>97.925</ele>
      <time>2016-09-18T07:43:09Z</time>
    </trkpt>
    <trkpt lat="48.487633" lon="2.649171">
      <ele>97.966</ele>
      <time>2016-09-18T07:43:11Z</time>
    </trkpt>
    <trkpt lat="48.487555" lon="2.64934">
      <ele>97.896</ele>
      <time>2016-09-18T07:43:14Z</time>
    </trkpt>
    <trkpt lat="48.487474" lon="2.649445">
      <ele>97.908</ele>
      <time>2016-09-18T07:43:15Z</time>
    </trkpt>
    <trkpt lat="48.487415" lon="2.649593">
      <ele>98.229</ele>
      <time>2016-09-18T07:43:18Z</time>
    </trkpt>
    <trkpt lat="48.4873" lon="2.64972">
      <ele>98.272</ele>
      <time>2016-09-18T07:43:20Z</time>
    </trkpt>
    <trkpt lat="48.487243" lon="2.649843">
      <ele>98.477</ele>
      <time>2016-09-18T07:43:22Z</time>
    </trkpt>
    <trkpt lat="48.487178" lon="2.649979">
      <ele>98.618</ele>
      <time>2016-09-18T07:43:24Z</time>
    </trkpt>
    <trkpt lat="48.487163" lon="2.650128">
      <ele>98.574</ele>
      <time>2016-09-18T07:43:26Z</time>
    </trkpt>
    <trkpt lat="48.487061" lon="2.650287">
      <ele>97.839</ele>
      <time>2016-09-18T07:43:29Z</time>
    </trkpt>
    <trkpt lat="48.487012" lon="2.650407">
      <ele>97.486</ele>
      <time>2016-09-18T07:43:33Z</time>
    </trkpt>
    <trkpt lat="48.486932" lon="2.650535">
      <ele>96.952</ele>
      <time>2016-09-18T07:43:36Z</time>
    </trkpt>
    <trkpt lat="48.486842" lon="2.650693">
      <ele>97.308</ele>
      <time>2016-09-18T07:43:39Z</time>
    </trkpt>
    <trkpt lat="48.486765" lon="2.650828">
      <ele>97.968</ele>
      <time>2016-09-18T07:43:41Z</time>
    </trkpt>
    <trkpt lat="48.486706" lon="2.65095">
      <ele>98.479</ele>
      <time>2016-09-18T07:43:43Z</time>
    </trkpt>
    <trkpt lat="48.486638" lon="2.651124">
      <ele>98.943</ele>
      <time>2016-09-18T07:43:47Z</time>
    </trkpt>
    <trkpt lat="48.486585" lon="2.651296">
      <ele>99.372</ele>
      <time>2016-09-18T07:43:51Z</time>
    </trkpt>
    <trkpt lat="48.48652" lon="2.651426">
      <ele>99.606</ele>
      <time>2016-09-18T07:43:54Z</time>
    </trkpt>
    <trkpt lat="48.486441" lon="2.651608">
      <ele>99.976</ele>
      <time>2016-09-18T07:43:56Z</time>
    </trkpt>
    <trkpt lat="48.486368" lon="2.651741">
      <ele>99.945</ele>
      <time>2016-09-18T07:43:58Z</time>
    </trkpt>
    <trkpt lat="48.486251" lon="2.651944">
      <ele>99.999</ele>
      <time>2016-09-18T07:44:01Z</time>
    </trkpt>
    <trkpt lat="48.486177" lon="2.652055">
      <ele>100.398</ele>
      <time>2016-09-18T07:44:04Z</time>
    </trkpt>
    <trkpt lat="48.486106" lon="2.652201">
      <ele>100.888</ele>
      <time>2016-09-18T07:44:07Z</time>
    </trkpt>
    <trkpt lat="48.486045" lon="2.652353">
      <ele>100.995</ele>
      <time>2016-09-18T07:44:08Z</time>
    </trkpt>
    <trkpt lat="48.486033" lon="2.65252">
      <ele>101.51</ele>
      <time>2016-09-18T07:44:12Z</time>
    </trkpt>
    <trkpt lat="48.485954" lon="2.65262">
      <ele>101.301</ele>
      <time>2016-09-18T07:44:14Z</time>
    </trkpt>
    <trkpt lat="48.485869" lon="2.652765">
      <ele>101.211</ele>
      <time>2016-09-18T07:44:17Z</time>
    </trkpt>
    <trkpt lat="48.485787" lon="2.6529">
      <ele>101.473</ele>
      <time>2016-09-18T07:44:19Z</time>
    </trkpt>
    <trkpt lat="48.485656" lon="2.653106">
      <ele>101.201</ele>
      <time>2016-09-18T07:44:21Z</time>
    </trkpt>
    <trkpt lat="48.485624" lon="2.653236">
      <ele>101.229</ele>
      <time>2016-09-18T07:44:24Z</time>
    </trkpt>
    <trkpt lat="48.485568" lon="2.653345">
      <ele>101.13</ele>
      <time>2016-09-18T07:44:26Z</time>
    </trkpt>
    <trkpt lat="48.485459" lon="2.653531">
      <ele>101.464</ele>
      <time>2016-09-18T07:44:29Z</time>
    </trkpt>
    <trkpt lat="48.485423" lon="2.653738">
      <ele>101.523</ele>
      <time>2016-09-18T07:44:31Z</time>
    </trkpt>
    <trkpt lat="48.485373" lon="2.653903">
      <ele>101.343</ele>
      <time>2016-09-18T07:44:33Z</time>
    </trkpt>
    <trkpt lat="48.485341" lon="2.654056">
      <ele>101.228</ele>
      <time>2016-09-18T07:44:35Z</time>
    </trkpt>
    <trkpt lat="48.485355" lon="2.654292">
      <ele>101.153</ele>
      <time>2016-09-18T07:44:38Z</time>
    </trkpt>
    <trkpt lat="48.485351" lon="2.654452">
      <ele>101.0</ele>
      <time>2016-09-18T07:44:40Z</time>
    </trkpt>
    <trkpt lat="48.485333" lon="2.654598">
      <ele>101.0</ele>
      <time>2016-09-18T07:44:42Z</time>
    </trkpt>
    <trkpt lat="48.48532" lon="2.654768">
      <ele>101.0</ele>
      <time>2016-09-18T07:44:45Z</time>
    </trkpt>
    <trkpt lat="48.485268" lon="2.654897">
      <ele>101.0</ele>
      <time>2016-09-18T07:44:47Z</time>
    </trkpt>
    <trkpt lat="48.485267" lon="2.655049">
      <ele>101.176</ele>
      <time>2016-09-18T07:44:49Z</time>
    </trkpt>
    <trkpt lat="48.485254" lon="2.655252">
      <ele>101.907</ele>
      <time>2016-09-18T07:44:51Z</time>
    </trkpt>
    <trkpt lat="48.485234" lon="2.655505">
      <ele>102.689</ele>
      <time>2016-09-18T07:44:53Z</time>
    </trkpt>
    <trkpt lat="48.485235" lon="2.655705">
      <ele>102.929</ele>
      <time>2016-09-18T07:44:57Z</time>
    </trkpt>
    <trkpt lat="48.485222" lon="2.655901">
      <ele>102.951</ele>
      <time>2016-09-18T07:45:00Z</time>
    </trkpt>
    <trkpt lat="48.485178" lon="2.6561">
      <ele>102.655</ele>
      <time>2016-09-18T07:45:02Z</time>
    </trkpt>
    <trkpt lat="48.485136" lon="2.656283">
      <ele>102.174</ele>
      <time>2016-09-18T07:45:04Z</time>
    </trkpt>
    <trkpt lat="48.485095" lon="2.656465">
      <ele>101.684</ele>
      <time>2016-09-18T07:45:07Z</time>
    </trkpt>
    <trkpt lat="48.485037" lon="2.656629">
      <ele>101.266</ele>
      <time>2016-09-18T07:45:09Z</time>
    </trkpt>
    <trkpt lat="48.485013" lon="2.656837">
      <ele>101.094</ele>
      <time>2016-09-18T07:45:13Z</time>
    </trkpt>
    <trkpt lat="48.484967" lon="2.657055">
      <ele>100.881</ele>
      <time>2016-09-18T07:45:16Z</time>
    </trkpt>
    <trkpt lat="48.484938" lon="2.657222">
      <ele>100.777</ele>
      <time>2016-09-18T07:45:18Z</time>
    </trkpt>
    <trkpt lat="48.484926" lon="2.657396">
      <ele>100.275</ele>
      <time>2016-09-18T07:45:20Z</time>
    </trkpt>
    <trkpt lat="48.48492" lon="2.65758">
      <ele>99.712</ele>
      <time>2016-09-18T07:45:22Z</time>
    </trkpt>
    <trkpt lat="48.4849" lon="2.657725">
      <ele>99.19</ele>
      <time>2016-09-18T07:45:24Z</time>
    </trkpt>
    <trkpt lat="48.484899" lon="2.657903">
      <ele>99.0</ele>
      <time>2016-09-18T07:45:26Z</time>
    </trkpt>
    <trkpt lat="48.484869" lon="2.658076">
      <ele>99.004</ele>
      <time>2016-09-18T07:45:29Z</time>
    </trkpt>
    <trkpt lat="48.484844" lon="2.658246">
      <ele>98.916</ele>
      <time>2016-09-18T07:45:32Z</time>
    </trkpt>
    <trkpt lat="48.484824" lon="2.658439">
      <ele>98.974</ele>
      <time>2016-09-18T07:45:34Z</time>
    </trkpt>
    <trkpt lat="48.484784" lon="2.658579">
      <ele>99.133</ele>
      <time>2016-09-18T07:45:36Z</time>
    </trkpt>
    <trkpt lat="48.484763" lon="2.658728">
      <ele>99.147</ele>
      <time>2016-09-18T07:45:38Z</time>
    </trkpt>
    <trkpt lat="48.484711" lon="2.658927">
      <ele>99.097</ele>
      <time>2016-09-18T07:45:40Z</time>
    </trkpt>
    <trkpt lat="48.484724" lon="2.659139">
      <ele>99.907</ele>
      <time>2016-09-18T07:45:43Z</time>
    </trkpt>
    <trkpt lat="48.484724" lon="2.659285">
      <ele>100.43</ele>
      <time>2016-09-18T07:45:47Z</time>
    </trkpt>
    <trkpt lat="48.484692" lon="2.659436">
      <ele>100.755</ele>
      <time>2016-09-18T07:45:48Z</time>
    </trkpt>
    <trkpt lat="48.484616" lon="2.659559">
      <ele>100.393</ele>
      <time>2016-09-18T07:45:50Z</time>
    </trkpt>
    <trkpt lat="48.4846" lon="2.659717">
      <ele>100.552</ele>
      <time>2016-09-18T07:45:52Z</time>
    </trkpt>
    <trkpt lat="48.484556" lon="2.65993">
      <ele>101.597</ele>
      <time>2016-09-18T07:45:54Z</time>
    </trkpt>
    <trkpt lat="48.484541" lon="2.6601">
      <ele>102.36</ele>
      <time>2016-09-18T07:45:57Z</time>
    </trkpt>
    <trkpt lat="48.484539" lon="2.660243">
      <ele>102.875</ele>
      <time>2016-09-18T07:46:00Z</time>
    </trkpt>
    <trkpt lat="48.484492" lon="2.660401">
      <ele>103.368</ele>
      <time>2016-09-18T07:46:02Z</time>
    </trkpt>
    <trkpt lat="48.484469" lon="2.660553">
      <ele>103.903</ele>
      <time>2016-09-18T07:46:04Z</time>
    </trkpt>
    <trkpt lat="48.484418" lon="2.660718">
      <ele>104.585</ele>
      <time>2016-09-18T07:46:07Z</time>
    </trkpt>
    <trkpt lat="48.484372" lon="2.660877">
      <ele>105.041</ele>
      <time>2016-09-18T07:46:09Z</time>
    </trkpt>
    <trkpt lat="48.484343" lon="2.661024">
      <ele>105.251</ele>
      <time>2016-09-18T07:46:11Z</time>
    </trkpt>
    <trkpt lat="48.484292" lon="2.661145">
      <ele>105.671</ele>
      <time>2016-09-18T07:46:13Z</time>
    </trkpt>
    <trkpt lat="48.484275" lon="2.661326">
      <ele>106.384</ele>
      <time>2016-09-18T07:46:16Z</time>
    </trkpt>
    <trkpt lat="48.48425" lon="2.661482">
      <ele>107.035</ele>
      <time>2016-09-18T07:46:22Z</time>
    </trkpt>
    <trkpt lat="48.484253" lon="2.661662">
      <ele>107.672</ele>
      <time>2016-09-18T07:46:27Z</time>
    </trkpt>
    <trkpt lat="48.484205" lon="2.661829">
      <ele>108.366</ele>
      <time>2016-09-18T07:46:30Z</time>
    </trkpt>
    <trkpt lat="48.484168" lon="2.661959">
      <ele>109.043</ele>
      <time>2016-09-18T07:46:34Z</time>
    </trkpt>
    <trkpt lat="48.484116" lon="2.662124">
      <ele>109.7</ele>
      <time>2016-09-18T07:46:38Z</time>
    </trkpt>
    <trkpt lat="48.484047" lon="2.662291">
      <ele>110.785</ele>
      <time>2016-09-18T07:46:43Z</time>
    </trkpt>
    <trkpt lat="48.483982" lon="2.662393">
      <ele>111.688</ele>
      <time>2016-09-18T07:46:44Z</time>
    </trkpt>
    <trkpt lat="48.48398" lon="2.662551">
      <ele>112.528</ele>
      <time>2016-09-18T07:46:53Z</time>
    </trkpt>
    <trkpt lat="48.483955" lon="2.662693">
      <ele>113.219</ele>
      <time>2016-09-18T07:46:58Z</time>
    </trkpt>
    <trkpt lat="48.483905" lon="2.662843">
      <ele>114.119</ele>
      <time>2016-09-18T07:47:06Z</time>
    </trkpt>
    <trkpt lat="48.483925" lon="2.662989">
      <ele>114.5</ele>
      <time>2016-09-18T07:47:13Z</time>
    </trkpt>
    <trkpt lat="48.483856" lon="2.663105">
      <ele>115.415</ele>
      <time>2016-09-18T07:47:17Z</time>
    </trkpt>
    <trkpt lat="48.483825" lon="2.663259">
      <ele>116.192</ele>
      <time>2016-09-18T07:47:21Z</time>
    </trkpt>
    <trkpt lat="48.483797" lon="2.663422">
      <ele>116.448</ele>
      <time>2016-09-18T07:47:24Z</time>
    </trkpt>
    <trkpt lat="48.483795" lon="2.663558">
      <ele>116.141</ele>
      <time>2016-09-18T07:47:27Z</time>
    </trkpt>
    <trkpt lat="48.483747" lon="2.663702">
      <ele>116.038</ele>
      <time>2016-09-18T07:47:29Z</time>
    </trkpt>
    <trkpt lat="48.48374" lon="2.663851">
      <ele>115.282</ele>
      <time>2016-09-18T07:47:31Z</time>
    </trkpt>
    <trkpt lat="48.483705" lon="2.663997">
      <ele>114.546</ele>
      <time>2016-09-18T07:47:33Z</time>
    </trkpt>
    <trkpt lat="48.483683" lon="2.664152">
      <ele>113.588</ele>
      <time>2016-09-18T07:47:36Z</time>
    </trkpt>
    <trkpt lat="48.48363" lon="2.664297">
      <ele>112.958</ele>
      <time>2016-09-18T07:47:38Z</time>
    </trkpt>
    <trkpt lat="48.483605" lon="2.664472">
      <ele>111.826</ele>
      <time>2016-09-18T07:47:40Z</time>
    </trkpt>
    <trkpt lat="48.48359" lon="2.664679">
      <ele>110.451</ele>
      <time>2016-09-18T07:47:43Z</time>
    </trkpt>
    <trkpt lat="48.483557" lon="2.664836">
      <ele>109.98</ele>
      <time>2016-09-18T07:47:45Z</time>
    </trkpt>
    <trkpt lat="48.483525" lon="2.664966">
      <ele>109.742</ele>
      <time>2016-09-18T07:47:48Z</time>
    </trkpt>
    <trkpt lat="48.483418" lon="2.665066">
      <ele>110.08</ele>
      <time>2016-09-18T07:47:49Z</time>
    </trkpt>
    <trkpt lat="48.48332" lon="2.665153">
      <ele>110.62</ele>
      <time>2016-09-18T07:47:50Z</time>
    </trkpt>
    <trkpt lat="48.483291" lon="2.664998">
      <ele>111.463</ele>
      <time>2016-09-18T07:47:53Z</time>
    </trkpt>
    <trkpt lat="48.483179" lon="2.664987">
      <ele>112.688</ele>
      <time>2016-09-18T07:47:56Z</time>
    </trkpt>
    <trkpt lat="48.483085" lon="2.665015">
      <ele>113.676</ele>
      <time>2016-09-18T07:47:59Z</time>
    </trkpt>
    <trkpt lat="48.482997" lon="2.664984">
      <ele>113.988</ele>
      <time>2016-09-18T07:48:01Z</time>
    </trkpt>
    <trkpt lat="48.48291" lon="2.664906">
      <ele>113.823</ele>
      <time>2016-09-18T07:48:05Z</time>
    </trkpt>
    <trkpt lat="48.482859" lon="2.664738">
      <ele>113.333</ele>
      <time>2016-09-18T07:48:09Z</time>
    </trkpt>
    <trkpt lat="48.482835" lon="2.664605">
      <ele>113.206</ele>
      <time>2016-09-18T07:48:12Z</time>
    </trkpt>
    <trkpt lat="48.482817" lon="2.664416">
      <ele>113.141</ele>
      <time>2016-09-18T07:48:15Z</time>
    </trkpt>
    <trkpt lat="48.48274" lon="2.664297">
      <ele>112.728</ele>
      <time>2016-09-18T07:48:18Z</time>
    </trkpt>
    <trkpt lat="48.482675" lon="2.664129">
      <ele>112.21</ele>
      <time>2016-09-18T07:48:20Z</time>
    </trkpt>
    <trkpt lat="48.482617" lon="2.663944">
      <ele>111.378</ele>
      <time>2016-09-18T07:48:22Z</time>
    </trkpt>
    <trkpt lat="48.482549" lon="2.663754">
      <ele>110.129</ele>
      <time>2016-09-18T07:48:24Z</time>
    </trkpt>
    <trkpt lat="48.48254" lon="2.663563">
      <ele>109.255</ele>
      <time>2016-09-18T07:48:26Z</time>
    </trkpt>
    <trkpt lat="48.482453" lon="2.663354">
      <ele>106.472</ele>
      <time>2016-09-18T07:48:28Z</time>
    </trkpt>
    <trkpt lat="48.482382" lon="2.663103">
      <ele>104.472</ele>
      <time>2016-09-18T07:48:30Z</time>
    </trkpt>
    <trkpt lat="48.482306" lon="2.66291">
      <ele>103.048</ele>
      <time>2016-09-18T07:48:33Z</time>
    </trkpt>
    <trkpt lat="48.482253" lon="2.662716">
      <ele>102.332</ele>
      <time>2016-09-18T07:48:35Z</time>
    </trkpt>
    <trkpt lat="48.482231" lon="2.662577">
      <ele>102.095</ele>
      <time>2016-09-18T07:48:36Z</time>
    </trkpt>
    <trkpt lat="48.482211" lon="2.662387">
      <ele>102.366</ele>
      <time>2016-09-18T07:48:38Z</time>
    </trkpt>
    <trkpt lat="48.482221" lon="2.662242">
      <ele>102.924</ele>
      <time>2016-09-18T07:48:39Z</time>
    </trkpt>
    <trkpt lat="48.482138" lon="2.662048">
      <ele>102.697</ele>
      <time>2016-09-18T07:48:41Z</time>
    </trkpt>
    <trkpt lat="48.482053" lon="2.661833">
      <ele>102.146</ele>
      <time>2016-09-18T07:48:43Z</time>
    </trkpt>
    <trkpt lat="48.481986" lon="2.661635">
      <ele>101.185</ele>
      <time>2016-09-18T07:48:45Z</time>
    </trkpt>
    <trkpt lat="48.481981" lon="2.661499">
      <ele>100.66</ele>
      <time>2016-09-18T07:48:46Z</time>
    </trkpt>
    <trkpt lat="48.481951" lon="2.661279">
      <ele>99.652</ele>
      <time>2016-09-18T07:48:48Z</time>
    </trkpt>
    <trkpt lat="48.481904" lon="2.661087">
      <ele>98.402</ele>
      <time>2016-09-18T07:48:50Z</time>
    </trkpt>
    <trkpt lat="48.481817" lon="2.660869">
      <ele>96.28</ele>
      <time>2016-09-18T07:48:52Z</time>
    </trkpt>
    <trkpt lat="48.481734" lon="2.660633">
      <ele>95.485</ele>
      <time>2016-09-18T07:48:54Z</time>
    </trkpt>
    <trkpt lat="48.481643" lon="2.660402">
      <ele>94.494</ele>
      <time>2016-09-18T07:48:57Z</time>
    </trkpt>
    <trkpt lat="48.481601" lon="2.660252">
      <ele>94.214</ele>
      <time>2016-09-18T07:48:58Z</time>
    </trkpt>
    <trkpt lat="48.481504" lon="2.660039">
      <ele>94.082</ele>
      <time>2016-09-18T07:49:00Z</time>
    </trkpt>
    <trkpt lat="48.481444" lon="2.659854">
      <ele>93.579</ele>
      <time>2016-09-18T07:49:01Z</time>
    </trkpt>
    <trkpt lat="48.481382" lon="2.65975">
      <ele>93.1</ele>
      <time>2016-09-18T07:49:03Z</time>
    </trkpt>
    <trkpt lat="48.481294" lon="2.659572">
      <ele>92.631</ele>
      <time>2016-09-18T07:49:05Z</time>
    </trkpt>
    <trkpt lat="48.481296" lon="2.65939">
      <ele>92.397</ele>
      <time>2016-09-18T07:49:07Z</time>
    </trkpt>
    <trkpt lat="48.481236" lon="2.659227">
      <ele>92.33</ele>
      <time>2016-09-18T07:49:09Z</time>
    </trkpt>
    <trkpt lat="48.481182" lon="2.659041">
      <ele>92.592</ele>
      <time>2016-09-18T07:49:11Z</time>
    </trkpt>
    <trkpt lat="48.481167" lon="2.658864">
      <ele>93.018</ele>
      <time>2016-09-18T07:49:13Z</time>
    </trkpt>
    <trkpt lat="48.481128" lon="2.658705">
      <ele>93.04</ele>
      <time>2016-09-18T07:49:15Z</time>
    </trkpt>
    <trkpt lat="48.481077" lon="2.658557">
      <ele>93.171</ele>
      <time>2016-09-18T07:49:17Z</time>
    </trkpt>
    <trkpt lat="48.480998" lon="2.658401">
      <ele>93.448</ele>
      <time>2016-09-18T07:49:19Z</time>
    </trkpt>
    <trkpt lat="48.480901" lon="2.658286">
      <ele>93.414</ele>
      <time>2016-09-18T07:49:21Z</time>
    </trkpt>
    <trkpt lat="48.480855" lon="2.658139">
      <ele>93.778</ele>
      <time>2016-09-18T07:49:23Z</time>
    </trkpt>
    <trkpt lat="48.480828" lon="2.657972">
      <ele>94.0</ele>
      <time>2016-09-18T07:49:25Z</time>
    </trkpt>
    <trkpt lat="48.480814" lon="2.657786">
      <ele>94.0</ele>
      <time>2016-09-18T07:49:27Z</time>
    </trkpt>
    <trkpt lat="48.480755" lon="2.657607">
      <ele>94.0</ele>
      <time>2016-09-18T07:49:29Z</time>
    </trkpt>
    <trkpt lat="48.480757" lon="2.657439">
      <ele>93.78</ele>
      <time>2016-09-18T07:49:31Z</time>
    </trkpt>
    <trkpt lat="48.480729" lon="2.657296">
      <ele>93.266</ele>
      <time>2016-09-18T07:49:33Z</time>
    </trkpt>
    <trkpt lat="48.480668" lon="2.657131">
      <ele>92.476</ele>
      <time>2016-09-18T07:49:35Z</time>
    </trkpt>
    <trkpt lat="48.48062" lon="2.656995">
      <ele>91.554</ele>
      <time>2016-09-18T07:49:37Z</time>
    </trkpt>
    <trkpt lat="48.480542" lon="2.656863">
      <ele>90.756</ele>
      <time>2016-09-18T07:49:39Z</time>
    </trkpt>
    <trkpt lat="48.48048" lon="2.65667">
      <ele>90.284</ele>
      <time>2016-09-18T07:49:41Z</time>
    </trkpt>
    <trkpt lat="48.480417" lon="2.656462">
      <ele>90.131</ele>
      <time>2016-09-18T07:49:44Z</time>
    </trkpt>
    <trkpt lat="48.480358" lon="2.656287">
      <ele>90.0</ele>
      <time>2016-09-18T07:49:47Z</time>
    </trkpt>
    <trkpt lat="48.480283" lon="2.656128">
      <ele>90.0</ele>
      <time>2016-09-18T07:49:50Z</time>
    </trkpt>
    <trkpt lat="48.480216" lon="2.656005">
      <ele>90.0</ele>
      <time>2016-09-18T07:49:53Z</time>
    </trkpt>
    <trkpt lat="48.480156" lon="2.655888">
      <ele>90.0</ele>
      <time>2016-09-18T07:49:55Z</time>
    </trkpt>
    <trkpt lat="48.480104" lon="2.655701">
      <ele>90.298</ele>
      <time>2016-09-18T07:49:58Z</time>
    </trkpt>
    <trkpt lat="48.4801" lon="2.655563">
      <ele>90.623</ele>
      <time>2016-09-18T07:50:00Z</time>
    </trkpt>
    <trkpt lat="48.480068" lon="2.655392">
      <ele>90.755</ele>
      <time>2016-09-18T07:50:03Z</time>
    </trkpt>
    <trkpt lat="48.48002" lon="2.655201">
      <ele>90.948</ele>
      <time>2016-09-18T07:50:06Z</time>
    </trkpt>
    <trkpt lat="48.479955" lon="2.655103">
      <ele>90.94</ele>
      <time>2016-09-18T07:50:08Z</time>
    </trkpt>
    <trkpt lat="48.4799" lon="2.654949">
      <ele>91.066</ele>
      <time>2016-09-18T07:50:11Z</time>
    </trkpt>
    <trkpt lat="48.479833" lon="2.654804">
      <ele>91.424</ele>
      <time>2016-09-18T07:50:14Z</time>
    </trkpt>
    <trkpt lat="48.479754" lon="2.654645">
      <ele>92.132</ele>
      <time>2016-09-18T07:50:17Z</time>
    </trkpt>
    <trkpt lat="48.479694" lon="2.654533">
      <ele>92.644</ele>
      <time>2016-09-18T07:50:20Z</time>
    </trkpt>
    <trkpt lat="48.479651" lon="2.654379">
      <ele>92.568</ele>
      <time>2016-09-18T07:50:23Z</time>
    </trkpt>
    <trkpt lat="48.479613" lon="2.654232">
      <ele>92.143</ele>
      <time>2016-09-18T07:50:26Z</time>
    </trkpt>
    <trkpt lat="48.479582" lon="2.654067">
      <ele>91.822</ele>
      <time>2016-09-18T07:50:29Z</time>
    </trkpt>
    <trkpt lat="48.479555" lon="2.653921">
      <ele>91.648</ele>
      <time>2016-09-18T07:50:31Z</time>
    </trkpt>
    <trkpt lat="48.479485" lon="2.653775">
      <ele>91.444</ele>
      <time>2016-09-18T07:50:34Z</time>
    </trkpt>
    <trkpt lat="48.479425" lon="2.653664">
      <ele>91.247</ele>
      <time>2016-09-18T07:50:36Z</time>
    </trkpt>
    <trkpt lat="48.47942" lon="2.653488">
      <ele>90.645</ele>
      <time>2016-09-18T07:50:39Z</time>
    </trkpt>
    <trkpt lat="48.479366" lon="2.653377">
      <ele>90.44</ele>
      <time>2016-09-18T07:50:42Z</time>
    </trkpt>
    <trkpt lat="48.479296" lon="2.653258">
      <ele>90.408</ele>
      <time>2016-09-18T07:50:45Z</time>
    </trkpt>
    <trkpt lat="48.479256" lon="2.653109">
      <ele>90.419</ele>
      <time>2016-09-18T07:50:48Z</time>
    </trkpt>
    <trkpt lat="48.479197" lon="2.652971">
      <ele>90.544</ele>
      <time>2016-09-18T07:50:50Z</time>
    </trkpt>
    <trkpt lat="48.479124" lon="2.652849">
      <ele>90.296</ele>
      <time>2016-09-18T07:50:52Z</time>
    </trkpt>
    <trkpt lat="48.47904" lon="2.652725">
      <ele>89.913</ele>
      <time>2016-09-18T07:50:54Z</time>
    </trkpt>
    <trkpt lat="48.478952" lon="2.652627">
      <ele>89.581</ele>
      <time>2016-09-18T07:50:57Z</time>
    </trkpt>
    <trkpt lat="48.478853" lon="2.652551">
      <ele>89.313</ele>
      <time>2016-09-18T07:51:00Z</time>
    </trkpt>
    <trkpt lat="48.478761" lon="2.652552">
      <ele>89.648</ele>
      <time>2016-09-18T07:51:02Z</time>
    </trkpt>
    <trkpt lat="48.478654" lon="2.652503">
      <ele>89.856</ele>
      <time>2016-09-18T07:51:05Z</time>
    </trkpt>
    <trkpt lat="48.478468" lon="2.652612">
      <ele>90.611</ele>
      <time>2016-09-18T07:51:07Z</time>
    </trkpt>
    <trkpt lat="48.478352" lon="2.652722">
      <ele>91.545</ele>
      <time>2016-09-18T07:51:09Z</time>
    </trkpt>
    <trkpt lat="48.478231" lon="2.652808">
      <ele>92.546</ele>
      <time>2016-09-18T07:51:13Z</time>
    </trkpt>
    <trkpt lat="48.478097" lon="2.65294">
      <ele>93.522</ele>
      <time>2016-09-18T07:51:15Z</time>
    </trkpt>
    <trkpt lat="48.47799" lon="2.653032">
      <ele>93.915</ele>
      <time>2016-09-18T07:51:16Z</time>
    </trkpt>
    <trkpt lat="48.47789" lon="2.653089">
      <ele>94.0</ele>
      <time>2016-09-18T07:51:18Z</time>
    </trkpt>
    <trkpt lat="48.477727" lon="2.653244">
      <ele>93.941</ele>
      <time>2016-09-18T07:51:22Z</time>
    </trkpt>
    <trkpt lat="48.477617" lon="2.653307">
      <ele>93.945</ele>
      <time>2016-09-18T07:51:24Z</time>
    </trkpt>
    <trkpt lat="48.477534" lon="2.653402">
      <ele>94.0</ele>
      <time>2016-09-18T07:51:25Z</time>
    </trkpt>
    <trkpt lat="48.477406" lon="2.65354">
      <ele>93.575</ele>
      <time>2016-09-18T07:51:27Z</time>
    </trkpt>
    <trkpt lat="48.477288" lon="2.653623">
      <ele>93.227</ele>
      <time>2016-09-18T07:51:31Z</time>
    </trkpt>
    <trkpt lat="48.477187" lon="2.653715">
      <ele>92.746</ele>
      <time>2016-09-18T07:51:33Z</time>
    </trkpt>
    <trkpt lat="48.477089" lon="2.653792">
      <ele>92.041</ele>
      <time>2016-09-18T07:51:36Z</time>
    </trkpt>
    <trkpt lat="48.476955" lon="2.653906">
      <ele>91.133</ele>
      <time>2016-09-18T07:51:39Z</time>
    </trkpt>
    <trkpt lat="48.476823" lon="2.654011">
      <ele>91.002</ele>
      <time>2016-09-18T07:51:42Z</time>
    </trkpt>
    <trkpt lat="48.476711" lon="2.654122">
      <ele>90.999</ele>
      <time>2016-09-18T07:51:44Z</time>
    </trkpt>
    <trkpt lat="48.476609" lon="2.654225">
      <ele>91.21</ele>
      <time>2016-09-18T07:51:46Z</time>
    </trkpt>
    <trkpt lat="48.476494" lon="2.654283">
      <ele>91.419</ele>
      <time>2016-09-18T07:51:48Z</time>
    </trkpt>
    <trkpt lat="48.476407" lon="2.654388">
      <ele>91.797</ele>
      <time>2016-09-18T07:51:51Z</time>
    </trkpt>
    <trkpt lat="48.476333" lon="2.654478">
      <ele>91.799</ele>
      <time>2016-09-18T07:51:53Z</time>
    </trkpt>
    <trkpt lat="48.476247" lon="2.654532">
      <ele>91.489</ele>
      <time>2016-09-18T07:51:55Z</time>
    </trkpt>
    <trkpt lat="48.476138" lon="2.654631">
      <ele>91.097</ele>
      <time>2016-09-18T07:51:57Z</time>
    </trkpt>
    <trkpt lat="48.476049" lon="2.654703">
      <ele>90.985</ele>
      <time>2016-09-18T07:52:00Z</time>
    </trkpt>
    <trkpt lat="48.475975" lon="2.654793">
      <ele>91.125</ele>
      <time>2016-09-18T07:52:02Z</time>
    </trkpt>
    <trkpt lat="48.475848" lon="2.654867">
      <ele>91.494</ele>
      <time>2016-09-18T07:52:06Z</time>
    </trkpt>
    <trkpt lat="48.475756" lon="2.654961">
      <ele>91.542</ele>
      <time>2016-09-18T07:52:08Z</time>
    </trkpt>
    <trkpt lat="48.475646" lon="2.655005">
      <ele>91.35</ele>
      <time>2016-09-18T07:52:11Z</time>
    </trkpt>
    <trkpt lat="48.475562" lon="2.655086">
      <ele>91.628</ele>
      <time>2016-09-18T07:52:14Z</time>
    </trkpt>
    <trkpt lat="48.475463" lon="2.655146">
      <ele>91.543</ele>
      <time>2016-09-18T07:52:16Z</time>
    </trkpt>
    <trkpt lat="48.475312" lon="2.655238">
      <ele>91.086</ele>
      <time>2016-09-18T07:52:19Z</time>
    </trkpt>
    <trkpt lat="48.475237" lon="2.655349">
      <ele>91.072</ele>
      <time>2016-09-18T07:52:21Z</time>
    </trkpt>
    <trkpt lat="48.475153" lon="2.655418">
      <ele>90.829</ele>
      <time>2016-09-18T07:52:22Z</time>
    </trkpt>
    <trkpt lat="48.475083" lon="2.655509">
      <ele>90.548</ele>
      <time>2016-09-18T07:52:26Z</time>
    </trkpt>
    <trkpt lat="48.474978" lon="2.655586">
      <ele>90.0</ele>
      <time>2016-09-18T07:52:29Z</time>
    </trkpt>
    <trkpt lat="48.474891" lon="2.655668">
      <ele>90.0</ele>
      <time>2016-09-18T07:52:31Z</time>
    </trkpt>
    <trkpt lat="48.47482" lon="2.655767">
      <ele>90.0</ele>
      <time>2016-09-18T07:52:33Z</time>
    </trkpt>
    <trkpt lat="48.474711" lon="2.655812">
      <ele>90.04</ele>
      <time>2016-09-18T07:52:35Z</time>
    </trkpt>
    <trkpt lat="48.474591" lon="2.6559">
      <ele>90.599</ele>
      <time>2016-09-18T07:52:37Z</time>
    </trkpt>
    <trkpt lat="48.474399" lon="2.656075">
      <ele>91.0</ele>
      <time>2016-09-18T07:52:40Z</time>
    </trkpt>
    <trkpt lat="48.474276" lon="2.656219">
      <ele>90.764</ele>
      <time>2016-09-18T07:52:42Z</time>
    </trkpt>
    <trkpt lat="48.474165" lon="2.656311">
      <ele>90.267</ele>
      <time>2016-09-18T07:52:45Z</time>
    </trkpt>
    <trkpt lat="48.474053" lon="2.656449">
      <ele>89.182</ele>
      <time>2016-09-18T07:52:46Z</time>
    </trkpt>
    <trkpt lat="48.473973" lon="2.656547">
      <ele>88.606</ele>
      <time>2016-09-18T07:52:50Z</time>
    </trkpt>
    <trkpt lat="48.473858" lon="2.656552">
      <ele>87.666</ele>
      <time>2016-09-18T07:52:53Z</time>
    </trkpt>
    <trkpt lat="48.47378" lon="2.656621">
      <ele>86.824</ele>
      <time>2016-09-18T07:52:54Z</time>
    </trkpt>
    <trkpt lat="48.473642" lon="2.656692">
      <ele>85.415</ele>
      <time>2016-09-18T07:52:57Z</time>
    </trkpt>
    <trkpt lat="48.473567" lon="2.656804">
      <ele>85.177</ele>
      <time>2016-09-18T07:52:59Z</time>
    </trkpt>
    <trkpt lat="48.473482" lon="2.656874">
      <ele>84.817</ele>
      <time>2016-09-18T07:53:02Z</time>
    </trkpt>
    <trkpt lat="48.473392" lon="2.656964">
      <ele>84.422</ele>
      <time>2016-09-18T07:53:04Z</time>
    </trkpt>
    <trkpt lat="48.473306" lon="2.657025">
      <ele>83.902</ele>
      <time>2016-09-18T07:53:08Z</time>
    </trkpt>
    <trkpt lat="48.473191" lon="2.657076">
      <ele>83.488</ele>
      <time>2016-09-18T07:53:10Z</time>
    </trkpt>
    <trkpt lat="48.473071" lon="2.657176">
      <ele>83.056</ele>
      <time>2016-09-18T07:53:13Z</time>
    </trkpt>
    <trkpt lat="48.472937" lon="2.657303">
      <ele>83.167</ele>
      <time>2016-09-18T07:53:15Z</time>
    </trkpt>
    <trkpt lat="48.472841" lon="2.657374">
      <ele>83.124</ele>
      <time>2016-09-18T07:53:17Z</time>
    </trkpt>
    <trkpt lat="48.472738" lon="2.657474">
      <ele>83.0</ele>
      <time>2016-09-18T07:53:20Z</time>
    </trkpt>
    <trkpt lat="48.472645" lon="2.657546">
      <ele>83.166</ele>
      <time>2016-09-18T07:53:22Z</time>
    </trkpt>
    <trkpt lat="48.472539" lon="2.657619">
      <ele>83.428</ele>
      <time>2016-09-18T07:53:24Z</time>
    </trkpt>
    <trkpt lat="48.472434" lon="2.657712">
      <ele>83.763</ele>
      <time>2016-09-18T07:53:26Z</time>
    </trkpt>
    <trkpt lat="48.472359" lon="2.657809">
      <ele>84.0</ele>
      <time>2016-09-18T07:53:28Z</time>
    </trkpt>
    <trkpt lat="48.472244" lon="2.657904">
      <ele>84.0</ele>
      <time>2016-09-18T07:53:32Z</time>
    </trkpt>
    <trkpt lat="48.472152" lon="2.657968">
      <ele>83.747</ele>
      <time>2016-09-18T07:53:34Z</time>
    </trkpt>
    <trkpt lat="48.472024" lon="2.65805">
      <ele>83.286</ele>
      <time>2016-09-18T07:53:38Z</time>
    </trkpt>
    <trkpt lat="48.471952" lon="2.65814">
      <ele>83.027</ele>
      <time>2016-09-18T07:53:40Z</time>
    </trkpt>
    <trkpt lat="48.471842" lon="2.658202">
      <ele>82.437</ele>
      <time>2016-09-18T07:53:42Z</time>
    </trkpt>
    <trkpt lat="48.471727" lon="2.658316">
      <ele>81.483</ele>
      <time>2016-09-18T07:53:44Z</time>
    </trkpt>
    <trkpt lat="48.471645" lon="2.658374">
      <ele>81.011</ele>
      <time>2016-09-18T07:53:46Z</time>
    </trkpt>
    <trkpt lat="48.471559" lon="2.658441">
      <ele>81.15</ele>
      <time>2016-09-18T07:53:48Z</time>
    </trkpt>
    <trkpt lat="48.471476" lon="2.658504">
      <ele>81.422</ele>
      <time>2016-09-18T07:53:50Z</time>
    </trkpt>
    <trkpt lat="48.471329" lon="2.658579">
      <ele>82.075</ele>
      <time>2016-09-18T07:53:53Z</time>
    </trkpt>
    <trkpt lat="48.47123" lon="2.658615">
      <ele>82.602</ele>
      <time>2016-09-18T07:53:55Z</time>
    </trkpt>
    <trkpt lat="48.47113" lon="2.658643">
      <ele>83.261</ele>
      <time>2016-09-18T07:53:57Z</time>
    </trkpt>
    <trkpt lat="48.470988" lon="2.658645">
      <ele>84.696</ele>
      <time>2016-09-18T07:53:59Z</time>
    </trkpt>
    <trkpt lat="48.470856" lon="2.658615">
      <ele>85.797</ele>
      <time>2016-09-18T07:54:01Z</time>
    </trkpt>
    <trkpt lat="48.470766" lon="2.658646">
      <ele>87.074</ele>
      <time>2016-09-18T07:54:03Z</time>
    </trkpt>
    <trkpt lat="48.470629" lon="2.65865">
      <ele>88.524</ele>
      <time>2016-09-18T07:54:06Z</time>
    </trkpt>
    <trkpt lat="48.470536" lon="2.658668">
      <ele>89.522</ele>
      <time>2016-09-18T07:54:08Z</time>
    </trkpt>
    <trkpt lat="48.470416" lon="2.658673">
      <ele>90.227</ele>
      <time>2016-09-18T07:54:11Z</time>
    </trkpt>
    <trkpt lat="48.470293" lon="2.658682">
      <ele>90.918</ele>
      <time>2016-09-18T07:54:14Z</time>
    </trkpt>
    <trkpt lat="48.470153" lon="2.658685">
      <ele>90.67</ele>
      <time>2016-09-18T07:54:17Z</time>
    </trkpt>
    <trkpt lat="48.47002" lon="2.658671">
      <ele>90.272</ele>
      <time>2016-09-18T07:54:19Z</time>
    </trkpt>
    <trkpt lat="48.469908" lon="2.658647">
      <ele>89.798</ele>
      <time>2016-09-18T07:54:21Z</time>
    </trkpt>
    <trkpt lat="48.469775" lon="2.658583">
      <ele>89.19</ele>
      <time>2016-09-18T07:54:23Z</time>
    </trkpt>
    <trkpt lat="48.469667" lon="2.658554">
      <ele>89.398</ele>
      <time>2016-09-18T07:54:25Z</time>
    </trkpt>
    <trkpt lat="48.469563" lon="2.658556">
      <ele>90.146</ele>
      <time>2016-09-18T07:54:27Z</time>
    </trkpt>
    <trkpt lat="48.469447" lon="2.658476">
      <ele>90.982</ele>
      <time>2016-09-18T07:54:29Z</time>
    </trkpt>
    <trkpt lat="48.469313" lon="2.658483">
      <ele>92.165</ele>
      <time>2016-09-18T07:54:32Z</time>
    </trkpt>
    <trkpt lat="48.469197" lon="2.658479">
      <ele>93.205</ele>
      <time>2016-09-18T07:54:36Z</time>
    </trkpt>
    <trkpt lat="48.469081" lon="2.658467">
      <ele>93.827</ele>
      <time>2016-09-18T07:54:39Z</time>
    </trkpt>
    <trkpt lat="48.468969" lon="2.65849">
      <ele>94.148</ele>
      <time>2016-09-18T07:54:41Z</time>
    </trkpt>
    <trkpt lat="48.468871" lon="2.658475">
      <ele>94.491</ele>
      <time>2016-09-18T07:54:43Z</time>
    </trkpt>
    <trkpt lat="48.468753" lon="2.658464">
      <ele>94.501</ele>
      <time>2016-09-18T07:54:46Z</time>
    </trkpt>
    <trkpt lat="48.468635" lon="2.658518">
      <ele>94.636</ele>
      <time>2016-09-18T07:54:48Z</time>
    </trkpt>
    <trkpt lat="48.468506" lon="2.658466">
      <ele>94.297</ele>
      <time>2016-09-18T07:54:51Z</time>
    </trkpt>
    <trkpt lat="48.468413" lon="2.658504">
      <ele>94.176</ele>
      <time>2016-09-18T07:54:53Z</time>
    </trkpt>
    <trkpt lat="48.468307" lon="2.6585">
      <ele>94.0</ele>
      <time>2016-09-18T07:54:55Z</time>
    </trkpt>
    <trkpt lat="48.468203" lon="2.658488">
      <ele>94.0</ele>
      <time>2016-09-18T07:54:57Z</time>
    </trkpt>
    <trkpt lat="48.468101" lon="2.658461">
      <ele>94.0</ele>
      <time>2016-09-18T07:54:59Z</time>
    </trkpt>
    <trkpt lat="48.467978" lon="2.658483">
      <ele>94.0</ele>
      <time>2016-09-18T07:55:01Z</time>
    </trkpt>
    <trkpt lat="48.467934" lon="2.658362">
      <ele>94.0</ele>
      <time>2016-09-18T07:55:03Z</time>
    </trkpt>
    <trkpt lat="48.467842" lon="2.658414">
      <ele>94.0</ele>
      <time>2016-09-18T07:55:05Z</time>
    </trkpt>
    <trkpt lat="48.467718" lon="2.658368">
      <ele>94.215</ele>
      <time>2016-09-18T07:55:08Z</time>
    </trkpt>
    <trkpt lat="48.467598" lon="2.658354">
      <ele>94.647</ele>
      <time>2016-09-18T07:55:10Z</time>
    </trkpt>
    <trkpt lat="48.467516" lon="2.658291">
      <ele>95.086</ele>
      <time>2016-09-18T07:55:12Z</time>
    </trkpt>
    <trkpt lat="48.467411" lon="2.658315">
      <ele>96.006</ele>
      <time>2016-09-18T07:55:14Z</time>
    </trkpt>
    <trkpt lat="48.467291" lon="2.658336">
      <ele>97.257</ele>
      <time>2016-09-18T07:55:16Z</time>
    </trkpt>
    <trkpt lat="48.46719" lon="2.658293">
      <ele>98.116</ele>
      <time>2016-09-18T07:55:19Z</time>
    </trkpt>
    <trkpt lat="48.467088" lon="2.658301">
      <ele>98.483</ele>
      <time>2016-09-18T07:55:21Z</time>
    </trkpt>
    <trkpt lat="48.466987" lon="2.658303">
      <ele>98.847</ele>
      <time>2016-09-18T07:55:23Z</time>
    </trkpt>
    <trkpt lat="48.466865" lon="2.658303">
      <ele>98.459</ele>
      <time>2016-09-18T07:55:26Z</time>
    </trkpt>
    <trkpt lat="48.46676" lon="2.658301">
      <ele>97.749</ele>
      <time>2016-09-18T07:55:28Z</time>
    </trkpt>
    <trkpt lat="48.466611" lon="2.658359">
      <ele>97.0</ele>
      <time>2016-09-18T07:55:31Z</time>
    </trkpt>
    <trkpt lat="48.466538" lon="2.658224">
      <ele>97.211</ele>
      <time>2016-09-18T07:55:33Z</time>
    </trkpt>
    <trkpt lat="48.466442" lon="2.658205">
      <ele>97.088</ele>
      <time>2016-09-18T07:55:35Z</time>
    </trkpt>
    <trkpt lat="48.466354" lon="2.65816">
      <ele>97.0</ele>
      <time>2016-09-18T07:55:37Z</time>
    </trkpt>
    <trkpt lat="48.466252" lon="2.658167">
      <ele>97.0</ele>
      <time>2016-09-18T07:55:40Z</time>
    </trkpt>
    <trkpt lat="48.46615" lon="2.658189">
      <ele>97.0</ele>
      <time>2016-09-18T07:55:43Z</time>
    </trkpt>
    <trkpt lat="48.466046" lon="2.658256">
      <ele>97.234</ele>
      <time>2016-09-18T07:55:47Z</time>
    </trkpt>
    <trkpt lat="48.465972" lon="2.658342">
      <ele>97.501</ele>
      <time>2016-09-18T07:55:49Z</time>
    </trkpt>
    <trkpt lat="48.465887" lon="2.658422">
      <ele>97.807</ele>
      <time>2016-09-18T07:55:51Z</time>
    </trkpt>
    <trkpt lat="48.465797" lon="2.658314">
      <ele>98.262</ele>
      <time>2016-09-18T07:55:53Z</time>
    </trkpt>
    <trkpt lat="48.465708" lon="2.658291">
      <ele>98.902</ele>
      <time>2016-09-18T07:55:55Z</time>
    </trkpt>
    <trkpt lat="48.465589" lon="2.658332">
      <ele>99.759</ele>
      <time>2016-09-18T07:55:57Z</time>
    </trkpt>
    <trkpt lat="48.465486" lon="2.658306">
      <ele>100.25</ele>
      <time>2016-09-18T07:56:00Z</time>
    </trkpt>
    <trkpt lat="48.465394" lon="2.658298">
      <ele>100.582</ele>
      <time>2016-09-18T07:56:02Z</time>
    </trkpt>
    <trkpt lat="48.465277" lon="2.658334">
      <ele>101.0</ele>
      <time>2016-09-18T07:56:04Z</time>
    </trkpt>
    <trkpt lat="48.465166" lon="2.658319">
      <ele>101.0</ele>
      <time>2016-09-18T07:56:07Z</time>
    </trkpt>
    <trkpt lat="48.465058" lon="2.658362">
      <ele>100.918</ele>
      <time>2016-09-18T07:56:09Z</time>
    </trkpt>
    <trkpt lat="48.464954" lon="2.658331">
      <ele>100.834</ele>
      <time>2016-09-18T07:56:13Z</time>
    </trkpt>
    <trkpt lat="48.46486" lon="2.658333">
      <ele>100.496</ele>
      <time>2016-09-18T07:56:15Z</time>
    </trkpt>
    <trkpt lat="48.464754" lon="2.658317">
      <ele>100.114</ele>
      <time>2016-09-18T07:56:17Z</time>
    </trkpt>
    <trkpt lat="48.464642" lon="2.658355">
      <ele>99.945</ele>
      <time>2016-09-18T07:56:20Z</time>
    </trkpt>
    <trkpt lat="48.464535" lon="2.658454">
      <ele>99.858</ele>
      <time>2016-09-18T07:56:23Z</time>
    </trkpt>
    <trkpt lat="48.464436" lon="2.658531">
      <ele>100.03</ele>
      <time>2016-09-18T07:56:25Z</time>
    </trkpt>
    <trkpt lat="48.464357" lon="2.658602">
      <ele>100.315</ele>
      <time>2016-09-18T07:56:30Z</time>
    </trkpt>
    <trkpt lat="48.464237" lon="2.658678">
      <ele>100.927</ele>
      <time>2016-09-18T07:56:33Z</time>
    </trkpt>
    <trkpt lat="48.464123" lon="2.658777">
      <ele>101.661</ele>
      <time>2016-09-18T07:56:35Z</time>
    </trkpt>
    <trkpt lat="48.464045" lon="2.658856">
      <ele>101.933</ele>
      <time>2016-09-18T07:56:38Z</time>
    </trkpt>
    <trkpt lat="48.463953" lon="2.658919">
      <ele>102.0</ele>
      <time>2016-09-18T07:56:40Z</time>
    </trkpt>
    <trkpt lat="48.463863" lon="2.658971">
      <ele>102.0</ele>
      <time>2016-09-18T07:56:43Z</time>
    </trkpt>
    <trkpt lat="48.463783" lon="2.659034">
      <ele>102.0</ele>
      <time>2016-09-18T07:56:45Z</time>
    </trkpt>
    <trkpt lat="48.463693" lon="2.659112">
      <ele>102.0</ele>
      <time>2016-09-18T07:56:49Z</time>
    </trkpt>
    <trkpt lat="48.463603" lon="2.659209">
      <ele>102.029</ele>
      <time>2016-09-18T07:56:52Z</time>
    </trkpt>
    <trkpt lat="48.463493" lon="2.659307">
      <ele>102.425</ele>
      <time>2016-09-18T07:56:55Z</time>
    </trkpt>
    <trkpt lat="48.463367" lon="2.65946">
      <ele>102.823</ele>
      <time>2016-09-18T07:56:57Z</time>
    </trkpt>
    <trkpt lat="48.46328" lon="2.659538">
      <ele>102.601</ele>
      <time>2016-09-18T07:57:01Z</time>
    </trkpt>
    <trkpt lat="48.463173" lon="2.659633">
      <ele>102.528</ele>
      <time>2016-09-18T07:57:05Z</time>
    </trkpt>
    <trkpt lat="48.463074" lon="2.659662">
      <ele>102.746</ele>
      <time>2016-09-18T07:57:09Z</time>
    </trkpt>
    <trkpt lat="48.462955" lon="2.65978">
      <ele>102.638</ele>
      <time>2016-09-18T07:57:13Z</time>
    </trkpt>
    <trkpt lat="48.46286" lon="2.659863">
      <ele>102.296</ele>
      <time>2016-09-18T07:57:15Z</time>
    </trkpt>
    <trkpt lat="48.462765" lon="2.65994">
      <ele>101.944</ele>
      <time>2016-09-18T07:57:18Z</time>
    </trkpt>
    <trkpt lat="48.46268" lon="2.659994">
      <ele>101.64</ele>
      <time>2016-09-18T07:57:22Z</time>
    </trkpt>
    <trkpt lat="48.462579" lon="2.660073">
      <ele>101.096</ele>
      <time>2016-09-18T07:57:27Z</time>
    </trkpt>
    <trkpt lat="48.462503" lon="2.660167">
      <ele>100.416</ele>
      <time>2016-09-18T07:57:29Z</time>
    </trkpt>
    <trkpt lat="48.462404" lon="2.660164">
      <ele>100.126</ele>
      <time>2016-09-18T07:57:33Z</time>
    </trkpt>
    <trkpt lat="48.46229" lon="2.660252">
      <ele>99.952</ele>
      <time>2016-09-18T07:57:36Z</time>
    </trkpt>
    <trkpt lat="48.462181" lon="2.660275">
      <ele>99.843</ele>
      <time>2016-09-18T07:57:40Z</time>
    </trkpt>
    <trkpt lat="48.462091" lon="2.660303">
      <ele>99.48</ele>
      <time>2016-09-18T07:57:44Z</time>
    </trkpt>
    <trkpt lat="48.46199" lon="2.660343">
      <ele>99.125</ele>
      <time>2016-09-18T07:57:48Z</time>
    </trkpt>
    <trkpt lat="48.46188" lon="2.660368">
      <ele>99.232</ele>
      <time>2016-09-18T07:57:53Z</time>
    </trkpt>
    <trkpt lat="48.461787" lon="2.660368">
      <ele>99.567</ele>
      <time>2016-09-18T07:57:56Z</time>
    </trkpt>
    <trkpt lat="48.461695" lon="2.660434">
      <ele>99.898</ele>
      <time>2016-09-18T07:58:01Z</time>
    </trkpt>
    <trkpt lat="48.461599" lon="2.660398">
      <ele>100.731</ele>
      <time>2016-09-18T07:58:10Z</time>
    </trkpt>
    <trkpt lat="48.461507" lon="2.660342">
      <ele>101.724</ele>
      <time>2016-09-18T07:58:18Z</time>
    </trkpt>
    <trkpt lat="48.461419" lon="2.660298">
      <ele>102.675</ele>
      <time>2016-09-18T07:58:24Z</time>
    </trkpt>
    <trkpt lat="48.461328" lon="2.660323">
      <ele>103.658</ele>
      <time>2016-09-18T07:58:30Z</time>
    </trkpt>
    <trkpt lat="48.461237" lon="2.660357">
      <ele>104.64</ele>
      <time>2016-09-18T07:58:37Z</time>
    </trkpt>
    <trkpt lat="48.461158" lon="2.660449">
      <ele>105.494</ele>
      <time>2016-09-18T07:58:43Z</time>
    </trkpt>
    <trkpt lat="48.46105" lon="2.660487">
      <ele>106.22</ele>
      <time>2016-09-18T07:58:49Z</time>
    </trkpt>
    <trkpt lat="48.460958" lon="2.660591">
      <ele>106.481</ele>
      <time>2016-09-18T07:58:52Z</time>
    </trkpt>
    <trkpt lat="48.460865" lon="2.66066">
      <ele>106.553</ele>
      <time>2016-09-18T07:58:55Z</time>
    </trkpt>
    <trkpt lat="48.460796" lon="2.660793">
      <ele>106.126</ele>
      <time>2016-09-18T07:58:58Z</time>
    </trkpt>
    <trkpt lat="48.460747" lon="2.660914">
      <ele>106.0</ele>
      <time>2016-09-18T07:59:01Z</time>
    </trkpt>
    <trkpt lat="48.460626" lon="2.661022">
      <ele>106.0</ele>
      <time>2016-09-18T07:59:04Z</time>
    </trkpt>
    <trkpt lat="48.460531" lon="2.661046">
      <ele>105.912</ele>
      <time>2016-09-18T07:59:07Z</time>
    </trkpt>
    <trkpt lat="48.460431" lon="2.661051">
      <ele>105.552</ele>
      <time>2016-09-18T07:59:10Z</time>
    </trkpt>
    <trkpt lat="48.460339" lon="2.661142">
      <ele>105.22</ele>
      <time>2016-09-18T07:59:12Z</time>
    </trkpt>
    <trkpt lat="48.460231" lon="2.66123">
      <ele>104.591</ele>
      <time>2016-09-18T07:59:14Z</time>
    </trkpt>
    <trkpt lat="48.460156" lon="2.661311">
      <ele>103.808</ele>
      <time>2016-09-18T07:59:16Z</time>
    </trkpt>
    <trkpt lat="48.460041" lon="2.661323">
      <ele>102.645</ele>
      <time>2016-09-18T07:59:18Z</time>
    </trkpt>
    <trkpt lat="48.45991" lon="2.661336">
      <ele>101.481</ele>
      <time>2016-09-18T07:59:21Z</time>
    </trkpt>
    <trkpt lat="48.459765" lon="2.661359">
      <ele>100.325</ele>
      <time>2016-09-18T07:59:24Z</time>
    </trkpt>
    <trkpt lat="48.459641" lon="2.661315">
      <ele>100.0</ele>
      <time>2016-09-18T07:59:27Z</time>
    </trkpt>
    <trkpt lat="48.459546" lon="2.66128">
      <ele>100.0</ele>
      <time>2016-09-18T07:59:31Z</time>
    </trkpt>
    <trkpt lat="48.459451" lon="2.661233">
      <ele>100.0</ele>
      <time>2016-09-18T07:59:35Z</time>
    </trkpt>
    <trkpt lat="48.45933" lon="2.661171">
      <ele>100.501</ele>
      <time>2016-09-18T07:59:39Z</time>
    </trkpt>
    <trkpt lat="48.459218" lon="2.661092">
      <ele>100.69</ele>
      <time>2016-09-18T07:59:42Z</time>
    </trkpt>
    <trkpt lat="48.459123" lon="2.661031">
      <ele>100.311</ele>
      <time>2016-09-18T07:59:44Z</time>
    </trkpt>
    <trkpt lat="48.459005" lon="2.660992">
      <ele>99.81</ele>
      <time>2016-09-18T07:59:50Z</time>
    </trkpt>
    <trkpt lat="48.458884" lon="2.660971">
      <ele>99.513</ele>
      <time>2016-09-18T07:59:53Z</time>
    </trkpt>
    <trkpt lat="48.458799" lon="2.660912">
      <ele>99.607</ele>
      <time>2016-09-18T07:59:56Z</time>
    </trkpt>
    <trkpt lat="48.458697" lon="2.660829">
      <ele>99.686</ele>
      <time>2016-09-18T08:00:01Z</time>
    </trkpt>
    <trkpt lat="48.458588" lon="2.660762">
      <ele>100.25</ele>
      <time>2016-09-18T08:00:04Z</time>
    </trkpt>
    <trkpt lat="48.458571" lon="2.660605">
      <ele>100.433</ele>
      <time>2016-09-18T08:00:13Z</time>
    </trkpt>
    <trkpt lat="48.4585" lon="2.660491">
      <ele>101.339</ele>
      <time>2016-09-18T08:00:19Z</time>
    </trkpt>
    <trkpt lat="48.458439" lon="2.660387">
      <ele>102.09</ele>
      <time>2016-09-18T08:00:26Z</time>
    </trkpt>
    <trkpt lat="48.458466" lon="2.660225">
      <ele>102.425</ele>
      <time>2016-09-18T08:00:32Z</time>
    </trkpt>
    <trkpt lat="48.45845" lon="2.660071">
      <ele>103.649</ele>
      <time>2016-09-18T08:00:40Z</time>
    </trkpt>
    <trkpt lat="48.458434" lon="2.659934">
      <ele>104.664</ele>
      <time>2016-09-18T08:00:47Z</time>
    </trkpt>
    <trkpt lat="48.458451" lon="2.659794">
      <ele>105.322</ele>
      <time>2016-09-18T08:00:53Z</time>
    </trkpt>
    <trkpt lat="48.458427" lon="2.659644">
      <ele>106.552</ele>
      <time>2016-09-18T08:00:59Z</time>
    </trkpt>
    <trkpt lat="48.458435" lon="2.659488">
      <ele>107.588</ele>
      <time>2016-09-18T08:01:08Z</time>
    </trkpt>
    <trkpt lat="48.458392" lon="2.659364">
      <ele>109.402</ele>
      <time>2016-09-18T08:01:13Z</time>
    </trkpt>
    <trkpt lat="48.458342" lon="2.65922">
      <ele>112.088</ele>
      <time>2016-09-18T08:01:20Z</time>
    </trkpt>
    <trkpt lat="48.458272" lon="2.659126">
      <ele>113.848</ele>
      <time>2016-09-18T08:01:26Z</time>
    </trkpt>
    <trkpt lat="48.458203" lon="2.659032">
      <ele>115.165</ele>
      <time>2016-09-18T08:01:34Z</time>
    </trkpt>
    <trkpt lat="48.458103" lon="2.659033">
      <ele>115.703</ele>
      <time>2016-09-18T08:01:41Z</time>
    </trkpt>
    <trkpt lat="48.458036" lon="2.658927">
      <ele>116.786</ele>
      <time>2016-09-18T08:01:48Z</time>
    </trkpt>
    <trkpt lat="48.457962" lon="2.658814">
      <ele>118.236</ele>
      <time>2016-09-18T08:01:56Z</time>
    </trkpt>
    <trkpt lat="48.457975" lon="2.658669">
      <ele>119.894</ele>
      <time>2016-09-18T08:02:00Z</time>
    </trkpt>
    <trkpt lat="48.457941" lon="2.658531">
      <ele>121.859</ele>
      <time>2016-09-18T08:02:09Z</time>
    </trkpt>
    <trkpt lat="48.457846" lon="2.658466">
      <ele>123.204</ele>
      <time>2016-09-18T08:02:17Z</time>
    </trkpt>
    <trkpt lat="48.457764" lon="2.658401">
      <ele>124.38</ele>
      <time>2016-09-18T08:02:25Z</time>
    </trkpt>
    <trkpt lat="48.45769" lon="2.658319">
      <ele>125.719</ele>
      <time>2016-09-18T08:02:38Z</time>
    </trkpt>
    <trkpt lat="48.457575" lon="2.658311">
      <ele>126.562</ele>
      <time>2016-09-18T08:02:47Z</time>
    </trkpt>
    <trkpt lat="48.457522" lon="2.6582">
      <ele>127.36</ele>
      <time>2016-09-18T08:02:57Z</time>
    </trkpt>
    <trkpt lat="48.457461" lon="2.658083">
      <ele>127.915</ele>
      <time>2016-09-18T08:03:06Z</time>
    </trkpt>
    <trkpt lat="48.457429" lon="2.657929">
      <ele>128.0</ele>
      <time>2016-09-18T08:03:14Z</time>
    </trkpt>
    <trkpt lat="48.457394" lon="2.657789">
      <ele>128.0</ele>
      <time>2016-09-18T08:03:25Z</time>
    </trkpt>
    <trkpt lat="48.457469" lon="2.657669">
      <ele>128.044</ele>
      <time>2016-09-18T08:03:29Z</time>
    </trkpt>
    <trkpt lat="48.457553" lon="2.657607">
      <ele>128.0</ele>
      <time>2016-09-18T08:03:35Z</time>
    </trkpt>
    <trkpt lat="48.45775" lon="2.657586">
      <ele>128.0</ele>
      <time>2016-09-18T08:03:42Z</time>
    </trkpt>
    <trkpt lat="48.457864" lon="2.657504">
      <ele>128.31</ele>
      <time>2016-09-18T08:03:46Z</time>
    </trkpt>
    <trkpt lat="48.457956" lon="2.657495">
      <ele>128.66</ele>
      <time>2016-09-18T08:03:51Z</time>
    </trkpt>
    <trkpt lat="48.458054" lon="2.657505">
      <ele>128.994</ele>
      <time>2016-09-18T08:03:54Z</time>
    </trkpt>
    <trkpt lat="48.458157" lon="2.657485">
      <ele>129.419</ele>
      <time>2016-09-18T08:03:59Z</time>
    </trkpt>
    <trkpt lat="48.458245" lon="2.657416">
      <ele>129.984</ele>
      <time>2016-09-18T08:04:03Z</time>
    </trkpt>
    <trkpt lat="48.458352" lon="2.657397">
      <ele>130.329</ele>
      <time>2016-09-18T08:04:09Z</time>
    </trkpt>
    <trkpt lat="48.458415" lon="2.657299">
      <ele>130.642</ele>
      <time>2016-09-18T08:04:12Z</time>
    </trkpt>
    <trkpt lat="48.458506" lon="2.657208">
      <ele>131.051</ele>
      <time>2016-09-18T08:04:15Z</time>
    </trkpt>
    <trkpt lat="48.458598" lon="2.657054">
      <ele>131.606</ele>
      <time>2016-09-18T08:04:17Z</time>
    </trkpt>
    <trkpt lat="48.458671" lon="2.656947">
      <ele>131.989</ele>
      <time>2016-09-18T08:04:19Z</time>
    </trkpt>
    <trkpt lat="48.458713" lon="2.656774">
      <ele>131.775</ele>
      <time>2016-09-18T08:04:25Z</time>
    </trkpt>
    <trkpt lat="48.458766" lon="2.656607">
      <ele>131.347</ele>
      <time>2016-09-18T08:04:30Z</time>
    </trkpt>
    <trkpt lat="48.458825" lon="2.656455">
      <ele>131.055</ele>
      <time>2016-09-18T08:04:33Z</time>
    </trkpt>
    <trkpt lat="48.458925" lon="2.656357">
      <ele>130.51</ele>
      <time>2016-09-18T08:04:35Z</time>
    </trkpt>
    <trkpt lat="48.459014" lon="2.656237">
      <ele>129.348</ele>
      <time>2016-09-18T08:04:37Z</time>
    </trkpt>
    <trkpt lat="48.459062" lon="2.656098">
      <ele>128.83</ele>
      <time>2016-09-18T08:04:40Z</time>
    </trkpt>
    <trkpt lat="48.459105" lon="2.655965">
      <ele>129.379</ele>
      <time>2016-09-18T08:04:43Z</time>
    </trkpt>
    <trkpt lat="48.459165" lon="2.655849">
      <ele>129.894</ele>
      <time>2016-09-18T08:04:45Z</time>
    </trkpt>
    <trkpt lat="48.459241" lon="2.6557">
      <ele>130.553</ele>
      <time>2016-09-18T08:04:47Z</time>
    </trkpt>
    <trkpt lat="48.459344" lon="2.655525">
      <ele>131.542</ele>
      <time>2016-09-18T08:04:50Z</time>
    </trkpt>
    <trkpt lat="48.459373" lon="2.655319">
      <ele>132.741</ele>
      <time>2016-09-18T08:04:54Z</time>
    </trkpt>
    <trkpt lat="48.459395" lon="2.655137">
      <ele>133.0</ele>
      <time>2016-09-18T08:04:57Z</time>
    </trkpt>
    <trkpt lat="48.459415" lon="2.654996">
      <ele>132.986</ele>
      <time>2016-09-18T08:05:00Z</time>
    </trkpt>
    <trkpt lat="48.459455" lon="2.654818">
      <ele>132.256</ele>
      <time>2016-09-18T08:05:03Z</time>
    </trkpt>
    <trkpt lat="48.459465" lon="2.654636">
      <ele>131.875</ele>
      <time>2016-09-18T08:05:06Z</time>
    </trkpt>
    <trkpt lat="48.459458" lon="2.654467">
      <ele>131.947</ele>
      <time>2016-09-18T08:05:09Z</time>
    </trkpt>
    <trkpt lat="48.459458" lon="2.654285">
      <ele>131.923</ele>
      <time>2016-09-18T08:05:12Z</time>
    </trkpt>
    <trkpt lat="48.459532" lon="2.654131">
      <ele>131.282</ele>
      <time>2016-09-18T08:05:14Z</time>
    </trkpt>
    <trkpt lat="48.459484" lon="2.654015">
      <ele>131.247</ele>
      <time>2016-09-18T08:05:17Z</time>
    </trkpt>
    <trkpt lat="48.459494" lon="2.653827">
      <ele>130.599</ele>
      <time>2016-09-18T08:05:20Z</time>
    </trkpt>
    <trkpt lat="48.459382" lon="2.653738">
      <ele>130.457</ele>
      <time>2016-09-18T08:05:22Z</time>
    </trkpt>
    <trkpt lat="48.459293" lon="2.653624">
      <ele>130.046</ele>
      <time>2016-09-18T08:05:24Z</time>
    </trkpt>
    <trkpt lat="48.459192" lon="2.653533">
      <ele>129.719</ele>
      <time>2016-09-18T08:05:26Z</time>
    </trkpt>
    <trkpt lat="48.459086" lon="2.653456">
      <ele>129.442</ele>
      <time>2016-09-18T08:05:28Z</time>
    </trkpt>
    <trkpt lat="48.458946" lon="2.653478">
      <ele>129.521</ele>
      <time>2016-09-18T08:05:30Z</time>
    </trkpt>
    <trkpt lat="48.458824" lon="2.653493">
      <ele>129.908</ele>
      <time>2016-09-18T08:05:32Z</time>
    </trkpt>
    <trkpt lat="48.458728" lon="2.653522">
      <ele>130.444</ele>
      <time>2016-09-18T08:05:33Z</time>
    </trkpt>
    <trkpt lat="48.458621" lon="2.653567">
      <ele>130.959</ele>
      <time>2016-09-18T08:05:35Z</time>
    </trkpt>
    <trkpt lat="48.458505" lon="2.653531">
      <ele>131.0</ele>
      <time>2016-09-18T08:05:37Z</time>
    </trkpt>
    <trkpt lat="48.458372" lon="2.653498">
      <ele>131.0</ele>
      <time>2016-09-18T08:05:40Z</time>
    </trkpt>
    <trkpt lat="48.458263" lon="2.653506">
      <ele>131.0</ele>
      <time>2016-09-18T08:05:42Z</time>
    </trkpt>
    <trkpt lat="48.458152" lon="2.65347">
      <ele>131.0</ele>
      <time>2016-09-18T08:05:44Z</time>
    </trkpt>
    <trkpt lat="48.458048" lon="2.653445">
      <ele>131.0</ele>
      <time>2016-09-18T08:05:46Z</time>
    </trkpt>
    <trkpt lat="48.457971" lon="2.653295">
      <ele>131.0</ele>
      <time>2016-09-18T08:05:48Z</time>
    </trkpt>
    <trkpt lat="48.45783" lon="2.653239">
      <ele>131.0</ele>
      <time>2016-09-18T08:05:50Z</time>
    </trkpt>
    <trkpt lat="48.457716" lon="2.65318">
      <ele>131.123</ele>
      <time>2016-09-18T08:05:52Z</time>
    </trkpt>
    <trkpt lat="48.457564" lon="2.653125">
      <ele>131.577</ele>
      <time>2016-09-18T08:05:54Z</time>
    </trkpt>
    <trkpt lat="48.457534" lon="2.652947">
      <ele>131.925</ele>
      <time>2016-09-18T08:05:58Z</time>
    </trkpt>
    <trkpt lat="48.457564" lon="2.652786">
      <ele>131.993</ele>
      <time>2016-09-18T08:06:02Z</time>
    </trkpt>
    <trkpt lat="48.457594" lon="2.652587">
      <ele>132.0</ele>
      <time>2016-09-18T08:06:04Z</time>
    </trkpt>
    <trkpt lat="48.457608" lon="2.65245">
      <ele>132.0</ele>
      <time>2016-09-18T08:06:06Z</time>
    </trkpt>
    <trkpt lat="48.45765" lon="2.652321">
      <ele>132.0</ele>
      <time>2016-09-18T08:06:08Z</time>
    </trkpt>
    <trkpt lat="48.457742" lon="2.652132">
      <ele>132.0</ele>
      <time>2016-09-18T08:06:10Z</time>
    </trkpt>
    <trkpt lat="48.45781" lon="2.651992">
      <ele>131.864</ele>
      <time>2016-09-18T08:06:12Z</time>
    </trkpt>
    <trkpt lat="48.457907" lon="2.651808">
      <ele>131.272</ele>
      <time>2016-09-18T08:06:14Z</time>
    </trkpt>
    <trkpt lat="48.458045" lon="2.651701">
      <ele>131.005</ele>
      <time>2016-09-18T08:06:17Z</time>
    </trkpt>
    <trkpt lat="48.458198" lon="2.651586">
      <ele>130.636</ele>
      <time>2016-09-18T08:06:20Z</time>
    </trkpt>
    <trkpt lat="48.458313" lon="2.651503">
      <ele>130.619</ele>
      <time>2016-09-18T08:06:22Z</time>
    </trkpt>
    <trkpt lat="48.458413" lon="2.651424">
      <ele>130.551</ele>
      <time>2016-09-18T08:06:24Z</time>
    </trkpt>
    <trkpt lat="48.458483" lon="2.65132">
      <ele>130.461</ele>
      <time>2016-09-18T08:06:25Z</time>
    </trkpt>
    <trkpt lat="48.45859" lon="2.651217">
      <ele>130.076</ele>
      <time>2016-09-18T08:06:26Z</time>
    </trkpt>
    <trkpt lat="48.458643" lon="2.651066">
      <ele>129.914</ele>
      <time>2016-09-18T08:06:29Z</time>
    </trkpt>
    <trkpt lat="48.458675" lon="2.650873">
      <ele>130.2</ele>
      <time>2016-09-18T08:06:32Z</time>
    </trkpt>
    <trkpt lat="48.458597" lon="2.650777">
      <ele>130.808</ele>
      <time>2016-09-18T08:06:34Z</time>
    </trkpt>
    <trkpt lat="48.458523" lon="2.650638">
      <ele>130.52</ele>
      <time>2016-09-18T08:06:36Z</time>
    </trkpt>
    <trkpt lat="48.458564" lon="2.650513">
      <ele>130.17</ele>
      <time>2016-09-18T08:06:37Z</time>
    </trkpt>
    <trkpt lat="48.458451" lon="2.650424">
      <ele>130.576</ele>
      <time>2016-09-18T08:06:39Z</time>
    </trkpt>
    <trkpt lat="48.458435" lon="2.650266">
      <ele>130.618</ele>
      <time>2016-09-18T08:06:42Z</time>
    </trkpt>
    <trkpt lat="48.458398" lon="2.650136">
      <ele>130.648</ele>
      <time>2016-09-18T08:06:44Z</time>
    </trkpt>
    <trkpt lat="48.458362" lon="2.650005">
      <ele>130.795</ele>
      <time>2016-09-18T08:06:47Z</time>
    </trkpt>
    <trkpt lat="48.458279" lon="2.649887">
      <ele>131.196</ele>
      <time>2016-09-18T08:06:49Z</time>
    </trkpt>
    <trkpt lat="48.458208" lon="2.649778">
      <ele>131.451</ele>
      <time>2016-09-18T08:06:51Z</time>
    </trkpt>
    <trkpt lat="48.458118" lon="2.649666">
      <ele>131.932</ele>
      <time>2016-09-18T08:06:53Z</time>
    </trkpt>
    <trkpt lat="48.458035" lon="2.6496">
      <ele>132.44</ele>
      <time>2016-09-18T08:06:56Z</time>
    </trkpt>
    <trkpt lat="48.458072" lon="2.649405">
      <ele>132.89</ele>
      <time>2016-09-18T08:06:59Z</time>
    </trkpt>
    <trkpt lat="48.458057" lon="2.649228">
      <ele>132.994</ele>
      <time>2016-09-18T08:07:01Z</time>
    </trkpt>
    <trkpt lat="48.458037" lon="2.64907">
      <ele>132.933</ele>
      <time>2016-09-18T08:07:03Z</time>
    </trkpt>
    <trkpt lat="48.45804" lon="2.648887">
      <ele>132.938</ele>
      <time>2016-09-18T08:07:06Z</time>
    </trkpt>
    <trkpt lat="48.458101" lon="2.648746">
      <ele>132.406</ele>
      <time>2016-09-18T08:07:08Z</time>
    </trkpt>
    <trkpt lat="48.458168" lon="2.648619">
      <ele>132.017</ele>
      <time>2016-09-18T08:07:10Z</time>
    </trkpt>
    <trkpt lat="48.458278" lon="2.648478">
      <ele>132.0</ele>
      <time>2016-09-18T08:07:12Z</time>
    </trkpt>
    <trkpt lat="48.458374" lon="2.648416">
      <ele>131.707</ele>
      <time>2016-09-18T08:07:14Z</time>
    </trkpt>
    <trkpt lat="48.458497" lon="2.648298">
      <ele>130.844</ele>
      <time>2016-09-18T08:07:16Z</time>
    </trkpt>
    <trkpt lat="48.458607" lon="2.648282">
      <ele>130.209</ele>
      <time>2016-09-18T08:07:19Z</time>
    </trkpt>
    <trkpt lat="48.458703" lon="2.648243">
      <ele>129.771</ele>
      <time>2016-09-18T08:07:21Z</time>
    </trkpt>
    <trkpt lat="48.458805" lon="2.648176">
      <ele>129.566</ele>
      <time>2016-09-18T08:07:24Z</time>
    </trkpt>
    <trkpt lat="48.458947" lon="2.64813">
      <ele>129.046</ele>
      <time>2016-09-18T08:07:26Z</time>
    </trkpt>
    <trkpt lat="48.459077" lon="2.648156">
      <ele>127.922</ele>
      <time>2016-09-18T08:07:30Z</time>
    </trkpt>
    <trkpt lat="48.459229" lon="2.647995">
      <ele>128.163</ele>
      <time>2016-09-18T08:07:33Z</time>
    </trkpt>
    <trkpt lat="48.459339" lon="2.647808">
      <ele>128.609</ele>
      <time>2016-09-18T08:07:34Z</time>
    </trkpt>
    <trkpt lat="48.459417" lon="2.647643">
      <ele>128.683</ele>
      <time>2016-09-18T08:07:36Z</time>
    </trkpt>
    <trkpt lat="48.45946" lon="2.647504">
      <ele>128.762</ele>
      <time>2016-09-18T08:07:38Z</time>
    </trkpt>
    <trkpt lat="48.459542" lon="2.647342">
      <ele>127.595</ele>
      <time>2016-09-18T08:07:40Z</time>
    </trkpt>
    <trkpt lat="48.459509" lon="2.647172">
      <ele>128.07</ele>
      <time>2016-09-18T08:07:43Z</time>
    </trkpt>
    <trkpt lat="48.459513" lon="2.64702">
      <ele>128.013</ele>
      <time>2016-09-18T08:07:45Z</time>
    </trkpt>
    <trkpt lat="48.45949" lon="2.646874">
      <ele>128.344</ele>
      <time>2016-09-18T08:07:47Z</time>
    </trkpt>
    <trkpt lat="48.459503" lon="2.646712">
      <ele>128.157</ele>
      <time>2016-09-18T08:07:49Z</time>
    </trkpt>
    <trkpt lat="48.459457" lon="2.646538">
      <ele>128.861</ele>
      <time>2016-09-18T08:07:52Z</time>
    </trkpt>
    <trkpt lat="48.459429" lon="2.646351">
      <ele>129.232</ele>
      <time>2016-09-18T08:07:56Z</time>
    </trkpt>
    <trkpt lat="48.459406" lon="2.646175">
      <ele>129.834</ele>
      <time>2016-09-18T08:07:59Z</time>
    </trkpt>
    <trkpt lat="48.459327" lon="2.646016">
      <ele>130.145</ele>
      <time>2016-09-18T08:08:02Z</time>
    </trkpt>
    <trkpt lat="48.459277" lon="2.645847">
      <ele>130.573</ele>
      <time>2016-09-18T08:08:05Z</time>
    </trkpt>
    <trkpt lat="48.459188" lon="2.64574">
      <ele>130.897</ele>
      <time>2016-09-18T08:08:08Z</time>
    </trkpt>
    <trkpt lat="48.459132" lon="2.645583">
      <ele>130.988</ele>
      <time>2016-09-18T08:08:11Z</time>
    </trkpt>
    <trkpt lat="48.459113" lon="2.645441">
      <ele>131.0</ele>
      <time>2016-09-18T08:08:14Z</time>
    </trkpt>
    <trkpt lat="48.459148" lon="2.645295">
      <ele>131.0</ele>
      <time>2016-09-18T08:08:15Z</time>
    </trkpt>
    <trkpt lat="48.459062" lon="2.645165">
      <ele>130.747</ele>
      <time>2016-09-18T08:08:17Z</time>
    </trkpt>
    <trkpt lat="48.458999" lon="2.644932">
      <ele>130.456</ele>
      <time>2016-09-18T08:08:19Z</time>
    </trkpt>
    <trkpt lat="48.458992" lon="2.644789">
      <ele>130.151</ele>
      <time>2016-09-18T08:08:20Z</time>
    </trkpt>
    <trkpt lat="48.458979" lon="2.644602">
      <ele>130.0</ele>
      <time>2016-09-18T08:08:22Z</time>
    </trkpt>
    <trkpt lat="48.458978" lon="2.644442">
      <ele>129.994</ele>
      <time>2016-09-18T08:08:24Z</time>
    </trkpt>
    <trkpt lat="48.458982" lon="2.644283">
      <ele>129.614</ele>
      <time>2016-09-18T08:08:26Z</time>
    </trkpt>
    <trkpt lat="48.458948" lon="2.644143">
      <ele>129.28</ele>
      <time>2016-09-18T08:08:28Z</time>
    </trkpt>
    <trkpt lat="48.458984" lon="2.643951">
      <ele>129.853</ele>
      <time>2016-09-18T08:08:30Z</time>
    </trkpt>
    <trkpt lat="48.459042" lon="2.643818">
      <ele>130.0</ele>
      <time>2016-09-18T08:08:32Z</time>
    </trkpt>
    <trkpt lat="48.45909" lon="2.643686">
      <ele>130.0</ele>
      <time>2016-09-18T08:08:34Z</time>
    </trkpt>
    <trkpt lat="48.459114" lon="2.643553">
      <ele>130.04</ele>
      <time>2016-09-18T08:08:36Z</time>
    </trkpt>
    <trkpt lat="48.45917" lon="2.643403">
      <ele>129.988</ele>
      <time>2016-09-18T08:08:38Z</time>
    </trkpt>
    <trkpt lat="48.459218" lon="2.643278">
      <ele>129.653</ele>
      <time>2016-09-18T08:08:40Z</time>
    </trkpt>
    <trkpt lat="48.459233" lon="2.643071">
      <ele>129.042</ele>
      <time>2016-09-18T08:08:43Z</time>
    </trkpt>
    <trkpt lat="48.459267" lon="2.642872">
      <ele>128.761</ele>
      <time>2016-09-18T08:08:46Z</time>
    </trkpt>
    <trkpt lat="48.459291" lon="2.642692">
      <ele>128.414</ele>
      <time>2016-09-18T08:08:48Z</time>
    </trkpt>
    <trkpt lat="48.459316" lon="2.642477">
      <ele>127.925</ele>
      <time>2016-09-18T08:08:50Z</time>
    </trkpt>
    <trkpt lat="48.459321" lon="2.64229">
      <ele>127.889</ele>
      <time>2016-09-18T08:08:52Z</time>
    </trkpt>
    <trkpt lat="48.459335" lon="2.642133">
      <ele>127.788</ele>
      <time>2016-09-18T08:08:54Z</time>
    </trkpt>
    <trkpt lat="48.459374" lon="2.641955">
      <ele>127.507</ele>
      <time>2016-09-18T08:08:56Z</time>
    </trkpt>
    <trkpt lat="48.459381" lon="2.641769">
      <ele>126.969</ele>
      <time>2016-09-18T08:08:59Z</time>
    </trkpt>
    <trkpt lat="48.459441" lon="2.641534">
      <ele>125.566</ele>
      <time>2016-09-18T08:09:02Z</time>
    </trkpt>
    <trkpt lat="48.459303" lon="2.641434">
      <ele>127.117</ele>
      <time>2016-09-18T08:09:05Z</time>
    </trkpt>
    <trkpt lat="48.459205" lon="2.641334">
      <ele>128.107</ele>
      <time>2016-09-18T08:09:08Z</time>
    </trkpt>
    <trkpt lat="48.459118" lon="2.64128">
      <ele>128.81</ele>
      <time>2016-09-18T08:09:12Z</time>
    </trkpt>
    <trkpt lat="48.459029" lon="2.641256">
      <ele>129.767</ele>
      <time>2016-09-18T08:09:17Z</time>
    </trkpt>
    <trkpt lat="48.45892" lon="2.641253">
      <ele>131.12</ele>
      <time>2016-09-18T08:09:21Z</time>
    </trkpt>
    <trkpt lat="48.458806" lon="2.641246">
      <ele>131.784</ele>
      <time>2016-09-18T08:09:24Z</time>
    </trkpt>
    <trkpt lat="48.458715" lon="2.641251">
      <ele>132.13</ele>
      <time>2016-09-18T08:09:29Z</time>
    </trkpt>
    <trkpt lat="48.45862" lon="2.641235">
      <ele>132.414</ele>
      <time>2016-09-18T08:09:32Z</time>
    </trkpt>
    <trkpt lat="48.458523" lon="2.641241">
      <ele>132.933</ele>
      <time>2016-09-18T08:09:36Z</time>
    </trkpt>
    <trkpt lat="48.458433" lon="2.641225">
      <ele>133.314</ele>
      <time>2016-09-18T08:09:39Z</time>
    </trkpt>
    <trkpt lat="48.45832" lon="2.641217">
      <ele>133.84</ele>
      <time>2016-09-18T08:09:42Z</time>
    </trkpt>
    <trkpt lat="48.458208" lon="2.64122">
      <ele>134.51</ele>
      <time>2016-09-18T08:09:45Z</time>
    </trkpt>
    <trkpt lat="48.4581" lon="2.641197">
      <ele>135.039</ele>
      <time>2016-09-18T08:09:48Z</time>
    </trkpt>
    <trkpt lat="48.458001" lon="2.641146">
      <ele>135.494</ele>
      <time>2016-09-18T08:09:51Z</time>
    </trkpt>
    <trkpt lat="48.457912" lon="2.641045">
      <ele>135.681</ele>
      <time>2016-09-18T08:09:54Z</time>
    </trkpt>
    <trkpt lat="48.457852" lon="2.640922">
      <ele>135.603</ele>
      <time>2016-09-18T08:09:58Z</time>
    </trkpt>
    <trkpt lat="48.457783" lon="2.640784">
      <ele>135.588</ele>
      <time>2016-09-18T08:10:02Z</time>
    </trkpt>
    <trkpt lat="48.457697" lon="2.640628">
      <ele>135.027</ele>
      <time>2016-09-18T08:10:05Z</time>
    </trkpt>
    <trkpt lat="48.457652" lon="2.640497">
      <ele>134.79</ele>
      <time>2016-09-18T08:10:10Z</time>
    </trkpt>
    <trkpt lat="48.457636" lon="2.640338">
      <ele>134.637</ele>
      <time>2016-09-18T08:10:14Z</time>
    </trkpt>
    <trkpt lat="48.457564" lon="2.640239">
      <ele>135.416</ele>
      <time>2016-09-18T08:10:17Z</time>
    </trkpt>
    <trkpt lat="48.457529" lon="2.6401">
      <ele>136.26</ele>
      <time>2016-09-18T08:10:19Z</time>
    </trkpt>
    <trkpt lat="48.457501" lon="2.63994">
      <ele>136.986</ele>
      <time>2016-09-18T08:10:22Z</time>
    </trkpt>
    <trkpt lat="48.457523" lon="2.63979">
      <ele>136.669</ele>
      <time>2016-09-18T08:10:24Z</time>
    </trkpt>
    <trkpt lat="48.45752" lon="2.639652">
      <ele>136.459</ele>
      <time>2016-09-18T08:10:26Z</time>
    </trkpt>
    <trkpt lat="48.457528" lon="2.639447">
      <ele>135.606</ele>
      <time>2016-09-18T08:10:29Z</time>
    </trkpt>
    <trkpt lat="48.457551" lon="2.639295">
      <ele>134.728</ele>
      <time>2016-09-18T08:10:32Z</time>
    </trkpt>
    <trkpt lat="48.45754" lon="2.639113">
      <ele>134.231</ele>
      <time>2016-09-18T08:10:35Z</time>
    </trkpt>
    <trkpt lat="48.457582" lon="2.638976">
      <ele>133.133</ele>
      <time>2016-09-18T08:10:37Z</time>
    </trkpt>
    <trkpt lat="48.457617" lon="2.638804">
      <ele>131.833</ele>
      <time>2016-09-18T08:10:39Z</time>
    </trkpt>
    <trkpt lat="48.457599" lon="2.638605">
      <ele>130.887</ele>
      <time>2016-09-18T08:10:42Z</time>
    </trkpt>
    <trkpt lat="48.457528" lon="2.638426">
      <ele>130.365</ele>
      <time>2016-09-18T08:10:45Z</time>
    </trkpt>
    <trkpt lat="48.45741" lon="2.638423">
      <ele>130.426</ele>
      <time>2016-09-18T08:10:47Z</time>
    </trkpt>
    <trkpt lat="48.457302" lon="2.638469">
      <ele>130.612</ele>
      <time>2016-09-18T08:10:52Z</time>
    </trkpt>
    <trkpt lat="48.457246" lon="2.638654">
      <ele>132.309</ele>
      <time>2016-09-18T08:10:55Z</time>
    </trkpt>
    <trkpt lat="48.457151" lon="2.63884">
      <ele>133.603</ele>
      <time>2016-09-18T08:10:58Z</time>
    </trkpt>
    <trkpt lat="48.457116" lon="2.639051">
      <ele>134.584</ele>
      <time>2016-09-18T08:11:01Z</time>
    </trkpt>
    <trkpt lat="48.457053" lon="2.639186">
      <ele>135.139</ele>
      <time>2016-09-18T08:11:05Z</time>
    </trkpt>
    <trkpt lat="48.45696" lon="2.639238">
      <ele>135.514</ele>
      <time>2016-09-18T08:11:10Z</time>
    </trkpt>
    <trkpt lat="48.456865" lon="2.639306">
      <ele>136.432</ele>
      <time>2016-09-18T08:11:12Z</time>
    </trkpt>
    <trkpt lat="48.456759" lon="2.639302">
      <ele>136.984</ele>
      <time>2016-09-18T08:11:15Z</time>
    </trkpt>
    <trkpt lat="48.456643" lon="2.639329">
      <ele>137.499</ele>
      <time>2016-09-18T08:11:18Z</time>
    </trkpt>
    <trkpt lat="48.456513" lon="2.63935">
      <ele>137.107</ele>
      <time>2016-09-18T08:11:20Z</time>
    </trkpt>
    <trkpt lat="48.456368" lon="2.639297">
      <ele>136.429</ele>
      <time>2016-09-18T08:11:23Z</time>
    </trkpt>
    <trkpt lat="48.456282" lon="2.639212">
      <ele>135.841</ele>
      <time>2016-09-18T08:11:26Z</time>
    </trkpt>
    <trkpt lat="48.456205" lon="2.639118">
      <ele>135.163</ele>
      <time>2016-09-18T08:11:28Z</time>
    </trkpt>
    <trkpt lat="48.456146" lon="2.639009">
      <ele>134.558</ele>
      <time>2016-09-18T08:11:30Z</time>
    </trkpt>
    <trkpt lat="48.456104" lon="2.638884">
      <ele>133.965</ele>
      <time>2016-09-18T08:11:32Z</time>
    </trkpt>
    <trkpt lat="48.456029" lon="2.638777">
      <ele>133.194</ele>
      <time>2016-09-18T08:11:34Z</time>
    </trkpt>
    <trkpt lat="48.455955" lon="2.638686">
      <ele>132.539</ele>
      <time>2016-09-18T08:11:36Z</time>
    </trkpt>
    <trkpt lat="48.455862" lon="2.638769">
      <ele>133.137</ele>
      <time>2016-09-18T08:11:38Z</time>
    </trkpt>
    <trkpt lat="48.455701" lon="2.638814">
      <ele>133.589</ele>
      <time>2016-09-18T08:11:41Z</time>
    </trkpt>
    <trkpt lat="48.455597" lon="2.638786">
      <ele>133.574</ele>
      <time>2016-09-18T08:11:43Z</time>
    </trkpt>
    <trkpt lat="48.455495" lon="2.638728">
      <ele>133.639</ele>
      <time>2016-09-18T08:11:46Z</time>
    </trkpt>
    <trkpt lat="48.455394" lon="2.638698">
      <ele>133.894</ele>
      <time>2016-09-18T08:11:49Z</time>
    </trkpt>
    <trkpt lat="48.455321" lon="2.63859">
      <ele>133.692</ele>
      <time>2016-09-18T08:11:52Z</time>
    </trkpt>
    <trkpt lat="48.455196" lon="2.638614">
      <ele>134.596</ele>
      <time>2016-09-18T08:11:55Z</time>
    </trkpt>
    <trkpt lat="48.455085" lon="2.638577">
      <ele>135.228</ele>
      <time>2016-09-18T08:11:57Z</time>
    </trkpt>
    <trkpt lat="48.454911" lon="2.638576">
      <ele>136.555</ele>
      <time>2016-09-18T08:12:00Z</time>
    </trkpt>
    <trkpt lat="48.454801" lon="2.638509">
      <ele>137.329</ele>
      <time>2016-09-18T08:12:04Z</time>
    </trkpt>
    <trkpt lat="48.454763" lon="2.638379">
      <ele>137.584</ele>
      <time>2016-09-18T08:12:06Z</time>
    </trkpt>
    <trkpt lat="48.454687" lon="2.638261">
      <ele>137.866</ele>
      <time>2016-09-18T08:12:09Z</time>
    </trkpt>
    <trkpt lat="48.454619" lon="2.638113">
      <ele>137.578</ele>
      <time>2016-09-18T08:12:13Z</time>
    </trkpt>
    <trkpt lat="48.454531" lon="2.63801">
      <ele>137.473</ele>
      <time>2016-09-18T08:12:15Z</time>
    </trkpt>
    <trkpt lat="48.454448" lon="2.637879">
      <ele>137.343</ele>
      <time>2016-09-18T08:12:17Z</time>
    </trkpt>
    <trkpt lat="48.454337" lon="2.637759">
      <ele>137.319</ele>
      <time>2016-09-18T08:12:19Z</time>
    </trkpt>
    <trkpt lat="48.454245" lon="2.637624">
      <ele>137.164</ele>
      <time>2016-09-18T08:12:21Z</time>
    </trkpt>
    <trkpt lat="48.454223" lon="2.637473">
      <ele>136.7</ele>
      <time>2016-09-18T08:12:23Z</time>
    </trkpt>
    <trkpt lat="48.45424" lon="2.637313">
      <ele>136.063</ele>
      <time>2016-09-18T08:12:25Z</time>
    </trkpt>
    <trkpt lat="48.454251" lon="2.637097">
      <ele>135.109</ele>
      <time>2016-09-18T08:12:28Z</time>
    </trkpt>
    <trkpt lat="48.454242" lon="2.636951">
      <ele>134.488</ele>
      <time>2016-09-18T08:12:30Z</time>
    </trkpt>
    <trkpt lat="48.45423" lon="2.636764">
      <ele>134.043</ele>
      <time>2016-09-18T08:12:32Z</time>
    </trkpt>
    <trkpt lat="48.454152" lon="2.636667">
      <ele>134.054</ele>
      <time>2016-09-18T08:12:34Z</time>
    </trkpt>
    <trkpt lat="48.454065" lon="2.636506">
      <ele>133.209</ele>
      <time>2016-09-18T08:12:37Z</time>
    </trkpt>
    <trkpt lat="48.453972" lon="2.636402">
      <ele>132.795</ele>
      <time>2016-09-18T08:12:40Z</time>
    </trkpt>
    <trkpt lat="48.453872" lon="2.636319">
      <ele>132.482</ele>
      <time>2016-09-18T08:12:43Z</time>
    </trkpt>
    <trkpt lat="48.453774" lon="2.636323">
      <ele>132.427</ele>
      <time>2016-09-18T08:12:45Z</time>
    </trkpt>
    <trkpt lat="48.453672" lon="2.636413">
      <ele>133.241</ele>
      <time>2016-09-18T08:12:47Z</time>
    </trkpt>
    <trkpt lat="48.453556" lon="2.636481">
      <ele>133.995</ele>
      <time>2016-09-18T08:12:50Z</time>
    </trkpt>
    <trkpt lat="48.453465" lon="2.636501">
      <ele>134.211</ele>
      <time>2016-09-18T08:12:52Z</time>
    </trkpt>
    <trkpt lat="48.453341" lon="2.636553">
      <ele>134.772</ele>
      <time>2016-09-18T08:12:55Z</time>
    </trkpt>
    <trkpt lat="48.45323" lon="2.636643">
      <ele>135.776</ele>
      <time>2016-09-18T08:12:58Z</time>
    </trkpt>
    <trkpt lat="48.453117" lon="2.636685">
      <ele>136.081</ele>
      <time>2016-09-18T08:13:00Z</time>
    </trkpt>
    <trkpt lat="48.453019" lon="2.63668">
      <ele>135.916</ele>
      <time>2016-09-18T08:13:02Z</time>
    </trkpt>
    <trkpt lat="48.452919" lon="2.636716">
      <ele>135.686</ele>
      <time>2016-09-18T08:13:04Z</time>
    </trkpt>
    <trkpt lat="48.452839" lon="2.636535">
      <ele>135.011</ele>
      <time>2016-09-18T08:13:07Z</time>
    </trkpt>
    <trkpt lat="48.452751" lon="2.636415">
      <ele>135.009</ele>
      <time>2016-09-18T08:13:09Z</time>
    </trkpt>
    <trkpt lat="48.452692" lon="2.636301">
      <ele>134.684</ele>
      <time>2016-09-18T08:13:11Z</time>
    </trkpt>
    <trkpt lat="48.452674" lon="2.636087">
      <ele>133.772</ele>
      <time>2016-09-18T08:13:14Z</time>
    </trkpt>
    <trkpt lat="48.452585" lon="2.63604">
      <ele>133.41</ele>
      <time>2016-09-18T08:13:16Z</time>
    </trkpt>
    <trkpt lat="48.452463" lon="2.636069">
      <ele>133.963</ele>
      <time>2016-09-18T08:13:17Z</time>
    </trkpt>
    <trkpt lat="48.452356" lon="2.636136">
      <ele>135.126</ele>
      <time>2016-09-18T08:13:20Z</time>
    </trkpt>
    <trkpt lat="48.452234" lon="2.636159">
      <ele>136.088</ele>
      <time>2016-09-18T08:13:23Z</time>
    </trkpt>
    <trkpt lat="48.452144" lon="2.636134">
      <ele>136.646</ele>
      <time>2016-09-18T08:13:25Z</time>
    </trkpt>
    <trkpt lat="48.45203" lon="2.63601">
      <ele>136.656</ele>
      <time>2016-09-18T08:13:28Z</time>
    </trkpt>
    <trkpt lat="48.451961" lon="2.635906">
      <ele>136.404</ele>
      <time>2016-09-18T08:13:30Z</time>
    </trkpt>
    <trkpt lat="48.451898" lon="2.635707">
      <ele>135.258</ele>
      <time>2016-09-18T08:13:33Z</time>
    </trkpt>
    <trkpt lat="48.451891" lon="2.635537">
      <ele>134.033</ele>
      <time>2016-09-18T08:13:35Z</time>
    </trkpt>
    <trkpt lat="48.451892" lon="2.635397">
      <ele>132.832</ele>
      <time>2016-09-18T08:13:37Z</time>
    </trkpt>
    <trkpt lat="48.451869" lon="2.63523">
      <ele>131.51</ele>
      <time>2016-09-18T08:13:39Z</time>
    </trkpt>
    <trkpt lat="48.451903" lon="2.635065">
      <ele>130.971</ele>
      <time>2016-09-18T08:13:41Z</time>
    </trkpt>
    <trkpt lat="48.451935" lon="2.634893">
      <ele>130.906</ele>
      <time>2016-09-18T08:13:44Z</time>
    </trkpt>
    <trkpt lat="48.451975" lon="2.63471">
      <ele>130.995</ele>
      <time>2016-09-18T08:13:46Z</time>
    </trkpt>
    <trkpt lat="48.451999" lon="2.634538">
      <ele>130.87</ele>
      <time>2016-09-18T08:13:49Z</time>
    </trkpt>
    <trkpt lat="48.452015" lon="2.634398">
      <ele>130.579</ele>
      <time>2016-09-18T08:13:51Z</time>
    </trkpt>
    <trkpt lat="48.451996" lon="2.634213">
      <ele>129.981</ele>
      <time>2016-09-18T08:13:54Z</time>
    </trkpt>
    <trkpt lat="48.451992" lon="2.634003">
      <ele>128.162</ele>
      <time>2016-09-18T08:13:57Z</time>
    </trkpt>
    <trkpt lat="48.452027" lon="2.633868">
      <ele>126.774</ele>
      <time>2016-09-18T08:14:02Z</time>
    </trkpt>
    <trkpt lat="48.452075" lon="2.633751">
      <ele>125.511</ele>
      <time>2016-09-18T08:14:05Z</time>
    </trkpt>
    <trkpt lat="48.45215" lon="2.63364">
      <ele>124.312</ele>
      <time>2016-09-18T08:14:08Z</time>
    </trkpt>
    <trkpt lat="48.452033" lon="2.633823">
      <ele>126.288</ele>
      <time>2016-09-18T08:14:12Z</time>
    </trkpt>
    <trkpt lat="48.451869" lon="2.63392">
      <ele>125.948</ele>
      <time>2016-09-18T08:14:15Z</time>
    </trkpt>
    <trkpt lat="48.451726" lon="2.633958">
      <ele>123.619</ele>
      <time>2016-09-18T08:14:16Z</time>
    </trkpt>
    <trkpt lat="48.451644" lon="2.633862">
      <ele>121.146</ele>
      <time>2016-09-18T08:14:19Z</time>
    </trkpt>
    <trkpt lat="48.4517" lon="2.633737">
      <ele>120.96</ele>
      <time>2016-09-18T08:14:21Z</time>
    </trkpt>
    <trkpt lat="48.451757" lon="2.633613">
      <ele>120.646</ele>
      <time>2016-09-18T08:14:26Z</time>
    </trkpt>
    <trkpt lat="48.451863" lon="2.633561">
      <ele>121.812</ele>
      <time>2016-09-18T08:14:29Z</time>
    </trkpt>
    <trkpt lat="48.45202" lon="2.633544">
      <ele>123.034</ele>
      <time>2016-09-18T08:14:31Z</time>
    </trkpt>
    <trkpt lat="48.452126" lon="2.633629">
      <ele>124.193</ele>
      <time>2016-09-18T08:14:33Z</time>
    </trkpt>
    <trkpt lat="48.452097" lon="2.633762">
      <ele>125.63</ele>
      <time>2016-09-18T08:14:59Z</time>
    </trkpt>
    <trkpt lat="48.452066" lon="2.633922">
      <ele>127.305</ele>
      <time>2016-09-18T08:15:01Z</time>
    </trkpt>
    <trkpt lat="48.452051" lon="2.634062">
      <ele>128.631</ele>
      <time>2016-09-18T08:15:03Z</time>
    </trkpt>
    <trkpt lat="48.452009" lon="2.634231">
      <ele>129.999</ele>
      <time>2016-09-18T08:15:05Z</time>
    </trkpt>
    <trkpt lat="48.452012" lon="2.634453">
      <ele>130.764</ele>
      <time>2016-09-18T08:15:09Z</time>
    </trkpt>
    <trkpt lat="48.451992" lon="2.634628">
      <ele>130.942</ele>
      <time>2016-09-18T08:15:12Z</time>
    </trkpt>
    <trkpt lat="48.451945" lon="2.634834">
      <ele>130.999</ele>
      <time>2016-09-18T08:15:15Z</time>
    </trkpt>
    <trkpt lat="48.451961" lon="2.635019">
      <ele>131.009</ele>
      <time>2016-09-18T08:15:19Z</time>
    </trkpt>
    <trkpt lat="48.45193" lon="2.635168">
      <ele>131.532</ele>
      <time>2016-09-18T08:15:22Z</time>
    </trkpt>
    <trkpt lat="48.451865" lon="2.635285">
      <ele>131.781</ele>
      <time>2016-09-18T08:15:24Z</time>
    </trkpt>
    <trkpt lat="48.451815" lon="2.635445">
      <ele>133.299</ele>
      <time>2016-09-18T08:15:28Z</time>
    </trkpt>
    <trkpt lat="48.451762" lon="2.635557">
      <ele>134.667</ele>
      <time>2016-09-18T08:15:30Z</time>
    </trkpt>
    <trkpt lat="48.451707" lon="2.635706">
      <ele>135.938</ele>
      <time>2016-09-18T08:15:33Z</time>
    </trkpt>
    <trkpt lat="48.451688" lon="2.63584">
      <ele>136.971</ele>
      <time>2016-09-18T08:15:35Z</time>
    </trkpt>
    <trkpt lat="48.451717" lon="2.635998">
      <ele>138.004</ele>
      <time>2016-09-18T08:15:38Z</time>
    </trkpt>
    <trkpt lat="48.451786" lon="2.636119">
      <ele>138.599</ele>
      <time>2016-09-18T08:15:42Z</time>
    </trkpt>
    <trkpt lat="48.451761" lon="2.63629">
      <ele>139.304</ele>
      <time>2016-09-18T08:15:46Z</time>
    </trkpt>
    <trkpt lat="48.451686" lon="2.636367">
      <ele>139.852</ele>
      <time>2016-09-18T08:15:50Z</time>
    </trkpt>
    <trkpt lat="48.451603" lon="2.636441">
      <ele>139.958</ele>
      <time>2016-09-18T08:15:52Z</time>
    </trkpt>
    <trkpt lat="48.451486" lon="2.636507">
      <ele>139.775</ele>
      <time>2016-09-18T08:15:54Z</time>
    </trkpt>
    <trkpt lat="48.451369" lon="2.636575">
      <ele>139.432</ele>
      <time>2016-09-18T08:15:57Z</time>
    </trkpt>
    <trkpt lat="48.451281" lon="2.636719">
      <ele>138.908</ele>
      <time>2016-09-18T08:16:00Z</time>
    </trkpt>
    <trkpt lat="48.451246" lon="2.636876">
      <ele>138.844</ele>
      <time>2016-09-18T08:16:03Z</time>
    </trkpt>
    <trkpt lat="48.451175" lon="2.637003">
      <ele>138.46</ele>
      <time>2016-09-18T08:16:06Z</time>
    </trkpt>
    <trkpt lat="48.451113" lon="2.63712">
      <ele>138.014</ele>
      <time>2016-09-18T08:16:08Z</time>
    </trkpt>
    <trkpt lat="48.450995" lon="2.637268">
      <ele>136.815</ele>
      <time>2016-09-18T08:16:10Z</time>
    </trkpt>
    <trkpt lat="48.450992" lon="2.637414">
      <ele>137.01</ele>
      <time>2016-09-18T08:16:12Z</time>
    </trkpt>
    <trkpt lat="48.450986" lon="2.637554">
      <ele>137.294</ele>
      <time>2016-09-18T08:16:15Z</time>
    </trkpt>
    <trkpt lat="48.450927" lon="2.637748">
      <ele>137.567</ele>
      <time>2016-09-18T08:16:18Z</time>
    </trkpt>
    <trkpt lat="48.450902" lon="2.637908">
      <ele>137.61</ele>
      <time>2016-09-18T08:16:20Z</time>
    </trkpt>
    <trkpt lat="48.450881" lon="2.63804">
      <ele>137.505</ele>
      <time>2016-09-18T08:16:22Z</time>
    </trkpt>
    <trkpt lat="48.450877" lon="2.638259">
      <ele>137.472</ele>
      <time>2016-09-18T08:16:25Z</time>
    </trkpt>
    <trkpt lat="48.450857" lon="2.638454">
      <ele>136.821</ele>
      <time>2016-09-18T08:16:27Z</time>
    </trkpt>
    <trkpt lat="48.450842" lon="2.638626">
      <ele>136.04</ele>
      <time>2016-09-18T08:16:30Z</time>
    </trkpt>
    <trkpt lat="48.450813" lon="2.63881">
      <ele>134.991</ele>
      <time>2016-09-18T08:16:32Z</time>
    </trkpt>
    <trkpt lat="48.450843" lon="2.63898">
      <ele>134.788</ele>
      <time>2016-09-18T08:16:35Z</time>
    </trkpt>
    <trkpt lat="48.450885" lon="2.639157">
      <ele>134.772</ele>
      <time>2016-09-18T08:16:38Z</time>
    </trkpt>
    <trkpt lat="48.450905" lon="2.639294">
      <ele>135.032</ele>
      <time>2016-09-18T08:16:40Z</time>
    </trkpt>
    <trkpt lat="48.450894" lon="2.639465">
      <ele>134.948</ele>
      <time>2016-09-18T08:16:42Z</time>
    </trkpt>
    <trkpt lat="48.450918" lon="2.639617">
      <ele>135.84</ele>
      <time>2016-09-18T08:16:44Z</time>
    </trkpt>
    <trkpt lat="48.450923" lon="2.63976">
      <ele>136.383</ele>
      <time>2016-09-18T08:16:46Z</time>
    </trkpt>
    <trkpt lat="48.450964" lon="2.63989">
      <ele>137.201</ele>
      <time>2016-09-18T08:16:48Z</time>
    </trkpt>
    <trkpt lat="48.451018" lon="2.640022">
      <ele>138.021</ele>
      <time>2016-09-18T08:16:50Z</time>
    </trkpt>
    <trkpt lat="48.45108" lon="2.640145">
      <ele>138.722</ele>
      <time>2016-09-18T08:16:52Z</time>
    </trkpt>
    <trkpt lat="48.450998" lon="2.640264">
      <ele>138.165</ele>
      <time>2016-09-18T08:16:53Z</time>
    </trkpt>
    <trkpt lat="48.450977" lon="2.640398">
      <ele>138.243</ele>
      <time>2016-09-18T08:16:54Z</time>
    </trkpt>
    <trkpt lat="48.450938" lon="2.640577">
      <ele>138.406</ele>
      <time>2016-09-18T08:16:56Z</time>
    </trkpt>
    <trkpt lat="48.45089" lon="2.640705">
      <ele>138.314</ele>
      <time>2016-09-18T08:16:58Z</time>
    </trkpt>
    <trkpt lat="48.450811" lon="2.640865">
      <ele>138.138</ele>
      <time>2016-09-18T08:17:01Z</time>
    </trkpt>
    <trkpt lat="48.450723" lon="2.641019">
      <ele>138.674</ele>
      <time>2016-09-18T08:17:03Z</time>
    </trkpt>
    <trkpt lat="48.450658" lon="2.641174">
      <ele>139.107</ele>
      <time>2016-09-18T08:17:05Z</time>
    </trkpt>
    <trkpt lat="48.450585" lon="2.641336">
      <ele>139.745</ele>
      <time>2016-09-18T08:17:09Z</time>
    </trkpt>
    <trkpt lat="48.450476" lon="2.641452">
      <ele>140.168</ele>
      <time>2016-09-18T08:17:13Z</time>
    </trkpt>
    <trkpt lat="48.450383" lon="2.641596">
      <ele>140.87</ele>
      <time>2016-09-18T08:17:16Z</time>
    </trkpt>
    <trkpt lat="48.450297" lon="2.641676">
      <ele>141.136</ele>
      <time>2016-09-18T08:17:21Z</time>
    </trkpt>
    <trkpt lat="48.450196" lon="2.641765">
      <ele>141.604</ele>
      <time>2016-09-18T08:17:24Z</time>
    </trkpt>
    <trkpt lat="48.450134" lon="2.641913">
      <ele>142.315</ele>
      <time>2016-09-18T08:17:28Z</time>
    </trkpt>
    <trkpt lat="48.450046" lon="2.642048">
      <ele>142.477</ele>
      <time>2016-09-18T08:17:31Z</time>
    </trkpt>
    <trkpt lat="48.449968" lon="2.642193">
      <ele>142.895</ele>
      <time>2016-09-18T08:17:34Z</time>
    </trkpt>
    <trkpt lat="48.44988" lon="2.642331">
      <ele>143.0</ele>
      <time>2016-09-18T08:17:37Z</time>
    </trkpt>
    <trkpt lat="48.449828" lon="2.64249">
      <ele>143.0</ele>
      <time>2016-09-18T08:17:40Z</time>
    </trkpt>
    <trkpt lat="48.449715" lon="2.642615">
      <ele>142.989</ele>
      <time>2016-09-18T08:17:44Z</time>
    </trkpt>
    <trkpt lat="48.44962" lon="2.642758">
      <ele>142.658</ele>
      <time>2016-09-18T08:17:47Z</time>
    </trkpt>
    <trkpt lat="48.449531" lon="2.642874">
      <ele>142.312</ele>
      <time>2016-09-18T08:17:50Z</time>
    </trkpt>
    <trkpt lat="48.449469" lon="2.643054">
      <ele>142.088</ele>
      <time>2016-09-18T08:17:54Z</time>
    </trkpt>
    <trkpt lat="48.449448" lon="2.643239">
      <ele>142.013</ele>
      <time>2016-09-18T08:17:56Z</time>
    </trkpt>
    <trkpt lat="48.449408" lon="2.643434">
      <ele>141.292</ele>
      <time>2016-09-18T08:17:58Z</time>
    </trkpt>
    <trkpt lat="48.4494" lon="2.643634">
      <ele>140.667</ele>
      <time>2016-09-18T08:18:00Z</time>
    </trkpt>
    <trkpt lat="48.449429" lon="2.643795">
      <ele>140.852</ele>
      <time>2016-09-18T08:18:02Z</time>
    </trkpt>
    <trkpt lat="48.449556" lon="2.643873">
      <ele>141.803</ele>
      <time>2016-09-18T08:18:05Z</time>
    </trkpt>
    <trkpt lat="48.4496" lon="2.644017">
      <ele>142.175</ele>
      <time>2016-09-18T08:18:07Z</time>
    </trkpt>
    <trkpt lat="48.449651" lon="2.644137">
      <ele>142.922</ele>
      <time>2016-09-18T08:18:09Z</time>
    </trkpt>
    <trkpt lat="48.449641" lon="2.644321">
      <ele>143.224</ele>
      <time>2016-09-18T08:18:12Z</time>
    </trkpt>
    <trkpt lat="48.449634" lon="2.644531">
      <ele>143.199</ele>
      <time>2016-09-18T08:18:15Z</time>
    </trkpt>
    <trkpt lat="48.449602" lon="2.644723">
      <ele>142.268</ele>
      <time>2016-09-18T08:18:18Z</time>
    </trkpt>
    <trkpt lat="48.449603" lon="2.6449">
      <ele>142.009</ele>
      <time>2016-09-18T08:18:20Z</time>
    </trkpt>
    <trkpt lat="48.44961" lon="2.645043">
      <ele>141.888</ele>
      <time>2016-09-18T08:18:22Z</time>
    </trkpt>
    <trkpt lat="48.449611" lon="2.645228">
      <ele>141.506</ele>
      <time>2016-09-18T08:18:25Z</time>
    </trkpt>
    <trkpt lat="48.449609" lon="2.64538">
      <ele>141.22</ele>
      <time>2016-09-18T08:18:27Z</time>
    </trkpt>
    <trkpt lat="48.449617" lon="2.645583">
      <ele>141.007</ele>
      <time>2016-09-18T08:18:30Z</time>
    </trkpt>
    <trkpt lat="48.449633" lon="2.645763">
      <ele>140.647</ele>
      <time>2016-09-18T08:18:32Z</time>
    </trkpt>
    <trkpt lat="48.449632" lon="2.645925">
      <ele>140.483</ele>
      <time>2016-09-18T08:18:34Z</time>
    </trkpt>
    <trkpt lat="48.449646" lon="2.646117">
      <ele>140.924</ele>
      <time>2016-09-18T08:18:37Z</time>
    </trkpt>
    <trkpt lat="48.449638" lon="2.646263">
      <ele>141.334</ele>
      <time>2016-09-18T08:18:39Z</time>
    </trkpt>
    <trkpt lat="48.449601" lon="2.64641">
      <ele>141.406</ele>
      <time>2016-09-18T08:18:41Z</time>
    </trkpt>
    <trkpt lat="48.449624" lon="2.646544">
      <ele>142.702</ele>
      <time>2016-09-18T08:18:43Z</time>
    </trkpt>
    <trkpt lat="48.449634" lon="2.646707">
      <ele>143.73</ele>
      <time>2016-09-18T08:18:45Z</time>
    </trkpt>
    <trkpt lat="48.449617" lon="2.646888">
      <ele>143.485</ele>
      <time>2016-09-18T08:18:47Z</time>
    </trkpt>
    <trkpt lat="48.449564" lon="2.647036">
      <ele>142.767</ele>
      <time>2016-09-18T08:18:50Z</time>
    </trkpt>
    <trkpt lat="48.449478" lon="2.647104">
      <ele>141.919</ele>
      <time>2016-09-18T08:18:53Z</time>
    </trkpt>
    <trkpt lat="48.449373" lon="2.64715">
      <ele>141.55</ele>
      <time>2016-09-18T08:18:56Z</time>
    </trkpt>
    <trkpt lat="48.449264" lon="2.647204">
      <ele>141.327</ele>
      <time>2016-09-18T08:18:59Z</time>
    </trkpt>
    <trkpt lat="48.449167" lon="2.647295">
      <ele>141.263</ele>
      <time>2016-09-18T08:19:02Z</time>
    </trkpt>
    <trkpt lat="48.449085" lon="2.647401">
      <ele>142.042</ele>
      <time>2016-09-18T08:19:05Z</time>
    </trkpt>
    <trkpt lat="48.449035" lon="2.647516">
      <ele>142.532</ele>
      <time>2016-09-18T08:19:08Z</time>
    </trkpt>
    <trkpt lat="48.448997" lon="2.64767">
      <ele>143.223</ele>
      <time>2016-09-18T08:19:11Z</time>
    </trkpt>
    <trkpt lat="48.448928" lon="2.647843">
      <ele>144.127</ele>
      <time>2016-09-18T08:19:14Z</time>
    </trkpt>
    <trkpt lat="48.448859" lon="2.64797">
      <ele>144.692</ele>
      <time>2016-09-18T08:19:16Z</time>
    </trkpt>
    <trkpt lat="48.448819" lon="2.648098">
      <ele>145.153</ele>
      <time>2016-09-18T08:19:19Z</time>
    </trkpt>
    <trkpt lat="48.448755" lon="2.648246">
      <ele>145.686</ele>
      <time>2016-09-18T08:19:22Z</time>
    </trkpt>
    <trkpt lat="48.448716" lon="2.648409">
      <ele>146.103</ele>
      <time>2016-09-18T08:19:25Z</time>
    </trkpt>
    <trkpt lat="48.448651" lon="2.648526">
      <ele>146.1</ele>
      <time>2016-09-18T08:19:27Z</time>
    </trkpt>
    <trkpt lat="48.448601" lon="2.648646">
      <ele>145.923</ele>
      <time>2016-09-18T08:19:29Z</time>
    </trkpt>
    <trkpt lat="48.448577" lon="2.648784">
      <ele>145.678</ele>
      <time>2016-09-18T08:19:31Z</time>
    </trkpt>
    <trkpt lat="48.448536" lon="2.64896">
      <ele>145.002</ele>
      <time>2016-09-18T08:19:34Z</time>
    </trkpt>
    <trkpt lat="48.448486" lon="2.649112">
      <ele>144.207</ele>
      <time>2016-09-18T08:19:37Z</time>
    </trkpt>
    <trkpt lat="48.448467" lon="2.64925">
      <ele>143.662</ele>
      <time>2016-09-18T08:19:39Z</time>
    </trkpt>
    <trkpt lat="48.448402" lon="2.649424">
      <ele>142.568</ele>
      <time>2016-09-18T08:19:42Z</time>
    </trkpt>
    <trkpt lat="48.44836" lon="2.649566">
      <ele>142.192</ele>
      <time>2016-09-18T08:19:45Z</time>
    </trkpt>
    <trkpt lat="48.448316" lon="2.649727">
      <ele>141.938</ele>
      <time>2016-09-18T08:19:48Z</time>
    </trkpt>
    <trkpt lat="48.448291" lon="2.649891">
      <ele>141.848</ele>
      <time>2016-09-18T08:19:51Z</time>
    </trkpt>
    <trkpt lat="48.448258" lon="2.650066">
      <ele>141.793</ele>
      <time>2016-09-18T08:19:54Z</time>
    </trkpt>
    <trkpt lat="48.448195" lon="2.650226">
      <ele>141.907</ele>
      <time>2016-09-18T08:19:57Z</time>
    </trkpt>
    <trkpt lat="48.448146" lon="2.65041">
      <ele>142.0</ele>
      <time>2016-09-18T08:20:00Z</time>
    </trkpt>
    <trkpt lat="48.448154" lon="2.650675">
      <ele>142.0</ele>
      <time>2016-09-18T08:20:03Z</time>
    </trkpt>
    <trkpt lat="48.448152" lon="2.650848">
      <ele>141.966</ele>
      <time>2016-09-18T08:20:05Z</time>
    </trkpt>
    <trkpt lat="48.448171" lon="2.651003">
      <ele>141.643</ele>
      <time>2016-09-18T08:20:07Z</time>
    </trkpt>
    <trkpt lat="48.448189" lon="2.651159">
      <ele>141.398</ele>
      <time>2016-09-18T08:20:09Z</time>
    </trkpt>
    <trkpt lat="48.448201" lon="2.651323">
      <ele>141.124</ele>
      <time>2016-09-18T08:20:11Z</time>
    </trkpt>
    <trkpt lat="48.448262" lon="2.651456">
      <ele>141.0</ele>
      <time>2016-09-18T08:20:12Z</time>
    </trkpt>
    <trkpt lat="48.44831" lon="2.651596">
      <ele>141.0</ele>
      <time>2016-09-18T08:20:13Z</time>
    </trkpt>
    <trkpt lat="48.448322" lon="2.651753">
      <ele>141.0</ele>
      <time>2016-09-18T08:20:15Z</time>
    </trkpt>
    <trkpt lat="48.448363" lon="2.651926">
      <ele>141.007</ele>
      <time>2016-09-18T08:20:17Z</time>
    </trkpt>
    <trkpt lat="48.44839" lon="2.652139">
      <ele>140.442</ele>
      <time>2016-09-18T08:20:19Z</time>
    </trkpt>
    <trkpt lat="48.448365" lon="2.652337">
      <ele>140.114</ele>
      <time>2016-09-18T08:20:21Z</time>
    </trkpt>
    <trkpt lat="48.448449" lon="2.652575">
      <ele>140.034</ele>
      <time>2016-09-18T08:20:23Z</time>
    </trkpt>
    <trkpt lat="48.448545" lon="2.652774">
      <ele>139.024</ele>
      <time>2016-09-18T08:20:25Z</time>
    </trkpt>
    <trkpt lat="48.448605" lon="2.652885">
      <ele>138.992</ele>
      <time>2016-09-18T08:20:26Z</time>
    </trkpt>
    <trkpt lat="48.448613" lon="2.653063">
      <ele>139.02</ele>
      <time>2016-09-18T08:20:29Z</time>
    </trkpt>
    <trkpt lat="48.448699" lon="2.653116">
      <ele>139.812</ele>
      <time>2016-09-18T08:20:32Z</time>
    </trkpt>
    <trkpt lat="48.448768" lon="2.653222">
      <ele>140.018</ele>
      <time>2016-09-18T08:20:35Z</time>
    </trkpt>
    <trkpt lat="48.448813" lon="2.653352">
      <ele>139.611</ele>
      <time>2016-09-18T08:20:37Z</time>
    </trkpt>
    <trkpt lat="48.448879" lon="2.653468">
      <ele>139.012</ele>
      <time>2016-09-18T08:20:38Z</time>
    </trkpt>
    <trkpt lat="48.448913" lon="2.653624">
      <ele>138.127</ele>
      <time>2016-09-18T08:20:40Z</time>
    </trkpt>
    <trkpt lat="48.448989" lon="2.653759">
      <ele>138.188</ele>
      <time>2016-09-18T08:20:42Z</time>
    </trkpt>
    <trkpt lat="48.449025" lon="2.653883">
      <ele>138.001</ele>
      <time>2016-09-18T08:20:44Z</time>
    </trkpt>
    <trkpt lat="48.449067" lon="2.654017">
      <ele>138.117</ele>
      <time>2016-09-18T08:20:47Z</time>
    </trkpt>
    <trkpt lat="48.449082" lon="2.654232">
      <ele>138.157</ele>
      <time>2016-09-18T08:20:50Z</time>
    </trkpt>
    <trkpt lat="48.449025" lon="2.654412">
      <ele>137.92</ele>
      <time>2016-09-18T08:20:52Z</time>
    </trkpt>
    <trkpt lat="48.448965" lon="2.654548">
      <ele>137.548</ele>
      <time>2016-09-18T08:20:54Z</time>
    </trkpt>
    <trkpt lat="48.448966" lon="2.654697">
      <ele>137.555</ele>
      <time>2016-09-18T08:20:56Z</time>
    </trkpt>
    <trkpt lat="48.448922" lon="2.654856">
      <ele>137.777</ele>
      <time>2016-09-18T08:20:59Z</time>
    </trkpt>
    <trkpt lat="48.448889" lon="2.655012">
      <ele>138.088</ele>
      <time>2016-09-18T08:21:01Z</time>
    </trkpt>
    <trkpt lat="48.448852" lon="2.65519">
      <ele>139.144</ele>
      <time>2016-09-18T08:21:04Z</time>
    </trkpt>
    <trkpt lat="48.448798" lon="2.655344">
      <ele>139.584</ele>
      <time>2016-09-18T08:21:07Z</time>
    </trkpt>
    <trkpt lat="48.448777" lon="2.655489">
      <ele>139.955</ele>
      <time>2016-09-18T08:21:09Z</time>
    </trkpt>
    <trkpt lat="48.448736" lon="2.655617">
      <ele>140.12</ele>
      <time>2016-09-18T08:21:11Z</time>
    </trkpt>
    <trkpt lat="48.44868" lon="2.655758">
      <ele>140.225</ele>
      <time>2016-09-18T08:21:13Z</time>
    </trkpt>
    <trkpt lat="48.448653" lon="2.655944">
      <ele>140.64</ele>
      <time>2016-09-18T08:21:16Z</time>
    </trkpt>
    <trkpt lat="48.448621" lon="2.656084">
      <ele>140.941</ele>
      <time>2016-09-18T08:21:18Z</time>
    </trkpt>
    <trkpt lat="48.448583" lon="2.656236">
      <ele>140.449</ele>
      <time>2016-09-18T08:21:20Z</time>
    </trkpt>
    <trkpt lat="48.448513" lon="2.656407">
      <ele>139.582</ele>
      <time>2016-09-18T08:21:22Z</time>
    </trkpt>
    <trkpt lat="48.448435" lon="2.656588">
      <ele>138.649</ele>
      <time>2016-09-18T08:21:25Z</time>
    </trkpt>
    <trkpt lat="48.448404" lon="2.656738">
      <ele>138.446</ele>
      <time>2016-09-18T08:21:27Z</time>
    </trkpt>
    <trkpt lat="48.448342" lon="2.656931">
      <ele>138.953</ele>
      <time>2016-09-18T08:21:30Z</time>
    </trkpt>
    <trkpt lat="48.448307" lon="2.657102">
      <ele>139.526</ele>
      <time>2016-09-18T08:21:33Z</time>
    </trkpt>
    <trkpt lat="48.448269" lon="2.657298">
      <ele>140.273</ele>
      <time>2016-09-18T08:21:36Z</time>
    </trkpt>
    <trkpt lat="48.448239" lon="2.657479">
      <ele>140.924</ele>
      <time>2016-09-18T08:21:39Z</time>
    </trkpt>
    <trkpt lat="48.448185" lon="2.657665">
      <ele>141.277</ele>
      <time>2016-09-18T08:21:42Z</time>
    </trkpt>
    <trkpt lat="48.448135" lon="2.657844">
      <ele>141.456</ele>
      <time>2016-09-18T08:21:45Z</time>
    </trkpt>
    <trkpt lat="48.448115" lon="2.657981">
      <ele>141.789</ele>
      <time>2016-09-18T08:21:47Z</time>
    </trkpt>
    <trkpt lat="48.448059" lon="2.658112">
      <ele>141.799</ele>
      <time>2016-09-18T08:21:49Z</time>
    </trkpt>
    <trkpt lat="48.448018" lon="2.658249">
      <ele>141.263</ele>
      <time>2016-09-18T08:21:51Z</time>
    </trkpt>
    <trkpt lat="48.448029" lon="2.658409">
      <ele>141.0</ele>
      <time>2016-09-18T08:21:53Z</time>
    </trkpt>
    <trkpt lat="48.448017" lon="2.658581">
      <ele>141.0</ele>
      <time>2016-09-18T08:21:56Z</time>
    </trkpt>
    <trkpt lat="48.447983" lon="2.658712">
      <ele>140.637</ele>
      <time>2016-09-18T08:21:58Z</time>
    </trkpt>
    <trkpt lat="48.447941" lon="2.658891">
      <ele>139.992</ele>
      <time>2016-09-18T08:22:01Z</time>
    </trkpt>
    <trkpt lat="48.44789" lon="2.659042">
      <ele>139.449</ele>
      <time>2016-09-18T08:22:03Z</time>
    </trkpt>
    <trkpt lat="48.447866" lon="2.659182">
      <ele>138.962</ele>
      <time>2016-09-18T08:22:05Z</time>
    </trkpt>
    <trkpt lat="48.447811" lon="2.659354">
      <ele>138.406</ele>
      <time>2016-09-18T08:22:07Z</time>
    </trkpt>
    <trkpt lat="48.447774" lon="2.659546">
      <ele>138.0</ele>
      <time>2016-09-18T08:22:09Z</time>
    </trkpt>
    <trkpt lat="48.447673" lon="2.659679">
      <ele>138.0</ele>
      <time>2016-09-18T08:22:11Z</time>
    </trkpt>
    <trkpt lat="48.447573" lon="2.659774">
      <ele>138.137</ele>
      <time>2016-09-18T08:22:13Z</time>
    </trkpt>
    <trkpt lat="48.447444" lon="2.659889">
      <ele>138.802</ele>
      <time>2016-09-18T08:22:14Z</time>
    </trkpt>
    <trkpt lat="48.447482" lon="2.66002">
      <ele>139.137</ele>
      <time>2016-09-18T08:22:24Z</time>
    </trkpt>
    <trkpt lat="48.447386" lon="2.659976">
      <ele>139.324</ele>
      <time>2016-09-18T08:22:29Z</time>
    </trkpt>
    <trkpt lat="48.447446" lon="2.66011">
      <ele>139.59</ele>
      <time>2016-09-18T08:22:36Z</time>
    </trkpt>
    <trkpt lat="48.447359" lon="2.660177">
      <ele>140.145</ele>
      <time>2016-09-18T08:22:51Z</time>
    </trkpt>
    <trkpt lat="48.447317" lon="2.660306">
      <ele>140.795</ele>
      <time>2016-09-18T08:23:03Z</time>
    </trkpt>
    <trkpt lat="48.447288" lon="2.660475">
      <ele>141.641</ele>
      <time>2016-09-18T08:23:08Z</time>
    </trkpt>
    <trkpt lat="48.447199" lon="2.660512">
      <ele>141.843</ele>
      <time>2016-09-18T08:23:10Z</time>
    </trkpt>
    <trkpt lat="48.447104" lon="2.660563">
      <ele>142.027</ele>
      <time>2016-09-18T08:23:12Z</time>
    </trkpt>
    <trkpt lat="48.446988" lon="2.660614">
      <ele>142.21</ele>
      <time>2016-09-18T08:23:15Z</time>
    </trkpt>
    <trkpt lat="48.446901" lon="2.660753">
      <ele>142.711</ele>
      <time>2016-09-18T08:23:19Z</time>
    </trkpt>
    <trkpt lat="48.44678" lon="2.660767">
      <ele>142.761</ele>
      <time>2016-09-18T08:23:22Z</time>
    </trkpt>
    <trkpt lat="48.446663" lon="2.660866">
      <ele>143.116</ele>
      <time>2016-09-18T08:23:25Z</time>
    </trkpt>
    <trkpt lat="48.44656" lon="2.66093">
      <ele>143.214</ele>
      <time>2016-09-18T08:23:28Z</time>
    </trkpt>
    <trkpt lat="48.446457" lon="2.661014">
      <ele>143.159</ele>
      <time>2016-09-18T08:23:30Z</time>
    </trkpt>
    <trkpt lat="48.446332" lon="2.661061">
      <ele>142.963</ele>
      <time>2016-09-18T08:23:33Z</time>
    </trkpt>
    <trkpt lat="48.446205" lon="2.661105">
      <ele>142.985</ele>
      <time>2016-09-18T08:23:36Z</time>
    </trkpt>
    <trkpt lat="48.446092" lon="2.661166">
      <ele>143.074</ele>
      <time>2016-09-18T08:23:39Z</time>
    </trkpt>
    <trkpt lat="48.445997" lon="2.661222">
      <ele>142.742</ele>
      <time>2016-09-18T08:23:41Z</time>
    </trkpt>
    <trkpt lat="48.445894" lon="2.661226">
      <ele>142.174</ele>
      <time>2016-09-18T08:23:43Z</time>
    </trkpt>
    <trkpt lat="48.445812" lon="2.661338">
      <ele>142.557</ele>
      <time>2016-09-18T08:23:45Z</time>
    </trkpt>
    <trkpt lat="48.445742" lon="2.661427">
      <ele>142.808</ele>
      <time>2016-09-18T08:23:48Z</time>
    </trkpt>
    <trkpt lat="48.445655" lon="2.661512">
      <ele>142.801</ele>
      <time>2016-09-18T08:23:50Z</time>
    </trkpt>
    <trkpt lat="48.445548" lon="2.661539">
      <ele>142.513</ele>
      <time>2016-09-18T08:23:54Z</time>
    </trkpt>
    <trkpt lat="48.445469" lon="2.661606">
      <ele>142.47</ele>
      <time>2016-09-18T08:23:56Z</time>
    </trkpt>
    <trkpt lat="48.445337" lon="2.661697">
      <ele>142.322</ele>
      <time>2016-09-18T08:23:59Z</time>
    </trkpt>
    <trkpt lat="48.445228" lon="2.661752">
      <ele>142.073</ele>
      <time>2016-09-18T08:24:02Z</time>
    </trkpt>
    <trkpt lat="48.445177" lon="2.661897">
      <ele>142.166</ele>
      <time>2016-09-18T08:24:08Z</time>
    </trkpt>
    <trkpt lat="48.445137" lon="2.662027">
      <ele>142.284</ele>
      <time>2016-09-18T08:24:11Z</time>
    </trkpt>
    <trkpt lat="48.445064" lon="2.662163">
      <ele>142.248</ele>
      <time>2016-09-18T08:24:14Z</time>
    </trkpt>
    <trkpt lat="48.444987" lon="2.662326">
      <ele>142.73</ele>
      <time>2016-09-18T08:24:17Z</time>
    </trkpt>
    <trkpt lat="48.444937" lon="2.662441">
      <ele>143.397</ele>
      <time>2016-09-18T08:24:19Z</time>
    </trkpt>
    <trkpt lat="48.444905" lon="2.662609">
      <ele>144.05</ele>
      <time>2016-09-18T08:24:22Z</time>
    </trkpt>
    <trkpt lat="48.444834" lon="2.662753">
      <ele>144.313</ele>
      <time>2016-09-18T08:24:25Z</time>
    </trkpt>
    <trkpt lat="48.44476" lon="2.662889">
      <ele>143.79</ele>
      <time>2016-09-18T08:24:27Z</time>
    </trkpt>
    <trkpt lat="48.444702" lon="2.66307">
      <ele>142.927</ele>
      <time>2016-09-18T08:24:31Z</time>
    </trkpt>
    <trkpt lat="48.444642" lon="2.663203">
      <ele>142.711</ele>
      <time>2016-09-18T08:24:33Z</time>
    </trkpt>
    <trkpt lat="48.444595" lon="2.663347">
      <ele>142.542</ele>
      <time>2016-09-18T08:24:35Z</time>
    </trkpt>
    <trkpt lat="48.444543" lon="2.663475">
      <ele>142.355</ele>
      <time>2016-09-18T08:24:38Z</time>
    </trkpt>
    <trkpt lat="48.444514" lon="2.663608">
      <ele>142.25</ele>
      <time>2016-09-18T08:24:41Z</time>
    </trkpt>
    <trkpt lat="48.444474" lon="2.663751">
      <ele>142.053</ele>
      <time>2016-09-18T08:24:44Z</time>
    </trkpt>
    <trkpt lat="48.444381" lon="2.663799">
      <ele>141.772</ele>
      <time>2016-09-18T08:24:48Z</time>
    </trkpt>
    <trkpt lat="48.444305" lon="2.663876">
      <ele>141.498</ele>
      <time>2016-09-18T08:24:51Z</time>
    </trkpt>
    <trkpt lat="48.444241" lon="2.663974">
      <ele>141.492</ele>
      <time>2016-09-18T08:24:54Z</time>
    </trkpt>
    <trkpt lat="48.444143" lon="2.664078">
      <ele>141.623</ele>
      <time>2016-09-18T08:24:58Z</time>
    </trkpt>
    <trkpt lat="48.444054" lon="2.664162">
      <ele>141.584</ele>
      <time>2016-09-18T08:25:03Z</time>
    </trkpt>
    <trkpt lat="48.443981" lon="2.664271">
      <ele>141.583</ele>
      <time>2016-09-18T08:25:08Z</time>
    </trkpt>
    <trkpt lat="48.444103" lon="2.664122">
      <ele>141.647</ele>
      <time>2016-09-18T08:25:12Z</time>
    </trkpt>
    <trkpt lat="48.444187" lon="2.664046">
      <ele>141.597</ele>
      <time>2016-09-18T08:25:15Z</time>
    </trkpt>
    <trkpt lat="48.444152" lon="2.664206">
      <ele>141.955</ele>
      <time>2016-09-18T08:25:25Z</time>
    </trkpt>
    <trkpt lat="48.444156" lon="2.664343">
      <ele>141.986</ele>
      <time>2016-09-18T08:25:29Z</time>
    </trkpt>
    <trkpt lat="48.444107" lon="2.664475">
      <ele>142.11</ele>
      <time>2016-09-18T08:25:34Z</time>
    </trkpt>
    <trkpt lat="48.444079" lon="2.664616">
      <ele>142.618</ele>
      <time>2016-09-18T08:25:39Z</time>
    </trkpt>
    <trkpt lat="48.44404" lon="2.664767">
      <ele>143.161</ele>
      <time>2016-09-18T08:25:43Z</time>
    </trkpt>
    <trkpt lat="48.444046" lon="2.664904">
      <ele>143.654</ele>
      <time>2016-09-18T08:25:47Z</time>
    </trkpt>
    <trkpt lat="48.444006" lon="2.665045">
      <ele>144.0</ele>
      <time>2016-09-18T08:25:50Z</time>
    </trkpt>
    <trkpt lat="48.443991" lon="2.665236">
      <ele>144.0</ele>
      <time>2016-09-18T08:25:54Z</time>
    </trkpt>
    <trkpt lat="48.443982" lon="2.665376">
      <ele>144.0</ele>
      <time>2016-09-18T08:25:56Z</time>
    </trkpt>
    <trkpt lat="48.444" lon="2.665541">
      <ele>144.0</ele>
      <time>2016-09-18T08:25:58Z</time>
    </trkpt>
    <trkpt lat="48.444012" lon="2.665708">
      <ele>143.694</ele>
      <time>2016-09-18T08:26:02Z</time>
    </trkpt>
    <trkpt lat="48.444013" lon="2.665896">
      <ele>143.672</ele>
      <time>2016-09-18T08:26:05Z</time>
    </trkpt>
    <trkpt lat="48.443962" lon="2.666033">
      <ele>143.982</ele>
      <time>2016-09-18T08:26:07Z</time>
    </trkpt>
    <trkpt lat="48.443947" lon="2.666293">
      <ele>144.346</ele>
      <time>2016-09-18T08:26:10Z</time>
    </trkpt>
    <trkpt lat="48.443947" lon="2.666469">
      <ele>144.418</ele>
      <time>2016-09-18T08:26:12Z</time>
    </trkpt>
    <trkpt lat="48.44397" lon="2.666607">
      <ele>144.584</ele>
      <time>2016-09-18T08:26:16Z</time>
    </trkpt>
    <trkpt lat="48.443971" lon="2.666762">
      <ele>144.591</ele>
      <time>2016-09-18T08:26:18Z</time>
    </trkpt>
    <trkpt lat="48.443943" lon="2.666916">
      <ele>144.39</ele>
      <time>2016-09-18T08:26:20Z</time>
    </trkpt>
    <trkpt lat="48.443923" lon="2.66709">
      <ele>145.165</ele>
      <time>2016-09-18T08:26:22Z</time>
    </trkpt>
    <trkpt lat="48.443906" lon="2.667248">
      <ele>146.0</ele>
      <time>2016-09-18T08:26:25Z</time>
    </trkpt>
    <trkpt lat="48.443863" lon="2.667389">
      <ele>145.963</ele>
      <time>2016-09-18T08:26:26Z</time>
    </trkpt>
    <trkpt lat="48.443885" lon="2.667553">
      <ele>146.188</ele>
      <time>2016-09-18T08:26:29Z</time>
    </trkpt>
    <trkpt lat="48.443889" lon="2.667693">
      <ele>146.695</ele>
      <time>2016-09-18T08:26:31Z</time>
    </trkpt>
    <trkpt lat="48.443884" lon="2.667855">
      <ele>146.709</ele>
      <time>2016-09-18T08:26:34Z</time>
    </trkpt>
    <trkpt lat="48.443883" lon="2.668024">
      <ele>146.111</ele>
      <time>2016-09-18T08:26:37Z</time>
    </trkpt>
    <trkpt lat="48.443873" lon="2.668175">
      <ele>145.975</ele>
      <time>2016-09-18T08:26:39Z</time>
    </trkpt>
    <trkpt lat="48.443875" lon="2.668322">
      <ele>145.952</ele>
      <time>2016-09-18T08:26:41Z</time>
    </trkpt>
    <trkpt lat="48.443881" lon="2.668462">
      <ele>145.958</ele>
      <time>2016-09-18T08:26:45Z</time>
    </trkpt>
    <trkpt lat="48.443877" lon="2.668612">
      <ele>145.914</ele>
      <time>2016-09-18T08:26:48Z</time>
    </trkpt>
    <trkpt lat="48.443847" lon="2.668743">
      <ele>145.698</ele>
      <time>2016-09-18T08:26:51Z</time>
    </trkpt>
    <trkpt lat="48.443811" lon="2.668957">
      <ele>145.439</ele>
      <time>2016-09-18T08:26:54Z</time>
    </trkpt>
    <trkpt lat="48.443867" lon="2.669109">
      <ele>145.842</ele>
      <time>2016-09-18T08:26:59Z</time>
    </trkpt>
    <trkpt lat="48.443826" lon="2.669245">
      <ele>145.329</ele>
      <time>2016-09-18T08:27:05Z</time>
    </trkpt>
    <trkpt lat="48.443775" lon="2.669369">
      <ele>144.75</ele>
      <time>2016-09-18T08:27:09Z</time>
    </trkpt>
    <trkpt lat="48.443714" lon="2.669485">
      <ele>144.316</ele>
      <time>2016-09-18T08:27:11Z</time>
    </trkpt>
    <trkpt lat="48.443718" lon="2.669647">
      <ele>144.104</ele>
      <time>2016-09-18T08:27:14Z</time>
    </trkpt>
    <trkpt lat="48.443741" lon="2.669789">
      <ele>144.0</ele>
      <time>2016-09-18T08:27:18Z</time>
    </trkpt>
    <trkpt lat="48.443734" lon="2.669953">
      <ele>144.0</ele>
      <time>2016-09-18T08:27:21Z</time>
    </trkpt>
    <trkpt lat="48.443743" lon="2.670088">
      <ele>144.166</ele>
      <time>2016-09-18T08:27:23Z</time>
    </trkpt>
    <trkpt lat="48.443824" lon="2.670251">
      <ele>144.211</ele>
      <time>2016-09-18T08:27:25Z</time>
    </trkpt>
    <trkpt lat="48.443802" lon="2.670473">
      <ele>144.796</ele>
      <time>2016-09-18T08:27:28Z</time>
    </trkpt>
    <trkpt lat="48.443789" lon="2.670635">
      <ele>145.0</ele>
      <time>2016-09-18T08:27:31Z</time>
    </trkpt>
    <trkpt lat="48.44382" lon="2.670803">
      <ele>145.0</ele>
      <time>2016-09-18T08:27:34Z</time>
    </trkpt>
    <trkpt lat="48.443826" lon="2.670962">
      <ele>145.358</ele>
      <time>2016-09-18T08:27:37Z</time>
    </trkpt>
    <trkpt lat="48.443833" lon="2.67116">
      <ele>145.939</ele>
      <time>2016-09-18T08:27:41Z</time>
    </trkpt>
    <trkpt lat="48.443854" lon="2.671337">
      <ele>146.585</ele>
      <time>2016-09-18T08:27:43Z</time>
    </trkpt>
    <trkpt lat="48.443845" lon="2.671476">
      <ele>146.684</ele>
      <time>2016-09-18T08:27:45Z</time>
    </trkpt>
    <trkpt lat="48.443853" lon="2.671678">
      <ele>146.788</ele>
      <time>2016-09-18T08:27:48Z</time>
    </trkpt>
    <trkpt lat="48.443861" lon="2.671857">
      <ele>147.553</ele>
      <time>2016-09-18T08:27:50Z</time>
    </trkpt>
    <trkpt lat="48.443799" lon="2.671965">
      <ele>147.824</ele>
      <time>2016-09-18T08:27:53Z</time>
    </trkpt>
    <trkpt lat="48.443724" lon="2.672097">
      <ele>148.505</ele>
      <time>2016-09-18T08:27:56Z</time>
    </trkpt>
    <trkpt lat="48.443675" lon="2.672223">
      <ele>149.232</ele>
      <time>2016-09-18T08:27:59Z</time>
    </trkpt>
    <trkpt lat="48.443621" lon="2.672364">
      <ele>149.528</ele>
      <time>2016-09-18T08:28:03Z</time>
    </trkpt>
    <trkpt lat="48.443587" lon="2.672521">
      <ele>149.74</ele>
      <time>2016-09-18T08:28:08Z</time>
    </trkpt>
    <trkpt lat="48.443548" lon="2.67268">
      <ele>149.318</ele>
      <time>2016-09-18T08:28:12Z</time>
    </trkpt>
    <trkpt lat="48.443497" lon="2.672799">
      <ele>148.799</ele>
      <time>2016-09-18T08:28:15Z</time>
    </trkpt>
    <trkpt lat="48.44338" lon="2.672933">
      <ele>147.969</ele>
      <time>2016-09-18T08:28:19Z</time>
    </trkpt>
    <trkpt lat="48.443285" lon="2.673061">
      <ele>147.11</ele>
      <time>2016-09-18T08:28:23Z</time>
    </trkpt>
    <trkpt lat="48.443229" lon="2.67323">
      <ele>145.494</ele>
      <time>2016-09-18T08:28:26Z</time>
    </trkpt>
    <trkpt lat="48.443147" lon="2.673413">
      <ele>143.646</ele>
      <time>2016-09-18T08:28:30Z</time>
    </trkpt>
    <trkpt lat="48.443086" lon="2.673557">
      <ele>142.548</ele>
      <time>2016-09-18T08:28:35Z</time>
    </trkpt>
    <trkpt lat="48.442972" lon="2.673587">
      <ele>140.548</ele>
      <time>2016-09-18T08:28:39Z</time>
    </trkpt>
    <trkpt lat="48.442865" lon="2.673614">
      <ele>138.563</ele>
      <time>2016-09-18T08:28:42Z</time>
    </trkpt>
    <trkpt lat="48.44278" lon="2.673732">
      <ele>136.608</ele>
      <time>2016-09-18T08:28:45Z</time>
    </trkpt>
    <trkpt lat="48.442724" lon="2.673842">
      <ele>135.266</ele>
      <time>2016-09-18T08:28:48Z</time>
    </trkpt>
    <trkpt lat="48.44264" lon="2.67391">
      <ele>133.406</ele>
      <time>2016-09-18T08:28:50Z</time>
    </trkpt>
    <trkpt lat="48.442607" lon="2.674037">
      <ele>132.065</ele>
      <time>2016-09-18T08:28:52Z</time>
    </trkpt>
    <trkpt lat="48.442552" lon="2.674215">
      <ele>130.123</ele>
      <time>2016-09-18T08:28:55Z</time>
    </trkpt>
    <trkpt lat="48.442519" lon="2.674421">
      <ele>129.41</ele>
      <time>2016-09-18T08:28:58Z</time>
    </trkpt>
    <trkpt lat="48.442496" lon="2.674564">
      <ele>128.965</ele>
      <time>2016-09-18T08:29:00Z</time>
    </trkpt>
    <trkpt lat="48.442521" lon="2.674731">
      <ele>129.349</ele>
      <time>2016-09-18T08:29:02Z</time>
    </trkpt>
    <trkpt lat="48.442537" lon="2.674909">
      <ele>129.083</ele>
      <time>2016-09-18T08:29:05Z</time>
    </trkpt>
    <trkpt lat="48.442503" lon="2.675086">
      <ele>127.755</ele>
      <time>2016-09-18T08:29:08Z</time>
    </trkpt>
    <trkpt lat="48.442459" lon="2.675227">
      <ele>126.74</ele>
      <time>2016-09-18T08:29:11Z</time>
    </trkpt>
    <trkpt lat="48.442409" lon="2.675341">
      <ele>125.943</ele>
      <time>2016-09-18T08:29:13Z</time>
    </trkpt>
    <trkpt lat="48.442347" lon="2.675499">
      <ele>124.909</ele>
      <time>2016-09-18T08:29:16Z</time>
    </trkpt>
    <trkpt lat="48.44224" lon="2.675593">
      <ele>123.265</ele>
      <time>2016-09-18T08:29:19Z</time>
    </trkpt>
    <trkpt lat="48.442156" lon="2.675681">
      <ele>122.654</ele>
      <time>2016-09-18T08:29:22Z</time>
    </trkpt>
    <trkpt lat="48.442152" lon="2.675822">
      <ele>122.505</ele>
      <time>2016-09-18T08:29:31Z</time>
    </trkpt>
    <trkpt lat="48.44209" lon="2.675924">
      <ele>122.39</ele>
      <time>2016-09-18T08:29:50Z</time>
    </trkpt>
    <trkpt lat="48.44198" lon="2.67592">
      <ele>121.336</ele>
      <time>2016-09-18T08:29:54Z</time>
    </trkpt>
    <trkpt lat="48.441878" lon="2.675914">
      <ele>120.452</ele>
      <time>2016-09-18T08:29:57Z</time>
    </trkpt>
    <trkpt lat="48.441769" lon="2.675869">
      <ele>119.656</ele>
      <time>2016-09-18T08:30:00Z</time>
    </trkpt>
    <trkpt lat="48.441667" lon="2.675876">
      <ele>118.849</ele>
      <time>2016-09-18T08:30:03Z</time>
    </trkpt>
    <trkpt lat="48.441591" lon="2.675949">
      <ele>117.925</ele>
      <time>2016-09-18T08:30:08Z</time>
    </trkpt>
    <trkpt lat="48.441441" lon="2.675958">
      <ele>116.562</ele>
      <time>2016-09-18T08:30:12Z</time>
    </trkpt>
    <trkpt lat="48.44131" lon="2.675987">
      <ele>115.452</ele>
      <time>2016-09-18T08:30:15Z</time>
    </trkpt>
    <trkpt lat="48.441217" lon="2.675955">
      <ele>115.234</ele>
      <time>2016-09-18T08:30:20Z</time>
    </trkpt>
    <trkpt lat="48.441122" lon="2.675988">
      <ele>114.391</ele>
      <time>2016-09-18T08:30:24Z</time>
    </trkpt>
    <trkpt lat="48.441023" lon="2.67605">
      <ele>113.026</ele>
      <time>2016-09-18T08:30:27Z</time>
    </trkpt>
    <trkpt lat="48.440932" lon="2.676109">
      <ele>111.733</ele>
      <time>2016-09-18T08:30:30Z</time>
    </trkpt>
    <trkpt lat="48.440827" lon="2.676153">
      <ele>110.679</ele>
      <time>2016-09-18T08:30:34Z</time>
    </trkpt>
    <trkpt lat="48.44073" lon="2.676153">
      <ele>110.382</ele>
      <time>2016-09-18T08:30:36Z</time>
    </trkpt>
    <trkpt lat="48.440631" lon="2.676143">
      <ele>110.126</ele>
      <time>2016-09-18T08:30:39Z</time>
    </trkpt>
    <trkpt lat="48.440537" lon="2.676196">
      <ele>109.694</ele>
      <time>2016-09-18T08:30:42Z</time>
    </trkpt>
    <trkpt lat="48.440442" lon="2.676219">
      <ele>109.612</ele>
      <time>2016-09-18T08:30:45Z</time>
    </trkpt>
    <trkpt lat="48.440352" lon="2.676234">
      <ele>109.558</ele>
      <time>2016-09-18T08:30:48Z</time>
    </trkpt>
    <trkpt lat="48.44026" lon="2.676216">
      <ele>109.598</ele>
      <time>2016-09-18T08:30:54Z</time>
    </trkpt>
    <trkpt lat="48.440179" lon="2.67615">
      <ele>109.81</ele>
      <time>2016-09-18T08:30:57Z</time>
    </trkpt>
    <trkpt lat="48.440088" lon="2.676116">
      <ele>109.97</ele>
      <time>2016-09-18T08:31:03Z</time>
    </trkpt>
    <trkpt lat="48.440006" lon="2.676051">
      <ele>110.005</ele>
      <time>2016-09-18T08:31:21Z</time>
    </trkpt>
    <trkpt lat="48.439946" lon="2.675939">
      <ele>109.537</ele>
      <time>2016-09-18T08:31:29Z</time>
    </trkpt>
    <trkpt lat="48.440039" lon="2.6758">
      <ele>110.157</ele>
      <time>2016-09-18T08:31:31Z</time>
    </trkpt>
    <trkpt lat="48.439992" lon="2.675626">
      <ele>109.921</ele>
      <time>2016-09-18T08:31:33Z</time>
    </trkpt>
    <trkpt lat="48.439968" lon="2.675799">
      <ele>109.755</ele>
      <time>2016-09-18T08:31:38Z</time>
    </trkpt>
    <trkpt lat="48.439908" lon="2.675943">
      <ele>109.207</ele>
      <time>2016-09-18T08:31:41Z</time>
    </trkpt>
    <trkpt lat="48.439824" lon="2.67603">
      <ele>108.284</ele>
      <time>2016-09-18T08:31:46Z</time>
    </trkpt>
    <trkpt lat="48.439819" lon="2.676171">
      <ele>107.754</ele>
      <time>2016-09-18T08:31:53Z</time>
    </trkpt>
    <trkpt lat="48.439729" lon="2.676233">
      <ele>106.624</ele>
      <time>2016-09-18T08:32:03Z</time>
    </trkpt>
    <trkpt lat="48.439613" lon="2.676248">
      <ele>105.134</ele>
      <time>2016-09-18T08:32:08Z</time>
    </trkpt>
    <trkpt lat="48.439525" lon="2.676287">
      <ele>103.787</ele>
      <time>2016-09-18T08:32:12Z</time>
    </trkpt>
    <trkpt lat="48.439433" lon="2.676344">
      <ele>102.193</ele>
      <time>2016-09-18T08:32:19Z</time>
    </trkpt>
    <trkpt lat="48.439381" lon="2.676458">
      <ele>101.123</ele>
      <time>2016-09-18T08:32:26Z</time>
    </trkpt>
    <trkpt lat="48.439288" lon="2.676424">
      <ele>100.255</ele>
      <time>2016-09-18T08:32:33Z</time>
    </trkpt>
    <trkpt lat="48.439207" lon="2.67634">
      <ele>99.637</ele>
      <time>2016-09-18T08:33:07Z</time>
    </trkpt>
    <trkpt lat="48.439172" lon="2.676194">
      <ele>99.773</ele>
      <time>2016-09-18T08:33:10Z</time>
    </trkpt>
    <trkpt lat="48.439115" lon="2.676053">
      <ele>99.984</ele>
      <time>2016-09-18T08:33:14Z</time>
    </trkpt>
    <trkpt lat="48.439087" lon="2.675921">
      <ele>100.201</ele>
      <time>2016-09-18T08:33:18Z</time>
    </trkpt>
    <trkpt lat="48.439026" lon="2.675784">
      <ele>100.255</ele>
      <time>2016-09-18T08:33:23Z</time>
    </trkpt>
    <trkpt lat="48.439025" lon="2.675628">
      <ele>101.096</ele>
      <time>2016-09-18T08:33:27Z</time>
    </trkpt>
    <trkpt lat="48.439007" lon="2.675471">
      <ele>101.859</ele>
      <time>2016-09-18T08:33:31Z</time>
    </trkpt>
    <trkpt lat="48.438967" lon="2.675304">
      <ele>102.441</ele>
      <time>2016-09-18T08:33:35Z</time>
    </trkpt>
    <trkpt lat="48.438952" lon="2.675166">
      <ele>102.454</ele>
      <time>2016-09-18T08:33:38Z</time>
    </trkpt>
    <trkpt lat="48.438926" lon="2.675032">
      <ele>102.267</ele>
      <time>2016-09-18T08:33:42Z</time>
    </trkpt>
    <trkpt lat="48.438934" lon="2.674875">
      <ele>102.702</ele>
      <time>2016-09-18T08:33:45Z</time>
    </trkpt>
    <trkpt lat="48.438906" lon="2.674715">
      <ele>103.062</ele>
      <time>2016-09-18T08:33:49Z</time>
    </trkpt>
    <trkpt lat="48.438865" lon="2.67454">
      <ele>103.0</ele>
      <time>2016-09-18T08:33:53Z</time>
    </trkpt>
    <trkpt lat="48.438808" lon="2.674372">
      <ele>103.261</ele>
      <time>2016-09-18T08:33:56Z</time>
    </trkpt>
    <trkpt lat="48.438746" lon="2.674269">
      <ele>103.632</ele>
      <time>2016-09-18T08:33:58Z</time>
    </trkpt>
    <trkpt lat="48.438756" lon="2.674088">
      <ele>104.271</ele>
      <time>2016-09-18T08:34:04Z</time>
    </trkpt>
    <trkpt lat="48.438684" lon="2.67398">
      <ele>104.991</ele>
      <time>2016-09-18T08:34:09Z</time>
    </trkpt>
    <trkpt lat="48.438677" lon="2.673811">
      <ele>105.592</ele>
      <time>2016-09-18T08:34:13Z</time>
    </trkpt>
    <trkpt lat="48.438641" lon="2.673673">
      <ele>105.868</ele>
      <time>2016-09-18T08:34:16Z</time>
    </trkpt>
    <trkpt lat="48.438603" lon="2.673535">
      <ele>106.037</ele>
      <time>2016-09-18T08:34:19Z</time>
    </trkpt>
    <trkpt lat="48.438522" lon="2.673446">
      <ele>106.511</ele>
      <time>2016-09-18T08:34:21Z</time>
    </trkpt>
    <trkpt lat="48.438452" lon="2.673269">
      <ele>107.146</ele>
      <time>2016-09-18T08:34:24Z</time>
    </trkpt>
    <trkpt lat="48.438479" lon="2.673129">
      <ele>106.951</ele>
      <time>2016-09-18T08:34:29Z</time>
    </trkpt>
    <trkpt lat="48.438399" lon="2.673053">
      <ele>107.529</ele>
      <time>2016-09-18T08:34:32Z</time>
    </trkpt>
    <trkpt lat="48.438396" lon="2.672906">
      <ele>107.67</ele>
      <time>2016-09-18T08:34:35Z</time>
    </trkpt>
    <trkpt lat="48.438387" lon="2.672766">
      <ele>107.773</ele>
      <time>2016-09-18T08:34:39Z</time>
    </trkpt>
    <trkpt lat="48.438349" lon="2.672621">
      <ele>107.411</ele>
      <time>2016-09-18T08:34:44Z</time>
    </trkpt>
    <trkpt lat="48.438277" lon="2.672534">
      <ele>107.3</ele>
      <time>2016-09-18T08:34:47Z</time>
    </trkpt>
    <trkpt lat="48.438279" lon="2.672371">
      <ele>107.943</ele>
      <time>2016-09-18T08:34:51Z</time>
    </trkpt>
    <trkpt lat="48.438267" lon="2.672233">
      <ele>108.702</ele>
      <time>2016-09-18T08:34:54Z</time>
    </trkpt>
    <trkpt lat="48.438257" lon="2.672077">
      <ele>109.914</ele>
      <time>2016-09-18T08:34:58Z</time>
    </trkpt>
    <trkpt lat="48.438281" lon="2.671946">
      <ele>110.988</ele>
      <time>2016-09-18T08:35:01Z</time>
    </trkpt>
    <trkpt lat="48.438232" lon="2.671802">
      <ele>112.351</ele>
      <time>2016-09-18T08:35:05Z</time>
    </trkpt>
    <trkpt lat="48.43819" lon="2.671633">
      <ele>113.484</ele>
      <time>2016-09-18T08:35:09Z</time>
    </trkpt>
    <trkpt lat="48.438171" lon="2.671464">
      <ele>113.416</ele>
      <time>2016-09-18T08:35:15Z</time>
    </trkpt>
    <trkpt lat="48.438131" lon="2.671302">
      <ele>112.646</ele>
      <time>2016-09-18T08:35:19Z</time>
    </trkpt>
    <trkpt lat="48.438051" lon="2.671201">
      <ele>111.625</ele>
      <time>2016-09-18T08:35:22Z</time>
    </trkpt>
    <trkpt lat="48.437998" lon="2.671071">
      <ele>110.793</ele>
      <time>2016-09-18T08:35:24Z</time>
    </trkpt>
    <trkpt lat="48.437885" lon="2.67105">
      <ele>110.386</ele>
      <time>2016-09-18T08:35:29Z</time>
    </trkpt>
    <trkpt lat="48.437771" lon="2.671046">
      <ele>109.981</ele>
      <time>2016-09-18T08:35:32Z</time>
    </trkpt>
    <trkpt lat="48.43767" lon="2.671068">
      <ele>109.672</ele>
      <time>2016-09-18T08:35:34Z</time>
    </trkpt>
    <trkpt lat="48.437565" lon="2.671066">
      <ele>109.358</ele>
      <time>2016-09-18T08:35:36Z</time>
    </trkpt>
    <trkpt lat="48.437452" lon="2.671032">
      <ele>109.236</ele>
      <time>2016-09-18T08:35:38Z</time>
    </trkpt>
    <trkpt lat="48.437349" lon="2.671014">
      <ele>109.16</ele>
      <time>2016-09-18T08:35:40Z</time>
    </trkpt>
    <trkpt lat="48.437233" lon="2.67098">
      <ele>109.018</ele>
      <time>2016-09-18T08:35:42Z</time>
    </trkpt>
    <trkpt lat="48.437055" lon="2.670946">
      <ele>108.398</ele>
      <time>2016-09-18T08:35:45Z</time>
    </trkpt>
    <trkpt lat="48.436914" lon="2.670994">
      <ele>107.89</ele>
      <time>2016-09-18T08:35:49Z</time>
    </trkpt>
    <trkpt lat="48.436804" lon="2.670964">
      <ele>107.494</ele>
      <time>2016-09-18T08:35:51Z</time>
    </trkpt>
    <trkpt lat="48.436684" lon="2.67096">
      <ele>107.062</ele>
      <time>2016-09-18T08:35:53Z</time>
    </trkpt>
    <trkpt lat="48.43655" lon="2.670904">
      <ele>106.16</ele>
      <time>2016-09-18T08:35:55Z</time>
    </trkpt>
    <trkpt lat="48.436431" lon="2.670926">
      <ele>105.303</ele>
      <time>2016-09-18T08:35:59Z</time>
    </trkpt>
    <trkpt lat="48.436298" lon="2.670933">
      <ele>104.79</ele>
      <time>2016-09-18T08:36:04Z</time>
    </trkpt>
    <trkpt lat="48.436176" lon="2.670937">
      <ele>104.52</ele>
      <time>2016-09-18T08:36:06Z</time>
    </trkpt>
    <trkpt lat="48.436038" lon="2.670897">
      <ele>104.898</ele>
      <time>2016-09-18T08:36:08Z</time>
    </trkpt>
    <trkpt lat="48.435911" lon="2.670897">
      <ele>106.06</ele>
      <time>2016-09-18T08:36:10Z</time>
    </trkpt>
    <trkpt lat="48.435788" lon="2.670923">
      <ele>107.277</ele>
      <time>2016-09-18T08:36:12Z</time>
    </trkpt>
    <trkpt lat="48.435691" lon="2.670946">
      <ele>108.436</ele>
      <time>2016-09-18T08:36:15Z</time>
    </trkpt>
    <trkpt lat="48.435507" lon="2.670957">
      <ele>110.381</ele>
      <time>2016-09-18T08:36:17Z</time>
    </trkpt>
    <trkpt lat="48.435418" lon="2.671042">
      <ele>110.116</ele>
      <time>2016-09-18T08:36:21Z</time>
    </trkpt>
    <trkpt lat="48.435327" lon="2.67107">
      <ele>110.241</ele>
      <time>2016-09-18T08:36:24Z</time>
    </trkpt>
    <trkpt lat="48.43522" lon="2.671105">
      <ele>110.477</ele>
      <time>2016-09-18T08:36:26Z</time>
    </trkpt>
    <trkpt lat="48.435112" lon="2.671151">
      <ele>110.906</ele>
      <time>2016-09-18T08:36:29Z</time>
    </trkpt>
    <trkpt lat="48.434992" lon="2.671184">
      <ele>111.475</ele>
      <time>2016-09-18T08:36:32Z</time>
    </trkpt>
    <trkpt lat="48.434899" lon="2.671213">
      <ele>111.266</ele>
      <time>2016-09-18T08:36:35Z</time>
    </trkpt>
    <trkpt lat="48.434807" lon="2.671242">
      <ele>111.058</ele>
      <time>2016-09-18T08:36:37Z</time>
    </trkpt>
    <trkpt lat="48.434713" lon="2.671283">
      <ele>110.729</ele>
      <time>2016-09-18T08:36:39Z</time>
    </trkpt>
    <trkpt lat="48.434631" lon="2.671345">
      <ele>109.988</ele>
      <time>2016-09-18T08:36:41Z</time>
    </trkpt>
    <trkpt lat="48.434531" lon="2.67139">
      <ele>109.302</ele>
      <time>2016-09-18T08:36:43Z</time>
    </trkpt>
    <trkpt lat="48.434434" lon="2.671428">
      <ele>108.761</ele>
      <time>2016-09-18T08:36:45Z</time>
    </trkpt>
    <trkpt lat="48.434277" lon="2.671404">
      <ele>109.527</ele>
      <time>2016-09-18T08:36:47Z</time>
    </trkpt>
    <trkpt lat="48.434175" lon="2.671441">
      <ele>109.777</ele>
      <time>2016-09-18T08:36:49Z</time>
    </trkpt>
    <trkpt lat="48.434057" lon="2.6715">
      <ele>109.205</ele>
      <time>2016-09-18T08:36:51Z</time>
    </trkpt>
    <trkpt lat="48.433958" lon="2.671554">
      <ele>108.654</ele>
      <time>2016-09-18T08:36:53Z</time>
    </trkpt>
    <trkpt lat="48.433865" lon="2.671563">
      <ele>108.115</ele>
      <time>2016-09-18T08:36:55Z</time>
    </trkpt>
    <trkpt lat="48.433774" lon="2.671585">
      <ele>107.053</ele>
      <time>2016-09-18T08:36:56Z</time>
    </trkpt>
    <trkpt lat="48.433683" lon="2.671646">
      <ele>105.851</ele>
      <time>2016-09-18T08:36:59Z</time>
    </trkpt>
    <trkpt lat="48.43359" lon="2.67166">
      <ele>104.948</ele>
      <time>2016-09-18T08:37:01Z</time>
    </trkpt>
    <trkpt lat="48.433484" lon="2.671628">
      <ele>104.682</ele>
      <time>2016-09-18T08:37:03Z</time>
    </trkpt>
    <trkpt lat="48.433338" lon="2.67157">
      <ele>104.365</ele>
      <time>2016-09-18T08:37:05Z</time>
    </trkpt>
    <trkpt lat="48.433252" lon="2.671507">
      <ele>104.699</ele>
      <time>2016-09-18T08:37:07Z</time>
    </trkpt>
    <trkpt lat="48.433143" lon="2.671461">
      <ele>104.918</ele>
      <time>2016-09-18T08:37:10Z</time>
    </trkpt>
    <trkpt lat="48.433049" lon="2.671365">
      <ele>105.108</ele>
      <time>2016-09-18T08:37:13Z</time>
    </trkpt>
    <trkpt lat="48.432939" lon="2.671266">
      <ele>105.676</ele>
      <time>2016-09-18T08:37:16Z</time>
    </trkpt>
    <trkpt lat="48.432835" lon="2.671211">
      <ele>105.926</ele>
      <time>2016-09-18T08:37:19Z</time>
    </trkpt>
    <trkpt lat="48.43273" lon="2.671163">
      <ele>106.312</ele>
      <time>2016-09-18T08:37:22Z</time>
    </trkpt>
    <trkpt lat="48.432646" lon="2.671105">
      <ele>106.971</ele>
      <time>2016-09-18T08:37:25Z</time>
    </trkpt>
    <trkpt lat="48.432534" lon="2.671043">
      <ele>108.0</ele>
      <time>2016-09-18T08:37:29Z</time>
    </trkpt>
    <trkpt lat="48.432432" lon="2.670996">
      <ele>108.558</ele>
      <time>2016-09-18T08:37:32Z</time>
    </trkpt>
    <trkpt lat="48.432349" lon="2.670927">
      <ele>108.846</ele>
      <time>2016-09-18T08:37:35Z</time>
    </trkpt>
    <trkpt lat="48.432247" lon="2.670911">
      <ele>108.975</ele>
      <time>2016-09-18T08:37:37Z</time>
    </trkpt>
    <trkpt lat="48.432148" lon="2.670888">
      <ele>108.466</ele>
      <time>2016-09-18T08:37:41Z</time>
    </trkpt>
    <trkpt lat="48.43204" lon="2.670844">
      <ele>107.688</ele>
      <time>2016-09-18T08:37:44Z</time>
    </trkpt>
    <trkpt lat="48.431945" lon="2.670789">
      <ele>107.004</ele>
      <time>2016-09-18T08:37:46Z</time>
    </trkpt>
    <trkpt lat="48.431861" lon="2.670726">
      <ele>107.0</ele>
      <time>2016-09-18T08:37:48Z</time>
    </trkpt>
    <trkpt lat="48.431742" lon="2.670697">
      <ele>107.0</ele>
      <time>2016-09-18T08:37:50Z</time>
    </trkpt>
    <trkpt lat="48.431632" lon="2.670638">
      <ele>107.0</ele>
      <time>2016-09-18T08:37:52Z</time>
    </trkpt>
    <trkpt lat="48.431535" lon="2.67062">
      <ele>107.0</ele>
      <time>2016-09-18T08:37:55Z</time>
    </trkpt>
    <trkpt lat="48.431424" lon="2.670562">
      <ele>107.0</ele>
      <time>2016-09-18T08:37:58Z</time>
    </trkpt>
    <trkpt lat="48.431301" lon="2.670536">
      <ele>106.978</ele>
      <time>2016-09-18T08:38:01Z</time>
    </trkpt>
    <trkpt lat="48.431175" lon="2.670501">
      <ele>106.849</ele>
      <time>2016-09-18T08:38:04Z</time>
    </trkpt>
    <trkpt lat="48.431074" lon="2.67047">
      <ele>106.6</ele>
      <time>2016-09-18T08:38:06Z</time>
    </trkpt>
    <trkpt lat="48.430958" lon="2.670507">
      <ele>106.37</ele>
      <time>2016-09-18T08:38:09Z</time>
    </trkpt>
    <trkpt lat="48.430911" lon="2.670666">
      <ele>105.882</ele>
      <time>2016-09-18T08:38:12Z</time>
    </trkpt>
    <trkpt lat="48.43089" lon="2.670805">
      <ele>105.306</ele>
      <time>2016-09-18T08:38:15Z</time>
    </trkpt>
    <trkpt lat="48.43081" lon="2.670901">
      <ele>104.98</ele>
      <time>2016-09-18T08:38:17Z</time>
    </trkpt>
    <trkpt lat="48.430758" lon="2.671055">
      <ele>104.784</ele>
      <time>2016-09-18T08:38:20Z</time>
    </trkpt>
    <trkpt lat="48.430683" lon="2.671191">
      <ele>104.459</ele>
      <time>2016-09-18T08:38:22Z</time>
    </trkpt>
    <trkpt lat="48.430688" lon="2.671334">
      <ele>104.477</ele>
      <time>2016-09-18T08:38:24Z</time>
    </trkpt>
    <trkpt lat="48.430639" lon="2.671486">
      <ele>104.3</ele>
      <time>2016-09-18T08:38:27Z</time>
    </trkpt>
    <trkpt lat="48.430556" lon="2.671615">
      <ele>104.002</ele>
      <time>2016-09-18T08:38:30Z</time>
    </trkpt>
    <trkpt lat="48.430513" lon="2.671776">
      <ele>103.667</ele>
      <time>2016-09-18T08:38:34Z</time>
    </trkpt>
    <trkpt lat="48.430456" lon="2.671924">
      <ele>103.406</ele>
      <time>2016-09-18T08:38:37Z</time>
    </trkpt>
    <trkpt lat="48.430427" lon="2.672053">
      <ele>103.282</ele>
      <time>2016-09-18T08:38:41Z</time>
    </trkpt>
    <trkpt lat="48.430335" lon="2.672186">
      <ele>103.104</ele>
      <time>2016-09-18T08:38:44Z</time>
    </trkpt>
    <trkpt lat="48.430273" lon="2.672304">
      <ele>103.012</ele>
      <time>2016-09-18T08:38:48Z</time>
    </trkpt>
    <trkpt lat="48.430176" lon="2.672441">
      <ele>103.078</ele>
      <time>2016-09-18T08:38:52Z</time>
    </trkpt>
    <trkpt lat="48.430108" lon="2.672555">
      <ele>102.879</ele>
      <time>2016-09-18T08:38:55Z</time>
    </trkpt>
    <trkpt lat="48.430048" lon="2.672661">
      <ele>102.521</ele>
      <time>2016-09-18T08:38:58Z</time>
    </trkpt>
    <trkpt lat="48.429966" lon="2.672733">
      <ele>102.406</ele>
      <time>2016-09-18T08:39:02Z</time>
    </trkpt>
    <trkpt lat="48.429878" lon="2.672808">
      <ele>102.831</ele>
      <time>2016-09-18T08:39:06Z</time>
    </trkpt>
    <trkpt lat="48.429808" lon="2.672906">
      <ele>103.063</ele>
      <time>2016-09-18T08:39:12Z</time>
    </trkpt>
    <trkpt lat="48.429731" lon="2.673026">
      <ele>103.071</ele>
      <time>2016-09-18T08:39:17Z</time>
    </trkpt>
    <trkpt lat="48.429675" lon="2.673138">
      <ele>103.29</ele>
      <time>2016-09-18T08:39:24Z</time>
    </trkpt>
    <trkpt lat="48.429625" lon="2.673292">
      <ele>103.402</ele>
      <time>2016-09-18T08:39:32Z</time>
    </trkpt>
    <trkpt lat="48.429533" lon="2.673331">
      <ele>103.687</ele>
      <time>2016-09-18T08:39:38Z</time>
    </trkpt>
    <trkpt lat="48.429416" lon="2.673353">
      <ele>104.434</ele>
      <time>2016-09-18T08:39:42Z</time>
    </trkpt>
    <trkpt lat="48.429343" lon="2.673444">
      <ele>105.601</ele>
      <time>2016-09-18T08:39:49Z</time>
    </trkpt>
    <trkpt lat="48.42924" lon="2.673453">
      <ele>106.435</ele>
      <time>2016-09-18T08:39:54Z</time>
    </trkpt>
    <trkpt lat="48.429138" lon="2.673455">
      <ele>107.264</ele>
      <time>2016-09-18T08:39:59Z</time>
    </trkpt>
    <trkpt lat="48.429104" lon="2.673581">
      <ele>107.476</ele>
      <time>2016-09-18T08:40:07Z</time>
    </trkpt>
    <trkpt lat="48.429007" lon="2.673638">
      <ele>108.288</ele>
      <time>2016-09-18T08:40:11Z</time>
    </trkpt>
    <trkpt lat="48.428926" lon="2.67372">
      <ele>109.177</ele>
      <time>2016-09-18T08:40:19Z</time>
    </trkpt>
    <trkpt lat="48.428864" lon="2.673839">
      <ele>110.032</ele>
      <time>2016-09-18T08:40:30Z</time>
    </trkpt>
    <trkpt lat="48.428789" lon="2.673949">
      <ele>110.78</ele>
      <time>2016-09-18T08:41:22Z</time>
    </trkpt>
    <trkpt lat="48.42872" lon="2.674045">
      <ele>111.095</ele>
      <time>2016-09-18T08:41:25Z</time>
    </trkpt>
    <trkpt lat="48.42865" lon="2.674184">
      <ele>110.91</ele>
      <time>2016-09-18T08:41:28Z</time>
    </trkpt>
    <trkpt lat="48.42859" lon="2.674292">
      <ele>109.987</ele>
      <time>2016-09-18T08:41:31Z</time>
    </trkpt>
    <trkpt lat="48.428516" lon="2.674461">
      <ele>108.274</ele>
      <time>2016-09-18T08:41:34Z</time>
    </trkpt>
    <trkpt lat="48.428422" lon="2.674571">
      <ele>107.018</ele>
      <time>2016-09-18T08:41:36Z</time>
    </trkpt>
    <trkpt lat="48.428316" lon="2.67467">
      <ele>105.513</ele>
      <time>2016-09-18T08:41:40Z</time>
    </trkpt>
    <trkpt lat="48.428256" lon="2.674805">
      <ele>105.259</ele>
      <time>2016-09-18T08:41:44Z</time>
    </trkpt>
    <trkpt lat="48.428259" lon="2.674969">
      <ele>104.647</ele>
      <time>2016-09-18T08:41:49Z</time>
    </trkpt>
    <trkpt lat="48.428292" lon="2.675178">
      <ele>103.111</ele>
      <time>2016-09-18T08:41:53Z</time>
    </trkpt>
    <trkpt lat="48.428303" lon="2.675375">
      <ele>101.939</ele>
      <time>2016-09-18T08:41:57Z</time>
    </trkpt>
    <trkpt lat="48.428312" lon="2.675565">
      <ele>101.154</ele>
      <time>2016-09-18T08:42:00Z</time>
    </trkpt>
    <trkpt lat="48.428282" lon="2.675696">
      <ele>101.37</ele>
      <time>2016-09-18T08:42:03Z</time>
    </trkpt>
    <trkpt lat="48.428311" lon="2.675839">
      <ele>101.161</ele>
      <time>2016-09-18T08:42:07Z</time>
    </trkpt>
    <trkpt lat="48.428394" lon="2.675892">
      <ele>101.172</ele>
      <time>2016-09-18T08:42:13Z</time>
    </trkpt>
    <trkpt lat="48.42846" lon="2.676034">
      <ele>101.127</ele>
      <time>2016-09-18T08:42:18Z</time>
    </trkpt>
    <trkpt lat="48.428553" lon="2.676105">
      <ele>101.017</ele>
      <time>2016-09-18T08:42:21Z</time>
    </trkpt>
    <trkpt lat="48.428577" lon="2.676244">
      <ele>100.58</ele>
      <time>2016-09-18T08:42:26Z</time>
    </trkpt>
    <trkpt lat="48.428649" lon="2.676355">
      <ele>100.258</ele>
      <time>2016-09-18T08:42:29Z</time>
    </trkpt>
    <trkpt lat="48.428714" lon="2.676463">
      <ele>100.37</ele>
      <time>2016-09-18T08:42:34Z</time>
    </trkpt>
    <trkpt lat="48.428751" lon="2.6766">
      <ele>100.504</ele>
      <time>2016-09-18T08:42:37Z</time>
    </trkpt>
    <trkpt lat="48.428829" lon="2.67673">
      <ele>101.24</ele>
      <time>2016-09-18T08:42:40Z</time>
    </trkpt>
    <trkpt lat="48.428885" lon="2.676851">
      <ele>102.313</ele>
      <time>2016-09-18T08:42:42Z</time>
    </trkpt>
    <trkpt lat="48.428949" lon="2.676971">
      <ele>102.879</ele>
      <time>2016-09-18T08:42:44Z</time>
    </trkpt>
    <trkpt lat="48.42902" lon="2.677113">
      <ele>103.135</ele>
      <time>2016-09-18T08:42:48Z</time>
    </trkpt>
    <trkpt lat="48.429071" lon="2.677249">
      <ele>103.344</ele>
      <time>2016-09-18T08:42:51Z</time>
    </trkpt>
    <trkpt lat="48.429142" lon="2.677368">
      <ele>103.089</ele>
      <time>2016-09-18T08:42:55Z</time>
    </trkpt>
    <trkpt lat="48.429247" lon="2.67745">
      <ele>102.659</ele>
      <time>2016-09-18T08:42:57Z</time>
    </trkpt>
    <trkpt lat="48.429339" lon="2.677521">
      <ele>102.427</ele>
      <time>2016-09-18T08:42:59Z</time>
    </trkpt>
    <trkpt lat="48.429466" lon="2.67757">
      <ele>102.097</ele>
      <time>2016-09-18T08:43:01Z</time>
    </trkpt>
    <trkpt lat="48.42951" lon="2.677689">
      <ele>102.208</ele>
      <time>2016-09-18T08:43:06Z</time>
    </trkpt>
    <trkpt lat="48.429585" lon="2.677813">
      <ele>102.052</ele>
      <time>2016-09-18T08:43:10Z</time>
    </trkpt>
    <trkpt lat="48.429676" lon="2.67775">
      <ele>101.233</ele>
      <time>2016-09-18T08:43:14Z</time>
    </trkpt>
    <trkpt lat="48.429767" lon="2.677848">
      <ele>100.93</ele>
      <time>2016-09-18T08:43:18Z</time>
    </trkpt>
    <trkpt lat="48.4298" lon="2.677982">
      <ele>101.175</ele>
      <time>2016-09-18T08:43:22Z</time>
    </trkpt>
    <trkpt lat="48.429873" lon="2.678082">
      <ele>101.061</ele>
      <time>2016-09-18T08:43:25Z</time>
    </trkpt>
    <trkpt lat="48.429963" lon="2.678072">
      <ele>100.377</ele>
      <time>2016-09-18T08:43:34Z</time>
    </trkpt>
    <trkpt lat="48.430047" lon="2.678126">
      <ele>100.633</ele>
      <time>2016-09-18T08:43:48Z</time>
    </trkpt>
    <trkpt lat="48.430164" lon="2.678208">
      <ele>101.364</ele>
      <time>2016-09-18T08:44:05Z</time>
    </trkpt>
    <trkpt lat="48.430264" lon="2.67832">
      <ele>101.95</ele>
      <time>2016-09-18T08:44:09Z</time>
    </trkpt>
    <trkpt lat="48.430339" lon="2.678417">
      <ele>102.91</ele>
      <time>2016-09-18T08:44:13Z</time>
    </trkpt>
    <trkpt lat="48.430397" lon="2.678557">
      <ele>103.778</ele>
      <time>2016-09-18T08:44:20Z</time>
    </trkpt>
    <trkpt lat="48.430486" lon="2.678676">
      <ele>104.058</ele>
      <time>2016-09-18T08:44:23Z</time>
    </trkpt>
    <trkpt lat="48.430557" lon="2.678778">
      <ele>103.992</ele>
      <time>2016-09-18T08:44:26Z</time>
    </trkpt>
    <trkpt lat="48.430648" lon="2.678858">
      <ele>103.371</ele>
      <time>2016-09-18T08:44:29Z</time>
    </trkpt>
    <trkpt lat="48.430743" lon="2.678951">
      <ele>102.874</ele>
      <time>2016-09-18T08:44:31Z</time>
    </trkpt>
    <trkpt lat="48.430829" lon="2.67905">
      <ele>102.611</ele>
      <time>2016-09-18T08:44:34Z</time>
    </trkpt>
    <trkpt lat="48.430941" lon="2.679146">
      <ele>102.926</ele>
      <time>2016-09-18T08:44:37Z</time>
    </trkpt>
    <trkpt lat="48.431033" lon="2.67918">
      <ele>103.096</ele>
      <time>2016-09-18T08:44:41Z</time>
    </trkpt>
    <trkpt lat="48.43113" lon="2.679249">
      <ele>103.641</ele>
      <time>2016-09-18T08:44:45Z</time>
    </trkpt>
    <trkpt lat="48.431207" lon="2.679333">
      <ele>104.336</ele>
      <time>2016-09-18T08:44:51Z</time>
    </trkpt>
    <trkpt lat="48.431307" lon="2.679354">
      <ele>104.578</ele>
      <time>2016-09-18T08:44:56Z</time>
    </trkpt>
    <trkpt lat="48.431455" lon="2.679392">
      <ele>104.811</ele>
      <time>2016-09-18T08:44:58Z</time>
    </trkpt>
    <trkpt lat="48.431538" lon="2.679448">
      <ele>105.019</ele>
      <time>2016-09-18T08:45:05Z</time>
    </trkpt>
    <trkpt lat="48.431604" lon="2.679563">
      <ele>105.523</ele>
      <time>2016-09-18T08:45:10Z</time>
    </trkpt>
    <trkpt lat="48.431715" lon="2.679656">
      <ele>105.629</ele>
      <time>2016-09-18T08:45:15Z</time>
    </trkpt>
    <trkpt lat="48.431833" lon="2.679745">
      <ele>105.483</ele>
      <time>2016-09-18T08:45:18Z</time>
    </trkpt>
    <trkpt lat="48.431906" lon="2.679834">
      <ele>105.541</ele>
      <time>2016-09-18T08:45:22Z</time>
    </trkpt>
    <trkpt lat="48.431937" lon="2.679963">
      <ele>105.894</ele>
      <time>2016-09-18T08:45:26Z</time>
    </trkpt>
    <trkpt lat="48.431972" lon="2.680133">
      <ele>105.849</ele>
      <time>2016-09-18T08:45:30Z</time>
    </trkpt>
    <trkpt lat="48.431999" lon="2.680284">
      <ele>105.804</ele>
      <time>2016-09-18T08:45:34Z</time>
    </trkpt>
    <trkpt lat="48.432056" lon="2.680452">
      <ele>105.598</ele>
      <time>2016-09-18T08:45:37Z</time>
    </trkpt>
    <trkpt lat="48.43212" lon="2.680578">
      <ele>105.449</ele>
      <time>2016-09-18T08:45:40Z</time>
    </trkpt>
    <trkpt lat="48.432186" lon="2.680743">
      <ele>105.805</ele>
      <time>2016-09-18T08:45:43Z</time>
    </trkpt>
    <trkpt lat="48.432251" lon="2.680864">
      <ele>105.984</ele>
      <time>2016-09-18T08:45:45Z</time>
    </trkpt>
    <trkpt lat="48.4323" lon="2.681006">
      <ele>105.994</ele>
      <time>2016-09-18T08:45:48Z</time>
    </trkpt>
    <trkpt lat="48.432347" lon="2.681156">
      <ele>105.741</ele>
      <time>2016-09-18T08:45:50Z</time>
    </trkpt>
    <trkpt lat="48.432397" lon="2.681274">
      <ele>105.33</ele>
      <time>2016-09-18T08:45:53Z</time>
    </trkpt>
    <trkpt lat="48.432458" lon="2.681405">
      <ele>104.663</ele>
      <time>2016-09-18T08:45:56Z</time>
    </trkpt>
    <trkpt lat="48.43249" lon="2.681589">
      <ele>104.864</ele>
      <time>2016-09-18T08:45:59Z</time>
    </trkpt>
    <trkpt lat="48.432542" lon="2.681761">
      <ele>104.886</ele>
      <time>2016-09-18T08:46:01Z</time>
    </trkpt>
    <trkpt lat="48.432555" lon="2.681929">
      <ele>105.35</ele>
      <time>2016-09-18T08:46:04Z</time>
    </trkpt>
    <trkpt lat="48.43256" lon="2.682084">
      <ele>106.031</ele>
      <time>2016-09-18T08:46:07Z</time>
    </trkpt>
    <trkpt lat="48.432567" lon="2.682281">
      <ele>106.079</ele>
      <time>2016-09-18T08:46:10Z</time>
    </trkpt>
    <trkpt lat="48.43255" lon="2.682461">
      <ele>105.046</ele>
      <time>2016-09-18T08:46:13Z</time>
    </trkpt>
    <trkpt lat="48.43256" lon="2.682601">
      <ele>103.112</ele>
      <time>2016-09-18T08:46:15Z</time>
    </trkpt>
    <trkpt lat="48.43254" lon="2.682773">
      <ele>101.202</ele>
      <time>2016-09-18T08:46:18Z</time>
    </trkpt>
    <trkpt lat="48.432539" lon="2.682923">
      <ele>99.14</ele>
      <time>2016-09-18T08:46:20Z</time>
    </trkpt>
    <trkpt lat="48.432486" lon="2.683056">
      <ele>98.499</ele>
      <time>2016-09-18T08:46:22Z</time>
    </trkpt>
    <trkpt lat="48.432441" lon="2.683182">
      <ele>98.662</ele>
      <time>2016-09-18T08:46:24Z</time>
    </trkpt>
    <trkpt lat="48.432403" lon="2.683344">
      <ele>98.039</ele>
      <time>2016-09-18T08:46:27Z</time>
    </trkpt>
    <trkpt lat="48.432365" lon="2.683472">
      <ele>97.89</ele>
      <time>2016-09-18T08:46:29Z</time>
    </trkpt>
    <trkpt lat="48.432326" lon="2.683642">
      <ele>97.093</ele>
      <time>2016-09-18T08:46:31Z</time>
    </trkpt>
    <trkpt lat="48.432235" lon="2.683698">
      <ele>98.754</ele>
      <time>2016-09-18T08:46:33Z</time>
    </trkpt>
    <trkpt lat="48.432154" lon="2.683808">
      <ele>99.593</ele>
      <time>2016-09-18T08:46:36Z</time>
    </trkpt>
    <trkpt lat="48.432087" lon="2.683901">
      <ele>100.342</ele>
      <time>2016-09-18T08:46:39Z</time>
    </trkpt>
    <trkpt lat="48.431983" lon="2.683955">
      <ele>102.757</ele>
      <time>2016-09-18T08:46:42Z</time>
    </trkpt>
    <trkpt lat="48.431906" lon="2.684063">
      <ele>104.394</ele>
      <time>2016-09-18T08:46:46Z</time>
    </trkpt>
    <trkpt lat="48.431827" lon="2.684166">
      <ele>105.963</ele>
      <time>2016-09-18T08:46:51Z</time>
    </trkpt>
    <trkpt lat="48.431779" lon="2.684304">
      <ele>105.781</ele>
      <time>2016-09-18T08:46:58Z</time>
    </trkpt>
    <trkpt lat="48.431716" lon="2.684416">
      <ele>106.643</ele>
      <time>2016-09-18T08:47:02Z</time>
    </trkpt>
    <trkpt lat="48.431638" lon="2.684487">
      <ele>108.229</ele>
      <time>2016-09-18T08:47:04Z</time>
    </trkpt>
    <trkpt lat="48.431666" lon="2.684633">
      <ele>105.306</ele>
      <time>2016-09-18T08:47:06Z</time>
    </trkpt>
    <trkpt lat="48.431663" lon="2.684771">
      <ele>103.592</ele>
      <time>2016-09-18T08:47:09Z</time>
    </trkpt>
    <trkpt lat="48.431617" lon="2.684891">
      <ele>103.786</ele>
      <time>2016-09-18T08:47:12Z</time>
    </trkpt>
    <trkpt lat="48.431529" lon="2.685027">
      <ele>105.12</ele>
      <time>2016-09-18T08:47:16Z</time>
    </trkpt>
    <trkpt lat="48.431433" lon="2.685123">
      <ele>107.172</ele>
      <time>2016-09-18T08:47:19Z</time>
    </trkpt>
    <trkpt lat="48.431362" lon="2.685257">
      <ele>107.916</ele>
      <time>2016-09-18T08:47:23Z</time>
    </trkpt>
    <trkpt lat="48.431379" lon="2.685424">
      <ele>104.636</ele>
      <time>2016-09-18T08:47:26Z</time>
    </trkpt>
    <trkpt lat="48.431443" lon="2.685569">
      <ele>100.267</ele>
      <time>2016-09-18T08:47:31Z</time>
    </trkpt>
    <trkpt lat="48.431427" lon="2.685738">
      <ele>98.455</ele>
      <time>2016-09-18T08:47:35Z</time>
    </trkpt>
    <trkpt lat="48.431353" lon="2.685885">
      <ele>98.791</ele>
      <time>2016-09-18T08:47:40Z</time>
    </trkpt>
    <trkpt lat="48.43123" lon="2.685905">
      <ele>102.632</ele>
      <time>2016-09-18T08:47:46Z</time>
    </trkpt>
    <trkpt lat="48.43118" lon="2.686059">
      <ele>103.143</ele>
      <time>2016-09-18T08:47:50Z</time>
    </trkpt>
    <trkpt lat="48.431107" lon="2.68624">
      <ele>104.182</ele>
      <time>2016-09-18T08:47:54Z</time>
    </trkpt>
    <trkpt lat="48.431048" lon="2.686376">
      <ele>104.9</ele>
      <time>2016-09-18T08:47:57Z</time>
    </trkpt>
    <trkpt lat="48.43102" lon="2.686511">
      <ele>104.298</ele>
      <time>2016-09-18T08:48:01Z</time>
    </trkpt>
    <trkpt lat="48.430943" lon="2.686615">
      <ele>106.063</ele>
      <time>2016-09-18T08:48:06Z</time>
    </trkpt>
    <trkpt lat="48.430911" lon="2.686813">
      <ele>105.491</ele>
      <time>2016-09-18T08:48:11Z</time>
    </trkpt>
    <trkpt lat="48.430896" lon="2.68696">
      <ele>104.713</ele>
      <time>2016-09-18T08:48:14Z</time>
    </trkpt>
    <trkpt lat="48.430854" lon="2.687085">
      <ele>105.825</ele>
      <time>2016-09-18T08:48:19Z</time>
    </trkpt>
    <trkpt lat="48.430846" lon="2.687253">
      <ele>105.645</ele>
      <time>2016-09-18T08:48:23Z</time>
    </trkpt>
    <trkpt lat="48.430874" lon="2.68744">
      <ele>105.058</ele>
      <time>2016-09-18T08:48:27Z</time>
    </trkpt>
    <trkpt lat="48.430897" lon="2.687624">
      <ele>105.62</ele>
      <time>2016-09-18T08:48:30Z</time>
    </trkpt>
    <trkpt lat="48.430929" lon="2.687804">
      <ele>106.372</ele>
      <time>2016-09-18T08:48:34Z</time>
    </trkpt>
    <trkpt lat="48.430931" lon="2.687946">
      <ele>106.848</ele>
      <time>2016-09-18T08:48:36Z</time>
    </trkpt>
    <trkpt lat="48.430979" lon="2.688101">
      <ele>106.378</ele>
      <time>2016-09-18T08:48:38Z</time>
    </trkpt>
    <trkpt lat="48.431052" lon="2.688197">
      <ele>105.064</ele>
      <time>2016-09-18T08:48:41Z</time>
    </trkpt>
    <trkpt lat="48.431178" lon="2.688303">
      <ele>102.555</ele>
      <time>2016-09-18T08:48:51Z</time>
    </trkpt>
    <trkpt lat="48.431259" lon="2.688412">
      <ele>100.806</ele>
      <time>2016-09-18T08:48:54Z</time>
    </trkpt>
    <trkpt lat="48.431368" lon="2.688488">
      <ele>98.451</ele>
      <time>2016-09-18T08:48:56Z</time>
    </trkpt>
    <trkpt lat="48.431269" lon="2.688517">
      <ele>100.59</ele>
      <time>2016-09-18T08:49:07Z</time>
    </trkpt>
    <trkpt lat="48.43129" lon="2.688688">
      <ele>100.216</ele>
      <time>2016-09-18T08:49:10Z</time>
    </trkpt>
    <trkpt lat="48.431235" lon="2.688828">
      <ele>101.24</ele>
      <time>2016-09-18T08:49:15Z</time>
    </trkpt>
    <trkpt lat="48.43125" lon="2.688977">
      <ele>101.0</ele>
      <time>2016-09-18T08:49:18Z</time>
    </trkpt>
    <trkpt lat="48.431256" lon="2.689162">
      <ele>100.914</ele>
      <time>2016-09-18T08:49:20Z</time>
    </trkpt>
    <trkpt lat="48.431277" lon="2.689309">
      <ele>100.305</ele>
      <time>2016-09-18T08:49:22Z</time>
    </trkpt>
    <trkpt lat="48.431279" lon="2.689501">
      <ele>99.855</ele>
      <time>2016-09-18T08:49:25Z</time>
    </trkpt>
    <trkpt lat="48.431275" lon="2.689675">
      <ele>99.56</ele>
      <time>2016-09-18T08:49:27Z</time>
    </trkpt>
    <trkpt lat="48.431291" lon="2.68987">
      <ele>99.991</ele>
      <time>2016-09-18T08:49:29Z</time>
    </trkpt>
    <trkpt lat="48.431264" lon="2.690051">
      <ele>101.634</ele>
      <time>2016-09-18T08:49:32Z</time>
    </trkpt>
    <trkpt lat="48.431284" lon="2.690219">
      <ele>102.658</ele>
      <time>2016-09-18T08:49:35Z</time>
    </trkpt>
    <trkpt lat="48.431309" lon="2.69036">
      <ele>103.791</ele>
      <time>2016-09-18T08:49:37Z</time>
    </trkpt>
    <trkpt lat="48.431344" lon="2.690496">
      <ele>105.246</ele>
      <time>2016-09-18T08:49:40Z</time>
    </trkpt>
    <trkpt lat="48.43141" lon="2.69065">
      <ele>105.987</ele>
      <time>2016-09-18T08:49:43Z</time>
    </trkpt>
    <trkpt lat="48.43151" lon="2.690839">
      <ele>106.148</ele>
      <time>2016-09-18T08:49:46Z</time>
    </trkpt>
    <trkpt lat="48.43157" lon="2.691081">
      <ele>106.588</ele>
      <time>2016-09-18T08:49:48Z</time>
    </trkpt>
    <trkpt lat="48.431642" lon="2.691171">
      <ele>106.158</ele>
      <time>2016-09-18T08:49:50Z</time>
    </trkpt>
    <trkpt lat="48.431733" lon="2.691338">
      <ele>105.001</ele>
      <time>2016-09-18T08:49:52Z</time>
    </trkpt>
    <trkpt lat="48.431806" lon="2.691506">
      <ele>104.205</ele>
      <time>2016-09-18T08:49:54Z</time>
    </trkpt>
    <trkpt lat="48.431894" lon="2.691625">
      <ele>103.422</ele>
      <time>2016-09-18T08:49:56Z</time>
    </trkpt>
    <trkpt lat="48.43193" lon="2.691754">
      <ele>104.067</ele>
      <time>2016-09-18T08:49:58Z</time>
    </trkpt>
    <trkpt lat="48.43202" lon="2.691874">
      <ele>104.423</ele>
      <time>2016-09-18T08:50:02Z</time>
    </trkpt>
    <trkpt lat="48.43209" lon="2.69198">
      <ele>104.684</ele>
      <time>2016-09-18T08:50:05Z</time>
    </trkpt>
    <trkpt lat="48.432192" lon="2.692239">
      <ele>105.501</ele>
      <time>2016-09-18T08:50:08Z</time>
    </trkpt>
    <trkpt lat="48.432246" lon="2.692351">
      <ele>106.134</ele>
      <time>2016-09-18T08:50:12Z</time>
    </trkpt>
    <trkpt lat="48.432337" lon="2.692487">
      <ele>106.62</ele>
      <time>2016-09-18T08:50:15Z</time>
    </trkpt>
    <trkpt lat="48.432436" lon="2.692631">
      <ele>106.743</ele>
      <time>2016-09-18T08:50:17Z</time>
    </trkpt>
    <trkpt lat="48.432455" lon="2.692769">
      <ele>107.58</ele>
      <time>2016-09-18T08:50:21Z</time>
    </trkpt>
    <trkpt lat="48.432501" lon="2.692917">
      <ele>107.483</ele>
      <time>2016-09-18T08:50:26Z</time>
    </trkpt>
    <trkpt lat="48.432626" lon="2.69302">
      <ele>105.604</ele>
      <time>2016-09-18T08:50:30Z</time>
    </trkpt>
    <trkpt lat="48.432664" lon="2.693151">
      <ele>105.594</ele>
      <time>2016-09-18T08:50:33Z</time>
    </trkpt>
    <trkpt lat="48.432742" lon="2.693305">
      <ele>105.324</ele>
      <time>2016-09-18T08:50:36Z</time>
    </trkpt>
    <trkpt lat="48.432797" lon="2.693447">
      <ele>105.258</ele>
      <time>2016-09-18T08:50:39Z</time>
    </trkpt>
    <trkpt lat="48.432872" lon="2.693599">
      <ele>105.588</ele>
      <time>2016-09-18T08:50:41Z</time>
    </trkpt>
    <trkpt lat="48.432953" lon="2.693723">
      <ele>106.175</ele>
      <time>2016-09-18T08:50:42Z</time>
    </trkpt>
    <trkpt lat="48.433013" lon="2.69383">
      <ele>106.729</ele>
      <time>2016-09-18T08:50:44Z</time>
    </trkpt>
    <trkpt lat="48.433068" lon="2.69395">
      <ele>107.35</ele>
      <time>2016-09-18T08:50:45Z</time>
    </trkpt>
    <trkpt lat="48.433185" lon="2.694084">
      <ele>107.473</ele>
      <time>2016-09-18T08:50:47Z</time>
    </trkpt>
    <trkpt lat="48.433236" lon="2.69423">
      <ele>107.861</ele>
      <time>2016-09-18T08:50:50Z</time>
    </trkpt>
    <trkpt lat="48.433291" lon="2.694338">
      <ele>107.493</ele>
      <time>2016-09-18T08:50:52Z</time>
    </trkpt>
    <trkpt lat="48.433379" lon="2.694477">
      <ele>106.197</ele>
      <time>2016-09-18T08:50:54Z</time>
    </trkpt>
    <trkpt lat="48.433512" lon="2.69462">
      <ele>104.191</ele>
      <time>2016-09-18T08:50:56Z</time>
    </trkpt>
    <trkpt lat="48.433612" lon="2.694762">
      <ele>102.981</ele>
      <time>2016-09-18T08:50:58Z</time>
    </trkpt>
    <trkpt lat="48.433692" lon="2.69484">
      <ele>101.376</ele>
      <time>2016-09-18T08:50:59Z</time>
    </trkpt>
    <trkpt lat="48.433744" lon="2.694959">
      <ele>100.537</ele>
      <time>2016-09-18T08:51:01Z</time>
    </trkpt>
    <trkpt lat="48.433831" lon="2.695075">
      <ele>99.199</ele>
      <time>2016-09-18T08:51:03Z</time>
    </trkpt>
    <trkpt lat="48.433907" lon="2.695192">
      <ele>98.606</ele>
      <time>2016-09-18T08:51:05Z</time>
    </trkpt>
    <trkpt lat="48.433964" lon="2.695328">
      <ele>98.91</ele>
      <time>2016-09-18T08:51:08Z</time>
    </trkpt>
    <trkpt lat="48.434049" lon="2.695474">
      <ele>99.13</ele>
      <time>2016-09-18T08:51:11Z</time>
    </trkpt>
    <trkpt lat="48.434118" lon="2.695596">
      <ele>99.321</ele>
      <time>2016-09-18T08:51:13Z</time>
    </trkpt>
    <trkpt lat="48.43417" lon="2.695727">
      <ele>99.634</ele>
      <time>2016-09-18T08:51:15Z</time>
    </trkpt>
    <trkpt lat="48.43424" lon="2.695835">
      <ele>100.264</ele>
      <time>2016-09-18T08:51:17Z</time>
    </trkpt>
    <trkpt lat="48.4343" lon="2.695949">
      <ele>100.48</ele>
      <time>2016-09-18T08:51:19Z</time>
    </trkpt>
    <trkpt lat="48.434384" lon="2.696061">
      <ele>100.782</ele>
      <time>2016-09-18T08:51:22Z</time>
    </trkpt>
    <trkpt lat="48.434434" lon="2.696178">
      <ele>100.971</ele>
      <time>2016-09-18T08:51:25Z</time>
    </trkpt>
    <trkpt lat="48.434468" lon="2.696325">
      <ele>101.104</ele>
      <time>2016-09-18T08:51:29Z</time>
    </trkpt>
    <trkpt lat="48.434545" lon="2.696485">
      <ele>101.362</ele>
      <time>2016-09-18T08:51:32Z</time>
    </trkpt>
    <trkpt lat="48.434657" lon="2.696508">
      <ele>101.765</ele>
      <time>2016-09-18T08:51:35Z</time>
    </trkpt>
    <trkpt lat="48.434788" lon="2.696536">
      <ele>101.875</ele>
      <time>2016-09-18T08:51:38Z</time>
    </trkpt>
    <trkpt lat="48.434896" lon="2.696604">
      <ele>101.516</ele>
      <time>2016-09-18T08:51:43Z</time>
    </trkpt>
    <trkpt lat="48.435051" lon="2.696691">
      <ele>100.617</ele>
      <time>2016-09-18T08:51:46Z</time>
    </trkpt>
    <trkpt lat="48.435169" lon="2.696713">
      <ele>99.682</ele>
      <time>2016-09-18T08:51:51Z</time>
    </trkpt>
    <trkpt lat="48.435287" lon="2.696779">
      <ele>98.543</ele>
      <time>2016-09-18T08:51:54Z</time>
    </trkpt>
    <trkpt lat="48.435387" lon="2.696821">
      <ele>97.876</ele>
      <time>2016-09-18T08:51:57Z</time>
    </trkpt>
    <trkpt lat="48.435496" lon="2.69687">
      <ele>97.272</ele>
      <time>2016-09-18T08:52:00Z</time>
    </trkpt>
    <trkpt lat="48.435591" lon="2.696922">
      <ele>97.0</ele>
      <time>2016-09-18T08:52:03Z</time>
    </trkpt>
    <trkpt lat="48.435679" lon="2.696963">
      <ele>96.993</ele>
      <time>2016-09-18T08:52:05Z</time>
    </trkpt>
    <trkpt lat="48.435787" lon="2.696989">
      <ele>97.107</ele>
      <time>2016-09-18T08:52:08Z</time>
    </trkpt>
    <trkpt lat="48.435881" lon="2.697018">
      <ele>97.436</ele>
      <time>2016-09-18T08:52:11Z</time>
    </trkpt>
    <trkpt lat="48.436005" lon="2.697068">
      <ele>98.063</ele>
      <time>2016-09-18T08:52:15Z</time>
    </trkpt>
    <trkpt lat="48.436115" lon="2.697128">
      <ele>98.675</ele>
      <time>2016-09-18T08:52:18Z</time>
    </trkpt>
    <trkpt lat="48.436211" lon="2.697173">
      <ele>99.182</ele>
      <time>2016-09-18T08:52:21Z</time>
    </trkpt>
    <trkpt lat="48.436295" lon="2.697236">
      <ele>99.712</ele>
      <time>2016-09-18T08:52:28Z</time>
    </trkpt>
    <trkpt lat="48.436393" lon="2.697264">
      <ele>100.15</ele>
      <time>2016-09-18T08:52:32Z</time>
    </trkpt>
    <trkpt lat="48.436495" lon="2.697317">
      <ele>100.341</ele>
      <time>2016-09-18T08:52:38Z</time>
    </trkpt>
    <trkpt lat="48.4366" lon="2.697329">
      <ele>100.384</ele>
      <time>2016-09-18T08:52:43Z</time>
    </trkpt>
    <trkpt lat="48.436693" lon="2.697421">
      <ele>100.837</ele>
      <time>2016-09-18T08:52:48Z</time>
    </trkpt>
    <trkpt lat="48.436806" lon="2.697469">
      <ele>101.446</ele>
      <time>2016-09-18T08:52:53Z</time>
    </trkpt>
    <trkpt lat="48.4369" lon="2.697499">
      <ele>101.839</ele>
      <time>2016-09-18T08:52:59Z</time>
    </trkpt>
    <trkpt lat="48.437019" lon="2.697573">
      <ele>103.797</ele>
      <time>2016-09-18T08:53:04Z</time>
    </trkpt>
    <trkpt lat="48.437133" lon="2.697626">
      <ele>105.993</ele>
      <time>2016-09-18T08:53:08Z</time>
    </trkpt>
    <trkpt lat="48.437216" lon="2.697691">
      <ele>107.591</ele>
      <time>2016-09-18T08:53:13Z</time>
    </trkpt>
    <trkpt lat="48.43731" lon="2.697736">
      <ele>109.161</ele>
      <time>2016-09-18T08:53:16Z</time>
    </trkpt>
    <trkpt lat="48.437407" lon="2.697801">
      <ele>110.772</ele>
      <time>2016-09-18T08:53:19Z</time>
    </trkpt>
    <trkpt lat="48.437522" lon="2.697912">
      <ele>112.642</ele>
      <time>2016-09-18T08:53:21Z</time>
    </trkpt>
    <trkpt lat="48.437656" lon="2.697949">
      <ele>113.74</ele>
      <time>2016-09-18T08:53:26Z</time>
    </trkpt>
    <trkpt lat="48.437741" lon="2.698044">
      <ele>114.694</ele>
      <time>2016-09-18T08:53:33Z</time>
    </trkpt>
    <trkpt lat="48.437825" lon="2.6981">
      <ele>115.766</ele>
      <time>2016-09-18T08:53:42Z</time>
    </trkpt>
    <trkpt lat="48.437914" lon="2.698166">
      <ele>116.784</ele>
      <time>2016-09-18T08:53:52Z</time>
    </trkpt>
    <trkpt lat="48.438005" lon="2.69817">
      <ele>117.198</ele>
      <time>2016-09-18T08:54:00Z</time>
    </trkpt>
    <trkpt lat="48.438067" lon="2.698289">
      <ele>117.923</ele>
      <time>2016-09-18T08:54:05Z</time>
    </trkpt>
    <trkpt lat="48.438167" lon="2.698294">
      <ele>118.661</ele>
      <time>2016-09-18T08:54:10Z</time>
    </trkpt>
    <trkpt lat="48.438242" lon="2.698204">
      <ele>118.877</ele>
      <time>2016-09-18T08:54:24Z</time>
    </trkpt>
    <trkpt lat="48.438317" lon="2.698096">
      <ele>119.028</ele>
      <time>2016-09-18T08:54:31Z</time>
    </trkpt>
    <trkpt lat="48.438398" lon="2.69795">
      <ele>118.096</ele>
      <time>2016-09-18T08:54:34Z</time>
    </trkpt>
    <trkpt lat="48.438463" lon="2.69784">
      <ele>117.343</ele>
      <time>2016-09-18T08:54:36Z</time>
    </trkpt>
    <trkpt lat="48.438563" lon="2.697769">
      <ele>116.942</ele>
      <time>2016-09-18T08:54:39Z</time>
    </trkpt>
    <trkpt lat="48.438712" lon="2.69772">
      <ele>114.919</ele>
      <time>2016-09-18T08:54:43Z</time>
    </trkpt>
    <trkpt lat="48.438801" lon="2.697674">
      <ele>113.346</ele>
      <time>2016-09-18T08:54:45Z</time>
    </trkpt>
    <trkpt lat="48.438945" lon="2.697699">
      <ele>110.471</ele>
      <time>2016-09-18T08:54:47Z</time>
    </trkpt>
    <trkpt lat="48.439068" lon="2.697726">
      <ele>107.246</ele>
      <time>2016-09-18T08:54:48Z</time>
    </trkpt>
    <trkpt lat="48.439197" lon="2.69771">
      <ele>104.131</ele>
      <time>2016-09-18T08:54:50Z</time>
    </trkpt>
    <trkpt lat="48.439321" lon="2.697697">
      <ele>102.428</ele>
      <time>2016-09-18T08:54:52Z</time>
    </trkpt>
    <trkpt lat="48.439498" lon="2.697694">
      <ele>100.408</ele>
      <time>2016-09-18T08:54:54Z</time>
    </trkpt>
    <trkpt lat="48.43966" lon="2.69771">
      <ele>99.472</ele>
      <time>2016-09-18T08:54:56Z</time>
    </trkpt>
    <trkpt lat="48.43979" lon="2.697719">
      <ele>97.985</ele>
      <time>2016-09-18T08:54:57Z</time>
    </trkpt>
    <trkpt lat="48.439904" lon="2.697784">
      <ele>96.831</ele>
      <time>2016-09-18T08:55:01Z</time>
    </trkpt>
    <trkpt lat="48.440018" lon="2.697777">
      <ele>94.927</ele>
      <time>2016-09-18T08:55:02Z</time>
    </trkpt>
    <trkpt lat="48.440107" lon="2.697754">
      <ele>94.391</ele>
      <time>2016-09-18T08:55:03Z</time>
    </trkpt>
    <trkpt lat="48.4402" lon="2.697759">
      <ele>94.126</ele>
      <time>2016-09-18T08:55:04Z</time>
    </trkpt>
    <trkpt lat="48.440243" lon="2.697956">
      <ele>96.852</ele>
      <time>2016-09-18T08:55:09Z</time>
    </trkpt>
    <trkpt lat="48.440275" lon="2.698104">
      <ele>98.726</ele>
      <time>2016-09-18T08:55:11Z</time>
    </trkpt>
    <trkpt lat="48.440293" lon="2.698237">
      <ele>100.503</ele>
      <time>2016-09-18T08:55:14Z</time>
    </trkpt>
    <trkpt lat="48.440328" lon="2.698402">
      <ele>102.38</ele>
      <time>2016-09-18T08:55:16Z</time>
    </trkpt>
    <trkpt lat="48.440341" lon="2.698559">
      <ele>103.982</ele>
      <time>2016-09-18T08:55:19Z</time>
    </trkpt>
    <trkpt lat="48.440343" lon="2.698696">
      <ele>105.142</ele>
      <time>2016-09-18T08:55:22Z</time>
    </trkpt>
    <trkpt lat="48.440325" lon="2.698846">
      <ele>106.351</ele>
      <time>2016-09-18T08:55:26Z</time>
    </trkpt>
    <trkpt lat="48.440313" lon="2.699027">
      <ele>106.746</ele>
      <time>2016-09-18T08:55:30Z</time>
    </trkpt>
    <trkpt lat="48.440284" lon="2.699168">
      <ele>106.951</ele>
      <time>2016-09-18T08:55:33Z</time>
    </trkpt>
    <trkpt lat="48.440285" lon="2.699307">
      <ele>106.456</ele>
      <time>2016-09-18T08:55:36Z</time>
    </trkpt>
    <trkpt lat="48.440222" lon="2.699436">
      <ele>106.225</ele>
      <time>2016-09-18T08:55:39Z</time>
    </trkpt>
    <trkpt lat="48.440231" lon="2.699572">
      <ele>105.787</ele>
      <time>2016-09-18T08:55:42Z</time>
    </trkpt>
    <trkpt lat="48.440163" lon="2.6997">
      <ele>105.873</ele>
      <time>2016-09-18T08:55:46Z</time>
    </trkpt>
    <trkpt lat="48.44018" lon="2.699852">
      <ele>105.704</ele>
      <time>2016-09-18T08:55:49Z</time>
    </trkpt>
    <trkpt lat="48.440109" lon="2.699969">
      <ele>106.215</ele>
      <time>2016-09-18T08:55:52Z</time>
    </trkpt>
    <trkpt lat="48.440115" lon="2.700138">
      <ele>106.172</ele>
      <time>2016-09-18T08:55:57Z</time>
    </trkpt>
    <trkpt lat="48.440123" lon="2.700309">
      <ele>106.114</ele>
      <time>2016-09-18T08:56:00Z</time>
    </trkpt>
    <trkpt lat="48.440136" lon="2.700449">
      <ele>106.021</ele>
      <time>2016-09-18T08:56:03Z</time>
    </trkpt>
    <trkpt lat="48.440112" lon="2.700583">
      <ele>106.233</ele>
      <time>2016-09-18T08:56:06Z</time>
    </trkpt>
    <trkpt lat="48.440076" lon="2.700742">
      <ele>106.636</ele>
      <time>2016-09-18T08:56:10Z</time>
    </trkpt>
    <trkpt lat="48.440096" lon="2.700887">
      <ele>106.781</ele>
      <time>2016-09-18T08:56:13Z</time>
    </trkpt>
    <trkpt lat="48.440072" lon="2.70105">
      <ele>107.319</ele>
      <time>2016-09-18T08:56:18Z</time>
    </trkpt>
    <trkpt lat="48.440024" lon="2.701205">
      <ele>107.886</ele>
      <time>2016-09-18T08:56:23Z</time>
    </trkpt>
    <trkpt lat="48.44" lon="2.701336">
      <ele>108.0</ele>
      <time>2016-09-18T08:56:27Z</time>
    </trkpt>
    <trkpt lat="48.440021" lon="2.701473">
      <ele>108.0</ele>
      <time>2016-09-18T08:56:30Z</time>
    </trkpt>
    <trkpt lat="48.440013" lon="2.70168">
      <ele>108.048</ele>
      <time>2016-09-18T08:56:33Z</time>
    </trkpt>
    <trkpt lat="48.439944" lon="2.701827">
      <ele>109.469</ele>
      <time>2016-09-18T08:56:35Z</time>
    </trkpt>
    <trkpt lat="48.439847" lon="2.701862">
      <ele>111.07</ele>
      <time>2016-09-18T08:56:38Z</time>
    </trkpt>
    <trkpt lat="48.439813" lon="2.701994">
      <ele>111.693</ele>
      <time>2016-09-18T08:56:41Z</time>
    </trkpt>
    <trkpt lat="48.439837" lon="2.702148">
      <ele>111.347</ele>
      <time>2016-09-18T08:56:44Z</time>
    </trkpt>
    <trkpt lat="48.439854" lon="2.702299">
      <ele>111.088</ele>
      <time>2016-09-18T08:56:49Z</time>
    </trkpt>
    <trkpt lat="48.439899" lon="2.702427">
      <ele>110.656</ele>
      <time>2016-09-18T08:56:55Z</time>
    </trkpt>
    <trkpt lat="48.439909" lon="2.702589">
      <ele>110.55</ele>
      <time>2016-09-18T08:57:02Z</time>
    </trkpt>
    <trkpt lat="48.439891" lon="2.702726">
      <ele>110.466</ele>
      <time>2016-09-18T08:57:06Z</time>
    </trkpt>
    <trkpt lat="48.439913" lon="2.70286">
      <ele>110.72</ele>
      <time>2016-09-18T08:57:10Z</time>
    </trkpt>
    <trkpt lat="48.439842" lon="2.702967">
      <ele>111.156</ele>
      <time>2016-09-18T08:57:14Z</time>
    </trkpt>
    <trkpt lat="48.439766" lon="2.703078">
      <ele>111.238</ele>
      <time>2016-09-18T08:57:19Z</time>
    </trkpt>
    <trkpt lat="48.439679" lon="2.703185">
      <ele>111.56</ele>
      <time>2016-09-18T08:57:23Z</time>
    </trkpt>
    <trkpt lat="48.439603" lon="2.703259">
      <ele>111.648</ele>
      <time>2016-09-18T08:57:26Z</time>
    </trkpt>
    <trkpt lat="48.439493" lon="2.703355">
      <ele>111.124</ele>
      <time>2016-09-18T08:57:30Z</time>
    </trkpt>
    <trkpt lat="48.439407" lon="2.703443">
      <ele>110.85</ele>
      <time>2016-09-18T08:57:32Z</time>
    </trkpt>
    <trkpt lat="48.439282" lon="2.70353">
      <ele>110.804</ele>
      <time>2016-09-18T08:57:34Z</time>
    </trkpt>
    <trkpt lat="48.439206" lon="2.703622">
      <ele>109.899</ele>
      <time>2016-09-18T08:57:37Z</time>
    </trkpt>
    <trkpt lat="48.439237" lon="2.703769">
      <ele>108.727</ele>
      <time>2016-09-18T08:57:41Z</time>
    </trkpt>
    <trkpt lat="48.439239" lon="2.70391">
      <ele>107.781</ele>
      <time>2016-09-18T08:57:44Z</time>
    </trkpt>
    <trkpt lat="48.439279" lon="2.704057">
      <ele>108.213</ele>
      <time>2016-09-18T08:57:47Z</time>
    </trkpt>
    <trkpt lat="48.439273" lon="2.704234">
      <ele>108.391</ele>
      <time>2016-09-18T08:57:50Z</time>
    </trkpt>
    <trkpt lat="48.439262" lon="2.704392">
      <ele>108.841</ele>
      <time>2016-09-18T08:57:53Z</time>
    </trkpt>
    <trkpt lat="48.439291" lon="2.704524">
      <ele>109.471</ele>
      <time>2016-09-18T08:57:56Z</time>
    </trkpt>
    <trkpt lat="48.439355" lon="2.704671">
      <ele>110.587</ele>
      <time>2016-09-18T08:57:58Z</time>
    </trkpt>
    <trkpt lat="48.439354" lon="2.704838">
      <ele>110.833</ele>
      <time>2016-09-18T08:58:02Z</time>
    </trkpt>
    <trkpt lat="48.439312" lon="2.704961">
      <ele>110.503</ele>
      <time>2016-09-18T08:58:05Z</time>
    </trkpt>
    <trkpt lat="48.439326" lon="2.705121">
      <ele>110.721</ele>
      <time>2016-09-18T08:58:08Z</time>
    </trkpt>
    <trkpt lat="48.439341" lon="2.705271">
      <ele>110.883</ele>
      <time>2016-09-18T08:58:12Z</time>
    </trkpt>
    <trkpt lat="48.439334" lon="2.705426">
      <ele>111.341</ele>
      <time>2016-09-18T08:58:15Z</time>
    </trkpt>
    <trkpt lat="48.439267" lon="2.705585">
      <ele>111.151</ele>
      <time>2016-09-18T08:58:18Z</time>
    </trkpt>
    <trkpt lat="48.439278" lon="2.705771">
      <ele>111.667</ele>
      <time>2016-09-18T08:58:23Z</time>
    </trkpt>
    <trkpt lat="48.439237" lon="2.7059">
      <ele>111.746</ele>
      <time>2016-09-18T08:58:28Z</time>
    </trkpt>
    <trkpt lat="48.439186" lon="2.706058">
      <ele>111.948</ele>
      <time>2016-09-18T08:58:32Z</time>
    </trkpt>
    <trkpt lat="48.439142" lon="2.706189">
      <ele>112.025</ele>
      <time>2016-09-18T08:58:36Z</time>
    </trkpt>
    <trkpt lat="48.439101" lon="2.70632">
      <ele>112.178</ele>
      <time>2016-09-18T08:58:40Z</time>
    </trkpt>
    <trkpt lat="48.439161" lon="2.706447">
      <ele>112.221</ele>
      <time>2016-09-18T08:58:45Z</time>
    </trkpt>
    <trkpt lat="48.439156" lon="2.706618">
      <ele>112.8</ele>
      <time>2016-09-18T08:58:51Z</time>
    </trkpt>
    <trkpt lat="48.439146" lon="2.706763">
      <ele>113.298</ele>
      <time>2016-09-18T08:58:54Z</time>
    </trkpt>
    <trkpt lat="48.439148" lon="2.706915">
      <ele>113.887</ele>
      <time>2016-09-18T08:58:59Z</time>
    </trkpt>
    <trkpt lat="48.439108" lon="2.707083">
      <ele>115.286</ele>
      <time>2016-09-18T08:59:04Z</time>
    </trkpt>
    <trkpt lat="48.439044" lon="2.707192">
      <ele>115.886</ele>
      <time>2016-09-18T08:59:09Z</time>
    </trkpt>
    <trkpt lat="48.438955" lon="2.707304">
      <ele>116.289</ele>
      <time>2016-09-18T08:59:13Z</time>
    </trkpt>
    <trkpt lat="48.438898" lon="2.707439">
      <ele>117.381</ele>
      <time>2016-09-18T08:59:18Z</time>
    </trkpt>
    <trkpt lat="48.438896" lon="2.707617">
      <ele>118.868</ele>
      <time>2016-09-18T08:59:23Z</time>
    </trkpt>
    <trkpt lat="48.438934" lon="2.707751">
      <ele>119.97</ele>
      <time>2016-09-18T08:59:26Z</time>
    </trkpt>
    <trkpt lat="48.438918" lon="2.707905">
      <ele>120.153</ele>
      <time>2016-09-18T08:59:31Z</time>
    </trkpt>
    <trkpt lat="48.438869" lon="2.708047">
      <ele>119.998</ele>
      <time>2016-09-18T08:59:35Z</time>
    </trkpt>
    <trkpt lat="48.438834" lon="2.708192">
      <ele>119.903</ele>
      <time>2016-09-18T08:59:40Z</time>
    </trkpt>
    <trkpt lat="48.438872" lon="2.708418">
      <ele>119.634</ele>
      <time>2016-09-18T08:59:44Z</time>
    </trkpt>
    <trkpt lat="48.438831" lon="2.708609">
      <ele>118.799</ele>
      <time>2016-09-18T08:59:48Z</time>
    </trkpt>
    <trkpt lat="48.438801" lon="2.708751">
      <ele>118.524</ele>
      <time>2016-09-18T08:59:50Z</time>
    </trkpt>
    <trkpt lat="48.438766" lon="2.708892">
      <ele>118.12</ele>
      <time>2016-09-18T08:59:53Z</time>
    </trkpt>
    <trkpt lat="48.438744" lon="2.709058">
      <ele>118.274</ele>
      <time>2016-09-18T08:59:56Z</time>
    </trkpt>
    <trkpt lat="48.438745" lon="2.709197">
      <ele>118.535</ele>
      <time>2016-09-18T08:59:58Z</time>
    </trkpt>
    <trkpt lat="48.438751" lon="2.709342">
      <ele>118.821</ele>
      <time>2016-09-18T09:00:00Z</time>
    </trkpt>
    <trkpt lat="48.438692" lon="2.709499">
      <ele>118.525</ele>
      <time>2016-09-18T09:00:02Z</time>
    </trkpt>
    <trkpt lat="48.438646" lon="2.709619">
      <ele>118.172</ele>
      <time>2016-09-18T09:00:04Z</time>
    </trkpt>
    <trkpt lat="48.438598" lon="2.709784">
      <ele>117.778</ele>
      <time>2016-09-18T09:00:06Z</time>
    </trkpt>
    <trkpt lat="48.438573" lon="2.70998">
      <ele>117.072</ele>
      <time>2016-09-18T09:00:08Z</time>
    </trkpt>
    <trkpt lat="48.438531" lon="2.710149">
      <ele>116.691</ele>
      <time>2016-09-18T09:00:10Z</time>
    </trkpt>
    <trkpt lat="48.438464" lon="2.710245">
      <ele>116.066</ele>
      <time>2016-09-18T09:00:11Z</time>
    </trkpt>
    <trkpt lat="48.438448" lon="2.710495">
      <ele>114.584</ele>
      <time>2016-09-18T09:00:13Z</time>
    </trkpt>
    <trkpt lat="48.438423" lon="2.710658">
      <ele>113.1</ele>
      <time>2016-09-18T09:00:15Z</time>
    </trkpt>
    <trkpt lat="48.438389" lon="2.710867">
      <ele>110.663</ele>
      <time>2016-09-18T09:00:17Z</time>
    </trkpt>
    <trkpt lat="48.438308" lon="2.710984">
      <ele>108.282</ele>
      <time>2016-09-18T09:00:18Z</time>
    </trkpt>
    <trkpt lat="48.438248" lon="2.711117">
      <ele>106.629</ele>
      <time>2016-09-18T09:00:19Z</time>
    </trkpt>
    <trkpt lat="48.438176" lon="2.711347">
      <ele>103.886</ele>
      <time>2016-09-18T09:00:21Z</time>
    </trkpt>
    <trkpt lat="48.438171" lon="2.711494">
      <ele>102.723</ele>
      <time>2016-09-18T09:00:22Z</time>
    </trkpt>
    <trkpt lat="48.438129" lon="2.711646">
      <ele>101.849</ele>
      <time>2016-09-18T09:00:23Z</time>
    </trkpt>
    <trkpt lat="48.438111" lon="2.711809">
      <ele>101.39</ele>
      <time>2016-09-18T09:00:24Z</time>
    </trkpt>
    <trkpt lat="48.438093" lon="2.711992">
      <ele>101.0</ele>
      <time>2016-09-18T09:00:25Z</time>
    </trkpt>
    <trkpt lat="48.438111" lon="2.712146">
      <ele>101.0</ele>
      <time>2016-09-18T09:00:26Z</time>
    </trkpt>
    <trkpt lat="48.438103" lon="2.712283">
      <ele>100.819</ele>
      <time>2016-09-18T09:00:27Z</time>
    </trkpt>
    <trkpt lat="48.438081" lon="2.71247">
      <ele>100.19</ele>
      <time>2016-09-18T09:00:29Z</time>
    </trkpt>
    <trkpt lat="48.438027" lon="2.712632">
      <ele>99.676</ele>
      <time>2016-09-18T09:00:31Z</time>
    </trkpt>
    <trkpt lat="48.438011" lon="2.712801">
      <ele>99.321</ele>
      <time>2016-09-18T09:00:33Z</time>
    </trkpt>
    <trkpt lat="48.43797" lon="2.712974">
      <ele>99.616</ele>
      <time>2016-09-18T09:00:35Z</time>
    </trkpt>
    <trkpt lat="48.437905" lon="2.713165">
      <ele>100.445</ele>
      <time>2016-09-18T09:00:38Z</time>
    </trkpt>
    <trkpt lat="48.437886" lon="2.713326">
      <ele>100.979</ele>
      <time>2016-09-18T09:00:40Z</time>
    </trkpt>
    <trkpt lat="48.437861" lon="2.713457">
      <ele>101.312</ele>
      <time>2016-09-18T09:00:42Z</time>
    </trkpt>
    <trkpt lat="48.437836" lon="2.713619">
      <ele>101.784</ele>
      <time>2016-09-18T09:00:44Z</time>
    </trkpt>
    <trkpt lat="48.437801" lon="2.713774">
      <ele>101.867</ele>
      <time>2016-09-18T09:00:46Z</time>
    </trkpt>
    <trkpt lat="48.437773" lon="2.713918">
      <ele>101.706</ele>
      <time>2016-09-18T09:00:48Z</time>
    </trkpt>
    <trkpt lat="48.437698" lon="2.714026">
      <ele>101.09</ele>
      <time>2016-09-18T09:00:50Z</time>
    </trkpt>
    <trkpt lat="48.437701" lon="2.714208">
      <ele>99.532</ele>
      <time>2016-09-18T09:00:52Z</time>
    </trkpt>
    <trkpt lat="48.43768" lon="2.714443">
      <ele>98.066</ele>
      <time>2016-09-18T09:00:55Z</time>
    </trkpt>
    <trkpt lat="48.437631" lon="2.714565">
      <ele>97.717</ele>
      <time>2016-09-18T09:00:57Z</time>
    </trkpt>
    <trkpt lat="48.437594" lon="2.714739">
      <ele>96.985</ele>
      <time>2016-09-18T09:01:00Z</time>
    </trkpt>
    <trkpt lat="48.43754" lon="2.714864">
      <ele>97.568</ele>
      <time>2016-09-18T09:01:02Z</time>
    </trkpt>
    <trkpt lat="48.437566" lon="2.715031">
      <ele>97.229</ele>
      <time>2016-09-18T09:01:06Z</time>
    </trkpt>
    <trkpt lat="48.437592" lon="2.715176">
      <ele>96.792</ele>
      <time>2016-09-18T09:01:11Z</time>
    </trkpt>
    <trkpt lat="48.437604" lon="2.715363">
      <ele>96.932</ele>
      <time>2016-09-18T09:01:35Z</time>
    </trkpt>
    <trkpt lat="48.437628" lon="2.715515">
      <ele>97.393</ele>
      <time>2016-09-18T09:01:38Z</time>
    </trkpt>
    <trkpt lat="48.437601" lon="2.715714">
      <ele>98.207</ele>
      <time>2016-09-18T09:01:41Z</time>
    </trkpt>
    <trkpt lat="48.437567" lon="2.715854">
      <ele>98.759</ele>
      <time>2016-09-18T09:01:43Z</time>
    </trkpt>
    <trkpt lat="48.437563" lon="2.716004">
      <ele>98.773</ele>
      <time>2016-09-18T09:01:45Z</time>
    </trkpt>
    <trkpt lat="48.437532" lon="2.71619">
      <ele>99.136</ele>
      <time>2016-09-18T09:01:48Z</time>
    </trkpt>
    <trkpt lat="48.437477" lon="2.716331">
      <ele>99.826</ele>
      <time>2016-09-18T09:01:50Z</time>
    </trkpt>
    <trkpt lat="48.437518" lon="2.716469">
      <ele>99.601</ele>
      <time>2016-09-18T09:01:52Z</time>
    </trkpt>
    <trkpt lat="48.437507" lon="2.716621">
      <ele>99.135</ele>
      <time>2016-09-18T09:01:55Z</time>
    </trkpt>
    <trkpt lat="48.43747" lon="2.716775">
      <ele>99.15</ele>
      <time>2016-09-18T09:01:58Z</time>
    </trkpt>
    <trkpt lat="48.437452" lon="2.716911">
      <ele>99.325</ele>
      <time>2016-09-18T09:02:00Z</time>
    </trkpt>
    <trkpt lat="48.437386" lon="2.717023">
      <ele>99.538</ele>
      <time>2016-09-18T09:02:02Z</time>
    </trkpt>
    <trkpt lat="48.437385" lon="2.717171">
      <ele>99.012</ele>
      <time>2016-09-18T09:02:04Z</time>
    </trkpt>
    <trkpt lat="48.437415" lon="2.717323">
      <ele>98.39</ele>
      <time>2016-09-18T09:02:07Z</time>
    </trkpt>
    <trkpt lat="48.437426" lon="2.717468">
      <ele>98.061</ele>
      <time>2016-09-18T09:02:09Z</time>
    </trkpt>
    <trkpt lat="48.437404" lon="2.717661">
      <ele>97.8</ele>
      <time>2016-09-18T09:02:12Z</time>
    </trkpt>
    <trkpt lat="48.437343" lon="2.717793">
      <ele>97.497</ele>
      <time>2016-09-18T09:02:14Z</time>
    </trkpt>
    <trkpt lat="48.437314" lon="2.717924">
      <ele>98.035</ele>
      <time>2016-09-18T09:02:16Z</time>
    </trkpt>
    <trkpt lat="48.437287" lon="2.718055">
      <ele>98.764</ele>
      <time>2016-09-18T09:02:18Z</time>
    </trkpt>
    <trkpt lat="48.437239" lon="2.718188">
      <ele>99.416</ele>
      <time>2016-09-18T09:02:21Z</time>
    </trkpt>
    <trkpt lat="48.437208" lon="2.718346">
      <ele>100.051</ele>
      <time>2016-09-18T09:02:25Z</time>
    </trkpt>
    <trkpt lat="48.43719" lon="2.71852">
      <ele>100.116</ele>
      <time>2016-09-18T09:02:28Z</time>
    </trkpt>
    <trkpt lat="48.437144" lon="2.718649">
      <ele>100.282</ele>
      <time>2016-09-18T09:02:32Z</time>
    </trkpt>
    <trkpt lat="48.437048" lon="2.718645">
      <ele>100.627</ele>
      <time>2016-09-18T09:02:37Z</time>
    </trkpt>
    <trkpt lat="48.43695" lon="2.718657">
      <ele>100.98</ele>
      <time>2016-09-18T09:02:42Z</time>
    </trkpt>
    <trkpt lat="48.43686" lon="2.718609">
      <ele>101.304</ele>
      <time>2016-09-18T09:02:47Z</time>
    </trkpt>
    <trkpt lat="48.436767" lon="2.718606">
      <ele>101.639</ele>
      <time>2016-09-18T09:02:52Z</time>
    </trkpt>
    <trkpt lat="48.436682" lon="2.718544">
      <ele>101.945</ele>
      <time>2016-09-18T09:02:56Z</time>
    </trkpt>
    <trkpt lat="48.436568" lon="2.718524">
      <ele>102.0</ele>
      <time>2016-09-18T09:03:00Z</time>
    </trkpt>
    <trkpt lat="48.436448" lon="2.718481">
      <ele>102.0</ele>
      <time>2016-09-18T09:03:04Z</time>
    </trkpt>
    <trkpt lat="48.436359" lon="2.718418">
      <ele>102.108</ele>
      <time>2016-09-18T09:03:09Z</time>
    </trkpt>
    <trkpt lat="48.43627" lon="2.718386">
      <ele>102.428</ele>
      <time>2016-09-18T09:03:12Z</time>
    </trkpt>
    <trkpt lat="48.436177" lon="2.718335">
      <ele>102.763</ele>
      <time>2016-09-18T09:03:14Z</time>
    </trkpt>
    <trkpt lat="48.436076" lon="2.718302">
      <ele>103.028</ele>
      <time>2016-09-18T09:03:17Z</time>
    </trkpt>
    <trkpt lat="48.43597" lon="2.718258">
      <ele>103.375</ele>
      <time>2016-09-18T09:03:23Z</time>
    </trkpt>
    <trkpt lat="48.435887" lon="2.718144">
      <ele>103.675</ele>
      <time>2016-09-18T09:03:26Z</time>
    </trkpt>
    <trkpt lat="48.435752" lon="2.718057">
      <ele>104.291</ele>
      <time>2016-09-18T09:03:27Z</time>
    </trkpt>
    <trkpt lat="48.435656" lon="2.718079">
      <ele>104.585</ele>
      <time>2016-09-18T09:03:31Z</time>
    </trkpt>
    <trkpt lat="48.435578" lon="2.71799">
      <ele>105.136</ele>
      <time>2016-09-18T09:03:42Z</time>
    </trkpt>
    <trkpt lat="48.435447" lon="2.717963">
      <ele>106.245</ele>
      <time>2016-09-18T09:03:44Z</time>
    </trkpt>
    <trkpt lat="48.435361" lon="2.717919">
      <ele>107.237</ele>
      <time>2016-09-18T09:03:50Z</time>
    </trkpt>
    <trkpt lat="48.435258" lon="2.71787">
      <ele>108.644</ele>
      <time>2016-09-18T09:03:53Z</time>
    </trkpt>
    <trkpt lat="48.435131" lon="2.717687">
      <ele>111.613</ele>
      <time>2016-09-18T09:03:57Z</time>
    </trkpt>
    <trkpt lat="48.435057" lon="2.717776">
      <ele>112.191</ele>
      <time>2016-09-18T09:04:03Z</time>
    </trkpt>
    <trkpt lat="48.434966" lon="2.717816">
      <ele>113.458</ele>
      <time>2016-09-18T09:04:09Z</time>
    </trkpt>
    <trkpt lat="48.434853" lon="2.717751">
      <ele>115.788</ele>
      <time>2016-09-18T09:04:14Z</time>
    </trkpt>
    <trkpt lat="48.434773" lon="2.717666">
      <ele>117.562</ele>
      <time>2016-09-18T09:04:22Z</time>
    </trkpt>
    <trkpt lat="48.434673" lon="2.717591">
      <ele>118.437</ele>
      <time>2016-09-18T09:04:28Z</time>
    </trkpt>
    <trkpt lat="48.434548" lon="2.717564">
      <ele>117.998</ele>
      <time>2016-09-18T09:04:38Z</time>
    </trkpt>
    <trkpt lat="48.434406" lon="2.717501">
      <ele>117.44</ele>
      <time>2016-09-18T09:04:42Z</time>
    </trkpt>
    <trkpt lat="48.434306" lon="2.717489">
      <ele>116.046</ele>
      <time>2016-09-18T09:04:44Z</time>
    </trkpt>
    <trkpt lat="48.434189" lon="2.717426">
      <ele>114.588</ele>
      <time>2016-09-18T09:04:46Z</time>
    </trkpt>
    <trkpt lat="48.434095" lon="2.717385">
      <ele>113.791</ele>
      <time>2016-09-18T09:04:48Z</time>
    </trkpt>
    <trkpt lat="48.434007" lon="2.717328">
      <ele>113.114</ele>
      <time>2016-09-18T09:04:50Z</time>
    </trkpt>
    <trkpt lat="48.433881" lon="2.717258">
      <ele>112.028</ele>
      <time>2016-09-18T09:04:52Z</time>
    </trkpt>
    <trkpt lat="48.433852" lon="2.717088">
      <ele>112.971</ele>
      <time>2016-09-18T09:04:56Z</time>
    </trkpt>
    <trkpt lat="48.433878" lon="2.716929">
      <ele>113.963</ele>
      <time>2016-09-18T09:05:00Z</time>
    </trkpt>
    <trkpt lat="48.433849" lon="2.71676">
      <ele>113.952</ele>
      <time>2016-09-18T09:05:03Z</time>
    </trkpt>
    <trkpt lat="48.433875" lon="2.716607">
      <ele>113.989</ele>
      <time>2016-09-18T09:05:07Z</time>
    </trkpt>
    <trkpt lat="48.433865" lon="2.716468">
      <ele>113.938</ele>
      <time>2016-09-18T09:05:11Z</time>
    </trkpt>
    <trkpt lat="48.433917" lon="2.716352">
      <ele>114.171</ele>
      <time>2016-09-18T09:05:14Z</time>
    </trkpt>
    <trkpt lat="48.433958" lon="2.716219">
      <ele>114.135</ele>
      <time>2016-09-18T09:05:16Z</time>
    </trkpt>
    <trkpt lat="48.433989" lon="2.716091">
      <ele>114.081</ele>
      <time>2016-09-18T09:05:19Z</time>
    </trkpt>
    <trkpt lat="48.434007" lon="2.715937">
      <ele>114.276</ele>
      <time>2016-09-18T09:05:24Z</time>
    </trkpt>
    <trkpt lat="48.434037" lon="2.715769">
      <ele>114.831</ele>
      <time>2016-09-18T09:05:28Z</time>
    </trkpt>
    <trkpt lat="48.434085" lon="2.715641">
      <ele>115.81</ele>
      <time>2016-09-18T09:05:32Z</time>
    </trkpt>
    <trkpt lat="48.434085" lon="2.715493">
      <ele>116.409</ele>
      <time>2016-09-18T09:05:36Z</time>
    </trkpt>
    <trkpt lat="48.434118" lon="2.715344">
      <ele>117.369</ele>
      <time>2016-09-18T09:05:40Z</time>
    </trkpt>
    <trkpt lat="48.434133" lon="2.715194">
      <ele>118.397</ele>
      <time>2016-09-18T09:05:43Z</time>
    </trkpt>
    <trkpt lat="48.434178" lon="2.715035">
      <ele>119.763</ele>
      <time>2016-09-18T09:05:47Z</time>
    </trkpt>
    <trkpt lat="48.434205" lon="2.714863">
      <ele>119.932</ele>
      <time>2016-09-18T09:05:50Z</time>
    </trkpt>
    <trkpt lat="48.434222" lon="2.714706">
      <ele>119.778</ele>
      <time>2016-09-18T09:05:53Z</time>
    </trkpt>
    <trkpt lat="48.434219" lon="2.714571">
      <ele>119.606</ele>
      <time>2016-09-18T09:05:56Z</time>
    </trkpt>
    <trkpt lat="48.434249" lon="2.714411">
      <ele>119.111</ele>
      <time>2016-09-18T09:05:59Z</time>
    </trkpt>
    <trkpt lat="48.434256" lon="2.714243">
      <ele>119.035</ele>
      <time>2016-09-18T09:06:02Z</time>
    </trkpt>
    <trkpt lat="48.434275" lon="2.714087">
      <ele>118.655</ele>
      <time>2016-09-18T09:06:07Z</time>
    </trkpt>
    <trkpt lat="48.434271" lon="2.713917">
      <ele>118.312</ele>
      <time>2016-09-18T09:06:11Z</time>
    </trkpt>
    <trkpt lat="48.434254" lon="2.713773">
      <ele>118.502</ele>
      <time>2016-09-18T09:06:23Z</time>
    </trkpt>
    <trkpt lat="48.434305" lon="2.713562">
      <ele>118.591</ele>
      <time>2016-09-18T09:06:44Z</time>
    </trkpt>
    <trkpt lat="48.434332" lon="2.713393">
      <ele>118.723</ele>
      <time>2016-09-18T09:06:48Z</time>
    </trkpt>
    <trkpt lat="48.43433" lon="2.713234">
      <ele>119.687</ele>
      <time>2016-09-18T09:06:51Z</time>
    </trkpt>
    <trkpt lat="48.434345" lon="2.713095">
      <ele>120.739</ele>
      <time>2016-09-18T09:06:54Z</time>
    </trkpt>
    <trkpt lat="48.434414" lon="2.712906">
      <ele>121.465</ele>
      <time>2016-09-18T09:06:57Z</time>
    </trkpt>
    <trkpt lat="48.434458" lon="2.712783">
      <ele>121.719</ele>
      <time>2016-09-18T09:06:59Z</time>
    </trkpt>
    <trkpt lat="48.434517" lon="2.71261">
      <ele>121.902</ele>
      <time>2016-09-18T09:07:02Z</time>
    </trkpt>
    <trkpt lat="48.434547" lon="2.712433">
      <ele>122.395</ele>
      <time>2016-09-18T09:07:04Z</time>
    </trkpt>
    <trkpt lat="48.434543" lon="2.712266">
      <ele>123.068</ele>
      <time>2016-09-18T09:07:06Z</time>
    </trkpt>
    <trkpt lat="48.434603" lon="2.71209">
      <ele>122.418</ele>
      <time>2016-09-18T09:07:08Z</time>
    </trkpt>
    <trkpt lat="48.434616" lon="2.71191">
      <ele>122.577</ele>
      <time>2016-09-18T09:07:10Z</time>
    </trkpt>
    <trkpt lat="48.434624" lon="2.711732">
      <ele>122.685</ele>
      <time>2016-09-18T09:07:13Z</time>
    </trkpt>
    <trkpt lat="48.434672" lon="2.71151">
      <ele>121.7</ele>
      <time>2016-09-18T09:07:16Z</time>
    </trkpt>
    <trkpt lat="48.434642" lon="2.711303">
      <ele>121.557</ele>
      <time>2016-09-18T09:07:18Z</time>
    </trkpt>
    <trkpt lat="48.434618" lon="2.711138">
      <ele>121.222</ele>
      <time>2016-09-18T09:07:21Z</time>
    </trkpt>
    <trkpt lat="48.434674" lon="2.710982">
      <ele>120.601</ele>
      <time>2016-09-18T09:07:23Z</time>
    </trkpt>
    <trkpt lat="48.434729" lon="2.710806">
      <ele>120.194</ele>
      <time>2016-09-18T09:07:26Z</time>
    </trkpt>
    <trkpt lat="48.434776" lon="2.710687">
      <ele>120.952</ele>
      <time>2016-09-18T09:07:28Z</time>
    </trkpt>
    <trkpt lat="48.434863" lon="2.710625">
      <ele>121.12</ele>
      <time>2016-09-18T09:07:33Z</time>
    </trkpt>
    <trkpt lat="48.434954" lon="2.710653">
      <ele>120.757</ele>
      <time>2016-09-18T09:07:37Z</time>
    </trkpt>
    <trkpt lat="48.435063" lon="2.710682">
      <ele>121.122</ele>
      <time>2016-09-18T09:07:41Z</time>
    </trkpt>
    <trkpt lat="48.435129" lon="2.710814">
      <ele>121.031</ele>
      <time>2016-09-18T09:07:44Z</time>
    </trkpt>
    <trkpt lat="48.435253" lon="2.710832">
      <ele>121.831</ele>
      <time>2016-09-18T09:07:48Z</time>
    </trkpt>
    <trkpt lat="48.435356" lon="2.710805">
      <ele>122.767</ele>
      <time>2016-09-18T09:07:55Z</time>
    </trkpt>
    <trkpt lat="48.435454" lon="2.710731">
      <ele>124.006</ele>
      <time>2016-09-18T09:08:00Z</time>
    </trkpt>
    <trkpt lat="48.435567" lon="2.710683">
      <ele>125.045</ele>
      <time>2016-09-18T09:08:09Z</time>
    </trkpt>
    <trkpt lat="48.435653" lon="2.710623">
      <ele>125.344</ele>
      <time>2016-09-18T09:08:16Z</time>
    </trkpt>
    <trkpt lat="48.435746" lon="2.710644">
      <ele>124.927</ele>
      <time>2016-09-18T09:08:20Z</time>
    </trkpt>
    <trkpt lat="48.435807" lon="2.710531">
      <ele>126.257</ele>
      <time>2016-09-18T09:08:27Z</time>
    </trkpt>
    <trkpt lat="48.435894" lon="2.710449">
      <ele>126.798</ele>
      <time>2016-09-18T09:08:32Z</time>
    </trkpt>
    <trkpt lat="48.435981" lon="2.710378">
      <ele>127.194</ele>
      <time>2016-09-18T09:08:38Z</time>
    </trkpt>
    <trkpt lat="48.436059" lon="2.710285">
      <ele>128.088</ele>
      <time>2016-09-18T09:08:42Z</time>
    </trkpt>
    <trkpt lat="48.436049" lon="2.710134">
      <ele>129.776</ele>
      <time>2016-09-18T09:08:47Z</time>
    </trkpt>
    <trkpt lat="48.43614" lon="2.710048">
      <ele>130.188</ele>
      <time>2016-09-18T09:08:52Z</time>
    </trkpt>
    <trkpt lat="48.436165" lon="2.709902">
      <ele>131.476</ele>
      <time>2016-09-18T09:08:57Z</time>
    </trkpt>
    <trkpt lat="48.436266" lon="2.709812">
      <ele>131.358</ele>
      <time>2016-09-18T09:09:07Z</time>
    </trkpt>
    <trkpt lat="48.436356" lon="2.709769">
      <ele>130.85</ele>
      <time>2016-09-18T09:09:09Z</time>
    </trkpt>
    <trkpt lat="48.436384" lon="2.709639">
      <ele>131.952</ele>
      <time>2016-09-18T09:09:17Z</time>
    </trkpt>
    <trkpt lat="48.436488" lon="2.709575">
      <ele>131.709</ele>
      <time>2016-09-18T09:09:21Z</time>
    </trkpt>
    <trkpt lat="48.436399" lon="2.709505">
      <ele>133.265</ele>
      <time>2016-09-18T09:09:25Z</time>
    </trkpt>
    <trkpt lat="48.436445" lon="2.70935">
      <ele>134.956</ele>
      <time>2016-09-18T09:09:32Z</time>
    </trkpt>
    <trkpt lat="48.436551" lon="2.709294">
      <ele>134.999</ele>
      <time>2016-09-18T09:09:35Z</time>
    </trkpt>
    <trkpt lat="48.436592" lon="2.709167">
      <ele>136.533</ele>
      <time>2016-09-18T09:09:43Z</time>
    </trkpt>
    <trkpt lat="48.436651" lon="2.709054">
      <ele>137.307</ele>
      <time>2016-09-18T09:09:50Z</time>
    </trkpt>
    <trkpt lat="48.436704" lon="2.708943">
      <ele>138.121</ele>
      <time>2016-09-18T09:09:59Z</time>
    </trkpt>
    <trkpt lat="48.436799" lon="2.708835">
      <ele>138.435</ele>
      <time>2016-09-18T09:10:05Z</time>
    </trkpt>
    <trkpt lat="48.436858" lon="2.708694">
      <ele>139.026</ele>
      <time>2016-09-18T09:10:09Z</time>
    </trkpt>
    <trkpt lat="48.436945" lon="2.708591">
      <ele>139.141</ele>
      <time>2016-09-18T09:10:16Z</time>
    </trkpt>
    <trkpt lat="48.436974" lon="2.708424">
      <ele>140.134</ele>
      <time>2016-09-18T09:10:21Z</time>
    </trkpt>
    <trkpt lat="48.437066" lon="2.708361">
      <ele>139.926</ele>
      <time>2016-09-18T09:10:24Z</time>
    </trkpt>
    <trkpt lat="48.437164" lon="2.708343">
      <ele>139.35</ele>
      <time>2016-09-18T09:10:28Z</time>
    </trkpt>
    <trkpt lat="48.437253" lon="2.708276">
      <ele>138.874</ele>
      <time>2016-09-18T09:10:32Z</time>
    </trkpt>
    <trkpt lat="48.437357" lon="2.708289">
      <ele>137.704</ele>
      <time>2016-09-18T09:10:36Z</time>
    </trkpt>
    <trkpt lat="48.437456" lon="2.708325">
      <ele>136.505</ele>
      <time>2016-09-18T09:10:40Z</time>
    </trkpt>
    <trkpt lat="48.437528" lon="2.708412">
      <ele>135.261</ele>
      <time>2016-09-18T09:10:42Z</time>
    </trkpt>
    <trkpt lat="48.437602" lon="2.70832">
      <ele>135.278</ele>
      <time>2016-09-18T09:10:47Z</time>
    </trkpt>
    <trkpt lat="48.437686" lon="2.708254">
      <ele>134.564</ele>
      <time>2016-09-18T09:10:49Z</time>
    </trkpt>
    <trkpt lat="48.437739" lon="2.708145">
      <ele>133.79</ele>
      <time>2016-09-18T09:10:52Z</time>
    </trkpt>
    <trkpt lat="48.437737" lon="2.707967">
      <ele>133.587</ele>
      <time>2016-09-18T09:10:57Z</time>
    </trkpt>
    <trkpt lat="48.437691" lon="2.707844">
      <ele>134.25</ele>
      <time>2016-09-18T09:10:59Z</time>
    </trkpt>
    <trkpt lat="48.437696" lon="2.707706">
      <ele>133.919</ele>
      <time>2016-09-18T09:11:02Z</time>
    </trkpt>
    <trkpt lat="48.437581" lon="2.707645">
      <ele>135.356</ele>
      <time>2016-09-18T09:11:03Z</time>
    </trkpt>
    <trkpt lat="48.437454" lon="2.707519">
      <ele>136.719</ele>
      <time>2016-09-18T09:11:07Z</time>
    </trkpt>
    <trkpt lat="48.437337" lon="2.707483">
      <ele>138.347</ele>
      <time>2016-09-18T09:11:10Z</time>
    </trkpt>
    <trkpt lat="48.437152" lon="2.707392">
      <ele>140.0</ele>
      <time>2016-09-18T09:11:14Z</time>
    </trkpt>
    <trkpt lat="48.437029" lon="2.70733">
      <ele>140.0</ele>
      <time>2016-09-18T09:11:17Z</time>
    </trkpt>
    <trkpt lat="48.436937" lon="2.707258">
      <ele>140.03</ele>
      <time>2016-09-18T09:11:23Z</time>
    </trkpt>
    <trkpt lat="48.436944" lon="2.707107">
      <ele>140.416</ele>
      <time>2016-09-18T09:11:26Z</time>
    </trkpt>
    <trkpt lat="48.436932" lon="2.706954">
      <ele>140.967</ele>
      <time>2016-09-18T09:11:29Z</time>
    </trkpt>
    <trkpt lat="48.436967" lon="2.706824">
      <ele>140.919</ele>
      <time>2016-09-18T09:11:31Z</time>
    </trkpt>
    <trkpt lat="48.437033" lon="2.706667">
      <ele>140.681</ele>
      <time>2016-09-18T09:11:34Z</time>
    </trkpt>
    <trkpt lat="48.437087" lon="2.706519">
      <ele>141.018</ele>
      <time>2016-09-18T09:11:36Z</time>
    </trkpt>
    <trkpt lat="48.437156" lon="2.706336">
      <ele>141.429</ele>
      <time>2016-09-18T09:11:39Z</time>
    </trkpt>
    <trkpt lat="48.437221" lon="2.70616">
      <ele>141.828</ele>
      <time>2016-09-18T09:11:41Z</time>
    </trkpt>
    <trkpt lat="48.437303" lon="2.706027">
      <ele>141.14</ele>
      <time>2016-09-18T09:11:43Z</time>
    </trkpt>
    <trkpt lat="48.437361" lon="2.705913">
      <ele>140.715</ele>
      <time>2016-09-18T09:11:45Z</time>
    </trkpt>
    <trkpt lat="48.437432" lon="2.705812">
      <ele>140.056</ele>
      <time>2016-09-18T09:11:48Z</time>
    </trkpt>
    <trkpt lat="48.437524" lon="2.705823">
      <ele>138.692</ele>
      <time>2016-09-18T09:11:50Z</time>
    </trkpt>
    <trkpt lat="48.43762" lon="2.705806">
      <ele>137.37</ele>
      <time>2016-09-18T09:11:54Z</time>
    </trkpt>
    <trkpt lat="48.437737" lon="2.705862">
      <ele>135.572</ele>
      <time>2016-09-18T09:11:57Z</time>
    </trkpt>
    <trkpt lat="48.437825" lon="2.705917">
      <ele>134.269</ele>
      <time>2016-09-18T09:11:59Z</time>
    </trkpt>
    <trkpt lat="48.437703" lon="2.705894">
      <ele>136.018</ele>
      <time>2016-09-18T09:12:57Z</time>
    </trkpt>
    <trkpt lat="48.43761" lon="2.705791">
      <ele>137.568</ele>
      <time>2016-09-18T09:13:00Z</time>
    </trkpt>
    <trkpt lat="48.437564" lon="2.705663">
      <ele>138.692</ele>
      <time>2016-09-18T09:13:05Z</time>
    </trkpt>
    <trkpt lat="48.43754" lon="2.705491">
      <ele>139.424</ele>
      <time>2016-09-18T09:13:10Z</time>
    </trkpt>
    <trkpt lat="48.437475" lon="2.705372">
      <ele>140.36</ele>
      <time>2016-09-18T09:13:12Z</time>
    </trkpt>
    <trkpt lat="48.4374" lon="2.705116">
      <ele>140.485</ele>
      <time>2016-09-18T09:13:17Z</time>
    </trkpt>
    <trkpt lat="48.437326" lon="2.704907">
      <ele>140.337</ele>
      <time>2016-09-18T09:13:21Z</time>
    </trkpt>
    <trkpt lat="48.437259" lon="2.704796">
      <ele>140.772</ele>
      <time>2016-09-18T09:13:24Z</time>
    </trkpt>
    <trkpt lat="48.437186" lon="2.70466">
      <ele>140.842</ele>
      <time>2016-09-18T09:13:26Z</time>
    </trkpt>
    <trkpt lat="48.437128" lon="2.704535">
      <ele>140.559</ele>
      <time>2016-09-18T09:13:29Z</time>
    </trkpt>
    <trkpt lat="48.437061" lon="2.704435">
      <ele>140.707</ele>
      <time>2016-09-18T09:13:31Z</time>
    </trkpt>
    <trkpt lat="48.436978" lon="2.704233">
      <ele>140.876</ele>
      <time>2016-09-18T09:13:34Z</time>
    </trkpt>
    <trkpt lat="48.436905" lon="2.7041">
      <ele>140.858</ele>
      <time>2016-09-18T09:13:39Z</time>
    </trkpt>
    <trkpt lat="48.436954" lon="2.703973">
      <ele>140.921</ele>
      <time>2016-09-18T09:13:42Z</time>
    </trkpt>
    <trkpt lat="48.436963" lon="2.70379">
      <ele>140.89</ele>
      <time>2016-09-18T09:13:45Z</time>
    </trkpt>
    <trkpt lat="48.436982" lon="2.703614">
      <ele>140.863</ele>
      <time>2016-09-18T09:13:48Z</time>
    </trkpt>
    <trkpt lat="48.437049" lon="2.703472">
      <ele>140.936</ele>
      <time>2016-09-18T09:13:50Z</time>
    </trkpt>
    <trkpt lat="48.437078" lon="2.703327">
      <ele>141.027</ele>
      <time>2016-09-18T09:13:52Z</time>
    </trkpt>
    <trkpt lat="48.43706" lon="2.70317">
      <ele>140.825</ele>
      <time>2016-09-18T09:13:55Z</time>
    </trkpt>
    <trkpt lat="48.437072" lon="2.702959">
      <ele>140.512</ele>
      <time>2016-09-18T09:13:59Z</time>
    </trkpt>
    <trkpt lat="48.43703" lon="2.702839">
      <ele>140.393</ele>
      <time>2016-09-18T09:14:00Z</time>
    </trkpt>
    <trkpt lat="48.436948" lon="2.702742">
      <ele>139.755</ele>
      <time>2016-09-18T09:14:03Z</time>
    </trkpt>
    <trkpt lat="48.436844" lon="2.702724">
      <ele>138.89</ele>
      <time>2016-09-18T09:14:07Z</time>
    </trkpt>
    <trkpt lat="48.436785" lon="2.702869">
      <ele>139.369</ele>
      <time>2016-09-18T09:14:11Z</time>
    </trkpt>
    <trkpt lat="48.436734" lon="2.703046">
      <ele>140.182</ele>
      <time>2016-09-18T09:14:14Z</time>
    </trkpt>
    <trkpt lat="48.436741" lon="2.703185">
      <ele>140.734</ele>
      <time>2016-09-18T09:14:17Z</time>
    </trkpt>
    <trkpt lat="48.436712" lon="2.703368">
      <ele>141.038</ele>
      <time>2016-09-18T09:14:21Z</time>
    </trkpt>
    <trkpt lat="48.436708" lon="2.703509">
      <ele>140.516</ele>
      <time>2016-09-18T09:14:24Z</time>
    </trkpt>
    <trkpt lat="48.436671" lon="2.703638">
      <ele>140.016</ele>
      <time>2016-09-18T09:14:27Z</time>
    </trkpt>
    <trkpt lat="48.436617" lon="2.703784">
      <ele>139.642</ele>
      <time>2016-09-18T09:14:30Z</time>
    </trkpt>
    <trkpt lat="48.436501" lon="2.703889">
      <ele>138.807</ele>
      <time>2016-09-18T09:14:32Z</time>
    </trkpt>
    <trkpt lat="48.436421" lon="2.703988">
      <ele>138.231</ele>
      <time>2016-09-18T09:14:34Z</time>
    </trkpt>
    <trkpt lat="48.436336" lon="2.704067">
      <ele>137.17</ele>
      <time>2016-09-18T09:14:36Z</time>
    </trkpt>
    <trkpt lat="48.436262" lon="2.704169">
      <ele>136.185</ele>
      <time>2016-09-18T09:14:38Z</time>
    </trkpt>
    <trkpt lat="48.436189" lon="2.70434">
      <ele>136.195</ele>
      <time>2016-09-18T09:14:40Z</time>
    </trkpt>
    <trkpt lat="48.436093" lon="2.704467">
      <ele>135.978</ele>
      <time>2016-09-18T09:14:42Z</time>
    </trkpt>
    <trkpt lat="48.436023" lon="2.704602">
      <ele>136.253</ele>
      <time>2016-09-18T09:14:44Z</time>
    </trkpt>
    <trkpt lat="48.436012" lon="2.704791">
      <ele>137.711</ele>
      <time>2016-09-18T09:14:45Z</time>
    </trkpt>
    <trkpt lat="48.435986" lon="2.704933">
      <ele>138.266</ele>
      <time>2016-09-18T09:14:46Z</time>
    </trkpt>
    <trkpt lat="48.435894" lon="2.705141">
      <ele>137.489</ele>
      <time>2016-09-18T09:14:47Z</time>
    </trkpt>
    <trkpt lat="48.43582" lon="2.705286">
      <ele>136.839</ele>
      <time>2016-09-18T09:14:50Z</time>
    </trkpt>
    <trkpt lat="48.435771" lon="2.705459">
      <ele>136.901</ele>
      <time>2016-09-18T09:14:52Z</time>
    </trkpt>
    <trkpt lat="48.43569" lon="2.70553">
      <ele>136.313</ele>
      <time>2016-09-18T09:14:54Z</time>
    </trkpt>
    <trkpt lat="48.43562" lon="2.705627">
      <ele>135.953</ele>
      <time>2016-09-18T09:14:57Z</time>
    </trkpt>
    <trkpt lat="48.43551" lon="2.705587">
      <ele>134.785</ele>
      <time>2016-09-18T09:15:00Z</time>
    </trkpt>
    <trkpt lat="48.435434" lon="2.705513">
      <ele>133.885</ele>
      <time>2016-09-18T09:15:02Z</time>
    </trkpt>
    <trkpt lat="48.435359" lon="2.705433">
      <ele>133.015</ele>
      <time>2016-09-18T09:15:03Z</time>
    </trkpt>
    <trkpt lat="48.435303" lon="2.70532">
      <ele>132.257</ele>
      <time>2016-09-18T09:15:05Z</time>
    </trkpt>
    <trkpt lat="48.435251" lon="2.705181">
      <ele>131.974</ele>
      <time>2016-09-18T09:15:07Z</time>
    </trkpt>
    <trkpt lat="48.435215" lon="2.705043">
      <ele>132.024</ele>
      <time>2016-09-18T09:15:11Z</time>
    </trkpt>
    <trkpt lat="48.43516" lon="2.704914">
      <ele>132.696</ele>
      <time>2016-09-18T09:15:14Z</time>
    </trkpt>
    <trkpt lat="48.435074" lon="2.704845">
      <ele>133.934</ele>
      <time>2016-09-18T09:15:18Z</time>
    </trkpt>
    <trkpt lat="48.435032" lon="2.70472">
      <ele>134.537</ele>
      <time>2016-09-18T09:15:24Z</time>
    </trkpt>
    <trkpt lat="48.434952" lon="2.704605">
      <ele>135.591</ele>
      <time>2016-09-18T09:15:34Z</time>
    </trkpt>
    <trkpt lat="48.434869" lon="2.704517">
      <ele>136.763</ele>
      <time>2016-09-18T09:15:37Z</time>
    </trkpt>
    <trkpt lat="48.43478" lon="2.704439">
      <ele>138.137</ele>
      <time>2016-09-18T09:15:40Z</time>
    </trkpt>
    <trkpt lat="48.434708" lon="2.704343">
      <ele>138.288</ele>
      <time>2016-09-18T09:15:44Z</time>
    </trkpt>
    <trkpt lat="48.434613" lon="2.704222">
      <ele>137.713</ele>
      <time>2016-09-18T09:15:48Z</time>
    </trkpt>
    <trkpt lat="48.434512" lon="2.704173">
      <ele>137.785</ele>
      <time>2016-09-18T09:15:51Z</time>
    </trkpt>
    <trkpt lat="48.434414" lon="2.704153">
      <ele>137.841</ele>
      <time>2016-09-18T09:15:55Z</time>
    </trkpt>
    <trkpt lat="48.434306" lon="2.704127">
      <ele>137.359</ele>
      <time>2016-09-18T09:15:59Z</time>
    </trkpt>
    <trkpt lat="48.434212" lon="2.704132">
      <ele>137.038</ele>
      <time>2016-09-18T09:16:03Z</time>
    </trkpt>
    <trkpt lat="48.434122" lon="2.704067">
      <ele>136.641</ele>
      <time>2016-09-18T09:16:07Z</time>
    </trkpt>
    <trkpt lat="48.434024" lon="2.704051">
      <ele>136.584</ele>
      <time>2016-09-18T09:16:10Z</time>
    </trkpt>
    <trkpt lat="48.43393" lon="2.704063">
      <ele>136.627</ele>
      <time>2016-09-18T09:16:14Z</time>
    </trkpt>
    <trkpt lat="48.433831" lon="2.704068">
      <ele>136.927</ele>
      <time>2016-09-18T09:16:17Z</time>
    </trkpt>
    <trkpt lat="48.433714" lon="2.704069">
      <ele>137.499</ele>
      <time>2016-09-18T09:16:20Z</time>
    </trkpt>
    <trkpt lat="48.433611" lon="2.704035">
      <ele>138.001</ele>
      <time>2016-09-18T09:16:23Z</time>
    </trkpt>
    <trkpt lat="48.433516" lon="2.704002">
      <ele>139.23</ele>
      <time>2016-09-18T09:16:26Z</time>
    </trkpt>
    <trkpt lat="48.433419" lon="2.703962">
      <ele>140.584</ele>
      <time>2016-09-18T09:16:30Z</time>
    </trkpt>
    <trkpt lat="48.433294" lon="2.703903">
      <ele>142.232</ele>
      <time>2016-09-18T09:16:33Z</time>
    </trkpt>
    <trkpt lat="48.433201" lon="2.703926">
      <ele>142.819</ele>
      <time>2016-09-18T09:16:39Z</time>
    </trkpt>
    <trkpt lat="48.433098" lon="2.703907">
      <ele>143.629</ele>
      <time>2016-09-18T09:16:43Z</time>
    </trkpt>
    <trkpt lat="48.432999" lon="2.703917">
      <ele>143.899</ele>
      <time>2016-09-18T09:16:45Z</time>
    </trkpt>
    <trkpt lat="48.432901" lon="2.703919">
      <ele>143.892</ele>
      <time>2016-09-18T09:16:47Z</time>
    </trkpt>
    <trkpt lat="48.43279" lon="2.703889">
      <ele>144.0</ele>
      <time>2016-09-18T09:16:51Z</time>
    </trkpt>
    <trkpt lat="48.432686" lon="2.703922">
      <ele>144.251</ele>
      <time>2016-09-18T09:16:55Z</time>
    </trkpt>
    <trkpt lat="48.432589" lon="2.703903">
      <ele>144.663</ele>
      <time>2016-09-18T09:16:57Z</time>
    </trkpt>
    <trkpt lat="48.432483" lon="2.703857">
      <ele>145.23</ele>
      <time>2016-09-18T09:17:00Z</time>
    </trkpt>
    <trkpt lat="48.432386" lon="2.703859">
      <ele>145.884</ele>
      <time>2016-09-18T09:17:02Z</time>
    </trkpt>
    <trkpt lat="48.432309" lon="2.703937">
      <ele>146.256</ele>
      <time>2016-09-18T09:17:05Z</time>
    </trkpt>
    <trkpt lat="48.432191" lon="2.703936">
      <ele>146.849</ele>
      <time>2016-09-18T09:17:08Z</time>
    </trkpt>
    <trkpt lat="48.432078" lon="2.703947">
      <ele>146.899</ele>
      <time>2016-09-18T09:17:12Z</time>
    </trkpt>
    <trkpt lat="48.431989" lon="2.703923">
      <ele>146.98</ele>
      <time>2016-09-18T09:17:15Z</time>
    </trkpt>
    <trkpt lat="48.431859" lon="2.703928">
      <ele>147.0</ele>
      <time>2016-09-18T09:17:18Z</time>
    </trkpt>
    <trkpt lat="48.431754" lon="2.704">
      <ele>147.0</ele>
      <time>2016-09-18T09:17:21Z</time>
    </trkpt>
    <trkpt lat="48.431647" lon="2.703952">
      <ele>147.016</ele>
      <time>2016-09-18T09:17:23Z</time>
    </trkpt>
    <trkpt lat="48.43156" lon="2.704046">
      <ele>147.217</ele>
      <time>2016-09-18T09:17:29Z</time>
    </trkpt>
    <trkpt lat="48.431403" lon="2.704072">
      <ele>147.626</ele>
      <time>2016-09-18T09:17:33Z</time>
    </trkpt>
    <trkpt lat="48.431276" lon="2.704098">
      <ele>147.853</ele>
      <time>2016-09-18T09:17:35Z</time>
    </trkpt>
    <trkpt lat="48.43118" lon="2.704082">
      <ele>147.924</ele>
      <time>2016-09-18T09:17:37Z</time>
    </trkpt>
    <trkpt lat="48.431086" lon="2.704084">
      <ele>148.063</ele>
      <time>2016-09-18T09:17:39Z</time>
    </trkpt>
    <trkpt lat="48.430959" lon="2.704138">
      <ele>148.491</ele>
      <time>2016-09-18T09:17:41Z</time>
    </trkpt>
    <trkpt lat="48.43086" lon="2.704158">
      <ele>148.876</ele>
      <time>2016-09-18T09:17:44Z</time>
    </trkpt>
    <trkpt lat="48.430749" lon="2.704204">
      <ele>149.304</ele>
      <time>2016-09-18T09:17:48Z</time>
    </trkpt>
    <trkpt lat="48.430636" lon="2.704194">
      <ele>149.71</ele>
      <time>2016-09-18T09:17:52Z</time>
    </trkpt>
    <trkpt lat="48.430533" lon="2.704243">
      <ele>150.0</ele>
      <time>2016-09-18T09:17:54Z</time>
    </trkpt>
    <trkpt lat="48.430424" lon="2.704313">
      <ele>150.0</ele>
      <time>2016-09-18T09:17:58Z</time>
    </trkpt>
    <trkpt lat="48.430334" lon="2.70435">
      <ele>150.0</ele>
      <time>2016-09-18T09:18:04Z</time>
    </trkpt>
    <trkpt lat="48.430218" lon="2.704362">
      <ele>150.0</ele>
      <time>2016-09-18T09:18:07Z</time>
    </trkpt>
    <trkpt lat="48.430128" lon="2.70433">
      <ele>150.0</ele>
      <time>2016-09-18T09:18:09Z</time>
    </trkpt>
    <trkpt lat="48.430036" lon="2.704347">
      <ele>150.0</ele>
      <time>2016-09-18T09:18:13Z</time>
    </trkpt>
    <trkpt lat="48.42993" lon="2.704314">
      <ele>150.252</ele>
      <time>2016-09-18T09:18:15Z</time>
    </trkpt>
    <trkpt lat="48.429788" lon="2.704283">
      <ele>150.763</ele>
      <time>2016-09-18T09:18:17Z</time>
    </trkpt>
    <trkpt lat="48.429679" lon="2.704293">
      <ele>151.085</ele>
      <time>2016-09-18T09:18:19Z</time>
    </trkpt>
    <trkpt lat="48.429571" lon="2.704291">
      <ele>151.301</ele>
      <time>2016-09-18T09:18:21Z</time>
    </trkpt>
    <trkpt lat="48.429448" lon="2.704268">
      <ele>151.627</ele>
      <time>2016-09-18T09:18:24Z</time>
    </trkpt>
    <trkpt lat="48.429353" lon="2.704279">
      <ele>151.266</ele>
      <time>2016-09-18T09:18:28Z</time>
    </trkpt>
    <trkpt lat="48.429259" lon="2.704287">
      <ele>150.899</ele>
      <time>2016-09-18T09:18:30Z</time>
    </trkpt>
    <trkpt lat="48.42916" lon="2.70428">
      <ele>150.578</ele>
      <time>2016-09-18T09:18:34Z</time>
    </trkpt>
    <trkpt lat="48.429105" lon="2.704414">
      <ele>150.085</ele>
      <time>2016-09-18T09:18:37Z</time>
    </trkpt>
    <trkpt lat="48.429072" lon="2.704544">
      <ele>149.764</ele>
      <time>2016-09-18T09:18:40Z</time>
    </trkpt>
    <trkpt lat="48.429073" lon="2.704718">
      <ele>149.347</ele>
      <time>2016-09-18T09:18:43Z</time>
    </trkpt>
    <trkpt lat="48.42907" lon="2.704894">
      <ele>149.348</ele>
      <time>2016-09-18T09:18:46Z</time>
    </trkpt>
    <trkpt lat="48.429079" lon="2.705049">
      <ele>149.548</ele>
      <time>2016-09-18T09:18:49Z</time>
    </trkpt>
    <trkpt lat="48.429053" lon="2.70521">
      <ele>150.475</ele>
      <time>2016-09-18T09:18:53Z</time>
    </trkpt>
    <trkpt lat="48.429061" lon="2.705385">
      <ele>150.908</ele>
      <time>2016-09-18T09:18:57Z</time>
    </trkpt>
    <trkpt lat="48.429064" lon="2.705537">
      <ele>151.084</ele>
      <time>2016-09-18T09:19:00Z</time>
    </trkpt>
    <trkpt lat="48.429066" lon="2.705731">
      <ele>151.261</ele>
      <time>2016-09-18T09:19:03Z</time>
    </trkpt>
    <trkpt lat="48.429073" lon="2.705868">
      <ele>151.212</ele>
      <time>2016-09-18T09:19:05Z</time>
    </trkpt>
    <trkpt lat="48.429055" lon="2.706014">
      <ele>150.752</ele>
      <time>2016-09-18T09:19:07Z</time>
    </trkpt>
    <trkpt lat="48.429031" lon="2.706211">
      <ele>150.129</ele>
      <time>2016-09-18T09:19:09Z</time>
    </trkpt>
    <trkpt lat="48.428967" lon="2.706434">
      <ele>149.764</ele>
      <time>2016-09-18T09:19:11Z</time>
    </trkpt>
    <trkpt lat="48.428927" lon="2.706588">
      <ele>149.961</ele>
      <time>2016-09-18T09:19:13Z</time>
    </trkpt>
    <trkpt lat="48.42895" lon="2.706804">
      <ele>150.494</ele>
      <time>2016-09-18T09:19:16Z</time>
    </trkpt>
    <trkpt lat="48.428941" lon="2.706998">
      <ele>151.157</ele>
      <time>2016-09-18T09:19:18Z</time>
    </trkpt>
    <trkpt lat="48.428906" lon="2.707139">
      <ele>151.657</ele>
      <time>2016-09-18T09:19:21Z</time>
    </trkpt>
    <trkpt lat="48.428885" lon="2.707316">
      <ele>152.0</ele>
      <time>2016-09-18T09:19:24Z</time>
    </trkpt>
    <trkpt lat="48.428894" lon="2.707457">
      <ele>151.982</ele>
      <time>2016-09-18T09:19:27Z</time>
    </trkpt>
    <trkpt lat="48.428911" lon="2.707609">
      <ele>151.559</ele>
      <time>2016-09-18T09:19:30Z</time>
    </trkpt>
    <trkpt lat="48.428762" lon="2.70762">
      <ele>151.963</ele>
      <time>2016-09-18T09:19:33Z</time>
    </trkpt>
    <trkpt lat="48.428668" lon="2.70766">
      <ele>152.34</ele>
      <time>2016-09-18T09:19:36Z</time>
    </trkpt>
    <trkpt lat="48.428568" lon="2.707664">
      <ele>152.59</ele>
      <time>2016-09-18T09:19:39Z</time>
    </trkpt>
    <trkpt lat="48.428463" lon="2.707651">
      <ele>152.544</ele>
      <time>2016-09-18T09:19:41Z</time>
    </trkpt>
    <trkpt lat="48.428368" lon="2.707692">
      <ele>152.691</ele>
      <time>2016-09-18T09:19:44Z</time>
    </trkpt>
    <trkpt lat="48.428252" lon="2.707676">
      <ele>152.448</ele>
      <time>2016-09-18T09:19:47Z</time>
    </trkpt>
    <trkpt lat="48.42815" lon="2.70767">
      <ele>152.208</ele>
      <time>2016-09-18T09:19:49Z</time>
    </trkpt>
    <trkpt lat="48.428036" lon="2.707564">
      <ele>151.962</ele>
      <time>2016-09-18T09:19:54Z</time>
    </trkpt>
    <trkpt lat="48.427978" lon="2.707676">
      <ele>152.075</ele>
      <time>2016-09-18T09:20:01Z</time>
    </trkpt>
    <trkpt lat="48.427913" lon="2.707771">
      <ele>152.488</ele>
      <time>2016-09-18T09:20:05Z</time>
    </trkpt>
    <trkpt lat="48.427787" lon="2.707707">
      <ele>152.474</ele>
      <time>2016-09-18T09:20:09Z</time>
    </trkpt>
    <trkpt lat="48.427682" lon="2.707699">
      <ele>152.531</ele>
      <time>2016-09-18T09:20:12Z</time>
    </trkpt>
    <trkpt lat="48.42756" lon="2.707663">
      <ele>152.498</ele>
      <time>2016-09-18T09:20:15Z</time>
    </trkpt>
    <trkpt lat="48.427443" lon="2.707715">
      <ele>152.82</ele>
      <time>2016-09-18T09:20:18Z</time>
    </trkpt>
    <trkpt lat="48.427338" lon="2.707679">
      <ele>152.852</ele>
      <time>2016-09-18T09:20:20Z</time>
    </trkpt>
    <trkpt lat="48.427223" lon="2.707679">
      <ele>152.999</ele>
      <time>2016-09-18T09:20:26Z</time>
    </trkpt>
    <trkpt lat="48.427099" lon="2.707712">
      <ele>152.218</ele>
      <time>2016-09-18T09:20:30Z</time>
    </trkpt>
    <trkpt lat="48.426987" lon="2.707746">
      <ele>151.403</ele>
      <time>2016-09-18T09:20:32Z</time>
    </trkpt>
    <trkpt lat="48.426824" lon="2.707758">
      <ele>149.801</ele>
      <time>2016-09-18T09:20:34Z</time>
    </trkpt>
    <trkpt lat="48.426695" lon="2.707777">
      <ele>148.311</ele>
      <time>2016-09-18T09:20:36Z</time>
    </trkpt>
    <trkpt lat="48.426587" lon="2.707797">
      <ele>148.069</ele>
      <time>2016-09-18T09:20:38Z</time>
    </trkpt>
    <trkpt lat="48.426484" lon="2.707868">
      <ele>148.325</ele>
      <time>2016-09-18T09:20:42Z</time>
    </trkpt>
    <trkpt lat="48.426327" lon="2.70792">
      <ele>148.735</ele>
      <time>2016-09-18T09:20:44Z</time>
    </trkpt>
    <trkpt lat="48.426203" lon="2.707936">
      <ele>149.239</ele>
      <time>2016-09-18T09:20:47Z</time>
    </trkpt>
    <trkpt lat="48.426097" lon="2.707994">
      <ele>149.728</ele>
      <time>2016-09-18T09:20:50Z</time>
    </trkpt>
    <trkpt lat="48.426012" lon="2.708069">
      <ele>149.692</ele>
      <time>2016-09-18T09:20:53Z</time>
    </trkpt>
    <trkpt lat="48.425865" lon="2.708098">
      <ele>149.267</ele>
      <time>2016-09-18T09:20:55Z</time>
    </trkpt>
    <trkpt lat="48.42576" lon="2.708138">
      <ele>148.505</ele>
      <time>2016-09-18T09:20:57Z</time>
    </trkpt>
    <trkpt lat="48.425708" lon="2.70829">
      <ele>148.49</ele>
      <time>2016-09-18T09:21:01Z</time>
    </trkpt>
    <trkpt lat="48.425688" lon="2.70844">
      <ele>148.631</ele>
      <time>2016-09-18T09:21:06Z</time>
    </trkpt>
    <trkpt lat="48.425602" lon="2.70858">
      <ele>148.241</ele>
      <time>2016-09-18T09:21:09Z</time>
    </trkpt>
    <trkpt lat="48.425542" lon="2.708683">
      <ele>148.076</ele>
      <time>2016-09-18T09:21:13Z</time>
    </trkpt>
    <trkpt lat="48.425467" lon="2.708784">
      <ele>147.546</ele>
      <time>2016-09-18T09:21:16Z</time>
    </trkpt>
    <trkpt lat="48.425429" lon="2.708907">
      <ele>147.722</ele>
      <time>2016-09-18T09:21:18Z</time>
    </trkpt>
    <trkpt lat="48.425373" lon="2.709047">
      <ele>148.151</ele>
      <time>2016-09-18T09:21:21Z</time>
    </trkpt>
    <trkpt lat="48.425281" lon="2.709061">
      <ele>147.872</ele>
      <time>2016-09-18T09:21:28Z</time>
    </trkpt>
    <trkpt lat="48.425189" lon="2.709084">
      <ele>146.509</ele>
      <time>2016-09-18T09:21:48Z</time>
    </trkpt>
    <trkpt lat="48.425122" lon="2.70919">
      <ele>146.421</ele>
      <time>2016-09-18T09:22:06Z</time>
    </trkpt>
    <trkpt lat="48.425017" lon="2.709214">
      <ele>144.956</ele>
      <time>2016-09-18T09:22:09Z</time>
    </trkpt>
    <trkpt lat="48.424932" lon="2.709279">
      <ele>144.394</ele>
      <time>2016-09-18T09:22:12Z</time>
    </trkpt>
    <trkpt lat="48.424885" lon="2.709409">
      <ele>145.42</ele>
      <time>2016-09-18T09:22:16Z</time>
    </trkpt>
    <trkpt lat="48.424857" lon="2.709593">
      <ele>146.771</ele>
      <time>2016-09-18T09:22:20Z</time>
    </trkpt>
    <trkpt lat="48.424782" lon="2.709731">
      <ele>146.942</ele>
      <time>2016-09-18T09:22:23Z</time>
    </trkpt>
    <trkpt lat="48.424711" lon="2.709816">
      <ele>146.892</ele>
      <time>2016-09-18T09:22:24Z</time>
    </trkpt>
    <trkpt lat="48.424659" lon="2.71001">
      <ele>148.389</ele>
      <time>2016-09-18T09:22:26Z</time>
    </trkpt>
    <trkpt lat="48.42459" lon="2.710127">
      <ele>148.486</ele>
      <time>2016-09-18T09:22:30Z</time>
    </trkpt>
    <trkpt lat="48.424562" lon="2.710271">
      <ele>149.221</ele>
      <time>2016-09-18T09:22:33Z</time>
    </trkpt>
    <trkpt lat="48.424498" lon="2.710378">
      <ele>149.3</ele>
      <time>2016-09-18T09:22:35Z</time>
    </trkpt>
    <trkpt lat="48.424471" lon="2.710514">
      <ele>149.988</ele>
      <time>2016-09-18T09:22:36Z</time>
    </trkpt>
    <trkpt lat="48.424445" lon="2.710672">
      <ele>150.007</ele>
      <time>2016-09-18T09:22:38Z</time>
    </trkpt>
    <trkpt lat="48.424387" lon="2.710832">
      <ele>149.38</ele>
      <time>2016-09-18T09:22:41Z</time>
    </trkpt>
    <trkpt lat="48.424276" lon="2.710888">
      <ele>148.258</ele>
      <time>2016-09-18T09:22:43Z</time>
    </trkpt>
    <trkpt lat="48.42417" lon="2.710939">
      <ele>147.041</ele>
      <time>2016-09-18T09:22:45Z</time>
    </trkpt>
    <trkpt lat="48.424099" lon="2.711089">
      <ele>146.026</ele>
      <time>2016-09-18T09:22:49Z</time>
    </trkpt>
    <trkpt lat="48.423997" lon="2.711214">
      <ele>144.927</ele>
      <time>2016-09-18T09:22:53Z</time>
    </trkpt>
    <trkpt lat="48.423911" lon="2.711321">
      <ele>144.074</ele>
      <time>2016-09-18T09:22:55Z</time>
    </trkpt>
    <trkpt lat="48.423885" lon="2.71147">
      <ele>144.25</ele>
      <time>2016-09-18T09:22:57Z</time>
    </trkpt>
    <trkpt lat="48.423799" lon="2.711546">
      <ele>143.595</ele>
      <time>2016-09-18T09:22:59Z</time>
    </trkpt>
    <trkpt lat="48.423697" lon="2.711594">
      <ele>142.666</ele>
      <time>2016-09-18T09:23:01Z</time>
    </trkpt>
    <trkpt lat="48.423593" lon="2.711689">
      <ele>141.81</ele>
      <time>2016-09-18T09:23:04Z</time>
    </trkpt>
    <trkpt lat="48.423502" lon="2.711708">
      <ele>140.88</ele>
      <time>2016-09-18T09:23:09Z</time>
    </trkpt>
    <trkpt lat="48.423442" lon="2.711836">
      <ele>140.545</ele>
      <time>2016-09-18T09:23:14Z</time>
    </trkpt>
    <trkpt lat="48.423366" lon="2.711914">
      <ele>140.138</ele>
      <time>2016-09-18T09:23:17Z</time>
    </trkpt>
    <trkpt lat="48.423334" lon="2.712097">
      <ele>140.555</ele>
      <time>2016-09-18T09:23:21Z</time>
    </trkpt>
    <trkpt lat="48.423293" lon="2.712255">
      <ele>140.828</ele>
      <time>2016-09-18T09:23:24Z</time>
    </trkpt>
    <trkpt lat="48.423271" lon="2.71241">
      <ele>141.227</ele>
      <time>2016-09-18T09:23:26Z</time>
    </trkpt>
    <trkpt lat="48.423211" lon="2.712533">
      <ele>141.238</ele>
      <time>2016-09-18T09:23:31Z</time>
    </trkpt>
    <trkpt lat="48.423131" lon="2.712449">
      <ele>140.36</ele>
      <time>2016-09-18T09:23:34Z</time>
    </trkpt>
    <trkpt lat="48.423045" lon="2.71249">
      <ele>140.002</ele>
      <time>2016-09-18T09:23:37Z</time>
    </trkpt>
    <trkpt lat="48.422989" lon="2.712598">
      <ele>140.677</ele>
      <time>2016-09-18T09:23:43Z</time>
    </trkpt>
    <trkpt lat="48.42296" lon="2.712764">
      <ele>141.621</ele>
      <time>2016-09-18T09:23:49Z</time>
    </trkpt>
    <trkpt lat="48.422907" lon="2.712904">
      <ele>142.947</ele>
      <time>2016-09-18T09:23:54Z</time>
    </trkpt>
    <trkpt lat="48.422825" lon="2.713009">
      <ele>143.775</ele>
      <time>2016-09-18T09:23:59Z</time>
    </trkpt>
    <trkpt lat="48.422697" lon="2.713149">
      <ele>144.866</ele>
      <time>2016-09-18T09:24:03Z</time>
    </trkpt>
    <trkpt lat="48.422594" lon="2.713182">
      <ele>145.271</ele>
      <time>2016-09-18T09:24:05Z</time>
    </trkpt>
    <trkpt lat="48.422556" lon="2.713043">
      <ele>144.753</ele>
      <time>2016-09-18T09:24:09Z</time>
    </trkpt>
    <trkpt lat="48.422601" lon="2.712896">
      <ele>144.062</ele>
      <time>2016-09-18T09:24:13Z</time>
    </trkpt>
    <trkpt lat="48.422521" lon="2.712801">
      <ele>144.008</ele>
      <time>2016-09-18T09:24:20Z</time>
    </trkpt>
    <trkpt lat="48.422397" lon="2.712765">
      <ele>144.342</ele>
      <time>2016-09-18T09:24:33Z</time>
    </trkpt>
    <trkpt lat="48.422251" lon="2.712767">
      <ele>144.892</ele>
      <time>2016-09-18T09:24:50Z</time>
    </trkpt>
    <trkpt lat="48.422129" lon="2.712813">
      <ele>145.0</ele>
      <time>2016-09-18T09:24:54Z</time>
    </trkpt>
    <trkpt lat="48.422037" lon="2.71286">
      <ele>145.0</ele>
      <time>2016-09-18T09:24:56Z</time>
    </trkpt>
    <trkpt lat="48.42195" lon="2.712935">
      <ele>145.0</ele>
      <time>2016-09-18T09:25:00Z</time>
    </trkpt>
    <trkpt lat="48.421891" lon="2.71304">
      <ele>145.0</ele>
      <time>2016-09-18T09:25:05Z</time>
    </trkpt>
    <trkpt lat="48.421811" lon="2.71312">
      <ele>145.232</ele>
      <time>2016-09-18T09:25:08Z</time>
    </trkpt>
    <trkpt lat="48.421724" lon="2.713181">
      <ele>145.452</ele>
      <time>2016-09-18T09:25:11Z</time>
    </trkpt>
    <trkpt lat="48.421633" lon="2.713236">
      <ele>145.571</ele>
      <time>2016-09-18T09:25:14Z</time>
    </trkpt>
    <trkpt lat="48.42152" lon="2.713335">
      <ele>145.472</ele>
      <time>2016-09-18T09:25:17Z</time>
    </trkpt>
    <trkpt lat="48.421418" lon="2.713374">
      <ele>145.105</ele>
      <time>2016-09-18T09:25:19Z</time>
    </trkpt>
    <trkpt lat="48.421323" lon="2.713395">
      <ele>144.815</ele>
      <time>2016-09-18T09:25:24Z</time>
    </trkpt>
    <trkpt lat="48.421209" lon="2.713373">
      <ele>144.445</ele>
      <time>2016-09-18T09:25:28Z</time>
    </trkpt>
    <trkpt lat="48.421115" lon="2.713329">
      <ele>144.014</ele>
      <time>2016-09-18T09:25:31Z</time>
    </trkpt>
    <trkpt lat="48.421038" lon="2.713248">
      <ele>143.13</ele>
      <time>2016-09-18T09:25:36Z</time>
    </trkpt>
    <trkpt lat="48.420936" lon="2.713183">
      <ele>141.768</ele>
      <time>2016-09-18T09:25:38Z</time>
    </trkpt>
    <trkpt lat="48.420863" lon="2.713302">
      <ele>141.22</ele>
      <time>2016-09-18T09:25:44Z</time>
    </trkpt>
    <trkpt lat="48.420842" lon="2.713435">
      <ele>141.814</ele>
      <time>2016-09-18T09:25:48Z</time>
    </trkpt>
    <trkpt lat="48.420827" lon="2.713612">
      <ele>142.938</ele>
      <time>2016-09-18T09:25:55Z</time>
    </trkpt>
    <trkpt lat="48.420819" lon="2.713754">
      <ele>143.901</ele>
      <time>2016-09-18T09:25:59Z</time>
    </trkpt>
    <trkpt lat="48.420818" lon="2.713904">
      <ele>144.947</ele>
      <time>2016-09-18T09:26:03Z</time>
    </trkpt>
    <trkpt lat="48.420785" lon="2.714056">
      <ele>145.358</ele>
      <time>2016-09-18T09:26:09Z</time>
    </trkpt>
    <trkpt lat="48.420703" lon="2.714186">
      <ele>145.6</ele>
      <time>2016-09-18T09:26:11Z</time>
    </trkpt>
    <trkpt lat="48.420676" lon="2.714349">
      <ele>146.09</ele>
      <time>2016-09-18T09:26:15Z</time>
    </trkpt>
    <trkpt lat="48.420657" lon="2.714486">
      <ele>146.27</ele>
      <time>2016-09-18T09:26:18Z</time>
    </trkpt>
    <trkpt lat="48.42061" lon="2.714609">
      <ele>145.72</ele>
      <time>2016-09-18T09:26:20Z</time>
    </trkpt>
    <trkpt lat="48.420545" lon="2.714728">
      <ele>144.961</ele>
      <time>2016-09-18T09:26:23Z</time>
    </trkpt>
    <trkpt lat="48.420482" lon="2.71486">
      <ele>144.604</ele>
      <time>2016-09-18T09:26:27Z</time>
    </trkpt>
    <trkpt lat="48.420431" lon="2.715004">
      <ele>144.103</ele>
      <time>2016-09-18T09:26:30Z</time>
    </trkpt>
    <trkpt lat="48.420327" lon="2.714968">
      <ele>143.449</ele>
      <time>2016-09-18T09:26:33Z</time>
    </trkpt>
    <trkpt lat="48.420225" lon="2.714951">
      <ele>142.986</ele>
      <time>2016-09-18T09:26:37Z</time>
    </trkpt>
    <trkpt lat="48.420115" lon="2.714914">
      <ele>142.724</ele>
      <time>2016-09-18T09:26:39Z</time>
    </trkpt>
    <trkpt lat="48.420012" lon="2.714843">
      <ele>142.608</ele>
      <time>2016-09-18T09:26:42Z</time>
    </trkpt>
    <trkpt lat="48.419894" lon="2.714792">
      <ele>140.937</ele>
      <time>2016-09-18T09:26:45Z</time>
    </trkpt>
    <trkpt lat="48.419807" lon="2.714759">
      <ele>139.486</ele>
      <time>2016-09-18T09:26:47Z</time>
    </trkpt>
    <trkpt lat="48.419702" lon="2.714736">
      <ele>137.483</ele>
      <time>2016-09-18T09:26:52Z</time>
    </trkpt>
    <trkpt lat="48.419706" lon="2.714879">
      <ele>137.525</ele>
      <time>2016-09-18T09:28:09Z</time>
    </trkpt>
    <trkpt lat="48.419719" lon="2.715014">
      <ele>137.896</ele>
      <time>2016-09-18T09:28:14Z</time>
    </trkpt>
    <trkpt lat="48.419808" lon="2.715122">
      <ele>139.235</ele>
      <time>2016-09-18T09:28:17Z</time>
    </trkpt>
    <trkpt lat="48.419903" lon="2.71522">
      <ele>140.603</ele>
      <time>2016-09-18T09:28:20Z</time>
    </trkpt>
    <trkpt lat="48.420019" lon="2.715258">
      <ele>142.068</ele>
      <time>2016-09-18T09:28:23Z</time>
    </trkpt>
    <trkpt lat="48.420127" lon="2.715249">
      <ele>142.457</ele>
      <time>2016-09-18T09:28:26Z</time>
    </trkpt>
    <trkpt lat="48.420228" lon="2.715241">
      <ele>142.821</ele>
      <time>2016-09-18T09:28:32Z</time>
    </trkpt>
    <trkpt lat="48.420322" lon="2.71528">
      <ele>143.318</ele>
      <time>2016-09-18T09:28:37Z</time>
    </trkpt>
    <trkpt lat="48.420405" lon="2.71537">
      <ele>143.916</ele>
      <time>2016-09-18T09:28:40Z</time>
    </trkpt>
    <trkpt lat="48.420457" lon="2.715482">
      <ele>144.29</ele>
      <time>2016-09-18T09:28:44Z</time>
    </trkpt>
    <trkpt lat="48.42053" lon="2.715605">
      <ele>144.978</ele>
      <time>2016-09-18T09:28:51Z</time>
    </trkpt>
    <trkpt lat="48.420628" lon="2.715684">
      <ele>145.863</ele>
      <time>2016-09-18T09:28:56Z</time>
    </trkpt>
    <trkpt lat="48.420728" lon="2.715731">
      <ele>146.481</ele>
      <time>2016-09-18T09:28:59Z</time>
    </trkpt>
    <trkpt lat="48.420825" lon="2.715711">
      <ele>146.957</ele>
      <time>2016-09-18T09:29:07Z</time>
    </trkpt>
    <trkpt lat="48.420923" lon="2.715729">
      <ele>147.0</ele>
      <time>2016-09-18T09:29:12Z</time>
    </trkpt>
    <trkpt lat="48.420981" lon="2.715877">
      <ele>147.084</ele>
      <time>2016-09-18T09:29:16Z</time>
    </trkpt>
    <trkpt lat="48.421022" lon="2.716025">
      <ele>147.469</ele>
      <time>2016-09-18T09:29:19Z</time>
    </trkpt>
    <trkpt lat="48.421058" lon="2.716151">
      <ele>147.781</ele>
      <time>2016-09-18T09:29:23Z</time>
    </trkpt>
    <trkpt lat="48.421167" lon="2.716209">
      <ele>148.201</ele>
      <time>2016-09-18T09:29:27Z</time>
    </trkpt>
    <trkpt lat="48.421115" lon="2.716345">
      <ele>148.014</ele>
      <time>2016-09-18T09:29:32Z</time>
    </trkpt>
    <trkpt lat="48.421096" lon="2.716553">
      <ele>147.891</ele>
      <time>2016-09-18T09:29:37Z</time>
    </trkpt>
    <trkpt lat="48.421083" lon="2.716702">
      <ele>147.925</ele>
      <time>2016-09-18T09:29:41Z</time>
    </trkpt>
    <trkpt lat="48.421037" lon="2.716876">
      <ele>148.22</ele>
      <time>2016-09-18T09:29:45Z</time>
    </trkpt>
    <trkpt lat="48.420982" lon="2.717034">
      <ele>148.07</ele>
      <time>2016-09-18T09:29:50Z</time>
    </trkpt>
    <trkpt lat="48.420961" lon="2.717194">
      <ele>147.919</ele>
      <time>2016-09-18T09:29:55Z</time>
    </trkpt>
    <trkpt lat="48.420905" lon="2.717318">
      <ele>147.861</ele>
      <time>2016-09-18T09:29:57Z</time>
    </trkpt>
    <trkpt lat="48.420842" lon="2.717422">
      <ele>147.782</ele>
      <time>2016-09-18T09:29:59Z</time>
    </trkpt>
    <trkpt lat="48.420798" lon="2.717545">
      <ele>147.009</ele>
      <time>2016-09-18T09:30:01Z</time>
    </trkpt>
    <trkpt lat="48.420748" lon="2.717713">
      <ele>145.789</ele>
      <time>2016-09-18T09:30:04Z</time>
    </trkpt>
    <trkpt lat="48.42079" lon="2.717888">
      <ele>146.438</ele>
      <time>2016-09-18T09:30:07Z</time>
    </trkpt>
    <trkpt lat="48.420775" lon="2.718072">
      <ele>146.323</ele>
      <time>2016-09-18T09:30:12Z</time>
    </trkpt>
    <trkpt lat="48.420702" lon="2.718188">
      <ele>145.33</ele>
      <time>2016-09-18T09:30:16Z</time>
    </trkpt>
    <trkpt lat="48.420638" lon="2.718302">
      <ele>144.627</ele>
      <time>2016-09-18T09:30:20Z</time>
    </trkpt>
    <trkpt lat="48.420572" lon="2.718414">
      <ele>144.118</ele>
      <time>2016-09-18T09:30:23Z</time>
    </trkpt>
    <trkpt lat="48.420481" lon="2.718574">
      <ele>143.732</ele>
      <time>2016-09-18T09:30:26Z</time>
    </trkpt>
    <trkpt lat="48.420552" lon="2.718721">
      <ele>143.597</ele>
      <time>2016-09-18T09:30:30Z</time>
    </trkpt>
    <trkpt lat="48.4206" lon="2.718881">
      <ele>143.348</ele>
      <time>2016-09-18T09:30:34Z</time>
    </trkpt>
    <trkpt lat="48.420634" lon="2.719058">
      <ele>144.002</ele>
      <time>2016-09-18T09:30:37Z</time>
    </trkpt>
    <trkpt lat="48.420638" lon="2.719211">
      <ele>144.249</ele>
      <time>2016-09-18T09:30:42Z</time>
    </trkpt>
    <trkpt lat="48.420662" lon="2.719374">
      <ele>144.097</ele>
      <time>2016-09-18T09:30:48Z</time>
    </trkpt>
    <trkpt lat="48.420575" lon="2.719434">
      <ele>144.003</ele>
      <time>2016-09-18T09:30:54Z</time>
    </trkpt>
    <trkpt lat="48.420462" lon="2.719437">
      <ele>143.663</ele>
      <time>2016-09-18T09:30:57Z</time>
    </trkpt>
    <trkpt lat="48.420358" lon="2.719451">
      <ele>143.289</ele>
      <time>2016-09-18T09:31:00Z</time>
    </trkpt>
    <trkpt lat="48.420244" lon="2.719448">
      <ele>142.757</ele>
      <time>2016-09-18T09:31:03Z</time>
    </trkpt>
    <trkpt lat="48.420129" lon="2.71945">
      <ele>141.929</ele>
      <time>2016-09-18T09:31:07Z</time>
    </trkpt>
    <trkpt lat="48.420031" lon="2.71945">
      <ele>141.223</ele>
      <time>2016-09-18T09:31:12Z</time>
    </trkpt>
    <trkpt lat="48.41993" lon="2.719522">
      <ele>140.355</ele>
      <time>2016-09-18T09:31:17Z</time>
    </trkpt>
    <trkpt lat="48.419826" lon="2.71957">
      <ele>139.181</ele>
      <time>2016-09-18T09:31:22Z</time>
    </trkpt>
    <trkpt lat="48.419735" lon="2.719641">
      <ele>137.742</ele>
      <time>2016-09-18T09:31:39Z</time>
    </trkpt>
    <trkpt lat="48.41984" lon="2.719573">
      <ele>139.315</ele>
      <time>2016-09-18T09:32:44Z</time>
    </trkpt>
    <trkpt lat="48.419922" lon="2.719497">
      <ele>140.332</ele>
      <time>2016-09-18T09:32:57Z</time>
    </trkpt>
    <trkpt lat="48.42001" lon="2.719615">
      <ele>141.072</ele>
      <time>2016-09-18T09:33:00Z</time>
    </trkpt>
    <trkpt lat="48.420106" lon="2.719545">
      <ele>141.763</ele>
      <time>2016-09-18T09:33:12Z</time>
    </trkpt>
    <trkpt lat="48.420198" lon="2.719515">
      <ele>142.426</ele>
      <time>2016-09-18T09:33:14Z</time>
    </trkpt>
    <trkpt lat="48.420297" lon="2.719545">
      <ele>143.069</ele>
      <time>2016-09-18T09:33:17Z</time>
    </trkpt>
    <trkpt lat="48.420378" lon="2.719663">
      <ele>143.361</ele>
      <time>2016-09-18T09:33:21Z</time>
    </trkpt>
    <trkpt lat="48.420458" lon="2.719744">
      <ele>143.649</ele>
      <time>2016-09-18T09:33:24Z</time>
    </trkpt>
    <trkpt lat="48.420535" lon="2.719824">
      <ele>143.926</ele>
      <time>2016-09-18T09:33:30Z</time>
    </trkpt>
    <trkpt lat="48.420617" lon="2.719897">
      <ele>143.861</ele>
      <time>2016-09-18T09:33:36Z</time>
    </trkpt>
    <trkpt lat="48.420716" lon="2.719916">
      <ele>143.597</ele>
      <time>2016-09-18T09:33:42Z</time>
    </trkpt>
    <trkpt lat="48.420788" lon="2.720013">
      <ele>143.038</ele>
      <time>2016-09-18T09:33:45Z</time>
    </trkpt>
    <trkpt lat="48.42089" lon="2.719993">
      <ele>142.826</ele>
      <time>2016-09-18T09:33:49Z</time>
    </trkpt>
    <trkpt lat="48.420987" lon="2.720008">
      <ele>142.36</ele>
      <time>2016-09-18T09:33:55Z</time>
    </trkpt>
    <trkpt lat="48.421057" lon="2.720114">
      <ele>140.964</ele>
      <time>2016-09-18T09:33:59Z</time>
    </trkpt>
    <trkpt lat="48.421142" lon="2.72017">
      <ele>140.053</ele>
      <time>2016-09-18T09:34:03Z</time>
    </trkpt>
    <trkpt lat="48.421229" lon="2.720065">
      <ele>140.874</ele>
      <time>2016-09-18T09:34:08Z</time>
    </trkpt>
    <trkpt lat="48.4213" lon="2.719961">
      <ele>141.601</ele>
      <time>2016-09-18T09:34:13Z</time>
    </trkpt>
    <trkpt lat="48.421391" lon="2.719873">
      <ele>141.907</ele>
      <time>2016-09-18T09:34:24Z</time>
    </trkpt>
    <trkpt lat="48.421494" lon="2.719832">
      <ele>141.831</ele>
      <time>2016-09-18T09:34:28Z</time>
    </trkpt>
    <trkpt lat="48.421575" lon="2.719944">
      <ele>140.733</ele>
      <time>2016-09-18T09:34:52Z</time>
    </trkpt>
    <trkpt lat="48.421689" lon="2.720006">
      <ele>139.812</ele>
      <time>2016-09-18T09:34:55Z</time>
    </trkpt>
    <trkpt lat="48.421793" lon="2.720027">
      <ele>139.059</ele>
      <time>2016-09-18T09:35:02Z</time>
    </trkpt>
    <trkpt lat="48.421881" lon="2.719965">
      <ele>139.578</ele>
      <time>2016-09-18T09:35:07Z</time>
    </trkpt>
    <trkpt lat="48.421983" lon="2.719924">
      <ele>139.619</ele>
      <time>2016-09-18T09:35:11Z</time>
    </trkpt>
    <trkpt lat="48.422093" lon="2.719855">
      <ele>140.055</ele>
      <time>2016-09-18T09:35:15Z</time>
    </trkpt>
    <trkpt lat="48.422146" lon="2.719734">
      <ele>141.811</ele>
      <time>2016-09-18T09:35:24Z</time>
    </trkpt>
    <trkpt lat="48.422238" lon="2.719621">
      <ele>142.579</ele>
      <time>2016-09-18T09:35:28Z</time>
    </trkpt>
    <trkpt lat="48.422252" lon="2.719485">
      <ele>143.478</ele>
      <time>2016-09-18T09:35:32Z</time>
    </trkpt>
    <trkpt lat="48.422323" lon="2.719393">
      <ele>143.527</ele>
      <time>2016-09-18T09:35:36Z</time>
    </trkpt>
    <trkpt lat="48.422405" lon="2.719322">
      <ele>143.415</ele>
      <time>2016-09-18T09:35:39Z</time>
    </trkpt>
    <trkpt lat="48.422472" lon="2.719203">
      <ele>143.852</ele>
      <time>2016-09-18T09:35:44Z</time>
    </trkpt>
    <trkpt lat="48.422542" lon="2.719104">
      <ele>144.3</ele>
      <time>2016-09-18T09:35:48Z</time>
    </trkpt>
    <trkpt lat="48.422621" lon="2.71898">
      <ele>144.908</ele>
      <time>2016-09-18T09:35:53Z</time>
    </trkpt>
    <trkpt lat="48.422683" lon="2.718856">
      <ele>145.419</ele>
      <time>2016-09-18T09:35:58Z</time>
    </trkpt>
    <trkpt lat="48.422766" lon="2.71877">
      <ele>145.452</ele>
      <time>2016-09-18T09:36:01Z</time>
    </trkpt>
    <trkpt lat="48.422865" lon="2.718807">
      <ele>144.759</ele>
      <time>2016-09-18T09:36:03Z</time>
    </trkpt>
    <trkpt lat="48.422985" lon="2.718804">
      <ele>144.042</ele>
      <time>2016-09-18T09:36:06Z</time>
    </trkpt>
    <trkpt lat="48.423081" lon="2.718856">
      <ele>143.248</ele>
      <time>2016-09-18T09:36:09Z</time>
    </trkpt>
    <trkpt lat="48.423185" lon="2.718912">
      <ele>142.789</ele>
      <time>2016-09-18T09:36:12Z</time>
    </trkpt>
    <trkpt lat="48.423302" lon="2.718973">
      <ele>142.36</ele>
      <time>2016-09-18T09:36:18Z</time>
    </trkpt>
    <trkpt lat="48.423381" lon="2.719045">
      <ele>142.316</ele>
      <time>2016-09-18T09:36:20Z</time>
    </trkpt>
    <trkpt lat="48.423443" lon="2.719165">
      <ele>142.194</ele>
      <time>2016-09-18T09:36:24Z</time>
    </trkpt>
    <trkpt lat="48.423518" lon="2.719261">
      <ele>141.976</ele>
      <time>2016-09-18T09:36:27Z</time>
    </trkpt>
    <trkpt lat="48.423629" lon="2.719243">
      <ele>143.322</ele>
      <time>2016-09-18T09:36:33Z</time>
    </trkpt>
    <trkpt lat="48.423715" lon="2.719298">
      <ele>143.506</ele>
      <time>2016-09-18T09:36:37Z</time>
    </trkpt>
    <trkpt lat="48.423808" lon="2.719382">
      <ele>143.641</ele>
      <time>2016-09-18T09:36:40Z</time>
    </trkpt>
    <trkpt lat="48.423906" lon="2.719453">
      <ele>144.031</ele>
      <time>2016-09-18T09:36:43Z</time>
    </trkpt>
    <trkpt lat="48.423988" lon="2.719513">
      <ele>143.973</ele>
      <time>2016-09-18T09:36:46Z</time>
    </trkpt>
    <trkpt lat="48.424082" lon="2.719586">
      <ele>143.862</ele>
      <time>2016-09-18T09:36:59Z</time>
    </trkpt>
    <trkpt lat="48.424175" lon="2.719617">
      <ele>144.125</ele>
      <time>2016-09-18T09:37:07Z</time>
    </trkpt>
    <trkpt lat="48.42427" lon="2.719656">
      <ele>143.627</ele>
      <time>2016-09-18T09:37:12Z</time>
    </trkpt>
    <trkpt lat="48.424284" lon="2.719871">
      <ele>141.619</ele>
      <time>2016-09-18T09:37:15Z</time>
    </trkpt>
    <trkpt lat="48.424328" lon="2.720025">
      <ele>140.401</ele>
      <time>2016-09-18T09:37:18Z</time>
    </trkpt>
    <trkpt lat="48.424387" lon="2.720183">
      <ele>139.476</ele>
      <time>2016-09-18T09:37:21Z</time>
    </trkpt>
    <trkpt lat="48.42445" lon="2.720332">
      <ele>138.845</ele>
      <time>2016-09-18T09:37:26Z</time>
    </trkpt>
    <trkpt lat="48.424518" lon="2.720534">
      <ele>138.607</ele>
      <time>2016-09-18T09:37:30Z</time>
    </trkpt>
    <trkpt lat="48.424543" lon="2.720711">
      <ele>137.987</ele>
      <time>2016-09-18T09:37:33Z</time>
    </trkpt>
    <trkpt lat="48.424585" lon="2.720888">
      <ele>137.924</ele>
      <time>2016-09-18T09:37:35Z</time>
    </trkpt>
    <trkpt lat="48.424622" lon="2.721057">
      <ele>138.042</ele>
      <time>2016-09-18T09:37:37Z</time>
    </trkpt>
    <trkpt lat="48.424674" lon="2.72122">
      <ele>137.627</ele>
      <time>2016-09-18T09:37:41Z</time>
    </trkpt>
    <trkpt lat="48.424793" lon="2.721183">
      <ele>138.482</ele>
      <time>2016-09-18T09:37:46Z</time>
    </trkpt>
    <trkpt lat="48.424889" lon="2.721148">
      <ele>138.734</ele>
      <time>2016-09-18T09:37:49Z</time>
    </trkpt>
    <trkpt lat="48.424996" lon="2.72111">
      <ele>139.004</ele>
      <time>2016-09-18T09:37:53Z</time>
    </trkpt>
    <trkpt lat="48.425084" lon="2.72115">
      <ele>138.333</ele>
      <time>2016-09-18T09:37:58Z</time>
    </trkpt>
    <trkpt lat="48.425185" lon="2.72115">
      <ele>137.868</ele>
      <time>2016-09-18T09:38:02Z</time>
    </trkpt>
    <trkpt lat="48.425259" lon="2.721032">
      <ele>138.618</ele>
      <time>2016-09-18T09:38:08Z</time>
    </trkpt>
    <trkpt lat="48.425339" lon="2.720933">
      <ele>138.983</ele>
      <time>2016-09-18T09:38:12Z</time>
    </trkpt>
    <trkpt lat="48.425434" lon="2.720848">
      <ele>139.302</ele>
      <time>2016-09-18T09:38:16Z</time>
    </trkpt>
    <trkpt lat="48.425564" lon="2.720809">
      <ele>139.147</ele>
      <time>2016-09-18T09:38:19Z</time>
    </trkpt>
    <trkpt lat="48.425667" lon="2.720823">
      <ele>138.688</ele>
      <time>2016-09-18T09:38:22Z</time>
    </trkpt>
    <trkpt lat="48.425773" lon="2.720776">
      <ele>138.792</ele>
      <time>2016-09-18T09:38:25Z</time>
    </trkpt>
    <trkpt lat="48.425866" lon="2.720775">
      <ele>138.772</ele>
      <time>2016-09-18T09:38:29Z</time>
    </trkpt>
    <trkpt lat="48.425971" lon="2.720864">
      <ele>138.054</ele>
      <time>2016-09-18T09:38:34Z</time>
    </trkpt>
    <trkpt lat="48.426055" lon="2.72093">
      <ele>137.406</ele>
      <time>2016-09-18T09:38:38Z</time>
    </trkpt>
    <trkpt lat="48.426147" lon="2.720919">
      <ele>137.985</ele>
      <time>2016-09-18T09:38:40Z</time>
    </trkpt>
    <trkpt lat="48.426231" lon="2.720843">
      <ele>139.709</ele>
      <time>2016-09-18T09:38:45Z</time>
    </trkpt>
    <trkpt lat="48.42627" lon="2.72068">
      <ele>142.352</ele>
      <time>2016-09-18T09:38:50Z</time>
    </trkpt>
    <trkpt lat="48.426325" lon="2.720548">
      <ele>144.622</ele>
      <time>2016-09-18T09:38:53Z</time>
    </trkpt>
    <trkpt lat="48.426385" lon="2.72041">
      <ele>146.544</ele>
      <time>2016-09-18T09:38:57Z</time>
    </trkpt>
    <trkpt lat="48.426427" lon="2.720259">
      <ele>147.537</ele>
      <time>2016-09-18T09:39:03Z</time>
    </trkpt>
    <trkpt lat="48.426485" lon="2.72012">
      <ele>147.577</ele>
      <time>2016-09-18T09:39:10Z</time>
    </trkpt>
    <trkpt lat="48.426549" lon="2.719997">
      <ele>147.869</ele>
      <time>2016-09-18T09:39:16Z</time>
    </trkpt>
    <trkpt lat="48.426593" lon="2.719859">
      <ele>148.546</ele>
      <time>2016-09-18T09:39:22Z</time>
    </trkpt>
    <trkpt lat="48.426684" lon="2.719811">
      <ele>148.216</ele>
      <time>2016-09-18T09:39:30Z</time>
    </trkpt>
    <trkpt lat="48.426797" lon="2.719832">
      <ele>147.086</ele>
      <time>2016-09-18T09:39:34Z</time>
    </trkpt>
    <trkpt lat="48.42689" lon="2.719822">
      <ele>146.385</ele>
      <time>2016-09-18T09:39:37Z</time>
    </trkpt>
    <trkpt lat="48.42698" lon="2.719873">
      <ele>145.383</ele>
      <time>2016-09-18T09:39:40Z</time>
    </trkpt>
    <trkpt lat="48.427091" lon="2.719954">
      <ele>144.85</ele>
      <time>2016-09-18T09:39:44Z</time>
    </trkpt>
    <trkpt lat="48.427193" lon="2.719925">
      <ele>145.222</ele>
      <time>2016-09-18T09:39:48Z</time>
    </trkpt>
    <trkpt lat="48.427304" lon="2.719915">
      <ele>144.717</ele>
      <time>2016-09-18T09:39:51Z</time>
    </trkpt>
    <trkpt lat="48.427401" lon="2.719922">
      <ele>143.994</ele>
      <time>2016-09-18T09:39:53Z</time>
    </trkpt>
    <trkpt lat="48.427506" lon="2.719931">
      <ele>143.2</ele>
      <time>2016-09-18T09:39:56Z</time>
    </trkpt>
    <trkpt lat="48.427571" lon="2.720051">
      <ele>142.579</ele>
      <time>2016-09-18T09:40:04Z</time>
    </trkpt>
    <trkpt lat="48.427614" lon="2.72019">
      <ele>142.302</ele>
      <time>2016-09-18T09:40:06Z</time>
    </trkpt>
    <trkpt lat="48.427639" lon="2.720341">
      <ele>141.771</ele>
      <time>2016-09-18T09:40:09Z</time>
    </trkpt>
    <trkpt lat="48.427663" lon="2.720502">
      <ele>140.986</ele>
      <time>2016-09-18T09:40:12Z</time>
    </trkpt>
    <trkpt lat="48.427682" lon="2.720649">
      <ele>140.353</ele>
      <time>2016-09-18T09:40:14Z</time>
    </trkpt>
    <trkpt lat="48.427663" lon="2.720848">
      <ele>139.73</ele>
      <time>2016-09-18T09:40:16Z</time>
    </trkpt>
    <trkpt lat="48.427673" lon="2.721006">
      <ele>138.664</ele>
      <time>2016-09-18T09:40:19Z</time>
    </trkpt>
    <trkpt lat="48.427653" lon="2.72114">
      <ele>137.527</ele>
      <time>2016-09-18T09:40:21Z</time>
    </trkpt>
    <trkpt lat="48.42774" lon="2.721196">
      <ele>136.514</ele>
      <time>2016-09-18T09:40:24Z</time>
    </trkpt>
    <trkpt lat="48.427721" lon="2.721018">
      <ele>138.472</ele>
      <time>2016-09-18T09:40:30Z</time>
    </trkpt>
    <trkpt lat="48.427736" lon="2.720819">
      <ele>139.352</ele>
      <time>2016-09-18T09:40:33Z</time>
    </trkpt>
    <trkpt lat="48.427744" lon="2.72066">
      <ele>139.867</ele>
      <time>2016-09-18T09:40:36Z</time>
    </trkpt>
    <trkpt lat="48.427801" lon="2.720455">
      <ele>139.643</ele>
      <time>2016-09-18T09:40:38Z</time>
    </trkpt>
    <trkpt lat="48.42783" lon="2.720314">
      <ele>139.387</ele>
      <time>2016-09-18T09:40:40Z</time>
    </trkpt>
    <trkpt lat="48.427933" lon="2.720343">
      <ele>138.061</ele>
      <time>2016-09-18T09:40:44Z</time>
    </trkpt>
    <trkpt lat="48.428034" lon="2.720444">
      <ele>136.129</ele>
      <time>2016-09-18T09:40:47Z</time>
    </trkpt>
    <trkpt lat="48.42808" lon="2.720577">
      <ele>134.828</ele>
      <time>2016-09-18T09:40:50Z</time>
    </trkpt>
    <trkpt lat="48.428159" lon="2.72073">
      <ele>133.766</ele>
      <time>2016-09-18T09:41:30Z</time>
    </trkpt>
    <trkpt lat="48.428206" lon="2.720877">
      <ele>132.445</ele>
      <time>2016-09-18T09:41:33Z</time>
    </trkpt>
    <trkpt lat="48.428268" lon="2.720977">
      <ele>130.919</ele>
      <time>2016-09-18T09:41:35Z</time>
    </trkpt>
    <trkpt lat="48.42833" lon="2.721163">
      <ele>128.833</ele>
      <time>2016-09-18T09:41:38Z</time>
    </trkpt>
    <trkpt lat="48.428406" lon="2.721297">
      <ele>129.377</ele>
      <time>2016-09-18T09:41:41Z</time>
    </trkpt>
    <trkpt lat="48.428444" lon="2.721464">
      <ele>129.594</ele>
      <time>2016-09-18T09:41:44Z</time>
    </trkpt>
    <trkpt lat="48.4285" lon="2.721612">
      <ele>130.4</ele>
      <time>2016-09-18T09:41:47Z</time>
    </trkpt>
    <trkpt lat="48.428562" lon="2.721801">
      <ele>130.411</ele>
      <time>2016-09-18T09:41:49Z</time>
    </trkpt>
    <trkpt lat="48.428603" lon="2.72199">
      <ele>129.425</ele>
      <time>2016-09-18T09:41:53Z</time>
    </trkpt>
    <trkpt lat="48.428625" lon="2.722164">
      <ele>127.879</ele>
      <time>2016-09-18T09:41:55Z</time>
    </trkpt>
    <trkpt lat="48.428662" lon="2.722312">
      <ele>127.21</ele>
      <time>2016-09-18T09:41:57Z</time>
    </trkpt>
    <trkpt lat="48.428698" lon="2.722488">
      <ele>126.351</ele>
      <time>2016-09-18T09:41:59Z</time>
    </trkpt>
    <trkpt lat="48.428708" lon="2.722645">
      <ele>125.193</ele>
      <time>2016-09-18T09:42:02Z</time>
    </trkpt>
    <trkpt lat="48.428719" lon="2.722784">
      <ele>124.299</ele>
      <time>2016-09-18T09:42:04Z</time>
    </trkpt>
    <trkpt lat="48.428742" lon="2.723015">
      <ele>123.571</ele>
      <time>2016-09-18T09:42:06Z</time>
    </trkpt>
    <trkpt lat="48.428782" lon="2.723205">
      <ele>122.669</ele>
      <time>2016-09-18T09:42:09Z</time>
    </trkpt>
    <trkpt lat="48.428837" lon="2.72334">
      <ele>122.229</ele>
      <time>2016-09-18T09:42:11Z</time>
    </trkpt>
    <trkpt lat="48.428856" lon="2.723532">
      <ele>121.811</ele>
      <time>2016-09-18T09:42:13Z</time>
    </trkpt>
    <trkpt lat="48.428903" lon="2.723678">
      <ele>122.254</ele>
      <time>2016-09-18T09:42:16Z</time>
    </trkpt>
    <trkpt lat="48.428935" lon="2.723824">
      <ele>122.83</ele>
      <time>2016-09-18T09:42:18Z</time>
    </trkpt>
    <trkpt lat="48.428971" lon="2.723951">
      <ele>123.544</ele>
      <time>2016-09-18T09:42:20Z</time>
    </trkpt>
    <trkpt lat="48.429013" lon="2.724088">
      <ele>124.554</ele>
      <time>2016-09-18T09:42:23Z</time>
    </trkpt>
    <trkpt lat="48.429082" lon="2.724221">
      <ele>125.704</ele>
      <time>2016-09-18T09:42:26Z</time>
    </trkpt>
    <trkpt lat="48.429128" lon="2.72437">
      <ele>125.173</ele>
      <time>2016-09-18T09:42:29Z</time>
    </trkpt>
    <trkpt lat="48.429193" lon="2.724509">
      <ele>125.27</ele>
      <time>2016-09-18T09:42:31Z</time>
    </trkpt>
    <trkpt lat="48.429247" lon="2.724634">
      <ele>125.461</ele>
      <time>2016-09-18T09:42:34Z</time>
    </trkpt>
    <trkpt lat="48.429335" lon="2.724779">
      <ele>125.205</ele>
      <time>2016-09-18T09:42:36Z</time>
    </trkpt>
    <trkpt lat="48.429393" lon="2.72489">
      <ele>124.632</ele>
      <time>2016-09-18T09:42:38Z</time>
    </trkpt>
    <trkpt lat="48.429473" lon="2.725008">
      <ele>124.177</ele>
      <time>2016-09-18T09:42:42Z</time>
    </trkpt>
    <trkpt lat="48.429563" lon="2.725131">
      <ele>124.382</ele>
      <time>2016-09-18T09:42:46Z</time>
    </trkpt>
    <trkpt lat="48.429667" lon="2.725227">
      <ele>124.785</ele>
      <time>2016-09-18T09:42:49Z</time>
    </trkpt>
    <trkpt lat="48.429751" lon="2.725318">
      <ele>124.933</ele>
      <time>2016-09-18T09:42:51Z</time>
    </trkpt>
    <trkpt lat="48.429855" lon="2.725402">
      <ele>125.275</ele>
      <time>2016-09-18T09:42:54Z</time>
    </trkpt>
    <trkpt lat="48.429951" lon="2.725466">
      <ele>125.85</ele>
      <time>2016-09-18T09:42:56Z</time>
    </trkpt>
    <trkpt lat="48.430077" lon="2.725557">
      <ele>125.979</ele>
      <time>2016-09-18T09:42:59Z</time>
    </trkpt>
    <trkpt lat="48.430164" lon="2.725606">
      <ele>125.274</ele>
      <time>2016-09-18T09:43:01Z</time>
    </trkpt>
    <trkpt lat="48.430288" lon="2.725634">
      <ele>124.87</ele>
      <time>2016-09-18T09:43:04Z</time>
    </trkpt>
    <trkpt lat="48.430408" lon="2.725645">
      <ele>124.712</ele>
      <time>2016-09-18T09:43:07Z</time>
    </trkpt>
    <trkpt lat="48.430533" lon="2.725609">
      <ele>125.23</ele>
      <time>2016-09-18T09:43:10Z</time>
    </trkpt>
    <trkpt lat="48.430641" lon="2.725563">
      <ele>125.893</ele>
      <time>2016-09-18T09:43:13Z</time>
    </trkpt>
    <trkpt lat="48.430745" lon="2.725494">
      <ele>126.584</ele>
      <time>2016-09-18T09:43:15Z</time>
    </trkpt>
    <trkpt lat="48.430845" lon="2.725475">
      <ele>126.55</ele>
      <time>2016-09-18T09:43:18Z</time>
    </trkpt>
    <trkpt lat="48.430989" lon="2.725485">
      <ele>126.09</ele>
      <time>2016-09-18T09:43:21Z</time>
    </trkpt>
    <trkpt lat="48.431091" lon="2.725496">
      <ele>125.7</ele>
      <time>2016-09-18T09:43:23Z</time>
    </trkpt>
    <trkpt lat="48.431183" lon="2.725467">
      <ele>125.439</ele>
      <time>2016-09-18T09:43:25Z</time>
    </trkpt>
    <trkpt lat="48.431295" lon="2.725455">
      <ele>124.762</ele>
      <time>2016-09-18T09:43:28Z</time>
    </trkpt>
    <trkpt lat="48.431414" lon="2.725422">
      <ele>124.128</ele>
      <time>2016-09-18T09:43:31Z</time>
    </trkpt>
    <trkpt lat="48.431528" lon="2.725435">
      <ele>122.582</ele>
      <time>2016-09-18T09:43:34Z</time>
    </trkpt>
    <trkpt lat="48.431636" lon="2.725437">
      <ele>121.232</ele>
      <time>2016-09-18T09:43:37Z</time>
    </trkpt>
    <trkpt lat="48.431758" lon="2.725431">
      <ele>119.253</ele>
      <time>2016-09-18T09:43:40Z</time>
    </trkpt>
    <trkpt lat="48.431848" lon="2.725483">
      <ele>117.258</ele>
      <time>2016-09-18T09:43:42Z</time>
    </trkpt>
    <trkpt lat="48.431938" lon="2.725452">
      <ele>115.862</ele>
      <time>2016-09-18T09:44:18Z</time>
    </trkpt>
    <trkpt lat="48.432001" lon="2.7253">
      <ele>116.653</ele>
      <time>2016-09-18T09:45:04Z</time>
    </trkpt>
    <trkpt lat="48.432074" lon="2.725192">
      <ele>116.842</ele>
      <time>2016-09-18T09:45:09Z</time>
    </trkpt>
    <trkpt lat="48.432145" lon="2.725052">
      <ele>117.091</ele>
      <time>2016-09-18T09:45:12Z</time>
    </trkpt>
    <trkpt lat="48.432196" lon="2.724939">
      <ele>117.355</ele>
      <time>2016-09-18T09:45:14Z</time>
    </trkpt>
    <trkpt lat="48.432245" lon="2.724805">
      <ele>117.726</ele>
      <time>2016-09-18T09:45:17Z</time>
    </trkpt>
    <trkpt lat="48.432309" lon="2.724688">
      <ele>118.331</ele>
      <time>2016-09-18T09:45:20Z</time>
    </trkpt>
    <trkpt lat="48.432351" lon="2.724518">
      <ele>119.865</ele>
      <time>2016-09-18T09:45:22Z</time>
    </trkpt>
    <trkpt lat="48.432402" lon="2.724382">
      <ele>120.723</ele>
      <time>2016-09-18T09:45:25Z</time>
    </trkpt>
    <trkpt lat="48.432483" lon="2.724306">
      <ele>121.027</ele>
      <time>2016-09-18T09:45:28Z</time>
    </trkpt>
    <trkpt lat="48.432636" lon="2.724278">
      <ele>121.395</ele>
      <time>2016-09-18T09:45:31Z</time>
    </trkpt>
    <trkpt lat="48.432699" lon="2.72415">
      <ele>122.06</ele>
      <time>2016-09-18T09:45:37Z</time>
    </trkpt>
    <trkpt lat="48.432771" lon="2.724037">
      <ele>122.467</ele>
      <time>2016-09-18T09:45:42Z</time>
    </trkpt>
    <trkpt lat="48.43288" lon="2.723976">
      <ele>122.802</ele>
      <time>2016-09-18T09:45:48Z</time>
    </trkpt>
    <trkpt lat="48.43297" lon="2.723884">
      <ele>123.0</ele>
      <time>2016-09-18T09:45:56Z</time>
    </trkpt>
    <trkpt lat="48.433071" lon="2.723829">
      <ele>123.155</ele>
      <time>2016-09-18T09:46:00Z</time>
    </trkpt>
    <trkpt lat="48.433185" lon="2.723756">
      <ele>124.175</ele>
      <time>2016-09-18T09:46:05Z</time>
    </trkpt>
    <trkpt lat="48.433297" lon="2.723817">
      <ele>125.383</ele>
      <time>2016-09-18T09:46:29Z</time>
    </trkpt>
    <trkpt lat="48.433319" lon="2.723949">
      <ele>125.64</ele>
      <time>2016-09-18T09:46:37Z</time>
    </trkpt>
    <trkpt lat="48.433363" lon="2.724069">
      <ele>125.886</ele>
      <time>2016-09-18T09:46:45Z</time>
    </trkpt>
    <trkpt lat="48.433399" lon="2.724208">
      <ele>126.033</ele>
      <time>2016-09-18T09:47:07Z</time>
    </trkpt>
    <trkpt lat="48.433484" lon="2.724293">
      <ele>127.257</ele>
      <time>2016-09-18T09:47:31Z</time>
    </trkpt>
    <trkpt lat="48.433575" lon="2.724288">
      <ele>128.913</ele>
      <time>2016-09-18T09:47:36Z</time>
    </trkpt>
    <trkpt lat="48.43367" lon="2.724276">
      <ele>130.242</ele>
      <time>2016-09-18T09:47:45Z</time>
    </trkpt>
    <trkpt lat="48.43376" lon="2.724334">
      <ele>131.006</ele>
      <time>2016-09-18T09:48:04Z</time>
    </trkpt>
    <trkpt lat="48.433849" lon="2.724388">
      <ele>131.772</ele>
      <time>2016-09-18T09:48:13Z</time>
    </trkpt>
    <trkpt lat="48.433789" lon="2.724535">
      <ele>130.804</ele>
      <time>2016-09-18T09:48:36Z</time>
    </trkpt>
    <trkpt lat="48.433779" lon="2.724718">
      <ele>130.424</ele>
      <time>2016-09-18T09:48:47Z</time>
    </trkpt>
    <trkpt lat="48.433789" lon="2.724577">
      <ele>130.75</ele>
      <time>2016-09-18T09:48:59Z</time>
    </trkpt>
    <trkpt lat="48.433859" lon="2.724474">
      <ele>131.666</ele>
      <time>2016-09-18T09:49:05Z</time>
    </trkpt>
    <trkpt lat="48.433973" lon="2.724525">
      <ele>131.394</ele>
      <time>2016-09-18T09:49:13Z</time>
    </trkpt>
    <trkpt lat="48.43398" lon="2.724681">
      <ele>131.344</ele>
      <time>2016-09-18T09:49:29Z</time>
    </trkpt>
    <trkpt lat="48.433954" lon="2.724824">
      <ele>131.617</ele>
      <time>2016-09-18T09:49:36Z</time>
    </trkpt>
    <trkpt lat="48.43391" lon="2.724971">
      <ele>131.916</ele>
      <time>2016-09-18T09:49:55Z</time>
    </trkpt>
    <trkpt lat="48.433929" lon="2.725105">
      <ele>131.856</ele>
      <time>2016-09-18T09:49:58Z</time>
    </trkpt>
    <trkpt lat="48.43391" lon="2.725304">
      <ele>131.83</ele>
      <time>2016-09-18T09:50:01Z</time>
    </trkpt>
    <trkpt lat="48.433961" lon="2.725441">
      <ele>131.153</ele>
      <time>2016-09-18T09:50:07Z</time>
    </trkpt>
    <trkpt lat="48.433979" lon="2.725598">
      <ele>130.523</ele>
      <time>2016-09-18T09:50:12Z</time>
    </trkpt>
    <trkpt lat="48.43393" lon="2.725752">
      <ele>130.145</ele>
      <time>2016-09-18T09:50:37Z</time>
    </trkpt>
    <trkpt lat="48.433987" lon="2.725875">
      <ele>129.647</ele>
      <time>2016-09-18T09:50:50Z</time>
    </trkpt>
    <trkpt lat="48.434051" lon="2.725973">
      <ele>129.416</ele>
      <time>2016-09-18T09:51:04Z</time>
    </trkpt>
    <trkpt lat="48.434145" lon="2.726029">
      <ele>129.078</ele>
      <time>2016-09-18T09:51:18Z</time>
    </trkpt>
    <trkpt lat="48.434228" lon="2.726106">
      <ele>128.117</ele>
      <time>2016-09-18T09:51:37Z</time>
    </trkpt>
    <trkpt lat="48.434335" lon="2.726035">
      <ele>126.576</ele>
      <time>2016-09-18T09:52:04Z</time>
    </trkpt>
    <trkpt lat="48.43444" lon="2.726055">
      <ele>125.064</ele>
      <time>2016-09-18T09:52:06Z</time>
    </trkpt>
    <trkpt lat="48.434528" lon="2.726149">
      <ele>123.961</ele>
      <time>2016-09-18T09:52:10Z</time>
    </trkpt>
    <trkpt lat="48.434602" lon="2.726243">
      <ele>122.824</ele>
      <time>2016-09-18T09:52:13Z</time>
    </trkpt>
    <trkpt lat="48.434673" lon="2.726345">
      <ele>121.69</ele>
      <time>2016-09-18T09:52:17Z</time>
    </trkpt>
    <trkpt lat="48.434761" lon="2.726487">
      <ele>120.581</ele>
      <time>2016-09-18T09:52:22Z</time>
    </trkpt>
    <trkpt lat="48.434859" lon="2.726527">
      <ele>119.523</ele>
      <time>2016-09-18T09:52:27Z</time>
    </trkpt>
    <trkpt lat="48.434946" lon="2.726605">
      <ele>118.583</ele>
      <time>2016-09-18T09:52:31Z</time>
    </trkpt>
    <trkpt lat="48.435036" lon="2.726656">
      <ele>117.487</ele>
      <time>2016-09-18T09:52:34Z</time>
    </trkpt>
    <trkpt lat="48.435096" lon="2.726769">
      <ele>116.377</ele>
      <time>2016-09-18T09:52:37Z</time>
    </trkpt>
    <trkpt lat="48.435184" lon="2.726845">
      <ele>115.134</ele>
      <time>2016-09-18T09:52:43Z</time>
    </trkpt>
    <trkpt lat="48.435304" lon="2.726918">
      <ele>113.82</ele>
      <time>2016-09-18T09:52:48Z</time>
    </trkpt>
    <trkpt lat="48.435389" lon="2.726995">
      <ele>113.126</ele>
      <time>2016-09-18T09:52:53Z</time>
    </trkpt>
    <trkpt lat="48.435411" lon="2.727146">
      <ele>112.693</ele>
      <time>2016-09-18T09:53:01Z</time>
    </trkpt>
    <trkpt lat="48.435329" lon="2.727271">
      <ele>113.128</ele>
      <time>2016-09-18T09:53:09Z</time>
    </trkpt>
    <trkpt lat="48.435283" lon="2.727401">
      <ele>112.668</ele>
      <time>2016-09-18T09:53:18Z</time>
    </trkpt>
    <trkpt lat="48.435244" lon="2.727543">
      <ele>112.055</ele>
      <time>2016-09-18T09:53:24Z</time>
    </trkpt>
    <trkpt lat="48.43528" lon="2.727686">
      <ele>110.645</ele>
      <time>2016-09-18T09:53:29Z</time>
    </trkpt>
    <trkpt lat="48.435358" lon="2.727822">
      <ele>109.104</ele>
      <time>2016-09-18T09:53:34Z</time>
    </trkpt>
    <trkpt lat="48.435398" lon="2.72795">
      <ele>107.894</ele>
      <time>2016-09-18T09:53:38Z</time>
    </trkpt>
    <trkpt lat="48.43548" lon="2.728045">
      <ele>106.62</ele>
      <time>2016-09-18T09:53:54Z</time>
    </trkpt>
    <trkpt lat="48.435525" lon="2.728168">
      <ele>105.455</ele>
      <time>2016-09-18T09:54:19Z</time>
    </trkpt>
    <trkpt lat="48.435612" lon="2.728261">
      <ele>104.061</ele>
      <time>2016-09-18T09:54:22Z</time>
    </trkpt>
    <trkpt lat="48.435706" lon="2.728368">
      <ele>102.86</ele>
      <time>2016-09-18T09:54:26Z</time>
    </trkpt>
    <trkpt lat="48.4358" lon="2.728369">
      <ele>102.225</ele>
      <time>2016-09-18T09:54:32Z</time>
    </trkpt>
    <trkpt lat="48.435904" lon="2.728431">
      <ele>101.746</ele>
      <time>2016-09-18T09:54:36Z</time>
    </trkpt>
    <trkpt lat="48.436007" lon="2.728459">
      <ele>101.375</ele>
      <time>2016-09-18T09:54:39Z</time>
    </trkpt>
    <trkpt lat="48.43611" lon="2.728521">
      <ele>101.004</ele>
      <time>2016-09-18T09:54:43Z</time>
    </trkpt>
    <trkpt lat="48.436199" lon="2.728541">
      <ele>101.949</ele>
      <time>2016-09-18T09:54:48Z</time>
    </trkpt>
    <trkpt lat="48.436258" lon="2.728669">
      <ele>102.893</ele>
      <time>2016-09-18T09:54:54Z</time>
    </trkpt>
    <trkpt lat="48.436348" lon="2.728695">
      <ele>103.905</ele>
      <time>2016-09-18T09:55:02Z</time>
    </trkpt>
    <trkpt lat="48.436424" lon="2.728768">
      <ele>104.928</ele>
      <time>2016-09-18T09:55:11Z</time>
    </trkpt>
    <trkpt lat="48.436519" lon="2.728802">
      <ele>105.917</ele>
      <time>2016-09-18T09:55:18Z</time>
    </trkpt>
    <trkpt lat="48.436613" lon="2.728785">
      <ele>106.843</ele>
      <time>2016-09-18T09:55:25Z</time>
    </trkpt>
    <trkpt lat="48.436711" lon="2.7288">
      <ele>107.211</ele>
      <time>2016-09-18T09:55:35Z</time>
    </trkpt>
    <trkpt lat="48.43677" lon="2.728683">
      <ele>107.645</ele>
      <time>2016-09-18T09:55:59Z</time>
    </trkpt>
    <trkpt lat="48.436813" lon="2.728557">
      <ele>108.103</ele>
      <time>2016-09-18T09:56:08Z</time>
    </trkpt>
    <trkpt lat="48.43687" lon="2.728424">
      <ele>108.493</ele>
      <time>2016-09-18T09:56:17Z</time>
    </trkpt>
    <trkpt lat="48.436866" lon="2.728265">
      <ele>108.964</ele>
      <time>2016-09-18T09:56:23Z</time>
    </trkpt>
    <trkpt lat="48.436909" lon="2.72813">
      <ele>109.604</ele>
      <time>2016-09-18T09:56:30Z</time>
    </trkpt>
    <trkpt lat="48.436917" lon="2.727959">
      <ele>109.936</ele>
      <time>2016-09-18T09:56:36Z</time>
    </trkpt>
    <trkpt lat="48.436937" lon="2.727817">
      <ele>109.996</ele>
      <time>2016-09-18T09:56:43Z</time>
    </trkpt>
    <trkpt lat="48.436986" lon="2.727676">
      <ele>109.362</ele>
      <time>2016-09-18T09:56:50Z</time>
    </trkpt>
    <trkpt lat="48.437045" lon="2.72753">
      <ele>108.836</ele>
      <time>2016-09-18T09:56:55Z</time>
    </trkpt>
    <trkpt lat="48.437034" lon="2.727379">
      <ele>109.609</ele>
      <time>2016-09-18T09:57:05Z</time>
    </trkpt>
    <trkpt lat="48.437085" lon="2.727227">
      <ele>109.962</ele>
      <time>2016-09-18T09:57:36Z</time>
    </trkpt>
    <trkpt lat="48.43711" lon="2.727064">
      <ele>110.717</ele>
      <time>2016-09-18T09:57:53Z</time>
    </trkpt>
    <trkpt lat="48.437142" lon="2.726915">
      <ele>111.319</ele>
      <time>2016-09-18T09:57:57Z</time>
    </trkpt>
    <trkpt lat="48.437151" lon="2.726776">
      <ele>111.412</ele>
      <time>2016-09-18T09:58:02Z</time>
    </trkpt>
    <trkpt lat="48.437142" lon="2.726623">
      <ele>111.689</ele>
      <time>2016-09-18T09:58:07Z</time>
    </trkpt>
    <trkpt lat="48.437129" lon="2.726465">
      <ele>112.154</ele>
      <time>2016-09-18T09:58:13Z</time>
    </trkpt>
    <trkpt lat="48.437154" lon="2.72633">
      <ele>112.194</ele>
      <time>2016-09-18T09:58:19Z</time>
    </trkpt>
    <trkpt lat="48.437151" lon="2.726191">
      <ele>112.074</ele>
      <time>2016-09-18T09:58:25Z</time>
    </trkpt>
    <trkpt lat="48.43712" lon="2.726064">
      <ele>111.83</ele>
      <time>2016-09-18T09:58:36Z</time>
    </trkpt>
    <trkpt lat="48.437073" lon="2.725924">
      <ele>111.326</ele>
      <time>2016-09-18T09:58:49Z</time>
    </trkpt>
    <trkpt lat="48.437145" lon="2.725834">
      <ele>111.002</ele>
      <time>2016-09-18T09:59:18Z</time>
    </trkpt>
    <trkpt lat="48.437205" lon="2.725688">
      <ele>110.444</ele>
      <time>2016-09-18T09:59:22Z</time>
    </trkpt>
    <trkpt lat="48.437255" lon="2.725553">
      <ele>109.749</ele>
      <time>2016-09-18T09:59:27Z</time>
    </trkpt>
    <trkpt lat="48.437308" lon="2.725443">
      <ele>108.947</ele>
      <time>2016-09-18T09:59:33Z</time>
    </trkpt>
    <trkpt lat="48.437415" lon="2.725403">
      <ele>108.657</ele>
      <time>2016-09-18T09:59:39Z</time>
    </trkpt>
    <trkpt lat="48.437507" lon="2.725371">
      <ele>108.606</ele>
      <time>2016-09-18T09:59:43Z</time>
    </trkpt>
    <trkpt lat="48.437595" lon="2.725322">
      <ele>108.102</ele>
      <time>2016-09-18T09:59:48Z</time>
    </trkpt>
    <trkpt lat="48.437642" lon="2.725201">
      <ele>107.984</ele>
      <time>2016-09-18T09:59:51Z</time>
    </trkpt>
    <trkpt lat="48.437666" lon="2.725052">
      <ele>107.963</ele>
      <time>2016-09-18T09:59:59Z</time>
    </trkpt>
    <trkpt lat="48.437713" lon="2.724881">
      <ele>108.229</ele>
      <time>2016-09-18T10:00:04Z</time>
    </trkpt>
    <trkpt lat="48.437781" lon="2.724759">
      <ele>108.854</ele>
      <time>2016-09-18T10:00:13Z</time>
    </trkpt>
    <trkpt lat="48.437724" lon="2.724623">
      <ele>108.325</ele>
      <time>2016-09-18T10:00:18Z</time>
    </trkpt>
    <trkpt lat="48.437762" lon="2.724496">
      <ele>108.118</ele>
      <time>2016-09-18T10:00:23Z</time>
    </trkpt>
    <trkpt lat="48.437778" lon="2.72436">
      <ele>107.695</ele>
      <time>2016-09-18T10:00:29Z</time>
    </trkpt>
    <trkpt lat="48.437746" lon="2.724232">
      <ele>107.296</ele>
      <time>2016-09-18T10:00:33Z</time>
    </trkpt>
    <trkpt lat="48.437715" lon="2.724095">
      <ele>107.026</ele>
      <time>2016-09-18T10:00:39Z</time>
    </trkpt>
    <trkpt lat="48.437702" lon="2.723954">
      <ele>106.716</ele>
      <time>2016-09-18T10:00:42Z</time>
    </trkpt>
    <trkpt lat="48.437651" lon="2.723839">
      <ele>106.913</ele>
      <time>2016-09-18T10:00:48Z</time>
    </trkpt>
    <trkpt lat="48.437552" lon="2.723791">
      <ele>107.626</ele>
      <time>2016-09-18T10:00:53Z</time>
    </trkpt>
    <trkpt lat="48.437509" lon="2.72367">
      <ele>107.935</ele>
      <time>2016-09-18T10:00:57Z</time>
    </trkpt>
    <trkpt lat="48.437534" lon="2.723525">
      <ele>108.065</ele>
      <time>2016-09-18T10:01:02Z</time>
    </trkpt>
    <trkpt lat="48.437577" lon="2.723385">
      <ele>108.26</ele>
      <time>2016-09-18T10:01:07Z</time>
    </trkpt>
    <trkpt lat="48.437686" lon="2.723348">
      <ele>107.608</ele>
      <time>2016-09-18T10:01:12Z</time>
    </trkpt>
    <trkpt lat="48.437793" lon="2.723335">
      <ele>106.884</ele>
      <time>2016-09-18T10:01:16Z</time>
    </trkpt>
    <trkpt lat="48.437869" lon="2.723415">
      <ele>106.049</ele>
      <time>2016-09-18T10:01:20Z</time>
    </trkpt>
    <trkpt lat="48.437974" lon="2.723478">
      <ele>105.066</ele>
      <time>2016-09-18T10:01:26Z</time>
    </trkpt>
    <trkpt lat="48.438098" lon="2.723475">
      <ele>104.262</ele>
      <time>2016-09-18T10:01:29Z</time>
    </trkpt>
    <trkpt lat="48.438204" lon="2.723526">
      <ele>103.608</ele>
      <time>2016-09-18T10:01:33Z</time>
    </trkpt>
    <trkpt lat="48.438295" lon="2.723578">
      <ele>103.154</ele>
      <time>2016-09-18T10:01:35Z</time>
    </trkpt>
    <trkpt lat="48.438421" lon="2.723618">
      <ele>103.308</ele>
      <time>2016-09-18T10:01:40Z</time>
    </trkpt>
    <trkpt lat="48.438517" lon="2.723609">
      <ele>103.661</ele>
      <time>2016-09-18T10:01:44Z</time>
    </trkpt>
    <trkpt lat="48.43862" lon="2.723622">
      <ele>103.896</ele>
      <time>2016-09-18T10:01:49Z</time>
    </trkpt>
    <trkpt lat="48.438721" lon="2.723653">
      <ele>102.998</ele>
      <time>2016-09-18T10:01:52Z</time>
    </trkpt>
    <trkpt lat="48.438839" lon="2.723557">
      <ele>102.519</ele>
      <time>2016-09-18T10:01:54Z</time>
    </trkpt>
    <trkpt lat="48.438961" lon="2.723573">
      <ele>100.284</ele>
      <time>2016-09-18T10:01:57Z</time>
    </trkpt>
    <trkpt lat="48.439082" lon="2.723569">
      <ele>97.18</ele>
      <time>2016-09-18T10:02:01Z</time>
    </trkpt>
    <trkpt lat="48.439139" lon="2.723698">
      <ele>95.353</ele>
      <time>2016-09-18T10:02:04Z</time>
    </trkpt>
    <trkpt lat="48.439223" lon="2.723753">
      <ele>93.579</ele>
      <time>2016-09-18T10:02:06Z</time>
    </trkpt>
    <trkpt lat="48.439297" lon="2.723852">
      <ele>92.194</ele>
      <time>2016-09-18T10:02:10Z</time>
    </trkpt>
    <trkpt lat="48.439354" lon="2.723987">
      <ele>91.187</ele>
      <time>2016-09-18T10:02:13Z</time>
    </trkpt>
    <trkpt lat="48.439407" lon="2.724102">
      <ele>90.436</ele>
      <time>2016-09-18T10:02:17Z</time>
    </trkpt>
    <trkpt lat="48.439429" lon="2.724265">
      <ele>90.147</ele>
      <time>2016-09-18T10:02:20Z</time>
    </trkpt>
    <trkpt lat="48.439494" lon="2.72442">
      <ele>89.659</ele>
      <time>2016-09-18T10:02:23Z</time>
    </trkpt>
    <trkpt lat="48.439597" lon="2.72447">
      <ele>88.952</ele>
      <time>2016-09-18T10:02:26Z</time>
    </trkpt>
    <trkpt lat="48.43966" lon="2.724592">
      <ele>88.86</ele>
      <time>2016-09-18T10:02:29Z</time>
    </trkpt>
    <trkpt lat="48.439722" lon="2.724729">
      <ele>89.001</ele>
      <time>2016-09-18T10:02:32Z</time>
    </trkpt>
    <trkpt lat="48.439753" lon="2.724883">
      <ele>89.0</ele>
      <time>2016-09-18T10:02:36Z</time>
    </trkpt>
    <trkpt lat="48.439789" lon="2.72502">
      <ele>89.017</ele>
      <time>2016-09-18T10:02:40Z</time>
    </trkpt>
    <trkpt lat="48.439834" lon="2.725157">
      <ele>89.227</ele>
      <time>2016-09-18T10:02:43Z</time>
    </trkpt>
    <trkpt lat="48.439932" lon="2.725336">
      <ele>89.807</ele>
      <time>2016-09-18T10:02:46Z</time>
    </trkpt>
    <trkpt lat="48.439977" lon="2.725513">
      <ele>89.987</ele>
      <time>2016-09-18T10:02:49Z</time>
    </trkpt>
    <trkpt lat="48.439998" lon="2.725702">
      <ele>90.523</ele>
      <time>2016-09-18T10:02:53Z</time>
    </trkpt>
    <trkpt lat="48.440028" lon="2.725903">
      <ele>91.176</ele>
      <time>2016-09-18T10:02:56Z</time>
    </trkpt>
    <trkpt lat="48.44003" lon="2.726068">
      <ele>91.125</ele>
      <time>2016-09-18T10:02:59Z</time>
    </trkpt>
    <trkpt lat="48.440043" lon="2.72625">
      <ele>91.155</ele>
      <time>2016-09-18T10:03:02Z</time>
    </trkpt>
    <trkpt lat="48.439994" lon="2.726411">
      <ele>91.121</ele>
      <time>2016-09-18T10:03:04Z</time>
    </trkpt>
    <trkpt lat="48.440064" lon="2.726505">
      <ele>91.648</ele>
      <time>2016-09-18T10:03:11Z</time>
    </trkpt>
    <trkpt lat="48.440069" lon="2.726649">
      <ele>92.185</ele>
      <time>2016-09-18T10:03:31Z</time>
    </trkpt>
    <trkpt lat="48.440096" lon="2.726829">
      <ele>93.514</ele>
      <time>2016-09-18T10:03:35Z</time>
    </trkpt>
    <trkpt lat="48.440127" lon="2.726995">
      <ele>94.806</ele>
      <time>2016-09-18T10:03:37Z</time>
    </trkpt>
    <trkpt lat="48.440209" lon="2.7271">
      <ele>96.155</ele>
      <time>2016-09-18T10:03:39Z</time>
    </trkpt>
    <trkpt lat="48.440259" lon="2.727228">
      <ele>97.819</ele>
      <time>2016-09-18T10:03:41Z</time>
    </trkpt>
    <trkpt lat="48.440282" lon="2.727371">
      <ele>98.551</ele>
      <time>2016-09-18T10:03:44Z</time>
    </trkpt>
    <trkpt lat="48.440281" lon="2.727538">
      <ele>99.147</ele>
      <time>2016-09-18T10:03:47Z</time>
    </trkpt>
    <trkpt lat="48.440292" lon="2.727679">
      <ele>99.663</ele>
      <time>2016-09-18T10:03:48Z</time>
    </trkpt>
    <trkpt lat="48.440235" lon="2.727791">
      <ele>99.699</ele>
      <time>2016-09-18T10:03:51Z</time>
    </trkpt>
    <trkpt lat="48.440208" lon="2.727965">
      <ele>99.667</ele>
      <time>2016-09-18T10:03:53Z</time>
    </trkpt>
    <trkpt lat="48.440178" lon="2.72813">
      <ele>99.737</ele>
      <time>2016-09-18T10:03:55Z</time>
    </trkpt>
    <trkpt lat="48.440216" lon="2.728295">
      <ele>99.969</ele>
      <time>2016-09-18T10:03:57Z</time>
    </trkpt>
    <trkpt lat="48.440234" lon="2.728462">
      <ele>99.927</ele>
      <time>2016-09-18T10:03:59Z</time>
    </trkpt>
    <trkpt lat="48.440282" lon="2.728659">
      <ele>99.987</ele>
      <time>2016-09-18T10:04:02Z</time>
    </trkpt>
    <trkpt lat="48.44025" lon="2.728813">
      <ele>99.9</ele>
      <time>2016-09-18T10:04:05Z</time>
    </trkpt>
    <trkpt lat="48.440286" lon="2.72894">
      <ele>100.005</ele>
      <time>2016-09-18T10:04:07Z</time>
    </trkpt>
    <trkpt lat="48.440305" lon="2.729102">
      <ele>100.075</ele>
      <time>2016-09-18T10:04:10Z</time>
    </trkpt>
    <trkpt lat="48.440305" lon="2.729241">
      <ele>99.83</ele>
      <time>2016-09-18T10:04:12Z</time>
    </trkpt>
    <trkpt lat="48.440292" lon="2.729416">
      <ele>99.154</ele>
      <time>2016-09-18T10:04:15Z</time>
    </trkpt>
    <trkpt lat="48.440309" lon="2.729591">
      <ele>99.053</ele>
      <time>2016-09-18T10:04:18Z</time>
    </trkpt>
    <trkpt lat="48.44032" lon="2.729737">
      <ele>99.037</ele>
      <time>2016-09-18T10:04:20Z</time>
    </trkpt>
    <trkpt lat="48.440232" lon="2.729831">
      <ele>99.227</ele>
      <time>2016-09-18T10:04:22Z</time>
    </trkpt>
    <trkpt lat="48.440213" lon="2.73002">
      <ele>99.839</ele>
      <time>2016-09-18T10:04:26Z</time>
    </trkpt>
    <trkpt lat="48.440157" lon="2.730194">
      <ele>100.264</ele>
      <time>2016-09-18T10:04:29Z</time>
    </trkpt>
    <trkpt lat="48.440132" lon="2.730325">
      <ele>100.564</ele>
      <time>2016-09-18T10:04:32Z</time>
    </trkpt>
    <trkpt lat="48.440149" lon="2.730472">
      <ele>100.861</ele>
      <time>2016-09-18T10:04:34Z</time>
    </trkpt>
    <trkpt lat="48.440162" lon="2.730648">
      <ele>100.861</ele>
      <time>2016-09-18T10:04:36Z</time>
    </trkpt>
    <trkpt lat="48.440176" lon="2.730807">
      <ele>100.668</ele>
      <time>2016-09-18T10:04:38Z</time>
    </trkpt>
    <trkpt lat="48.440216" lon="2.730964">
      <ele>100.307</ele>
      <time>2016-09-18T10:04:39Z</time>
    </trkpt>
    <trkpt lat="48.440304" lon="2.731136">
      <ele>100.005</ele>
      <time>2016-09-18T10:04:44Z</time>
    </trkpt>
    <trkpt lat="48.440369" lon="2.73126">
      <ele>99.792</ele>
      <time>2016-09-18T10:04:47Z</time>
    </trkpt>
    <trkpt lat="48.440387" lon="2.731398">
      <ele>99.34</ele>
      <time>2016-09-18T10:04:50Z</time>
    </trkpt>
    <trkpt lat="48.440432" lon="2.73158">
      <ele>98.561</ele>
      <time>2016-09-18T10:04:53Z</time>
    </trkpt>
    <trkpt lat="48.440557" lon="2.731727">
      <ele>98.783</ele>
      <time>2016-09-18T10:04:55Z</time>
    </trkpt>
    <trkpt lat="48.440588" lon="2.731885">
      <ele>98.214</ele>
      <time>2016-09-18T10:04:57Z</time>
    </trkpt>
    <trkpt lat="48.440626" lon="2.732035">
      <ele>97.674</ele>
      <time>2016-09-18T10:04:59Z</time>
    </trkpt>
    <trkpt lat="48.440632" lon="2.732197">
      <ele>97.091</ele>
      <time>2016-09-18T10:05:02Z</time>
    </trkpt>
    <trkpt lat="48.440612" lon="2.73234">
      <ele>96.576</ele>
      <time>2016-09-18T10:05:05Z</time>
    </trkpt>
    <trkpt lat="48.440612" lon="2.732542">
      <ele>95.969</ele>
      <time>2016-09-18T10:05:08Z</time>
    </trkpt>
    <trkpt lat="48.440629" lon="2.732716">
      <ele>95.794</ele>
      <time>2016-09-18T10:05:11Z</time>
    </trkpt>
    <trkpt lat="48.440646" lon="2.73287">
      <ele>95.118</ele>
      <time>2016-09-18T10:05:14Z</time>
    </trkpt>
    <trkpt lat="48.440676" lon="2.733015">
      <ele>94.229</ele>
      <time>2016-09-18T10:05:17Z</time>
    </trkpt>
    <trkpt lat="48.440691" lon="2.733163">
      <ele>94.0</ele>
      <time>2016-09-18T10:05:20Z</time>
    </trkpt>
    <trkpt lat="48.440709" lon="2.733326">
      <ele>94.0</ele>
      <time>2016-09-18T10:05:24Z</time>
    </trkpt>
    <trkpt lat="48.440728" lon="2.733459">
      <ele>93.719</ele>
      <time>2016-09-18T10:05:27Z</time>
    </trkpt>
    <trkpt lat="48.440753" lon="2.733636">
      <ele>93.263</ele>
      <time>2016-09-18T10:05:29Z</time>
    </trkpt>
    <trkpt lat="48.44082" lon="2.733773">
      <ele>93.02</ele>
      <time>2016-09-18T10:05:31Z</time>
    </trkpt>
    <trkpt lat="48.440926" lon="2.733847">
      <ele>93.334</ele>
      <time>2016-09-18T10:05:34Z</time>
    </trkpt>
    <trkpt lat="48.441004" lon="2.733943">
      <ele>93.539</ele>
      <time>2016-09-18T10:05:36Z</time>
    </trkpt>
    <trkpt lat="48.441098" lon="2.734048">
      <ele>93.926</ele>
      <time>2016-09-18T10:05:40Z</time>
    </trkpt>
    <trkpt lat="48.441182" lon="2.734195">
      <ele>94.026</ele>
      <time>2016-09-18T10:05:43Z</time>
    </trkpt>
    <trkpt lat="48.441253" lon="2.734283">
      <ele>94.214</ele>
      <time>2016-09-18T10:05:45Z</time>
    </trkpt>
    <trkpt lat="48.441357" lon="2.734372">
      <ele>94.654</ele>
      <time>2016-09-18T10:05:49Z</time>
    </trkpt>
    <trkpt lat="48.441428" lon="2.734496">
      <ele>94.859</ele>
      <time>2016-09-18T10:05:53Z</time>
    </trkpt>
    <trkpt lat="48.441446" lon="2.734646">
      <ele>94.794</ele>
      <time>2016-09-18T10:05:56Z</time>
    </trkpt>
    <trkpt lat="48.441407" lon="2.734826">
      <ele>94.537</ele>
      <time>2016-09-18T10:05:59Z</time>
    </trkpt>
    <trkpt lat="48.441383" lon="2.73497">
      <ele>94.108</ele>
      <time>2016-09-18T10:06:01Z</time>
    </trkpt>
    <trkpt lat="48.441301" lon="2.735112">
      <ele>93.194</ele>
      <time>2016-09-18T10:06:05Z</time>
    </trkpt>
    <trkpt lat="48.441245" lon="2.73524">
      <ele>92.272</ele>
      <time>2016-09-18T10:06:10Z</time>
    </trkpt>
    <trkpt lat="48.441321" lon="2.735372">
      <ele>91.239</ele>
      <time>2016-09-18T10:06:14Z</time>
    </trkpt>
    <trkpt lat="48.441434" lon="2.73547">
      <ele>90.566</ele>
      <time>2016-09-18T10:06:17Z</time>
    </trkpt>
    <trkpt lat="48.441509" lon="2.735577">
      <ele>89.956</ele>
      <time>2016-09-18T10:06:19Z</time>
    </trkpt>
    <trkpt lat="48.441557" lon="2.735709">
      <ele>89.782</ele>
      <time>2016-09-18T10:06:21Z</time>
    </trkpt>
    <trkpt lat="48.441615" lon="2.735826">
      <ele>89.819</ele>
      <time>2016-09-18T10:06:23Z</time>
    </trkpt>
    <trkpt lat="48.441626" lon="2.735993">
      <ele>89.854</ele>
      <time>2016-09-18T10:06:25Z</time>
    </trkpt>
    <trkpt lat="48.441666" lon="2.736122">
      <ele>90.037</ele>
      <time>2016-09-18T10:06:29Z</time>
    </trkpt>
    <trkpt lat="48.441689" lon="2.736269">
      <ele>90.684</ele>
      <time>2016-09-18T10:06:32Z</time>
    </trkpt>
    <trkpt lat="48.441684" lon="2.736437">
      <ele>91.236</ele>
      <time>2016-09-18T10:06:36Z</time>
    </trkpt>
    <trkpt lat="48.44165" lon="2.736586">
      <ele>91.65</ele>
      <time>2016-09-18T10:06:38Z</time>
    </trkpt>
    <trkpt lat="48.441607" lon="2.736739">
      <ele>92.046</ele>
      <time>2016-09-18T10:06:40Z</time>
    </trkpt>
    <trkpt lat="48.441559" lon="2.736896">
      <ele>92.438</ele>
      <time>2016-09-18T10:06:42Z</time>
    </trkpt>
    <trkpt lat="48.441454" lon="2.737">
      <ele>92.588</ele>
      <time>2016-09-18T10:06:45Z</time>
    </trkpt>
    <trkpt lat="48.441334" lon="2.737097">
      <ele>93.187</ele>
      <time>2016-09-18T10:06:48Z</time>
    </trkpt>
    <trkpt lat="48.441267" lon="2.737204">
      <ele>93.898</ele>
      <time>2016-09-18T10:06:51Z</time>
    </trkpt>
    <trkpt lat="48.441184" lon="2.737337">
      <ele>94.522</ele>
      <time>2016-09-18T10:06:55Z</time>
    </trkpt>
    <trkpt lat="48.441078" lon="2.737422">
      <ele>94.838</ele>
      <time>2016-09-18T10:06:57Z</time>
    </trkpt>
    <trkpt lat="48.441046" lon="2.737555">
      <ele>95.234</ele>
      <time>2016-09-18T10:06:59Z</time>
    </trkpt>
    <trkpt lat="48.441008" lon="2.73771">
      <ele>95.371</ele>
      <time>2016-09-18T10:07:02Z</time>
    </trkpt>
    <trkpt lat="48.441007" lon="2.737892">
      <ele>95.221</ele>
      <time>2016-09-18T10:07:06Z</time>
    </trkpt>
    <trkpt lat="48.440988" lon="2.738045">
      <ele>95.017</ele>
      <time>2016-09-18T10:07:09Z</time>
    </trkpt>
    <trkpt lat="48.441033" lon="2.738186">
      <ele>94.662</ele>
      <time>2016-09-18T10:07:13Z</time>
    </trkpt>
    <trkpt lat="48.441081" lon="2.738308">
      <ele>94.19</ele>
      <time>2016-09-18T10:07:16Z</time>
    </trkpt>
    <trkpt lat="48.441147" lon="2.738426">
      <ele>94.377</ele>
      <time>2016-09-18T10:07:20Z</time>
    </trkpt>
    <trkpt lat="48.441187" lon="2.738554">
      <ele>94.634</ele>
      <time>2016-09-18T10:07:23Z</time>
    </trkpt>
    <trkpt lat="48.441242" lon="2.738725">
      <ele>94.722</ele>
      <time>2016-09-18T10:07:27Z</time>
    </trkpt>
    <trkpt lat="48.441317" lon="2.738805">
      <ele>94.776</ele>
      <time>2016-09-18T10:07:31Z</time>
    </trkpt>
    <trkpt lat="48.441416" lon="2.738821">
      <ele>94.779</ele>
      <time>2016-09-18T10:07:35Z</time>
    </trkpt>
    <trkpt lat="48.441555" lon="2.738889">
      <ele>95.001</ele>
      <time>2016-09-18T10:07:38Z</time>
    </trkpt>
    <trkpt lat="48.441658" lon="2.738952">
      <ele>95.234</ele>
      <time>2016-09-18T10:07:40Z</time>
    </trkpt>
    <trkpt lat="48.441741" lon="2.739011">
      <ele>95.59</ele>
      <time>2016-09-18T10:07:42Z</time>
    </trkpt>
    <trkpt lat="48.441839" lon="2.739074">
      <ele>95.873</ele>
      <time>2016-09-18T10:07:47Z</time>
    </trkpt>
    <trkpt lat="48.441931" lon="2.739071">
      <ele>95.983</ele>
      <time>2016-09-18T10:07:50Z</time>
    </trkpt>
    <trkpt lat="48.44203" lon="2.739108">
      <ele>96.243</ele>
      <time>2016-09-18T10:07:53Z</time>
    </trkpt>
    <trkpt lat="48.442101" lon="2.739017">
      <ele>96.26</ele>
      <time>2016-09-18T10:07:57Z</time>
    </trkpt>
    <trkpt lat="48.442214" lon="2.73907">
      <ele>96.633</ele>
      <time>2016-09-18T10:08:01Z</time>
    </trkpt>
    <trkpt lat="48.442309" lon="2.739068">
      <ele>96.957</ele>
      <time>2016-09-18T10:08:03Z</time>
    </trkpt>
    <trkpt lat="48.442421" lon="2.739097">
      <ele>97.465</ele>
      <time>2016-09-18T10:08:07Z</time>
    </trkpt>
    <trkpt lat="48.442531" lon="2.739106">
      <ele>97.694</ele>
      <time>2016-09-18T10:08:11Z</time>
    </trkpt>
    <trkpt lat="48.442641" lon="2.739096">
      <ele>97.367</ele>
      <time>2016-09-18T10:08:14Z</time>
    </trkpt>
    <trkpt lat="48.442723" lon="2.73917">
      <ele>97.212</ele>
      <time>2016-09-18T10:08:17Z</time>
    </trkpt>
    <trkpt lat="48.442827" lon="2.739211">
      <ele>97.103</ele>
      <time>2016-09-18T10:08:19Z</time>
    </trkpt>
    <trkpt lat="48.442951" lon="2.739215">
      <ele>96.957</ele>
      <time>2016-09-18T10:08:22Z</time>
    </trkpt>
    <trkpt lat="48.443062" lon="2.739285">
      <ele>96.574</ele>
      <time>2016-09-18T10:08:24Z</time>
    </trkpt>
    <trkpt lat="48.44316" lon="2.739256">
      <ele>96.678</ele>
      <time>2016-09-18T10:08:28Z</time>
    </trkpt>
    <trkpt lat="48.443254" lon="2.739223">
      <ele>96.797</ele>
      <time>2016-09-18T10:08:31Z</time>
    </trkpt>
    <trkpt lat="48.443352" lon="2.73928">
      <ele>96.659</ele>
      <time>2016-09-18T10:08:34Z</time>
    </trkpt>
    <trkpt lat="48.443434" lon="2.739358">
      <ele>96.674</ele>
      <time>2016-09-18T10:08:37Z</time>
    </trkpt>
    <trkpt lat="48.443566" lon="2.739443">
      <ele>96.843</ele>
      <time>2016-09-18T10:08:40Z</time>
    </trkpt>
    <trkpt lat="48.443661" lon="2.739493">
      <ele>97.18</ele>
      <time>2016-09-18T10:08:42Z</time>
    </trkpt>
    <trkpt lat="48.443733" lon="2.739601">
      <ele>97.439</ele>
      <time>2016-09-18T10:08:45Z</time>
    </trkpt>
    <trkpt lat="48.443814" lon="2.739663">
      <ele>97.73</ele>
      <time>2016-09-18T10:08:47Z</time>
    </trkpt>
    <trkpt lat="48.443902" lon="2.739826">
      <ele>97.597</ele>
      <time>2016-09-18T10:08:50Z</time>
    </trkpt>
    <trkpt lat="48.443959" lon="2.739931">
      <ele>97.186</ele>
      <time>2016-09-18T10:08:53Z</time>
    </trkpt>
    <trkpt lat="48.444018" lon="2.740048">
      <ele>96.827</ele>
      <time>2016-09-18T10:08:56Z</time>
    </trkpt>
    <trkpt lat="48.44409" lon="2.740219">
      <ele>96.212</ele>
      <time>2016-09-18T10:09:00Z</time>
    </trkpt>
    <trkpt lat="48.444147" lon="2.740332">
      <ele>96.0</ele>
      <time>2016-09-18T10:09:02Z</time>
    </trkpt>
    <trkpt lat="48.44417" lon="2.740475">
      <ele>95.988</ele>
      <time>2016-09-18T10:09:05Z</time>
    </trkpt>
    <trkpt lat="48.444178" lon="2.740631">
      <ele>95.71</ele>
      <time>2016-09-18T10:09:07Z</time>
    </trkpt>
    <trkpt lat="48.4442" lon="2.740774">
      <ele>95.282</ele>
      <time>2016-09-18T10:09:09Z</time>
    </trkpt>
    <trkpt lat="48.44415" lon="2.740919">
      <ele>95.271</ele>
      <time>2016-09-18T10:09:13Z</time>
    </trkpt>
    <trkpt lat="48.444196" lon="2.741085">
      <ele>96.012</ele>
      <time>2016-09-18T10:09:17Z</time>
    </trkpt>
    <trkpt lat="48.444249" lon="2.741212">
      <ele>96.66</ele>
      <time>2016-09-18T10:09:20Z</time>
    </trkpt>
    <trkpt lat="48.444264" lon="2.741346">
      <ele>97.196</ele>
      <time>2016-09-18T10:09:33Z</time>
    </trkpt>
    <trkpt lat="48.444317" lon="2.741519">
      <ele>98.01</ele>
      <time>2016-09-18T10:14:07Z</time>
    </trkpt>
    <trkpt lat="48.444387" lon="2.741746">
      <ele>98.793</ele>
      <time>2016-09-18T10:14:09Z</time>
    </trkpt>
    <trkpt lat="48.444399" lon="2.741897">
      <ele>98.836</ele>
      <time>2016-09-18T10:14:12Z</time>
    </trkpt>
    <trkpt lat="48.444401" lon="2.742084">
      <ele>98.341</ele>
      <time>2016-09-18T10:14:15Z</time>
    </trkpt>
    <trkpt lat="48.444433" lon="2.742225">
      <ele>97.959</ele>
      <time>2016-09-18T10:14:18Z</time>
    </trkpt>
    <trkpt lat="48.444477" lon="2.74238">
      <ele>97.933</ele>
      <time>2016-09-18T10:14:21Z</time>
    </trkpt>
    <trkpt lat="48.444538" lon="2.742525">
      <ele>97.604</ele>
      <time>2016-09-18T10:14:25Z</time>
    </trkpt>
    <trkpt lat="48.444621" lon="2.742647">
      <ele>97.172</ele>
      <time>2016-09-18T10:14:29Z</time>
    </trkpt>
    <trkpt lat="48.444684" lon="2.742787">
      <ele>97.005</ele>
      <time>2016-09-18T10:14:32Z</time>
    </trkpt>
    <trkpt lat="48.444761" lon="2.742861">
      <ele>97.0</ele>
      <time>2016-09-18T10:14:35Z</time>
    </trkpt>
    <trkpt lat="48.444864" lon="2.742945">
      <ele>97.0</ele>
      <time>2016-09-18T10:14:39Z</time>
    </trkpt>
    <trkpt lat="48.444999" lon="2.742997">
      <ele>97.0</ele>
      <time>2016-09-18T10:14:42Z</time>
    </trkpt>
    <trkpt lat="48.445141" lon="2.742989">
      <ele>97.386</ele>
      <time>2016-09-18T10:14:44Z</time>
    </trkpt>
    <trkpt lat="48.445284" lon="2.743027">
      <ele>97.897</ele>
      <time>2016-09-18T10:14:46Z</time>
    </trkpt>
    <trkpt lat="48.44541" lon="2.742993">
      <ele>97.775</ele>
      <time>2016-09-18T10:14:50Z</time>
    </trkpt>
    <trkpt lat="48.445485" lon="2.743121">
      <ele>98.0</ele>
      <time>2016-09-18T10:14:53Z</time>
    </trkpt>
    <trkpt lat="48.445512" lon="2.743268">
      <ele>98.0</ele>
      <time>2016-09-18T10:14:56Z</time>
    </trkpt>
    <trkpt lat="48.445599" lon="2.743407">
      <ele>98.0</ele>
      <time>2016-09-18T10:15:00Z</time>
    </trkpt>
    <trkpt lat="48.445683" lon="2.743546">
      <ele>98.0</ele>
      <time>2016-09-18T10:15:03Z</time>
    </trkpt>
    <trkpt lat="48.445739" lon="2.743664">
      <ele>98.19</ele>
      <time>2016-09-18T10:15:05Z</time>
    </trkpt>
    <trkpt lat="48.445784" lon="2.743821">
      <ele>98.756</ele>
      <time>2016-09-18T10:15:07Z</time>
    </trkpt>
    <trkpt lat="48.445838" lon="2.743972">
      <ele>99.294</ele>
      <time>2016-09-18T10:15:09Z</time>
    </trkpt>
    <trkpt lat="48.44588" lon="2.744121">
      <ele>99.695</ele>
      <time>2016-09-18T10:15:11Z</time>
    </trkpt>
    <trkpt lat="48.445868" lon="2.744306">
      <ele>99.938</ele>
      <time>2016-09-18T10:15:15Z</time>
    </trkpt>
    <trkpt lat="48.445854" lon="2.744481">
      <ele>100.0</ele>
      <time>2016-09-18T10:15:19Z</time>
    </trkpt>
    <trkpt lat="48.445857" lon="2.744636">
      <ele>100.0</ele>
      <time>2016-09-18T10:15:22Z</time>
    </trkpt>
    <trkpt lat="48.445862" lon="2.744811">
      <ele>100.0</ele>
      <time>2016-09-18T10:15:25Z</time>
    </trkpt>
    <trkpt lat="48.44586" lon="2.744989">
      <ele>100.0</ele>
      <time>2016-09-18T10:15:28Z</time>
    </trkpt>
    <trkpt lat="48.445826" lon="2.745119">
      <ele>99.557</ele>
      <time>2016-09-18T10:15:30Z</time>
    </trkpt>
    <trkpt lat="48.445818" lon="2.745265">
      <ele>99.043</ele>
      <time>2016-09-18T10:15:33Z</time>
    </trkpt>
    <trkpt lat="48.445809" lon="2.745403">
      <ele>98.549</ele>
      <time>2016-09-18T10:15:36Z</time>
    </trkpt>
    <trkpt lat="48.445817" lon="2.745558">
      <ele>97.991</ele>
      <time>2016-09-18T10:15:39Z</time>
    </trkpt>
    <trkpt lat="48.445776" lon="2.745708">
      <ele>97.451</ele>
      <time>2016-09-18T10:15:45Z</time>
    </trkpt>
    <trkpt lat="48.445694" lon="2.745825">
      <ele>97.03</ele>
      <time>2016-09-18T10:15:48Z</time>
    </trkpt>
    <trkpt lat="48.44562" lon="2.745916">
      <ele>96.474</ele>
      <time>2016-09-18T10:15:52Z</time>
    </trkpt>
    <trkpt lat="48.445711" lon="2.745834">
      <ele>96.997</ele>
      <time>2016-09-18T10:16:07Z</time>
    </trkpt>
    <trkpt lat="48.445721" lon="2.745689">
      <ele>97.52</ele>
      <time>2016-09-18T10:16:11Z</time>
    </trkpt>
    <trkpt lat="48.445731" lon="2.74552">
      <ele>98.128</ele>
      <time>2016-09-18T10:16:15Z</time>
    </trkpt>
    <trkpt lat="48.445743" lon="2.745374">
      <ele>98.654</ele>
      <time>2016-09-18T10:16:18Z</time>
    </trkpt>
    <trkpt lat="48.445761" lon="2.745191">
      <ele>99.231</ele>
      <time>2016-09-18T10:16:21Z</time>
    </trkpt>
    <trkpt lat="48.445798" lon="2.74502">
      <ele>99.81</ele>
      <time>2016-09-18T10:16:25Z</time>
    </trkpt>
    <trkpt lat="48.445805" lon="2.744866">
      <ele>99.898</ele>
      <time>2016-09-18T10:16:28Z</time>
    </trkpt>
    <trkpt lat="48.445804" lon="2.744723">
      <ele>99.894</ele>
      <time>2016-09-18T10:16:31Z</time>
    </trkpt>
    <trkpt lat="48.445846" lon="2.744557">
      <ele>100.0</ele>
      <time>2016-09-18T10:16:34Z</time>
    </trkpt>
    <trkpt lat="48.445914" lon="2.744409">
      <ele>99.963</ele>
      <time>2016-09-18T10:16:37Z</time>
    </trkpt>
    <trkpt lat="48.446" lon="2.744301">
      <ele>99.69</ele>
      <time>2016-09-18T10:16:40Z</time>
    </trkpt>
    <trkpt lat="48.446087" lon="2.74416">
      <ele>99.085</ele>
      <time>2016-09-18T10:16:43Z</time>
    </trkpt>
    <trkpt lat="48.44619" lon="2.744058">
      <ele>99.284</ele>
      <time>2016-09-18T10:16:46Z</time>
    </trkpt>
    <trkpt lat="48.446251" lon="2.743949">
      <ele>99.504</ele>
      <time>2016-09-18T10:16:48Z</time>
    </trkpt>
    <trkpt lat="48.446351" lon="2.743921">
      <ele>99.864</ele>
      <time>2016-09-18T10:16:52Z</time>
    </trkpt>
    <trkpt lat="48.446444" lon="2.743807">
      <ele>100.493</ele>
      <time>2016-09-18T10:16:56Z</time>
    </trkpt>
    <trkpt lat="48.446549" lon="2.743771">
      <ele>101.001</ele>
      <time>2016-09-18T10:16:59Z</time>
    </trkpt>
    <trkpt lat="48.44665" lon="2.743778">
      <ele>101.339</ele>
      <time>2016-09-18T10:17:02Z</time>
    </trkpt>
    <trkpt lat="48.446751" lon="2.743781">
      <ele>101.085</ele>
      <time>2016-09-18T10:17:05Z</time>
    </trkpt>
    <trkpt lat="48.446881" lon="2.743723">
      <ele>100.826</ele>
      <time>2016-09-18T10:17:08Z</time>
    </trkpt>
    <trkpt lat="48.446981" lon="2.743782">
      <ele>100.385</ele>
      <time>2016-09-18T10:17:11Z</time>
    </trkpt>
    <trkpt lat="48.44709" lon="2.743794">
      <ele>100.342</ele>
      <time>2016-09-18T10:17:15Z</time>
    </trkpt>
    <trkpt lat="48.447196" lon="2.743785">
      <ele>100.374</ele>
      <time>2016-09-18T10:17:19Z</time>
    </trkpt>
    <trkpt lat="48.447297" lon="2.743796">
      <ele>100.514</ele>
      <time>2016-09-18T10:17:23Z</time>
    </trkpt>
    <trkpt lat="48.447408" lon="2.74379">
      <ele>100.787</ele>
      <time>2016-09-18T10:17:28Z</time>
    </trkpt>
    <trkpt lat="48.447505" lon="2.743801">
      <ele>101.0</ele>
      <time>2016-09-18T10:17:32Z</time>
    </trkpt>
    <trkpt lat="48.447602" lon="2.743766">
      <ele>101.0</ele>
      <time>2016-09-18T10:17:36Z</time>
    </trkpt>
    <trkpt lat="48.4477" lon="2.743792">
      <ele>101.0</ele>
      <time>2016-09-18T10:17:39Z</time>
    </trkpt>
    <trkpt lat="48.447804" lon="2.743786">
      <ele>100.941</ele>
      <time>2016-09-18T10:17:43Z</time>
    </trkpt>
    <trkpt lat="48.447925" lon="2.743879">
      <ele>100.489</ele>
      <time>2016-09-18T10:17:46Z</time>
    </trkpt>
    <trkpt lat="48.44804" lon="2.743955">
      <ele>99.818</ele>
      <time>2016-09-18T10:17:49Z</time>
    </trkpt>
    <trkpt lat="48.448151" lon="2.74403">
      <ele>98.974</ele>
      <time>2016-09-18T10:17:52Z</time>
    </trkpt>
    <trkpt lat="48.448252" lon="2.744116">
      <ele>97.897</ele>
      <time>2016-09-18T10:17:54Z</time>
    </trkpt>
    <trkpt lat="48.448299" lon="2.744281">
      <ele>96.424</ele>
      <time>2016-09-18T10:17:58Z</time>
    </trkpt>
    <trkpt lat="48.44832" lon="2.744426">
      <ele>95.229</ele>
      <time>2016-09-18T10:18:02Z</time>
    </trkpt>
    <trkpt lat="48.448415" lon="2.744495">
      <ele>94.818</ele>
      <time>2016-09-18T10:18:06Z</time>
    </trkpt>
    <trkpt lat="48.448517" lon="2.744554">
      <ele>94.606</ele>
      <time>2016-09-18T10:18:11Z</time>
    </trkpt>
    <trkpt lat="48.448617" lon="2.744627">
      <ele>94.357</ele>
      <time>2016-09-18T10:18:16Z</time>
    </trkpt>
    <trkpt lat="48.448703" lon="2.744714">
      <ele>94.049</ele>
      <time>2016-09-18T10:18:20Z</time>
    </trkpt>
    <trkpt lat="48.448791" lon="2.74477">
      <ele>93.767</ele>
      <time>2016-09-18T10:18:23Z</time>
    </trkpt>
    <trkpt lat="48.448894" lon="2.744851">
      <ele>93.573</ele>
      <time>2016-09-18T10:18:27Z</time>
    </trkpt>
    <trkpt lat="48.448952" lon="2.744959">
      <ele>93.602</ele>
      <time>2016-09-18T10:18:30Z</time>
    </trkpt>
    <trkpt lat="48.449035" lon="2.745014">
      <ele>94.002</ele>
      <time>2016-09-18T10:18:32Z</time>
    </trkpt>
    <trkpt lat="48.449125" lon="2.744964">
      <ele>94.83</ele>
      <time>2016-09-18T10:18:37Z</time>
    </trkpt>
    <trkpt lat="48.449217" lon="2.744977">
      <ele>95.083</ele>
      <time>2016-09-18T10:18:41Z</time>
    </trkpt>
    <trkpt lat="48.44931" lon="2.745007">
      <ele>95.001</ele>
      <time>2016-09-18T10:18:44Z</time>
    </trkpt>
    <trkpt lat="48.449407" lon="2.745016">
      <ele>95.042</ele>
      <time>2016-09-18T10:18:48Z</time>
    </trkpt>
    <trkpt lat="48.449504" lon="2.745056">
      <ele>95.416</ele>
      <time>2016-09-18T10:18:51Z</time>
    </trkpt>
    <trkpt lat="48.449628" lon="2.745082">
      <ele>95.956</ele>
      <time>2016-09-18T10:18:54Z</time>
    </trkpt>
    <trkpt lat="48.449722" lon="2.745168">
      <ele>96.604</ele>
      <time>2016-09-18T10:18:56Z</time>
    </trkpt>
    <trkpt lat="48.449816" lon="2.745195">
      <ele>96.903</ele>
      <time>2016-09-18T10:18:58Z</time>
    </trkpt>
    <trkpt lat="48.44996" lon="2.745226">
      <ele>97.133</ele>
      <time>2016-09-18T10:19:00Z</time>
    </trkpt>
    <trkpt lat="48.450024" lon="2.745356">
      <ele>96.867</ele>
      <time>2016-09-18T10:19:04Z</time>
    </trkpt>
    <trkpt lat="48.450088" lon="2.745477">
      <ele>96.689</ele>
      <time>2016-09-18T10:19:07Z</time>
    </trkpt>
    <trkpt lat="48.450153" lon="2.745577">
      <ele>96.431</ele>
      <time>2016-09-18T10:19:09Z</time>
    </trkpt>
    <trkpt lat="48.45025" lon="2.7457">
      <ele>95.912</ele>
      <time>2016-09-18T10:19:12Z</time>
    </trkpt>
    <trkpt lat="48.45033" lon="2.745783">
      <ele>95.396</ele>
      <time>2016-09-18T10:19:14Z</time>
    </trkpt>
    <trkpt lat="48.4504" lon="2.745878">
      <ele>94.678</ele>
      <time>2016-09-18T10:19:18Z</time>
    </trkpt>
    <trkpt lat="48.450463" lon="2.745976">
      <ele>93.973</ele>
      <time>2016-09-18T10:19:21Z</time>
    </trkpt>
    <trkpt lat="48.450514" lon="2.746089">
      <ele>93.159</ele>
      <time>2016-09-18T10:19:24Z</time>
    </trkpt>
    <trkpt lat="48.450454" lon="2.745985">
      <ele>93.908</ele>
      <time>2016-09-18T10:19:35Z</time>
    </trkpt>
    <trkpt lat="48.450466" lon="2.745831">
      <ele>95.022</ele>
      <time>2016-09-18T10:19:41Z</time>
    </trkpt>
    <trkpt lat="48.450477" lon="2.74568">
      <ele>96.5</ele>
      <time>2016-09-18T10:19:45Z</time>
    </trkpt>
    <trkpt lat="48.450458" lon="2.745531">
      <ele>97.94</ele>
      <time>2016-09-18T10:19:48Z</time>
    </trkpt>
    <trkpt lat="48.450444" lon="2.745394">
      <ele>99.458</ele>
      <time>2016-09-18T10:19:51Z</time>
    </trkpt>
    <trkpt lat="48.450385" lon="2.745231">
      <ele>100.56</ele>
      <time>2016-09-18T10:19:55Z</time>
    </trkpt>
    <trkpt lat="48.450334" lon="2.745098">
      <ele>101.033</ele>
      <time>2016-09-18T10:19:59Z</time>
    </trkpt>
    <trkpt lat="48.450298" lon="2.744968">
      <ele>101.513</ele>
      <time>2016-09-18T10:20:02Z</time>
    </trkpt>
    <trkpt lat="48.450262" lon="2.744832">
      <ele>102.005</ele>
      <time>2016-09-18T10:20:05Z</time>
    </trkpt>
    <trkpt lat="48.450196" lon="2.744717">
      <ele>101.847</ele>
      <time>2016-09-18T10:20:07Z</time>
    </trkpt>
    <trkpt lat="48.450185" lon="2.744555">
      <ele>102.467</ele>
      <time>2016-09-18T10:20:11Z</time>
    </trkpt>
    <trkpt lat="48.450113" lon="2.744435">
      <ele>102.268</ele>
      <time>2016-09-18T10:20:15Z</time>
    </trkpt>
    <trkpt lat="48.450076" lon="2.744302">
      <ele>102.474</ele>
      <time>2016-09-18T10:20:19Z</time>
    </trkpt>
    <trkpt lat="48.450014" lon="2.744171">
      <ele>102.185</ele>
      <time>2016-09-18T10:20:24Z</time>
    </trkpt>
    <trkpt lat="48.449978" lon="2.744008">
      <ele>103.063</ele>
      <time>2016-09-18T10:20:29Z</time>
    </trkpt>
    <trkpt lat="48.449957" lon="2.743844">
      <ele>103.845</ele>
      <time>2016-09-18T10:20:34Z</time>
    </trkpt>
    <trkpt lat="48.44994" lon="2.743695">
      <ele>103.784</ele>
      <time>2016-09-18T10:20:38Z</time>
    </trkpt>
    <trkpt lat="48.449919" lon="2.743522">
      <ele>103.936</ele>
      <time>2016-09-18T10:20:44Z</time>
    </trkpt>
    <trkpt lat="48.449896" lon="2.743335">
      <ele>104.247</ele>
      <time>2016-09-18T10:20:49Z</time>
    </trkpt>
    <trkpt lat="48.449893" lon="2.743191">
      <ele>104.23</ele>
      <time>2016-09-18T10:20:53Z</time>
    </trkpt>
    <trkpt lat="48.449943" lon="2.743075">
      <ele>104.59</ele>
      <time>2016-09-18T10:21:25Z</time>
    </trkpt>
    <trkpt lat="48.450029" lon="2.743021">
      <ele>105.653</ele>
      <time>2016-09-18T10:21:28Z</time>
    </trkpt>
    <trkpt lat="48.450111" lon="2.742945">
      <ele>107.235</ele>
      <time>2016-09-18T10:21:33Z</time>
    </trkpt>
    <trkpt lat="48.450202" lon="2.7429">
      <ele>108.622</ele>
      <time>2016-09-18T10:21:42Z</time>
    </trkpt>
    <trkpt lat="48.450239" lon="2.742773">
      <ele>109.598</ele>
      <time>2016-09-18T10:21:54Z</time>
    </trkpt>
    <trkpt lat="48.450281" lon="2.742646">
      <ele>110.515</ele>
      <time>2016-09-18T10:22:03Z</time>
    </trkpt>
    <trkpt lat="48.450273" lon="2.742472">
      <ele>111.15</ele>
      <time>2016-09-18T10:22:06Z</time>
    </trkpt>
    <trkpt lat="48.450302" lon="2.74234">
      <ele>112.363</ele>
      <time>2016-09-18T10:22:22Z</time>
    </trkpt>
    <trkpt lat="48.450402" lon="2.742295">
      <ele>113.488</ele>
      <time>2016-09-18T10:22:32Z</time>
    </trkpt>
    <trkpt lat="48.450498" lon="2.742331">
      <ele>114.113</ele>
      <time>2016-09-18T10:22:44Z</time>
    </trkpt>
    <trkpt lat="48.450586" lon="2.742243">
      <ele>115.051</ele>
      <time>2016-09-18T10:22:52Z</time>
    </trkpt>
    <trkpt lat="48.450682" lon="2.74224">
      <ele>115.449</ele>
      <time>2016-09-18T10:22:59Z</time>
    </trkpt>
    <trkpt lat="48.450758" lon="2.742153">
      <ele>115.796</ele>
      <time>2016-09-18T10:23:09Z</time>
    </trkpt>
    <trkpt lat="48.450843" lon="2.742258">
      <ele>116.164</ele>
      <time>2016-09-18T10:23:19Z</time>
    </trkpt>
    <trkpt lat="48.450883" lon="2.742411">
      <ele>116.858</ele>
      <time>2016-09-18T10:23:27Z</time>
    </trkpt>
    <trkpt lat="48.450948" lon="2.742511">
      <ele>117.396</ele>
      <time>2016-09-18T10:23:34Z</time>
    </trkpt>
    <trkpt lat="48.451056" lon="2.742535">
      <ele>117.701</ele>
      <time>2016-09-18T10:23:41Z</time>
    </trkpt>
    <trkpt lat="48.451132" lon="2.742609">
      <ele>117.637</ele>
      <time>2016-09-18T10:23:47Z</time>
    </trkpt>
    <trkpt lat="48.451211" lon="2.74268">
      <ele>117.585</ele>
      <time>2016-09-18T10:23:56Z</time>
    </trkpt>
    <trkpt lat="48.451324" lon="2.742571">
      <ele>117.94</ele>
      <time>2016-09-18T10:24:08Z</time>
    </trkpt>
    <trkpt lat="48.451328" lon="2.742402">
      <ele>117.923</ele>
      <time>2016-09-18T10:24:17Z</time>
    </trkpt>
    <trkpt lat="48.451326" lon="2.742248">
      <ele>117.795</ele>
      <time>2016-09-18T10:24:23Z</time>
    </trkpt>
    <trkpt lat="48.451336" lon="2.742109">
      <ele>117.48</ele>
      <time>2016-09-18T10:24:28Z</time>
    </trkpt>
    <trkpt lat="48.451338" lon="2.741929">
      <ele>116.899</ele>
      <time>2016-09-18T10:24:34Z</time>
    </trkpt>
    <trkpt lat="48.451344" lon="2.741775">
      <ele>115.879</ele>
      <time>2016-09-18T10:24:39Z</time>
    </trkpt>
    <trkpt lat="48.451335" lon="2.741583">
      <ele>114.349</ele>
      <time>2016-09-18T10:24:43Z</time>
    </trkpt>
    <trkpt lat="48.451297" lon="2.741424">
      <ele>112.999</ele>
      <time>2016-09-18T10:24:45Z</time>
    </trkpt>
    <trkpt lat="48.451259" lon="2.7413">
      <ele>111.485</ele>
      <time>2016-09-18T10:24:48Z</time>
    </trkpt>
    <trkpt lat="48.451231" lon="2.741142">
      <ele>109.198</ele>
      <time>2016-09-18T10:24:51Z</time>
    </trkpt>
    <trkpt lat="48.451283" lon="2.741265">
      <ele>110.702</ele>
      <time>2016-09-18T10:24:58Z</time>
    </trkpt>
    <trkpt lat="48.451185" lon="2.741139">
      <ele>109.63</ele>
      <time>2016-09-18T10:25:01Z</time>
    </trkpt>
    <trkpt lat="48.451292" lon="2.741141">
      <ele>108.547</ele>
      <time>2016-09-18T10:25:24Z</time>
    </trkpt>
    <trkpt lat="48.451408" lon="2.74117">
      <ele>108.1</ele>
      <time>2016-09-18T10:25:27Z</time>
    </trkpt>
    <trkpt lat="48.451491" lon="2.741229">
      <ele>109.178</ele>
      <time>2016-09-18T10:25:32Z</time>
    </trkpt>
    <trkpt lat="48.451596" lon="2.741208">
      <ele>108.969</ele>
      <time>2016-09-18T10:25:36Z</time>
    </trkpt>
    <trkpt lat="48.451704" lon="2.741199">
      <ele>108.815</ele>
      <time>2016-09-18T10:25:40Z</time>
    </trkpt>
    <trkpt lat="48.451804" lon="2.74115">
      <ele>107.926</ele>
      <time>2016-09-18T10:25:48Z</time>
    </trkpt>
    <trkpt lat="48.451895" lon="2.741087">
      <ele>107.06</ele>
      <time>2016-09-18T10:25:54Z</time>
    </trkpt>
    <trkpt lat="48.451992" lon="2.741021">
      <ele>106.847</ele>
      <time>2016-09-18T10:25:59Z</time>
    </trkpt>
    <trkpt lat="48.452081" lon="2.740921">
      <ele>106.807</ele>
      <time>2016-09-18T10:26:04Z</time>
    </trkpt>
    <trkpt lat="48.452173" lon="2.74088">
      <ele>106.991</ele>
      <time>2016-09-18T10:26:11Z</time>
    </trkpt>
    <trkpt lat="48.452262" lon="2.740985">
      <ele>107.546</ele>
      <time>2016-09-18T10:26:16Z</time>
    </trkpt>
    <trkpt lat="48.452358" lon="2.740987">
      <ele>107.553</ele>
      <time>2016-09-18T10:26:22Z</time>
    </trkpt>
    <trkpt lat="48.452458" lon="2.740982">
      <ele>107.535</ele>
      <time>2016-09-18T10:26:28Z</time>
    </trkpt>
    <trkpt lat="48.452468" lon="2.740828">
      <ele>107.017</ele>
      <time>2016-09-18T10:26:55Z</time>
    </trkpt>
    <trkpt lat="48.452477" lon="2.740663">
      <ele>107.562</ele>
      <time>2016-09-18T10:26:58Z</time>
    </trkpt>
    <trkpt lat="48.452437" lon="2.740467">
      <ele>107.846</ele>
      <time>2016-09-18T10:27:01Z</time>
    </trkpt>
    <trkpt lat="48.452386" lon="2.740346">
      <ele>107.899</ele>
      <time>2016-09-18T10:27:03Z</time>
    </trkpt>
    <trkpt lat="48.452348" lon="2.740206">
      <ele>108.117</ele>
      <time>2016-09-18T10:27:05Z</time>
    </trkpt>
    <trkpt lat="48.452325" lon="2.740018">
      <ele>108.346</ele>
      <time>2016-09-18T10:27:07Z</time>
    </trkpt>
    <trkpt lat="48.452293" lon="2.739884">
      <ele>107.731</ele>
      <time>2016-09-18T10:27:09Z</time>
    </trkpt>
    <trkpt lat="48.452253" lon="2.739686">
      <ele>106.87</ele>
      <time>2016-09-18T10:27:11Z</time>
    </trkpt>
    <trkpt lat="48.452236" lon="2.739552">
      <ele>106.387</ele>
      <time>2016-09-18T10:27:12Z</time>
    </trkpt>
    <trkpt lat="48.452228" lon="2.739368">
      <ele>105.994</ele>
      <time>2016-09-18T10:27:14Z</time>
    </trkpt>
    <trkpt lat="48.452223" lon="2.739217">
      <ele>105.998</ele>
      <time>2016-09-18T10:27:16Z</time>
    </trkpt>
    <trkpt lat="48.452239" lon="2.739021">
      <ele>105.94</ele>
      <time>2016-09-18T10:27:18Z</time>
    </trkpt>
    <trkpt lat="48.452256" lon="2.738854">
      <ele>105.863</ele>
      <time>2016-09-18T10:27:21Z</time>
    </trkpt>
    <trkpt lat="48.452256" lon="2.738693">
      <ele>105.793</ele>
      <time>2016-09-18T10:27:23Z</time>
    </trkpt>
    <trkpt lat="48.452249" lon="2.738542">
      <ele>105.534</ele>
      <time>2016-09-18T10:27:25Z</time>
    </trkpt>
    <trkpt lat="48.452256" lon="2.73838">
      <ele>104.824</ele>
      <time>2016-09-18T10:27:27Z</time>
    </trkpt>
    <trkpt lat="48.452265" lon="2.738153">
      <ele>103.34</ele>
      <time>2016-09-18T10:27:29Z</time>
    </trkpt>
    <trkpt lat="48.452235" lon="2.737982">
      <ele>102.631</ele>
      <time>2016-09-18T10:27:32Z</time>
    </trkpt>
    <trkpt lat="48.452205" lon="2.737802">
      <ele>102.211</ele>
      <time>2016-09-18T10:27:34Z</time>
    </trkpt>
    <trkpt lat="48.452201" lon="2.73763">
      <ele>101.621</ele>
      <time>2016-09-18T10:27:36Z</time>
    </trkpt>
    <trkpt lat="48.452204" lon="2.73749">
      <ele>101.131</ele>
      <time>2016-09-18T10:27:38Z</time>
    </trkpt>
    <trkpt lat="48.452216" lon="2.73734">
      <ele>101.045</ele>
      <time>2016-09-18T10:27:40Z</time>
    </trkpt>
    <trkpt lat="48.452174" lon="2.737171">
      <ele>101.5</ele>
      <time>2016-09-18T10:27:42Z</time>
    </trkpt>
    <trkpt lat="48.45211" lon="2.737063">
      <ele>102.15</ele>
      <time>2016-09-18T10:27:44Z</time>
    </trkpt>
    <trkpt lat="48.452089" lon="2.7369">
      <ele>102.723</ele>
      <time>2016-09-18T10:27:46Z</time>
    </trkpt>
    <trkpt lat="48.452034" lon="2.736692">
      <ele>103.879</ele>
      <time>2016-09-18T10:27:48Z</time>
    </trkpt>
    <trkpt lat="48.451983" lon="2.736505">
      <ele>104.0</ele>
      <time>2016-09-18T10:27:51Z</time>
    </trkpt>
    <trkpt lat="48.451948" lon="2.736328">
      <ele>103.784</ele>
      <time>2016-09-18T10:27:54Z</time>
    </trkpt>
    <trkpt lat="48.451939" lon="2.736166">
      <ele>103.174</ele>
      <time>2016-09-18T10:27:56Z</time>
    </trkpt>
    <trkpt lat="48.451934" lon="2.735986">
      <ele>102.529</ele>
      <time>2016-09-18T10:27:59Z</time>
    </trkpt>
    <trkpt lat="48.451927" lon="2.735837">
      <ele>102.012</ele>
      <time>2016-09-18T10:28:01Z</time>
    </trkpt>
    <trkpt lat="48.451817" lon="2.735805">
      <ele>102.0</ele>
      <time>2016-09-18T10:28:04Z</time>
    </trkpt>
    <trkpt lat="48.451737" lon="2.73571">
      <ele>102.0</ele>
      <time>2016-09-18T10:28:07Z</time>
    </trkpt>
    <trkpt lat="48.451667" lon="2.735561">
      <ele>102.0</ele>
      <time>2016-09-18T10:28:10Z</time>
    </trkpt>
    <trkpt lat="48.451611" lon="2.735408">
      <ele>101.8</ele>
      <time>2016-09-18T10:28:12Z</time>
    </trkpt>
    <trkpt lat="48.451565" lon="2.735219">
      <ele>101.634</ele>
      <time>2016-09-18T10:28:14Z</time>
    </trkpt>
    <trkpt lat="48.451485" lon="2.735123">
      <ele>101.346</ele>
      <time>2016-09-18T10:28:17Z</time>
    </trkpt>
    <trkpt lat="48.451377" lon="2.735102">
      <ele>100.984</ele>
      <time>2016-09-18T10:28:21Z</time>
    </trkpt>
    <trkpt lat="48.451331" lon="2.735235">
      <ele>100.824</ele>
      <time>2016-09-18T10:28:25Z</time>
    </trkpt>
    <trkpt lat="48.451263" lon="2.735351">
      <ele>100.427</ele>
      <time>2016-09-18T10:28:28Z</time>
    </trkpt>
    <trkpt lat="48.451175" lon="2.735486">
      <ele>99.653</ele>
      <time>2016-09-18T10:28:32Z</time>
    </trkpt>
    <trkpt lat="48.45113" lon="2.735607">
      <ele>99.136</ele>
      <time>2016-09-18T10:28:35Z</time>
    </trkpt>
    <trkpt lat="48.451022" lon="2.735767">
      <ele>99.0</ele>
      <time>2016-09-18T10:28:37Z</time>
    </trkpt>
    <trkpt lat="48.450924" lon="2.735856">
      <ele>98.972</ele>
      <time>2016-09-18T10:28:40Z</time>
    </trkpt>
    <trkpt lat="48.45085" lon="2.735749">
      <ele>99.0</ele>
      <time>2016-09-18T10:28:42Z</time>
    </trkpt>
    <trkpt lat="48.450732" lon="2.73562">
      <ele>98.915</ele>
      <time>2016-09-18T10:28:45Z</time>
    </trkpt>
    <trkpt lat="48.450631" lon="2.735531">
      <ele>99.088</ele>
      <time>2016-09-18T10:28:47Z</time>
    </trkpt>
    <trkpt lat="48.450575" lon="2.735401">
      <ele>99.556</ele>
      <time>2016-09-18T10:28:51Z</time>
    </trkpt>
    <trkpt lat="48.450525" lon="2.735237">
      <ele>99.906</ele>
      <time>2016-09-18T10:28:55Z</time>
    </trkpt>
    <trkpt lat="48.450486" lon="2.735062">
      <ele>99.944</ele>
      <time>2016-09-18T10:28:59Z</time>
    </trkpt>
    <trkpt lat="48.450458" lon="2.734879">
      <ele>100.283</ele>
      <time>2016-09-18T10:29:02Z</time>
    </trkpt>
    <trkpt lat="48.450385" lon="2.734714">
      <ele>100.416</ele>
      <time>2016-09-18T10:29:05Z</time>
    </trkpt>
    <trkpt lat="48.45034" lon="2.734534">
      <ele>100.902</ele>
      <time>2016-09-18T10:29:08Z</time>
    </trkpt>
    <trkpt lat="48.450344" lon="2.734388">
      <ele>101.287</ele>
      <time>2016-09-18T10:29:11Z</time>
    </trkpt>
    <trkpt lat="48.450387" lon="2.734241">
      <ele>101.681</ele>
      <time>2016-09-18T10:29:14Z</time>
    </trkpt>
    <trkpt lat="48.450426" lon="2.734063">
      <ele>102.241</ele>
      <time>2016-09-18T10:29:16Z</time>
    </trkpt>
    <trkpt lat="48.450422" lon="2.733926">
      <ele>102.455</ele>
      <time>2016-09-18T10:29:19Z</time>
    </trkpt>
    <trkpt lat="48.450401" lon="2.733787">
      <ele>102.444</ele>
      <time>2016-09-18T10:29:23Z</time>
    </trkpt>
    <trkpt lat="48.450373" lon="2.733646">
      <ele>102.343</ele>
      <time>2016-09-18T10:29:26Z</time>
    </trkpt>
    <trkpt lat="48.45034" lon="2.733492">
      <ele>101.795</ele>
      <time>2016-09-18T10:29:29Z</time>
    </trkpt>
    <trkpt lat="48.450312" lon="2.733356">
      <ele>101.205</ele>
      <time>2016-09-18T10:29:31Z</time>
    </trkpt>
    <trkpt lat="48.45018" lon="2.733263">
      <ele>101.0</ele>
      <time>2016-09-18T10:29:33Z</time>
    </trkpt>
    <trkpt lat="48.450091" lon="2.733203">
      <ele>101.0</ele>
      <time>2016-09-18T10:29:36Z</time>
    </trkpt>
    <trkpt lat="48.45001" lon="2.733131">
      <ele>101.0</ele>
      <time>2016-09-18T10:29:40Z</time>
    </trkpt>
    <trkpt lat="48.449902" lon="2.733005">
      <ele>100.529</ele>
      <time>2016-09-18T10:29:43Z</time>
    </trkpt>
    <trkpt lat="48.449834" lon="2.732891">
      <ele>100.164</ele>
      <time>2016-09-18T10:29:45Z</time>
    </trkpt>
    <trkpt lat="48.449776" lon="2.732752">
      <ele>99.907</ele>
      <time>2016-09-18T10:29:48Z</time>
    </trkpt>
    <trkpt lat="48.449761" lon="2.732588">
      <ele>99.317</ele>
      <time>2016-09-18T10:29:51Z</time>
    </trkpt>
    <trkpt lat="48.449683" lon="2.732434">
      <ele>99.108</ele>
      <time>2016-09-18T10:29:54Z</time>
    </trkpt>
    <trkpt lat="48.44965" lon="2.732276">
      <ele>99.05</ele>
      <time>2016-09-18T10:29:56Z</time>
    </trkpt>
    <trkpt lat="48.449673" lon="2.732125">
      <ele>98.938</ele>
      <time>2016-09-18T10:29:59Z</time>
    </trkpt>
    <trkpt lat="48.44967" lon="2.731955">
      <ele>98.819</ele>
      <time>2016-09-18T10:30:01Z</time>
    </trkpt>
    <trkpt lat="48.449675" lon="2.731778">
      <ele>99.327</ele>
      <time>2016-09-18T10:30:04Z</time>
    </trkpt>
    <trkpt lat="48.449644" lon="2.73162">
      <ele>99.437</ele>
      <time>2016-09-18T10:30:07Z</time>
    </trkpt>
    <trkpt lat="48.44961" lon="2.731437">
      <ele>99.192</ele>
      <time>2016-09-18T10:30:10Z</time>
    </trkpt>
    <trkpt lat="48.449589" lon="2.731299">
      <ele>99.196</ele>
      <time>2016-09-18T10:30:13Z</time>
    </trkpt>
    <trkpt lat="48.449533" lon="2.731141">
      <ele>99.246</ele>
      <time>2016-09-18T10:30:16Z</time>
    </trkpt>
    <trkpt lat="48.449487" lon="2.731001">
      <ele>99.092</ele>
      <time>2016-09-18T10:30:18Z</time>
    </trkpt>
    <trkpt lat="48.449405" lon="2.730916">
      <ele>98.958</ele>
      <time>2016-09-18T10:30:20Z</time>
    </trkpt>
    <trkpt lat="48.449348" lon="2.730789">
      <ele>99.055</ele>
      <time>2016-09-18T10:30:22Z</time>
    </trkpt>
    <trkpt lat="48.449276" lon="2.730686">
      <ele>99.322</ele>
      <time>2016-09-18T10:30:24Z</time>
    </trkpt>
    <trkpt lat="48.449202" lon="2.730572">
      <ele>99.821</ele>
      <time>2016-09-18T10:30:26Z</time>
    </trkpt>
    <trkpt lat="48.44908" lon="2.730511">
      <ele>100.0</ele>
      <time>2016-09-18T10:30:29Z</time>
    </trkpt>
    <trkpt lat="48.448978" lon="2.730403">
      <ele>100.0</ele>
      <time>2016-09-18T10:30:32Z</time>
    </trkpt>
    <trkpt lat="48.448869" lon="2.730349">
      <ele>100.018</ele>
      <time>2016-09-18T10:30:35Z</time>
    </trkpt>
    <trkpt lat="48.4488" lon="2.730249">
      <ele>99.93</ele>
      <time>2016-09-18T10:30:38Z</time>
    </trkpt>
    <trkpt lat="48.448656" lon="2.730198">
      <ele>99.954</ele>
      <time>2016-09-18T10:30:42Z</time>
    </trkpt>
    <trkpt lat="48.448537" lon="2.730172">
      <ele>100.165</ele>
      <time>2016-09-18T10:30:45Z</time>
    </trkpt>
    <trkpt lat="48.448443" lon="2.730232">
      <ele>100.505</ele>
      <time>2016-09-18T10:30:49Z</time>
    </trkpt>
    <trkpt lat="48.448339" lon="2.730242">
      <ele>100.853</ele>
      <time>2016-09-18T10:30:51Z</time>
    </trkpt>
    <trkpt lat="48.448213" lon="2.730261">
      <ele>100.94</ele>
      <time>2016-09-18T10:30:54Z</time>
    </trkpt>
    <trkpt lat="48.44809" lon="2.73029">
      <ele>101.044</ele>
      <time>2016-09-18T10:30:57Z</time>
    </trkpt>
    <trkpt lat="48.447946" lon="2.730321">
      <ele>100.367</ele>
      <time>2016-09-18T10:31:00Z</time>
    </trkpt>
    <trkpt lat="48.447873" lon="2.730212">
      <ele>99.293</ele>
      <time>2016-09-18T10:31:03Z</time>
    </trkpt>
    <trkpt lat="48.447818" lon="2.730046">
      <ele>97.742</ele>
      <time>2016-09-18T10:31:08Z</time>
    </trkpt>
    <trkpt lat="48.447832" lon="2.729804">
      <ele>96.605</ele>
      <time>2016-09-18T10:31:12Z</time>
    </trkpt>
    <trkpt lat="48.447907" lon="2.729688">
      <ele>96.153</ele>
      <time>2016-09-18T10:31:15Z</time>
    </trkpt>
    <trkpt lat="48.447958" lon="2.729574">
      <ele>95.394</ele>
      <time>2016-09-18T10:31:17Z</time>
    </trkpt>
    <trkpt lat="48.448046" lon="2.729442">
      <ele>94.905</ele>
      <time>2016-09-18T10:31:20Z</time>
    </trkpt>
    <trkpt lat="48.448116" lon="2.729348">
      <ele>94.394</ele>
      <time>2016-09-18T10:31:22Z</time>
    </trkpt>
    <trkpt lat="48.448175" lon="2.729236">
      <ele>93.609</ele>
      <time>2016-09-18T10:31:24Z</time>
    </trkpt>
    <trkpt lat="48.448268" lon="2.729173">
      <ele>93.598</ele>
      <time>2016-09-18T10:31:26Z</time>
    </trkpt>
    <trkpt lat="48.448363" lon="2.729081">
      <ele>93.872</ele>
      <time>2016-09-18T10:31:29Z</time>
    </trkpt>
    <trkpt lat="48.448467" lon="2.72899">
      <ele>94.02</ele>
      <time>2016-09-18T10:31:32Z</time>
    </trkpt>
    <trkpt lat="48.448541" lon="2.728888">
      <ele>93.742</ele>
      <time>2016-09-18T10:31:34Z</time>
    </trkpt>
    <trkpt lat="48.448631" lon="2.728869">
      <ele>93.928</ele>
      <time>2016-09-18T10:31:36Z</time>
    </trkpt>
    <trkpt lat="48.448727" lon="2.728766">
      <ele>93.532</ele>
      <time>2016-09-18T10:31:38Z</time>
    </trkpt>
    <trkpt lat="48.448767" lon="2.728597">
      <ele>92.533</ele>
      <time>2016-09-18T10:31:41Z</time>
    </trkpt>
    <trkpt lat="48.44879" lon="2.728451">
      <ele>92.273</ele>
      <time>2016-09-18T10:31:44Z</time>
    </trkpt>
    <trkpt lat="48.448667" lon="2.728366">
      <ele>92.024</ele>
      <time>2016-09-18T10:31:47Z</time>
    </trkpt>
    <trkpt lat="48.448543" lon="2.728257">
      <ele>92.0</ele>
      <time>2016-09-18T10:31:50Z</time>
    </trkpt>
    <trkpt lat="48.448453" lon="2.728168">
      <ele>92.0</ele>
      <time>2016-09-18T10:31:54Z</time>
    </trkpt>
    <trkpt lat="48.448547" lon="2.728081">
      <ele>92.0</ele>
      <time>2016-09-18T10:32:07Z</time>
    </trkpt>
    <trkpt lat="48.448665" lon="2.727984">
      <ele>92.064</ele>
      <time>2016-09-18T10:32:10Z</time>
    </trkpt>
    <trkpt lat="48.44874" lon="2.727867">
      <ele>92.215</ele>
      <time>2016-09-18T10:32:14Z</time>
    </trkpt>
    <trkpt lat="48.448826" lon="2.727794">
      <ele>92.168</ele>
      <time>2016-09-18T10:32:17Z</time>
    </trkpt>
    <trkpt lat="48.448816" lon="2.727646">
      <ele>92.737</ele>
      <time>2016-09-18T10:32:22Z</time>
    </trkpt>
    <trkpt lat="48.448759" lon="2.727536">
      <ele>93.338</ele>
      <time>2016-09-18T10:32:26Z</time>
    </trkpt>
    <trkpt lat="48.448755" lon="2.727379">
      <ele>94.143</ele>
      <time>2016-09-18T10:32:30Z</time>
    </trkpt>
    <trkpt lat="48.448718" lon="2.727243">
      <ele>94.896</ele>
      <time>2016-09-18T10:32:33Z</time>
    </trkpt>
    <trkpt lat="48.448689" lon="2.727111">
      <ele>95.513</ele>
      <time>2016-09-18T10:32:36Z</time>
    </trkpt>
    <trkpt lat="48.448627" lon="2.727004">
      <ele>95.831</ele>
      <time>2016-09-18T10:32:39Z</time>
    </trkpt>
    <trkpt lat="48.448605" lon="2.726842">
      <ele>96.397</ele>
      <time>2016-09-18T10:32:42Z</time>
    </trkpt>
    <trkpt lat="48.448572" lon="2.726655">
      <ele>97.042</ele>
      <time>2016-09-18T10:32:45Z</time>
    </trkpt>
    <trkpt lat="48.448579" lon="2.726476">
      <ele>97.686</ele>
      <time>2016-09-18T10:32:48Z</time>
    </trkpt>
    <trkpt lat="48.448615" lon="2.726313">
      <ele>98.574</ele>
      <time>2016-09-18T10:32:51Z</time>
    </trkpt>
    <trkpt lat="48.448663" lon="2.72611">
      <ele>100.377</ele>
      <time>2016-09-18T10:32:53Z</time>
    </trkpt>
    <trkpt lat="48.448699" lon="2.725981">
      <ele>100.953</ele>
      <time>2016-09-18T10:32:56Z</time>
    </trkpt>
    <trkpt lat="48.44871" lon="2.725841">
      <ele>101.338</ele>
      <time>2016-09-18T10:32:58Z</time>
    </trkpt>
    <trkpt lat="48.448733" lon="2.725706">
      <ele>101.696</ele>
      <time>2016-09-18T10:33:02Z</time>
    </trkpt>
    <trkpt lat="48.448734" lon="2.72556">
      <ele>101.991</ele>
      <time>2016-09-18T10:33:05Z</time>
    </trkpt>
    <trkpt lat="48.448743" lon="2.725362">
      <ele>101.634</ele>
      <time>2016-09-18T10:33:08Z</time>
    </trkpt>
    <trkpt lat="48.448734" lon="2.725209">
      <ele>101.223</ele>
      <time>2016-09-18T10:33:11Z</time>
    </trkpt>
    <trkpt lat="48.44867" lon="2.725079">
      <ele>100.909</ele>
      <time>2016-09-18T10:33:15Z</time>
    </trkpt>
    <trkpt lat="48.448602" lon="2.72493">
      <ele>101.0</ele>
      <time>2016-09-18T10:33:18Z</time>
    </trkpt>
    <trkpt lat="48.448583" lon="2.724762">
      <ele>101.0</ele>
      <time>2016-09-18T10:33:21Z</time>
    </trkpt>
    <trkpt lat="48.448588" lon="2.724552">
      <ele>100.438</ele>
      <time>2016-09-18T10:33:26Z</time>
    </trkpt>
    <trkpt lat="48.448596" lon="2.724394">
      <ele>100.045</ele>
      <time>2016-09-18T10:33:29Z</time>
    </trkpt>
    <trkpt lat="48.448603" lon="2.724206">
      <ele>100.004</ele>
      <time>2016-09-18T10:33:32Z</time>
    </trkpt>
    <trkpt lat="48.448604" lon="2.72404">
      <ele>99.556</ele>
      <time>2016-09-18T10:33:35Z</time>
    </trkpt>
    <trkpt lat="48.448596" lon="2.723874">
      <ele>99.051</ele>
      <time>2016-09-18T10:33:37Z</time>
    </trkpt>
    <trkpt lat="48.448531" lon="2.723774">
      <ele>99.169</ele>
      <time>2016-09-18T10:33:39Z</time>
    </trkpt>
    <trkpt lat="48.448469" lon="2.723665">
      <ele>99.099</ele>
      <time>2016-09-18T10:33:41Z</time>
    </trkpt>
    <trkpt lat="48.448396" lon="2.723469">
      <ele>98.373</ele>
      <time>2016-09-18T10:33:43Z</time>
    </trkpt>
    <trkpt lat="48.448314" lon="2.723373">
      <ele>98.212</ele>
      <time>2016-09-18T10:33:46Z</time>
    </trkpt>
    <trkpt lat="48.44828" lon="2.723197">
      <ele>97.795</ele>
      <time>2016-09-18T10:33:48Z</time>
    </trkpt>
    <trkpt lat="48.448228" lon="2.723042">
      <ele>97.74</ele>
      <time>2016-09-18T10:33:52Z</time>
    </trkpt>
    <trkpt lat="48.448157" lon="2.72288">
      <ele>97.868</ele>
      <time>2016-09-18T10:33:55Z</time>
    </trkpt>
    <trkpt lat="48.448098" lon="2.722764">
      <ele>97.897</ele>
      <time>2016-09-18T10:33:59Z</time>
    </trkpt>
    <trkpt lat="48.448051" lon="2.722608">
      <ele>98.608</ele>
      <time>2016-09-18T10:34:13Z</time>
    </trkpt>
    <trkpt lat="48.448017" lon="2.722462">
      <ele>98.88</ele>
      <time>2016-09-18T10:34:17Z</time>
    </trkpt>
    <trkpt lat="48.447984" lon="2.722308">
      <ele>98.92</ele>
      <time>2016-09-18T10:34:19Z</time>
    </trkpt>
    <trkpt lat="48.447945" lon="2.722107">
      <ele>99.25</ele>
      <time>2016-09-18T10:34:23Z</time>
    </trkpt>
    <trkpt lat="48.447902" lon="2.721922">
      <ele>99.447</ele>
      <time>2016-09-18T10:34:27Z</time>
    </trkpt>
    <trkpt lat="48.447845" lon="2.721773">
      <ele>99.242</ele>
      <time>2016-09-18T10:34:30Z</time>
    </trkpt>
    <trkpt lat="48.447742" lon="2.721658">
      <ele>98.875</ele>
      <time>2016-09-18T10:34:35Z</time>
    </trkpt>
    <trkpt lat="48.447642" lon="2.721607">
      <ele>98.616</ele>
      <time>2016-09-18T10:34:38Z</time>
    </trkpt>
    <trkpt lat="48.447545" lon="2.72155">
      <ele>98.514</ele>
      <time>2016-09-18T10:34:41Z</time>
    </trkpt>
    <trkpt lat="48.44745" lon="2.721501">
      <ele>98.596</ele>
      <time>2016-09-18T10:34:43Z</time>
    </trkpt>
    <trkpt lat="48.447315" lon="2.721437">
      <ele>98.827</ele>
      <time>2016-09-18T10:34:47Z</time>
    </trkpt>
    <trkpt lat="48.447197" lon="2.721371">
      <ele>99.064</ele>
      <time>2016-09-18T10:34:50Z</time>
    </trkpt>
    <trkpt lat="48.447095" lon="2.721261">
      <ele>99.46</ele>
      <time>2016-09-18T10:34:53Z</time>
    </trkpt>
    <trkpt lat="48.44707" lon="2.721117">
      <ele>99.979</ele>
      <time>2016-09-18T10:34:58Z</time>
    </trkpt>
    <trkpt lat="48.447062" lon="2.720963">
      <ele>100.308</ele>
      <time>2016-09-18T10:35:02Z</time>
    </trkpt>
    <trkpt lat="48.447043" lon="2.720787">
      <ele>100.538</ele>
      <time>2016-09-18T10:35:07Z</time>
    </trkpt>
    <trkpt lat="48.447039" lon="2.720625">
      <ele>100.165</ele>
      <time>2016-09-18T10:35:10Z</time>
    </trkpt>
    <trkpt lat="48.447063" lon="2.72047">
      <ele>100.0</ele>
      <time>2016-09-18T10:35:13Z</time>
    </trkpt>
    <trkpt lat="48.447049" lon="2.720319">
      <ele>100.0</ele>
      <time>2016-09-18T10:35:16Z</time>
    </trkpt>
    <trkpt lat="48.447052" lon="2.720173">
      <ele>99.769</ele>
      <time>2016-09-18T10:35:19Z</time>
    </trkpt>
    <trkpt lat="48.447013" lon="2.719944">
      <ele>99.448</ele>
      <time>2016-09-18T10:35:23Z</time>
    </trkpt>
    <trkpt lat="48.447022" lon="2.719747">
      <ele>100.19</ele>
      <time>2016-09-18T10:35:26Z</time>
    </trkpt>
    <trkpt lat="48.447065" lon="2.719615">
      <ele>100.602</ele>
      <time>2016-09-18T10:35:42Z</time>
    </trkpt>
    <trkpt lat="48.447009" lon="2.719468">
      <ele>100.445</ele>
      <time>2016-09-18T10:35:45Z</time>
    </trkpt>
    <trkpt lat="48.446989" lon="2.719325">
      <ele>100.252</ele>
      <time>2016-09-18T10:35:48Z</time>
    </trkpt>
    <trkpt lat="48.446942" lon="2.719188">
      <ele>100.008</ele>
      <time>2016-09-18T10:35:51Z</time>
    </trkpt>
    <trkpt lat="48.446895" lon="2.718998">
      <ele>100.286</ele>
      <time>2016-09-18T10:35:55Z</time>
    </trkpt>
    <trkpt lat="48.446999" lon="2.718953">
      <ele>100.196</ele>
      <time>2016-09-18T10:36:00Z</time>
    </trkpt>
    <trkpt lat="48.447097" lon="2.718966">
      <ele>100.549</ele>
      <time>2016-09-18T10:36:03Z</time>
    </trkpt>
    <trkpt lat="48.447192" lon="2.719025">
      <ele>100.891</ele>
      <time>2016-09-18T10:36:06Z</time>
    </trkpt>
    <trkpt lat="48.447294" lon="2.71912">
      <ele>101.215</ele>
      <time>2016-09-18T10:36:11Z</time>
    </trkpt>
    <trkpt lat="48.447385" lon="2.719203">
      <ele>101.64</ele>
      <time>2016-09-18T10:36:13Z</time>
    </trkpt>
    <trkpt lat="48.447482" lon="2.719222">
      <ele>101.948</ele>
      <time>2016-09-18T10:36:17Z</time>
    </trkpt>
    <trkpt lat="48.447599" lon="2.719234">
      <ele>101.644</ele>
      <time>2016-09-18T10:36:20Z</time>
    </trkpt>
    <trkpt lat="48.447728" lon="2.719187">
      <ele>101.179</ele>
      <time>2016-09-18T10:36:23Z</time>
    </trkpt>
    <trkpt lat="48.447816" lon="2.719056">
      <ele>101.123</ele>
      <time>2016-09-18T10:36:27Z</time>
    </trkpt>
    <trkpt lat="48.447831" lon="2.718838">
      <ele>101.504</ele>
      <time>2016-09-18T10:36:32Z</time>
    </trkpt>
    <trkpt lat="48.447837" lon="2.718681">
      <ele>101.144</ele>
      <time>2016-09-18T10:36:34Z</time>
    </trkpt>
    <trkpt lat="48.447838" lon="2.718499">
      <ele>101.0</ele>
      <time>2016-09-18T10:36:37Z</time>
    </trkpt>
    <trkpt lat="48.447783" lon="2.718336">
      <ele>101.0</ele>
      <time>2016-09-18T10:36:41Z</time>
    </trkpt>
    <trkpt lat="48.447705" lon="2.718252">
      <ele>100.445</ele>
      <time>2016-09-18T10:36:46Z</time>
    </trkpt>
    <trkpt lat="48.447567" lon="2.718119">
      <ele>99.47</ele>
      <time>2016-09-18T10:36:50Z</time>
    </trkpt>
    <trkpt lat="48.44752" lon="2.717959">
      <ele>99.047</ele>
      <time>2016-09-18T10:36:55Z</time>
    </trkpt>
    <trkpt lat="48.447506" lon="2.717812">
      <ele>99.003</ele>
      <time>2016-09-18T10:36:58Z</time>
    </trkpt>
    <trkpt lat="48.447498" lon="2.717653">
      <ele>99.0</ele>
      <time>2016-09-18T10:37:01Z</time>
    </trkpt>
    <trkpt lat="48.447557" lon="2.717537">
      <ele>99.0</ele>
      <time>2016-09-18T10:37:06Z</time>
    </trkpt>
    <trkpt lat="48.447565" lon="2.717401">
      <ele>98.917</ele>
      <time>2016-09-18T10:37:09Z</time>
    </trkpt>
    <trkpt lat="48.447532" lon="2.717228">
      <ele>98.887</ele>
      <time>2016-09-18T10:37:13Z</time>
    </trkpt>
    <trkpt lat="48.447544" lon="2.717063">
      <ele>98.842</ele>
      <time>2016-09-18T10:37:16Z</time>
    </trkpt>
    <trkpt lat="48.447507" lon="2.716856">
      <ele>98.664</ele>
      <time>2016-09-18T10:37:20Z</time>
    </trkpt>
    <trkpt lat="48.44755" lon="2.716725">
      <ele>98.172</ele>
      <time>2016-09-18T10:37:22Z</time>
    </trkpt>
    <trkpt lat="48.447614" lon="2.716589">
      <ele>98.115</ele>
      <time>2016-09-18T10:37:25Z</time>
    </trkpt>
    <trkpt lat="48.447669" lon="2.716453">
      <ele>98.468</ele>
      <time>2016-09-18T10:37:30Z</time>
    </trkpt>
    <trkpt lat="48.447718" lon="2.716295">
      <ele>98.785</ele>
      <time>2016-09-18T10:37:34Z</time>
    </trkpt>
    <trkpt lat="48.447796" lon="2.716147">
      <ele>99.0</ele>
      <time>2016-09-18T10:37:37Z</time>
    </trkpt>
    <trkpt lat="48.447855" lon="2.716031">
      <ele>98.792</ele>
      <time>2016-09-18T10:37:39Z</time>
    </trkpt>
    <trkpt lat="48.447942" lon="2.715923">
      <ele>98.723</ele>
      <time>2016-09-18T10:37:41Z</time>
    </trkpt>
    <trkpt lat="48.447971" lon="2.715787">
      <ele>98.58</ele>
      <time>2016-09-18T10:37:45Z</time>
    </trkpt>
    <trkpt lat="48.448017" lon="2.715641">
      <ele>98.265</ele>
      <time>2016-09-18T10:37:48Z</time>
    </trkpt>
    <trkpt lat="48.448008" lon="2.71547">
      <ele>98.0</ele>
      <time>2016-09-18T10:37:52Z</time>
    </trkpt>
    <trkpt lat="48.448051" lon="2.715278">
      <ele>98.0</ele>
      <time>2016-09-18T10:37:56Z</time>
    </trkpt>
    <trkpt lat="48.448047" lon="2.715135">
      <ele>98.0</ele>
      <time>2016-09-18T10:37:59Z</time>
    </trkpt>
    <trkpt lat="48.448111" lon="2.714965">
      <ele>98.225</ele>
      <time>2016-09-18T10:38:02Z</time>
    </trkpt>
    <trkpt lat="48.448196" lon="2.714845">
      <ele>98.788</ele>
      <time>2016-09-18T10:38:04Z</time>
    </trkpt>
    <trkpt lat="48.448225" lon="2.714658">
      <ele>99.079</ele>
      <time>2016-09-18T10:38:08Z</time>
    </trkpt>
    <trkpt lat="48.448254" lon="2.714468">
      <ele>98.775</ele>
      <time>2016-09-18T10:38:11Z</time>
    </trkpt>
    <trkpt lat="48.448256" lon="2.71432">
      <ele>98.722</ele>
      <time>2016-09-18T10:38:14Z</time>
    </trkpt>
    <trkpt lat="48.448312" lon="2.714164">
      <ele>98.914</ele>
      <time>2016-09-18T10:38:16Z</time>
    </trkpt>
    <trkpt lat="48.448357" lon="2.713992">
      <ele>98.425</ele>
      <time>2016-09-18T10:38:18Z</time>
    </trkpt>
    <trkpt lat="48.448404" lon="2.713859">
      <ele>98.227</ele>
      <time>2016-09-18T10:38:21Z</time>
    </trkpt>
    <trkpt lat="48.448441" lon="2.7137">
      <ele>98.124</ele>
      <time>2016-09-18T10:38:24Z</time>
    </trkpt>
    <trkpt lat="48.448505" lon="2.713496">
      <ele>97.586</ele>
      <time>2016-09-18T10:38:26Z</time>
    </trkpt>
    <trkpt lat="48.448556" lon="2.713332">
      <ele>96.999</ele>
      <time>2016-09-18T10:38:28Z</time>
    </trkpt>
    <trkpt lat="48.448584" lon="2.713164">
      <ele>96.941</ele>
      <time>2016-09-18T10:38:32Z</time>
    </trkpt>
    <trkpt lat="48.448621" lon="2.713009">
      <ele>96.97</ele>
      <time>2016-09-18T10:38:34Z</time>
    </trkpt>
    <trkpt lat="48.448635" lon="2.712868">
      <ele>96.972</ele>
      <time>2016-09-18T10:38:36Z</time>
    </trkpt>
    <trkpt lat="48.448671" lon="2.712735">
      <ele>97.0</ele>
      <time>2016-09-18T10:38:39Z</time>
    </trkpt>
    <trkpt lat="48.448635" lon="2.712558">
      <ele>97.0</ele>
      <time>2016-09-18T10:38:45Z</time>
    </trkpt>
    <trkpt lat="48.448562" lon="2.712427">
      <ele>96.43</ele>
      <time>2016-09-18T10:38:49Z</time>
    </trkpt>
    <trkpt lat="48.448477" lon="2.712333">
      <ele>95.723</ele>
      <time>2016-09-18T10:38:52Z</time>
    </trkpt>
    <trkpt lat="48.448433" lon="2.712213">
      <ele>95.304</ele>
      <time>2016-09-18T10:38:55Z</time>
    </trkpt>
    <trkpt lat="48.448353" lon="2.712145">
      <ele>94.534</ele>
      <time>2016-09-18T10:38:57Z</time>
    </trkpt>
    <trkpt lat="48.448271" lon="2.712218">
      <ele>94.749</ele>
      <time>2016-09-18T10:39:01Z</time>
    </trkpt>
    <trkpt lat="48.448162" lon="2.712267">
      <ele>94.483</ele>
      <time>2016-09-18T10:39:05Z</time>
    </trkpt>
    <trkpt lat="48.448071" lon="2.712313">
      <ele>94.364</ele>
      <time>2016-09-18T10:39:08Z</time>
    </trkpt>
    <trkpt lat="48.447962" lon="2.712384">
      <ele>94.919</ele>
      <time>2016-09-18T10:39:11Z</time>
    </trkpt>
    <trkpt lat="48.447859" lon="2.712453">
      <ele>95.538</ele>
      <time>2016-09-18T10:39:14Z</time>
    </trkpt>
    <trkpt lat="48.447758" lon="2.71246">
      <ele>95.948</ele>
      <time>2016-09-18T10:39:17Z</time>
    </trkpt>
    <trkpt lat="48.447659" lon="2.712481">
      <ele>96.418</ele>
      <time>2016-09-18T10:39:20Z</time>
    </trkpt>
    <trkpt lat="48.447554" lon="2.712523">
      <ele>96.723</ele>
      <time>2016-09-18T10:39:23Z</time>
    </trkpt>
    <trkpt lat="48.447463" lon="2.712568">
      <ele>97.022</ele>
      <time>2016-09-18T10:39:27Z</time>
    </trkpt>
    <trkpt lat="48.447342" lon="2.712528">
      <ele>98.037</ele>
      <time>2016-09-18T10:39:31Z</time>
    </trkpt>
    <trkpt lat="48.447233" lon="2.712487">
      <ele>98.924</ele>
      <time>2016-09-18T10:39:33Z</time>
    </trkpt>
    <trkpt lat="48.447134" lon="2.712416">
      <ele>99.318</ele>
      <time>2016-09-18T10:39:36Z</time>
    </trkpt>
    <trkpt lat="48.447029" lon="2.712347">
      <ele>99.696</ele>
      <time>2016-09-18T10:39:38Z</time>
    </trkpt>
    <trkpt lat="48.446946" lon="2.712219">
      <ele>99.983</ele>
      <time>2016-09-18T10:39:40Z</time>
    </trkpt>
    <trkpt lat="48.446834" lon="2.712195">
      <ele>99.582</ele>
      <time>2016-09-18T10:39:47Z</time>
    </trkpt>
    <trkpt lat="48.446722" lon="2.712271">
      <ele>99.34</ele>
      <time>2016-09-18T10:39:51Z</time>
    </trkpt>
    <trkpt lat="48.446632" lon="2.712285">
      <ele>99.073</ele>
      <time>2016-09-18T10:39:55Z</time>
    </trkpt>
    <trkpt lat="48.44649" lon="2.712282">
      <ele>98.442</ele>
      <time>2016-09-18T10:39:59Z</time>
    </trkpt>
    <trkpt lat="48.446392" lon="2.712259">
      <ele>98.013</ele>
      <time>2016-09-18T10:40:01Z</time>
    </trkpt>
    <trkpt lat="48.446309" lon="2.712196">
      <ele>97.807</ele>
      <time>2016-09-18T10:40:03Z</time>
    </trkpt>
    <trkpt lat="48.446224" lon="2.712085">
      <ele>97.9</ele>
      <time>2016-09-18T10:40:07Z</time>
    </trkpt>
    <trkpt lat="48.446156" lon="2.711966">
      <ele>98.084</ele>
      <time>2016-09-18T10:40:11Z</time>
    </trkpt>
    <trkpt lat="48.446159" lon="2.711818">
      <ele>98.172</ele>
      <time>2016-09-18T10:40:13Z</time>
    </trkpt>
    <trkpt lat="48.44614" lon="2.711649">
      <ele>98.047</ele>
      <time>2016-09-18T10:40:18Z</time>
    </trkpt>
    <trkpt lat="48.446212" lon="2.711508">
      <ele>97.999</ele>
      <time>2016-09-18T10:40:21Z</time>
    </trkpt>
    <trkpt lat="48.446281" lon="2.711414">
      <ele>98.258</ele>
      <time>2016-09-18T10:40:25Z</time>
    </trkpt>
    <trkpt lat="48.446356" lon="2.711332">
      <ele>98.763</ele>
      <time>2016-09-18T10:40:30Z</time>
    </trkpt>
    <trkpt lat="48.44639" lon="2.711177">
      <ele>99.0</ele>
      <time>2016-09-18T10:40:35Z</time>
    </trkpt>
    <trkpt lat="48.44641" lon="2.711035">
      <ele>98.726</ele>
      <time>2016-09-18T10:40:38Z</time>
    </trkpt>
    <trkpt lat="48.446431" lon="2.710895">
      <ele>98.222</ele>
      <time>2016-09-18T10:40:40Z</time>
    </trkpt>
    <trkpt lat="48.446403" lon="2.710745">
      <ele>97.38</ele>
      <time>2016-09-18T10:40:42Z</time>
    </trkpt>
    <trkpt lat="48.446409" lon="2.710599">
      <ele>96.374</ele>
      <time>2016-09-18T10:40:44Z</time>
    </trkpt>
    <trkpt lat="48.446383" lon="2.710452">
      <ele>95.606</ele>
      <time>2016-09-18T10:40:48Z</time>
    </trkpt>
    <trkpt lat="48.446409" lon="2.710265">
      <ele>94.951</ele>
      <time>2016-09-18T10:40:51Z</time>
    </trkpt>
    <trkpt lat="48.446434" lon="2.710066">
      <ele>94.114</ele>
      <time>2016-09-18T10:40:53Z</time>
    </trkpt>
    <trkpt lat="48.44645" lon="2.709922">
      <ele>93.718</ele>
      <time>2016-09-18T10:40:58Z</time>
    </trkpt>
    <trkpt lat="48.446473" lon="2.709752">
      <ele>93.427</ele>
      <time>2016-09-18T10:41:01Z</time>
    </trkpt>
    <trkpt lat="48.446543" lon="2.709561">
      <ele>92.31</ele>
      <time>2016-09-18T10:41:04Z</time>
    </trkpt>
    <trkpt lat="48.446578" lon="2.709431">
      <ele>91.638</ele>
      <time>2016-09-18T10:41:07Z</time>
    </trkpt>
    <trkpt lat="48.446582" lon="2.709291">
      <ele>91.61</ele>
      <time>2016-09-18T10:41:09Z</time>
    </trkpt>
    <trkpt lat="48.446592" lon="2.70915">
      <ele>91.565</ele>
      <time>2016-09-18T10:41:13Z</time>
    </trkpt>
    <trkpt lat="48.446634" lon="2.708984">
      <ele>91.738</ele>
      <time>2016-09-18T10:41:16Z</time>
    </trkpt>
    <trkpt lat="48.446671" lon="2.708788">
      <ele>91.627</ele>
      <time>2016-09-18T10:41:20Z</time>
    </trkpt>
    <trkpt lat="48.446639" lon="2.708623">
      <ele>91.043</ele>
      <time>2016-09-18T10:41:23Z</time>
    </trkpt>
    <trkpt lat="48.446622" lon="2.708474">
      <ele>90.427</ele>
      <time>2016-09-18T10:41:25Z</time>
    </trkpt>
    <trkpt lat="48.446574" lon="2.708345">
      <ele>89.722</ele>
      <time>2016-09-18T10:41:29Z</time>
    </trkpt>
    <trkpt lat="48.446515" lon="2.708178">
      <ele>88.641</ele>
      <time>2016-09-18T10:41:32Z</time>
    </trkpt>
    <trkpt lat="48.446474" lon="2.70803">
      <ele>87.88</ele>
      <time>2016-09-18T10:41:35Z</time>
    </trkpt>
    <trkpt lat="48.446468" lon="2.707857">
      <ele>87.082</ele>
      <time>2016-09-18T10:41:39Z</time>
    </trkpt>
    <trkpt lat="48.446419" lon="2.707701">
      <ele>86.615</ele>
      <time>2016-09-18T10:41:42Z</time>
    </trkpt>
    <trkpt lat="48.446416" lon="2.707477">
      <ele>85.753</ele>
      <time>2016-09-18T10:41:47Z</time>
    </trkpt>
    <trkpt lat="48.446318" lon="2.707532">
      <ele>86.596</ele>
      <time>2016-09-18T10:41:49Z</time>
    </trkpt>
    <trkpt lat="48.446282" lon="2.707393">
      <ele>86.296</ele>
      <time>2016-09-18T10:41:54Z</time>
    </trkpt>
    <trkpt lat="48.446275" lon="2.70723">
      <ele>85.673</ele>
      <time>2016-09-18T10:41:58Z</time>
    </trkpt>
    <trkpt lat="48.446283" lon="2.707055">
      <ele>85.295</ele>
      <time>2016-09-18T10:42:01Z</time>
    </trkpt>
    <trkpt lat="48.446204" lon="2.706931">
      <ele>85.981</ele>
      <time>2016-09-18T10:42:04Z</time>
    </trkpt>
    <trkpt lat="48.446114" lon="2.706903">
      <ele>86.967</ele>
      <time>2016-09-18T10:42:07Z</time>
    </trkpt>
    <trkpt lat="48.446026" lon="2.706829">
      <ele>88.405</ele>
      <time>2016-09-18T10:42:11Z</time>
    </trkpt>
    <trkpt lat="48.44593" lon="2.706782">
      <ele>89.879</ele>
      <time>2016-09-18T10:42:14Z</time>
    </trkpt>
    <trkpt lat="48.445818" lon="2.706727">
      <ele>91.205</ele>
      <time>2016-09-18T10:42:17Z</time>
    </trkpt>
    <trkpt lat="48.445728" lon="2.706703">
      <ele>91.081</ele>
      <time>2016-09-18T10:42:19Z</time>
    </trkpt>
    <trkpt lat="48.445592" lon="2.706676">
      <ele>91.004</ele>
      <time>2016-09-18T10:42:22Z</time>
    </trkpt>
    <trkpt lat="48.445468" lon="2.706646">
      <ele>90.685</ele>
      <time>2016-09-18T10:42:25Z</time>
    </trkpt>
    <trkpt lat="48.445381" lon="2.706587">
      <ele>90.372</ele>
      <time>2016-09-18T10:42:27Z</time>
    </trkpt>
    <trkpt lat="48.445308" lon="2.706473">
      <ele>90.109</ele>
      <time>2016-09-18T10:42:30Z</time>
    </trkpt>
    <trkpt lat="48.445218" lon="2.706407">
      <ele>89.785</ele>
      <time>2016-09-18T10:42:32Z</time>
    </trkpt>
    <trkpt lat="48.445118" lon="2.706434">
      <ele>89.425</ele>
      <time>2016-09-18T10:42:34Z</time>
    </trkpt>
    <trkpt lat="48.444946" lon="2.706494">
      <ele>89.194</ele>
      <time>2016-09-18T10:42:38Z</time>
    </trkpt>
    <trkpt lat="48.444875" lon="2.706348">
      <ele>89.384</ele>
      <time>2016-09-18T10:42:41Z</time>
    </trkpt>
    <trkpt lat="48.444798" lon="2.706177">
      <ele>89.172</ele>
      <time>2016-09-18T10:42:44Z</time>
    </trkpt>
    <trkpt lat="48.444738" lon="2.706053">
      <ele>89.0</ele>
      <time>2016-09-18T10:42:46Z</time>
    </trkpt>
    <trkpt lat="48.444711" lon="2.705896">
      <ele>89.0</ele>
      <time>2016-09-18T10:42:49Z</time>
    </trkpt>
    <trkpt lat="48.444634" lon="2.705744">
      <ele>88.781</ele>
      <time>2016-09-18T10:42:52Z</time>
    </trkpt>
    <trkpt lat="48.444584" lon="2.705623">
      <ele>88.62</ele>
      <time>2016-09-18T10:42:54Z</time>
    </trkpt>
    <trkpt lat="48.444521" lon="2.705464">
      <ele>88.724</ele>
      <time>2016-09-18T10:42:57Z</time>
    </trkpt>
    <trkpt lat="48.44446" lon="2.705356">
      <ele>88.944</ele>
      <time>2016-09-18T10:43:00Z</time>
    </trkpt>
    <trkpt lat="48.444382" lon="2.705259">
      <ele>89.517</ele>
      <time>2016-09-18T10:43:02Z</time>
    </trkpt>
    <trkpt lat="48.444308" lon="2.705183">
      <ele>90.324</ele>
      <time>2016-09-18T10:43:04Z</time>
    </trkpt>
    <trkpt lat="48.44423" lon="2.705098">
      <ele>91.191</ele>
      <time>2016-09-18T10:43:06Z</time>
    </trkpt>
    <trkpt lat="48.444146" lon="2.705045">
      <ele>91.912</ele>
      <time>2016-09-18T10:43:08Z</time>
    </trkpt>
    <trkpt lat="48.444073" lon="2.704897">
      <ele>92.337</ele>
      <time>2016-09-18T10:43:11Z</time>
    </trkpt>
    <trkpt lat="48.443993" lon="2.704808">
      <ele>92.625</ele>
      <time>2016-09-18T10:43:13Z</time>
    </trkpt>
    <trkpt lat="48.443893" lon="2.704688">
      <ele>92.864</ele>
      <time>2016-09-18T10:43:16Z</time>
    </trkpt>
    <trkpt lat="48.443782" lon="2.704617">
      <ele>92.528</ele>
      <time>2016-09-18T10:43:19Z</time>
    </trkpt>
    <trkpt lat="48.443694" lon="2.704519">
      <ele>92.593</ele>
      <time>2016-09-18T10:43:22Z</time>
    </trkpt>
    <trkpt lat="48.443626" lon="2.704408">
      <ele>92.953</ele>
      <time>2016-09-18T10:43:24Z</time>
    </trkpt>
    <trkpt lat="48.443606" lon="2.704243">
      <ele>93.0</ele>
      <time>2016-09-18T10:43:28Z</time>
    </trkpt>
    <trkpt lat="48.443551" lon="2.704095">
      <ele>93.314</ele>
      <time>2016-09-18T10:43:30Z</time>
    </trkpt>
    <trkpt lat="48.443504" lon="2.703943">
      <ele>94.116</ele>
      <time>2016-09-18T10:43:33Z</time>
    </trkpt>
    <trkpt lat="48.443481" lon="2.703782">
      <ele>94.853</ele>
      <time>2016-09-18T10:43:37Z</time>
    </trkpt>
    <trkpt lat="48.443426" lon="2.703607">
      <ele>95.671</ele>
      <time>2016-09-18T10:43:40Z</time>
    </trkpt>
    <trkpt lat="48.443363" lon="2.703448">
      <ele>95.956</ele>
      <time>2016-09-18T10:43:42Z</time>
    </trkpt>
    <trkpt lat="48.443297" lon="2.703301">
      <ele>95.854</ele>
      <time>2016-09-18T10:43:44Z</time>
    </trkpt>
    <trkpt lat="48.443235" lon="2.703176">
      <ele>95.445</ele>
      <time>2016-09-18T10:43:48Z</time>
    </trkpt>
    <trkpt lat="48.443237" lon="2.702991">
      <ele>95.306</ele>
      <time>2016-09-18T10:43:52Z</time>
    </trkpt>
    <trkpt lat="48.443222" lon="2.702826">
      <ele>95.198</ele>
      <time>2016-09-18T10:43:55Z</time>
    </trkpt>
    <trkpt lat="48.443289" lon="2.702693">
      <ele>95.424</ele>
      <time>2016-09-18T10:43:59Z</time>
    </trkpt>
    <trkpt lat="48.443333" lon="2.702555">
      <ele>95.197</ele>
      <time>2016-09-18T10:44:02Z</time>
    </trkpt>
    <trkpt lat="48.443369" lon="2.702412">
      <ele>94.831</ele>
      <time>2016-09-18T10:44:06Z</time>
    </trkpt>
    <trkpt lat="48.443439" lon="2.702287">
      <ele>94.328</ele>
      <time>2016-09-18T10:44:09Z</time>
    </trkpt>
    <trkpt lat="48.443511" lon="2.702137">
      <ele>93.721</ele>
      <time>2016-09-18T10:44:12Z</time>
    </trkpt>
    <trkpt lat="48.443538" lon="2.701956">
      <ele>93.526</ele>
      <time>2016-09-18T10:44:15Z</time>
    </trkpt>
    <trkpt lat="48.443555" lon="2.701749">
      <ele>93.965</ele>
      <time>2016-09-18T10:44:18Z</time>
    </trkpt>
    <trkpt lat="48.443581" lon="2.701614">
      <ele>94.108</ele>
      <time>2016-09-18T10:44:20Z</time>
    </trkpt>
    <trkpt lat="48.443636" lon="2.701482">
      <ele>93.91</ele>
      <time>2016-09-18T10:44:22Z</time>
    </trkpt>
    <trkpt lat="48.443656" lon="2.701321">
      <ele>93.838</ele>
      <time>2016-09-18T10:44:25Z</time>
    </trkpt>
    <trkpt lat="48.443663" lon="2.701127">
      <ele>93.813</ele>
      <time>2016-09-18T10:44:28Z</time>
    </trkpt>
    <trkpt lat="48.443644" lon="2.700959">
      <ele>93.882</ele>
      <time>2016-09-18T10:44:31Z</time>
    </trkpt>
    <trkpt lat="48.443618" lon="2.700758">
      <ele>93.975</ele>
      <time>2016-09-18T10:44:34Z</time>
    </trkpt>
    <trkpt lat="48.443597" lon="2.700563">
      <ele>94.051</ele>
      <time>2016-09-18T10:44:39Z</time>
    </trkpt>
    <trkpt lat="48.443603" lon="2.700401">
      <ele>94.013</ele>
      <time>2016-09-18T10:44:43Z</time>
    </trkpt>
    <trkpt lat="48.443609" lon="2.700228">
      <ele>94.178</ele>
      <time>2016-09-18T10:44:46Z</time>
    </trkpt>
    <trkpt lat="48.443612" lon="2.700077">
      <ele>94.72</ele>
      <time>2016-09-18T10:44:48Z</time>
    </trkpt>
    <trkpt lat="48.44359" lon="2.699902">
      <ele>94.951</ele>
      <time>2016-09-18T10:44:51Z</time>
    </trkpt>
    <trkpt lat="48.443522" lon="2.699771">
      <ele>94.944</ele>
      <time>2016-09-18T10:44:54Z</time>
    </trkpt>
    <trkpt lat="48.443464" lon="2.69964">
      <ele>95.296</ele>
      <time>2016-09-18T10:44:56Z</time>
    </trkpt>
    <trkpt lat="48.44341" lon="2.699521">
      <ele>95.724</ele>
      <time>2016-09-18T10:44:58Z</time>
    </trkpt>
    <trkpt lat="48.443375" lon="2.699377">
      <ele>96.0</ele>
      <time>2016-09-18T10:45:01Z</time>
    </trkpt>
    <trkpt lat="48.443323" lon="2.69922">
      <ele>95.963</ele>
      <time>2016-09-18T10:45:04Z</time>
    </trkpt>
    <trkpt lat="48.44328" lon="2.699068">
      <ele>95.808</ele>
      <time>2016-09-18T10:45:07Z</time>
    </trkpt>
    <trkpt lat="48.443202" lon="2.698982">
      <ele>95.527</ele>
      <time>2016-09-18T10:45:09Z</time>
    </trkpt>
    <trkpt lat="48.443127" lon="2.698869">
      <ele>95.31</ele>
      <time>2016-09-18T10:45:12Z</time>
    </trkpt>
    <trkpt lat="48.44303" lon="2.698699">
      <ele>95.805</ele>
      <time>2016-09-18T10:45:15Z</time>
    </trkpt>
    <trkpt lat="48.442982" lon="2.698529">
      <ele>96.778</ele>
      <time>2016-09-18T10:45:17Z</time>
    </trkpt>
    <trkpt lat="48.442958" lon="2.698363">
      <ele>97.824</ele>
      <time>2016-09-18T10:45:19Z</time>
    </trkpt>
    <trkpt lat="48.44301" lon="2.698183">
      <ele>98.994</ele>
      <time>2016-09-18T10:45:22Z</time>
    </trkpt>
    <trkpt lat="48.44306" lon="2.697975">
      <ele>100.559</ele>
      <time>2016-09-18T10:45:25Z</time>
    </trkpt>
    <trkpt lat="48.442981" lon="2.697904">
      <ele>100.823</ele>
      <time>2016-09-18T10:45:28Z</time>
    </trkpt>
    <trkpt lat="48.442842" lon="2.697875">
      <ele>100.531</ele>
      <time>2016-09-18T10:45:31Z</time>
    </trkpt>
    <trkpt lat="48.442738" lon="2.697905">
      <ele>99.863</ele>
      <time>2016-09-18T10:45:34Z</time>
    </trkpt>
    <trkpt lat="48.44263" lon="2.697926">
      <ele>99.153</ele>
      <time>2016-09-18T10:45:37Z</time>
    </trkpt>
    <trkpt lat="48.442526" lon="2.697939">
      <ele>98.552</ele>
      <time>2016-09-18T10:45:40Z</time>
    </trkpt>
    <trkpt lat="48.442411" lon="2.697951">
      <ele>98.056</ele>
      <time>2016-09-18T10:45:44Z</time>
    </trkpt>
    <trkpt lat="48.442312" lon="2.697953">
      <ele>97.692</ele>
      <time>2016-09-18T10:45:46Z</time>
    </trkpt>
    <trkpt lat="48.442179" lon="2.697968">
      <ele>97.16</ele>
      <time>2016-09-18T10:45:49Z</time>
    </trkpt>
    <trkpt lat="48.442068" lon="2.697965">
      <ele>96.771</ele>
      <time>2016-09-18T10:45:52Z</time>
    </trkpt>
    <trkpt lat="48.441982" lon="2.697865">
      <ele>96.821</ele>
      <time>2016-09-18T10:45:55Z</time>
    </trkpt>
    <trkpt lat="48.441923" lon="2.697717">
      <ele>96.97</ele>
      <time>2016-09-18T10:45:58Z</time>
    </trkpt>
    <trkpt lat="48.441875" lon="2.697586">
      <ele>96.768</ele>
      <time>2016-09-18T10:46:01Z</time>
    </trkpt>
    <trkpt lat="48.441825" lon="2.69747">
      <ele>96.295</ele>
      <time>2016-09-18T10:46:04Z</time>
    </trkpt>
    <trkpt lat="48.44177" lon="2.697318">
      <ele>95.32</ele>
      <time>2016-09-18T10:46:07Z</time>
    </trkpt>
    <trkpt lat="48.441719" lon="2.697197">
      <ele>94.204</ele>
      <time>2016-09-18T10:46:10Z</time>
    </trkpt>
    <trkpt lat="48.441677" lon="2.697034">
      <ele>93.876</ele>
      <time>2016-09-18T10:46:12Z</time>
    </trkpt>
    <trkpt lat="48.441634" lon="2.696836">
      <ele>93.693</ele>
      <time>2016-09-18T10:46:15Z</time>
    </trkpt>
    <trkpt lat="48.441587" lon="2.696681">
      <ele>93.412</ele>
      <time>2016-09-18T10:46:17Z</time>
    </trkpt>
    <trkpt lat="48.441554" lon="2.69652">
      <ele>93.189</ele>
      <time>2016-09-18T10:46:19Z</time>
    </trkpt>
    <trkpt lat="48.441509" lon="2.696331">
      <ele>92.955</ele>
      <time>2016-09-18T10:46:22Z</time>
    </trkpt>
    <trkpt lat="48.44144" lon="2.696167">
      <ele>92.515</ele>
      <time>2016-09-18T10:46:25Z</time>
    </trkpt>
    <trkpt lat="48.441402" lon="2.696043">
      <ele>92.153</ele>
      <time>2016-09-18T10:46:27Z</time>
    </trkpt>
    <trkpt lat="48.441359" lon="2.6959">
      <ele>91.677</ele>
      <time>2016-09-18T10:46:29Z</time>
    </trkpt>
    <trkpt lat="48.441294" lon="2.695739">
      <ele>90.975</ele>
      <time>2016-09-18T10:46:32Z</time>
    </trkpt>
    <trkpt lat="48.44126" lon="2.695597">
      <ele>90.608</ele>
      <time>2016-09-18T10:46:34Z</time>
    </trkpt>
    <trkpt lat="48.441223" lon="2.695472">
      <ele>90.388</ele>
      <time>2016-09-18T10:46:36Z</time>
    </trkpt>
    <trkpt lat="48.441185" lon="2.69529">
      <ele>90.5</ele>
      <time>2016-09-18T10:46:39Z</time>
    </trkpt>
    <trkpt lat="48.441143" lon="2.695161">
      <ele>90.602</ele>
      <time>2016-09-18T10:46:41Z</time>
    </trkpt>
    <trkpt lat="48.441106" lon="2.695011">
      <ele>90.96</ele>
      <time>2016-09-18T10:46:43Z</time>
    </trkpt>
    <trkpt lat="48.44105" lon="2.694883">
      <ele>91.421</ele>
      <time>2016-09-18T10:46:45Z</time>
    </trkpt>
    <trkpt lat="48.440997" lon="2.694718">
      <ele>91.991</ele>
      <time>2016-09-18T10:46:47Z</time>
    </trkpt>
    <trkpt lat="48.440957" lon="2.694566">
      <ele>91.75</ele>
      <time>2016-09-18T10:46:50Z</time>
    </trkpt>
    <trkpt lat="48.440882" lon="2.694399">
      <ele>91.825</ele>
      <time>2016-09-18T10:46:53Z</time>
    </trkpt>
    <trkpt lat="48.440837" lon="2.694273">
      <ele>91.987</ele>
      <time>2016-09-18T10:46:55Z</time>
    </trkpt>
    <trkpt lat="48.440782" lon="2.694161">
      <ele>92.004</ele>
      <time>2016-09-18T10:46:57Z</time>
    </trkpt>
    <trkpt lat="48.440724" lon="2.694003">
      <ele>92.232</ele>
      <time>2016-09-18T10:47:01Z</time>
    </trkpt>
    <trkpt lat="48.440694" lon="2.693842">
      <ele>92.502</ele>
      <time>2016-09-18T10:47:03Z</time>
    </trkpt>
    <trkpt lat="48.440678" lon="2.693674">
      <ele>92.559</ele>
      <time>2016-09-18T10:47:06Z</time>
    </trkpt>
    <trkpt lat="48.440625" lon="2.693528">
      <ele>92.75</ele>
      <time>2016-09-18T10:47:09Z</time>
    </trkpt>
    <trkpt lat="48.440583" lon="2.693347">
      <ele>92.901</ele>
      <time>2016-09-18T10:47:12Z</time>
    </trkpt>
    <trkpt lat="48.440538" lon="2.693195">
      <ele>92.66</ele>
      <time>2016-09-18T10:47:15Z</time>
    </trkpt>
    <trkpt lat="48.440487" lon="2.693054">
      <ele>92.731</ele>
      <time>2016-09-18T10:47:18Z</time>
    </trkpt>
    <trkpt lat="48.440438" lon="2.692932">
      <ele>92.568</ele>
      <time>2016-09-18T10:47:21Z</time>
    </trkpt>
    <trkpt lat="48.440411" lon="2.6928">
      <ele>92.2</ele>
      <time>2016-09-18T10:47:26Z</time>
    </trkpt>
    <trkpt lat="48.440361" lon="2.692652">
      <ele>91.443</ele>
      <time>2016-09-18T10:48:07Z</time>
    </trkpt>
    <trkpt lat="48.440326" lon="2.692516">
      <ele>90.478</ele>
      <time>2016-09-18T10:48:10Z</time>
    </trkpt>
    <trkpt lat="48.4403" lon="2.692367">
      <ele>89.722</ele>
      <time>2016-09-18T10:48:12Z</time>
    </trkpt>
    <trkpt lat="48.440256" lon="2.692238">
      <ele>89.441</ele>
      <time>2016-09-18T10:48:14Z</time>
    </trkpt>
    <trkpt lat="48.44019" lon="2.692116">
      <ele>89.137</ele>
      <time>2016-09-18T10:48:17Z</time>
    </trkpt>
    <trkpt lat="48.440169" lon="2.691969">
      <ele>87.672</ele>
      <time>2016-09-18T10:48:19Z</time>
    </trkpt>
    <trkpt lat="48.440114" lon="2.69179">
      <ele>86.478</ele>
      <time>2016-09-18T10:48:22Z</time>
    </trkpt>
    <trkpt lat="48.440068" lon="2.691654">
      <ele>85.721</ele>
      <time>2016-09-18T10:48:24Z</time>
    </trkpt>
    <trkpt lat="48.440022" lon="2.691534">
      <ele>85.481</ele>
      <time>2016-09-18T10:48:26Z</time>
    </trkpt>
    <trkpt lat="48.439984" lon="2.691407">
      <ele>85.123</ele>
      <time>2016-09-18T10:48:28Z</time>
    </trkpt>
    <trkpt lat="48.439941" lon="2.691268">
      <ele>85.212</ele>
      <time>2016-09-18T10:48:30Z</time>
    </trkpt>
    <trkpt lat="48.439909" lon="2.69114">
      <ele>85.328</ele>
      <time>2016-09-18T10:48:32Z</time>
    </trkpt>
    <trkpt lat="48.439868" lon="2.691019">
      <ele>85.318</ele>
      <time>2016-09-18T10:48:34Z</time>
    </trkpt>
    <trkpt lat="48.439825" lon="2.690892">
      <ele>85.133</ele>
      <time>2016-09-18T10:48:36Z</time>
    </trkpt>
    <trkpt lat="48.439777" lon="2.690774">
      <ele>85.214</ele>
      <time>2016-09-18T10:48:38Z</time>
    </trkpt>
    <trkpt lat="48.439717" lon="2.690615">
      <ele>85.79</ele>
      <time>2016-09-18T10:48:42Z</time>
    </trkpt>
    <trkpt lat="48.43969" lon="2.690459">
      <ele>86.307</ele>
      <time>2016-09-18T10:48:45Z</time>
    </trkpt>
    <trkpt lat="48.439751" lon="2.690329">
      <ele>86.816</ele>
      <time>2016-09-18T10:48:49Z</time>
    </trkpt>
    <trkpt lat="48.439865" lon="2.690303">
      <ele>86.909</ele>
      <time>2016-09-18T10:48:53Z</time>
    </trkpt>
    <trkpt lat="48.43999" lon="2.690259">
      <ele>87.068</ele>
      <time>2016-09-18T10:48:56Z</time>
    </trkpt>
    <trkpt lat="48.440086" lon="2.690228">
      <ele>86.814</ele>
      <time>2016-09-18T10:48:58Z</time>
    </trkpt>
    <trkpt lat="48.440198" lon="2.690199">
      <ele>86.369</ele>
      <time>2016-09-18T10:49:00Z</time>
    </trkpt>
    <trkpt lat="48.440288" lon="2.690181">
      <ele>85.963</ele>
      <time>2016-09-18T10:49:02Z</time>
    </trkpt>
    <trkpt lat="48.440389" lon="2.690165">
      <ele>85.6</ele>
      <time>2016-09-18T10:49:04Z</time>
    </trkpt>
    <trkpt lat="48.440488" lon="2.690146">
      <ele>85.243</ele>
      <time>2016-09-18T10:49:06Z</time>
    </trkpt>
    <trkpt lat="48.440615" lon="2.690104">
      <ele>85.134</ele>
      <time>2016-09-18T10:49:09Z</time>
    </trkpt>
    <trkpt lat="48.440699" lon="2.690058">
      <ele>85.409</ele>
      <time>2016-09-18T10:49:11Z</time>
    </trkpt>
    <trkpt lat="48.440843" lon="2.69003">
      <ele>85.892</ele>
      <time>2016-09-18T10:49:13Z</time>
    </trkpt>
    <trkpt lat="48.440961" lon="2.689974">
      <ele>86.094</ele>
      <time>2016-09-18T10:49:15Z</time>
    </trkpt>
    <trkpt lat="48.441072" lon="2.68996">
      <ele>86.144</ele>
      <time>2016-09-18T10:49:17Z</time>
    </trkpt>
    <trkpt lat="48.441172" lon="2.689932">
      <ele>86.191</ele>
      <time>2016-09-18T10:49:19Z</time>
    </trkpt>
    <trkpt lat="48.441252" lon="2.689791">
      <ele>86.371</ele>
      <time>2016-09-18T10:49:22Z</time>
    </trkpt>
    <trkpt lat="48.441264" lon="2.689614">
      <ele>86.839</ele>
      <time>2016-09-18T10:49:24Z</time>
    </trkpt>
    <trkpt lat="48.44126" lon="2.689466">
      <ele>87.386</ele>
      <time>2016-09-18T10:49:26Z</time>
    </trkpt>
    <trkpt lat="48.441221" lon="2.689279">
      <ele>88.436</ele>
      <time>2016-09-18T10:49:29Z</time>
    </trkpt>
    <trkpt lat="48.441201" lon="2.689121">
      <ele>89.276</ele>
      <time>2016-09-18T10:49:32Z</time>
    </trkpt>
    <trkpt lat="48.441237" lon="2.688993">
      <ele>89.967</ele>
      <time>2016-09-18T10:49:34Z</time>
    </trkpt>
    <trkpt lat="48.441268" lon="2.688806">
      <ele>90.902</ele>
      <time>2016-09-18T10:49:37Z</time>
    </trkpt>
    <trkpt lat="48.44135" lon="2.688643">
      <ele>91.786</ele>
      <time>2016-09-18T10:49:40Z</time>
    </trkpt>
    <trkpt lat="48.441444" lon="2.688632">
      <ele>91.85</ele>
      <time>2016-09-18T10:49:42Z</time>
    </trkpt>
    <trkpt lat="48.44153" lon="2.688586">
      <ele>92.09</ele>
      <time>2016-09-18T10:49:44Z</time>
    </trkpt>
    <trkpt lat="48.441618" lon="2.688515">
      <ele>92.346</ele>
      <time>2016-09-18T10:49:46Z</time>
    </trkpt>
    <trkpt lat="48.441728" lon="2.688437">
      <ele>92.324</ele>
      <time>2016-09-18T10:49:49Z</time>
    </trkpt>
    <trkpt lat="48.441813" lon="2.68828">
      <ele>92.766</ele>
      <time>2016-09-18T10:49:52Z</time>
    </trkpt>
    <trkpt lat="48.441852" lon="2.688131">
      <ele>93.547</ele>
      <time>2016-09-18T10:49:55Z</time>
    </trkpt>
    <trkpt lat="48.441869" lon="2.687952">
      <ele>94.474</ele>
      <time>2016-09-18T10:49:58Z</time>
    </trkpt>
    <trkpt lat="48.4419" lon="2.687777">
      <ele>95.163</ele>
      <time>2016-09-18T10:50:02Z</time>
    </trkpt>
    <trkpt lat="48.441928" lon="2.68763">
      <ele>95.623</ele>
      <time>2016-09-18T10:50:05Z</time>
    </trkpt>
    <trkpt lat="48.441969" lon="2.687457">
      <ele>96.208</ele>
      <time>2016-09-18T10:50:08Z</time>
    </trkpt>
    <trkpt lat="48.442012" lon="2.687302">
      <ele>97.009</ele>
      <time>2016-09-18T10:50:11Z</time>
    </trkpt>
    <trkpt lat="48.442038" lon="2.687152">
      <ele>97.832</ele>
      <time>2016-09-18T10:50:14Z</time>
    </trkpt>
    <trkpt lat="48.442077" lon="2.687013">
      <ele>98.552</ele>
      <time>2016-09-18T10:50:17Z</time>
    </trkpt>
    <trkpt lat="48.442127" lon="2.68683">
      <ele>99.239</ele>
      <time>2016-09-18T10:50:20Z</time>
    </trkpt>
    <trkpt lat="48.44213" lon="2.686685">
      <ele>99.908</ele>
      <time>2016-09-18T10:50:23Z</time>
    </trkpt>
    <trkpt lat="48.442115" lon="2.686529">
      <ele>100.462</ele>
      <time>2016-09-18T10:50:26Z</time>
    </trkpt>
    <trkpt lat="48.442128" lon="2.686357">
      <ele>100.678</ele>
      <time>2016-09-18T10:50:29Z</time>
    </trkpt>
    <trkpt lat="48.442168" lon="2.686209">
      <ele>100.39</ele>
      <time>2016-09-18T10:50:32Z</time>
    </trkpt>
    <trkpt lat="48.442192" lon="2.686056">
      <ele>100.218</ele>
      <time>2016-09-18T10:50:35Z</time>
    </trkpt>
    <trkpt lat="48.442248" lon="2.685931">
      <ele>99.967</ele>
      <time>2016-09-18T10:50:38Z</time>
    </trkpt>
    <trkpt lat="48.442349" lon="2.685836">
      <ele>99.996</ele>
      <time>2016-09-18T10:50:42Z</time>
    </trkpt>
    <trkpt lat="48.442451" lon="2.685743">
      <ele>100.383</ele>
      <time>2016-09-18T10:50:46Z</time>
    </trkpt>
    <trkpt lat="48.442548" lon="2.685626">
      <ele>100.357</ele>
      <time>2016-09-18T10:50:49Z</time>
    </trkpt>
    <trkpt lat="48.4426" lon="2.68551">
      <ele>100.503</ele>
      <time>2016-09-18T10:50:52Z</time>
    </trkpt>
    <trkpt lat="48.442675" lon="2.685418">
      <ele>100.547</ele>
      <time>2016-09-18T10:50:56Z</time>
    </trkpt>
    <trkpt lat="48.442776" lon="2.685296">
      <ele>100.876</ele>
      <time>2016-09-18T10:51:00Z</time>
    </trkpt>
    <trkpt lat="48.442872" lon="2.685225">
      <ele>100.702</ele>
      <time>2016-09-18T10:51:03Z</time>
    </trkpt>
    <trkpt lat="48.442967" lon="2.68523">
      <ele>99.982</ele>
      <time>2016-09-18T10:51:05Z</time>
    </trkpt>
    <trkpt lat="48.443103" lon="2.685324">
      <ele>98.188</ele>
      <time>2016-09-18T10:51:07Z</time>
    </trkpt>
    <trkpt lat="48.443221" lon="2.685305">
      <ele>97.573</ele>
      <time>2016-09-18T10:51:09Z</time>
    </trkpt>
    <trkpt lat="48.443308" lon="2.68527">
      <ele>97.213</ele>
      <time>2016-09-18T10:51:11Z</time>
    </trkpt>
    <trkpt lat="48.443367" lon="2.68539">
      <ele>96.071</ele>
      <time>2016-09-18T10:51:15Z</time>
    </trkpt>
    <trkpt lat="48.443474" lon="2.685401">
      <ele>95.606</ele>
      <time>2016-09-18T10:51:19Z</time>
    </trkpt>
    <trkpt lat="48.443596" lon="2.68543">
      <ele>94.958</ele>
      <time>2016-09-18T10:51:23Z</time>
    </trkpt>
    <trkpt lat="48.44369" lon="2.685442">
      <ele>94.869</ele>
      <time>2016-09-18T10:51:26Z</time>
    </trkpt>
    <trkpt lat="48.443779" lon="2.685477">
      <ele>94.828</ele>
      <time>2016-09-18T10:51:31Z</time>
    </trkpt>
    <trkpt lat="48.443886" lon="2.685443">
      <ele>94.998</ele>
      <time>2016-09-18T10:51:34Z</time>
    </trkpt>
    <trkpt lat="48.443974" lon="2.685337">
      <ele>95.919</ele>
      <time>2016-09-18T10:51:38Z</time>
    </trkpt>
    <trkpt lat="48.444" lon="2.685206">
      <ele>96.613</ele>
      <time>2016-09-18T10:51:42Z</time>
    </trkpt>
    <trkpt lat="48.444098" lon="2.685168">
      <ele>97.751</ele>
      <time>2016-09-18T10:51:45Z</time>
    </trkpt>
    <trkpt lat="48.444209" lon="2.68509">
      <ele>98.981</ele>
      <time>2016-09-18T10:51:47Z</time>
    </trkpt>
    <trkpt lat="48.444328" lon="2.685101">
      <ele>99.798</ele>
      <time>2016-09-18T10:51:49Z</time>
    </trkpt>
    <trkpt lat="48.444421" lon="2.685153">
      <ele>100.28</ele>
      <time>2016-09-18T10:51:56Z</time>
    </trkpt>
    <trkpt lat="48.444536" lon="2.68512">
      <ele>100.755</ele>
      <time>2016-09-18T10:52:03Z</time>
    </trkpt>
    <trkpt lat="48.444632" lon="2.685184">
      <ele>100.566</ele>
      <time>2016-09-18T10:52:06Z</time>
    </trkpt>
    <trkpt lat="48.444754" lon="2.685216">
      <ele>100.445</ele>
      <time>2016-09-18T10:52:13Z</time>
    </trkpt>
    <trkpt lat="48.444847" lon="2.685275">
      <ele>100.02</ele>
      <time>2016-09-18T10:52:15Z</time>
    </trkpt>
    <trkpt lat="48.444933" lon="2.685343">
      <ele>99.765</ele>
      <time>2016-09-18T10:52:18Z</time>
    </trkpt>
    <trkpt lat="48.44503" lon="2.685447">
      <ele>99.259</ele>
      <time>2016-09-18T10:52:21Z</time>
    </trkpt>
    <trkpt lat="48.44511" lon="2.685583">
      <ele>98.05</ele>
      <time>2016-09-18T10:52:24Z</time>
    </trkpt>
    <trkpt lat="48.445191" lon="2.685672">
      <ele>97.075</ele>
      <time>2016-09-18T10:52:26Z</time>
    </trkpt>
    <trkpt lat="48.445288" lon="2.685761">
      <ele>96.233</ele>
      <time>2016-09-18T10:52:28Z</time>
    </trkpt>
    <trkpt lat="48.445406" lon="2.685863">
      <ele>95.432</ele>
      <time>2016-09-18T10:52:30Z</time>
    </trkpt>
    <trkpt lat="48.445509" lon="2.68595">
      <ele>94.748</ele>
      <time>2016-09-18T10:52:32Z</time>
    </trkpt>
    <trkpt lat="48.445596" lon="2.686063">
      <ele>94.319</ele>
      <time>2016-09-18T10:52:34Z</time>
    </trkpt>
    <trkpt lat="48.445698" lon="2.686197">
      <ele>94.204</ele>
      <time>2016-09-18T10:52:36Z</time>
    </trkpt>
    <trkpt lat="48.445803" lon="2.686279">
      <ele>94.286</ele>
      <time>2016-09-18T10:52:39Z</time>
    </trkpt>
    <trkpt lat="48.445908" lon="2.686334">
      <ele>94.735</ele>
      <time>2016-09-18T10:52:42Z</time>
    </trkpt>
    <trkpt lat="48.446011" lon="2.686433">
      <ele>95.279</ele>
      <time>2016-09-18T10:52:45Z</time>
    </trkpt>
    <trkpt lat="48.446108" lon="2.686571">
      <ele>95.978</ele>
      <time>2016-09-18T10:52:47Z</time>
    </trkpt>
    <trkpt lat="48.446226" lon="2.686656">
      <ele>96.843</ele>
      <time>2016-09-18T10:52:50Z</time>
    </trkpt>
    <trkpt lat="48.446324" lon="2.686713">
      <ele>97.405</ele>
      <time>2016-09-18T10:52:52Z</time>
    </trkpt>
    <trkpt lat="48.446413" lon="2.686823">
      <ele>97.562</ele>
      <time>2016-09-18T10:52:54Z</time>
    </trkpt>
    <trkpt lat="48.44653" lon="2.686934">
      <ele>97.565</ele>
      <time>2016-09-18T10:52:57Z</time>
    </trkpt>
    <trkpt lat="48.446601" lon="2.68706">
      <ele>97.348</ele>
      <time>2016-09-18T10:52:59Z</time>
    </trkpt>
    <trkpt lat="48.446706" lon="2.68717">
      <ele>97.471</ele>
      <time>2016-09-18T10:53:01Z</time>
    </trkpt>
    <trkpt lat="48.446818" lon="2.687259">
      <ele>97.885</ele>
      <time>2016-09-18T10:53:03Z</time>
    </trkpt>
    <trkpt lat="48.446932" lon="2.687355">
      <ele>97.976</ele>
      <time>2016-09-18T10:53:05Z</time>
    </trkpt>
    <trkpt lat="48.447075" lon="2.687572">
      <ele>96.708</ele>
      <time>2016-09-18T10:53:08Z</time>
    </trkpt>
    <trkpt lat="48.447186" lon="2.68759">
      <ele>96.658</ele>
      <time>2016-09-18T10:53:11Z</time>
    </trkpt>
    <trkpt lat="48.447265" lon="2.687659">
      <ele>95.71</ele>
      <time>2016-09-18T10:53:12Z</time>
    </trkpt>
    <trkpt lat="48.447351" lon="2.687747">
      <ele>94.443</ele>
      <time>2016-09-18T10:53:14Z</time>
    </trkpt>
    <trkpt lat="48.447441" lon="2.687856">
      <ele>93.155</ele>
      <time>2016-09-18T10:53:16Z</time>
    </trkpt>
    <trkpt lat="48.44753" lon="2.687984">
      <ele>91.961</ele>
      <time>2016-09-18T10:53:18Z</time>
    </trkpt>
    <trkpt lat="48.447652" lon="2.68795">
      <ele>93.026</ele>
      <time>2016-09-18T10:53:21Z</time>
    </trkpt>
    <trkpt lat="48.447763" lon="2.687915">
      <ele>93.933</ele>
      <time>2016-09-18T10:53:24Z</time>
    </trkpt>
    <trkpt lat="48.447863" lon="2.68785">
      <ele>95.173</ele>
      <time>2016-09-18T10:53:27Z</time>
    </trkpt>
    <trkpt lat="48.447961" lon="2.687765">
      <ele>96.427</ele>
      <time>2016-09-18T10:53:30Z</time>
    </trkpt>
    <trkpt lat="48.44804" lon="2.687629">
      <ele>97.989</ele>
      <time>2016-09-18T10:53:34Z</time>
    </trkpt>
    <trkpt lat="48.448106" lon="2.687488">
      <ele>99.043</ele>
      <time>2016-09-18T10:53:38Z</time>
    </trkpt>
    <trkpt lat="48.448178" lon="2.687402">
      <ele>99.353</ele>
      <time>2016-09-18T10:53:43Z</time>
    </trkpt>
    <trkpt lat="48.448251" lon="2.687311">
      <ele>99.68</ele>
      <time>2016-09-18T10:53:46Z</time>
    </trkpt>
    <trkpt lat="48.44835" lon="2.687249">
      <ele>99.849</ele>
      <time>2016-09-18T10:53:50Z</time>
    </trkpt>
    <trkpt lat="48.448416" lon="2.687149">
      <ele>99.966</ele>
      <time>2016-09-18T10:53:53Z</time>
    </trkpt>
    <trkpt lat="48.448497" lon="2.687059">
      <ele>99.998</ele>
      <time>2016-09-18T10:53:58Z</time>
    </trkpt>
    <trkpt lat="48.448583" lon="2.686968">
      <ele>100.016</ele>
      <time>2016-09-18T10:54:05Z</time>
    </trkpt>
    <trkpt lat="48.448666" lon="2.686885">
      <ele>100.781</ele>
      <time>2016-09-18T10:54:10Z</time>
    </trkpt>
    <trkpt lat="48.448732" lon="2.686785">
      <ele>101.769</ele>
      <time>2016-09-18T10:54:16Z</time>
    </trkpt>
    <trkpt lat="48.448824" lon="2.686702">
      <ele>102.609</ele>
      <time>2016-09-18T10:54:25Z</time>
    </trkpt>
    <trkpt lat="48.448897" lon="2.686613">
      <ele>103.399</ele>
      <time>2016-09-18T10:54:29Z</time>
    </trkpt>
    <trkpt lat="48.448968" lon="2.686505">
      <ele>103.952</ele>
      <time>2016-09-18T10:54:31Z</time>
    </trkpt>
    <trkpt lat="48.449044" lon="2.686396">
      <ele>103.875</ele>
      <time>2016-09-18T10:54:35Z</time>
    </trkpt>
    <trkpt lat="48.449143" lon="2.686296">
      <ele>103.17</ele>
      <time>2016-09-18T10:54:38Z</time>
    </trkpt>
    <trkpt lat="48.449252" lon="2.686221">
      <ele>102.078</ele>
      <time>2016-09-18T10:54:41Z</time>
    </trkpt>
    <trkpt lat="48.449326" lon="2.686128">
      <ele>101.279</ele>
      <time>2016-09-18T10:54:43Z</time>
    </trkpt>
    <trkpt lat="48.449413" lon="2.686059">
      <ele>100.34</ele>
      <time>2016-09-18T10:54:45Z</time>
    </trkpt>
    <trkpt lat="48.449503" lon="2.685986">
      <ele>99.578</ele>
      <time>2016-09-18T10:54:47Z</time>
    </trkpt>
    <trkpt lat="48.449624" lon="2.685868">
      <ele>98.707</ele>
      <time>2016-09-18T10:54:49Z</time>
    </trkpt>
    <trkpt lat="48.449694" lon="2.685771">
      <ele>98.405</ele>
      <time>2016-09-18T10:54:51Z</time>
    </trkpt>
    <trkpt lat="48.449787" lon="2.68565">
      <ele>98.273</ele>
      <time>2016-09-18T10:54:53Z</time>
    </trkpt>
    <trkpt lat="48.449872" lon="2.685541">
      <ele>97.974</ele>
      <time>2016-09-18T10:54:55Z</time>
    </trkpt>
    <trkpt lat="48.449973" lon="2.685388">
      <ele>97.798</ele>
      <time>2016-09-18T10:54:57Z</time>
    </trkpt>
    <trkpt lat="48.450107" lon="2.685241">
      <ele>97.26</ele>
      <time>2016-09-18T10:54:59Z</time>
    </trkpt>
    <trkpt lat="48.450177" lon="2.685125">
      <ele>96.575</ele>
      <time>2016-09-18T10:55:01Z</time>
    </trkpt>
    <trkpt lat="48.450235" lon="2.684983">
      <ele>95.616</ele>
      <time>2016-09-18T10:55:03Z</time>
    </trkpt>
    <trkpt lat="48.450294" lon="2.684876">
      <ele>94.766</ele>
      <time>2016-09-18T10:55:05Z</time>
    </trkpt>
    <trkpt lat="48.450418" lon="2.684828">
      <ele>92.981</ele>
      <time>2016-09-18T10:55:07Z</time>
    </trkpt>
    <trkpt lat="48.450513" lon="2.684722">
      <ele>91.613</ele>
      <time>2016-09-18T10:55:09Z</time>
    </trkpt>
    <trkpt lat="48.450616" lon="2.684616">
      <ele>91.382</ele>
      <time>2016-09-18T10:55:12Z</time>
    </trkpt>
    <trkpt lat="48.450684" lon="2.684514">
      <ele>91.75</ele>
      <time>2016-09-18T10:55:14Z</time>
    </trkpt>
    <trkpt lat="48.450776" lon="2.684419">
      <ele>92.092</ele>
      <time>2016-09-18T10:55:17Z</time>
    </trkpt>
    <trkpt lat="48.450843" lon="2.684317">
      <ele>92.528</ele>
      <time>2016-09-18T10:55:20Z</time>
    </trkpt>
    <trkpt lat="48.450927" lon="2.68419">
      <ele>93.59</ele>
      <time>2016-09-18T10:55:24Z</time>
    </trkpt>
    <trkpt lat="48.45101" lon="2.684079">
      <ele>94.588</ele>
      <time>2016-09-18T10:55:28Z</time>
    </trkpt>
    <trkpt lat="48.451091" lon="2.68397">
      <ele>95.563</ele>
      <time>2016-09-18T10:55:32Z</time>
    </trkpt>
    <trkpt lat="48.451184" lon="2.683897">
      <ele>95.978</ele>
      <time>2016-09-18T10:55:36Z</time>
    </trkpt>
    <trkpt lat="48.451261" lon="2.683798">
      <ele>96.177</ele>
      <time>2016-09-18T10:55:40Z</time>
    </trkpt>
    <trkpt lat="48.45134" lon="2.683684">
      <ele>96.608</ele>
      <time>2016-09-18T10:55:46Z</time>
    </trkpt>
    <trkpt lat="48.451432" lon="2.683542">
      <ele>96.922</ele>
      <time>2016-09-18T10:55:50Z</time>
    </trkpt>
    <trkpt lat="48.451514" lon="2.683444">
      <ele>97.092</ele>
      <time>2016-09-18T10:55:57Z</time>
    </trkpt>
    <trkpt lat="48.451598" lon="2.683333">
      <ele>97.755</ele>
      <time>2016-09-18T10:56:01Z</time>
    </trkpt>
    <trkpt lat="48.451704" lon="2.683267">
      <ele>98.644</ele>
      <time>2016-09-18T10:56:05Z</time>
    </trkpt>
    <trkpt lat="48.451794" lon="2.683143">
      <ele>100.143</ele>
      <time>2016-09-18T10:56:08Z</time>
    </trkpt>
    <trkpt lat="48.45188" lon="2.683045">
      <ele>101.612</ele>
      <time>2016-09-18T10:56:11Z</time>
    </trkpt>
    <trkpt lat="48.451954" lon="2.682959">
      <ele>102.718</ele>
      <time>2016-09-18T10:56:13Z</time>
    </trkpt>
    <trkpt lat="48.452063" lon="2.682919">
      <ele>103.2</ele>
      <time>2016-09-18T10:56:17Z</time>
    </trkpt>
    <trkpt lat="48.452178" lon="2.682868">
      <ele>103.623</ele>
      <time>2016-09-18T10:56:20Z</time>
    </trkpt>
    <trkpt lat="48.452304" lon="2.6828">
      <ele>103.649</ele>
      <time>2016-09-18T10:56:24Z</time>
    </trkpt>
    <trkpt lat="48.452386" lon="2.682697">
      <ele>103.41</ele>
      <time>2016-09-18T10:56:26Z</time>
    </trkpt>
    <trkpt lat="48.452471" lon="2.682629">
      <ele>103.104</ele>
      <time>2016-09-18T10:56:29Z</time>
    </trkpt>
    <trkpt lat="48.45257" lon="2.682635">
      <ele>102.748</ele>
      <time>2016-09-18T10:56:32Z</time>
    </trkpt>
    <trkpt lat="48.452666" lon="2.682601">
      <ele>102.402</ele>
      <time>2016-09-18T10:56:35Z</time>
    </trkpt>
    <trkpt lat="48.45275" lon="2.68254">
      <ele>102.1</ele>
      <time>2016-09-18T10:56:37Z</time>
    </trkpt>
    <trkpt lat="48.452825" lon="2.682458">
      <ele>101.981</ele>
      <time>2016-09-18T10:56:39Z</time>
    </trkpt>
    <trkpt lat="48.452935" lon="2.682341">
      <ele>102.006</ele>
      <time>2016-09-18T10:56:41Z</time>
    </trkpt>
    <trkpt lat="48.453047" lon="2.682313">
      <ele>101.704</ele>
      <time>2016-09-18T10:56:43Z</time>
    </trkpt>
    <trkpt lat="48.453145" lon="2.682261">
      <ele>101.261</ele>
      <time>2016-09-18T10:56:45Z</time>
    </trkpt>
    <trkpt lat="48.45325" lon="2.682208">
      <ele>100.651</ele>
      <time>2016-09-18T10:56:47Z</time>
    </trkpt>
    <trkpt lat="48.453386" lon="2.682088">
      <ele>100.294</ele>
      <time>2016-09-18T10:56:49Z</time>
    </trkpt>
    <trkpt lat="48.453487" lon="2.682012">
      <ele>100.204</ele>
      <time>2016-09-18T10:56:52Z</time>
    </trkpt>
    <trkpt lat="48.453574" lon="2.681918">
      <ele>100.229</ele>
      <time>2016-09-18T10:56:54Z</time>
    </trkpt>
    <trkpt lat="48.453685" lon="2.681878">
      <ele>100.176</ele>
      <time>2016-09-18T10:56:56Z</time>
    </trkpt>
    <trkpt lat="48.453816" lon="2.681807">
      <ele>100.13</ele>
      <time>2016-09-18T10:56:59Z</time>
    </trkpt>
    <trkpt lat="48.453947" lon="2.681681">
      <ele>100.0</ele>
      <time>2016-09-18T10:57:01Z</time>
    </trkpt>
    <trkpt lat="48.454067" lon="2.681583">
      <ele>100.0</ele>
      <time>2016-09-18T10:57:03Z</time>
    </trkpt>
    <trkpt lat="48.454207" lon="2.6815">
      <ele>100.0</ele>
      <time>2016-09-18T10:57:05Z</time>
    </trkpt>
    <trkpt lat="48.454335" lon="2.681413">
      <ele>100.0</ele>
      <time>2016-09-18T10:57:08Z</time>
    </trkpt>
    <trkpt lat="48.454467" lon="2.681356">
      <ele>100.0</ele>
      <time>2016-09-18T10:57:10Z</time>
    </trkpt>
    <trkpt lat="48.45459" lon="2.681308">
      <ele>100.0</ele>
      <time>2016-09-18T10:57:12Z</time>
    </trkpt>
    <trkpt lat="48.454739" lon="2.681228">
      <ele>99.914</ele>
      <time>2016-09-18T10:57:14Z</time>
    </trkpt>
    <trkpt lat="48.454876" lon="2.681198">
      <ele>99.273</ele>
      <time>2016-09-18T10:57:16Z</time>
    </trkpt>
    <trkpt lat="48.455001" lon="2.681117">
      <ele>98.982</ele>
      <time>2016-09-18T10:57:18Z</time>
    </trkpt>
    <trkpt lat="48.455163" lon="2.681075">
      <ele>99.717</ele>
      <time>2016-09-18T10:57:20Z</time>
    </trkpt>
    <trkpt lat="48.45527" lon="2.680902">
      <ele>100.725</ele>
      <time>2016-09-18T10:57:22Z</time>
    </trkpt>
    <trkpt lat="48.455356" lon="2.680845">
      <ele>101.521</ele>
      <time>2016-09-18T10:57:23Z</time>
    </trkpt>
    <trkpt lat="48.455476" lon="2.680754">
      <ele>102.509</ele>
      <time>2016-09-18T10:57:28Z</time>
    </trkpt>
    <trkpt lat="48.455568" lon="2.680699">
      <ele>102.977</ele>
      <time>2016-09-18T10:57:31Z</time>
    </trkpt>
    <trkpt lat="48.455671" lon="2.680613">
      <ele>102.914</ele>
      <time>2016-09-18T10:57:35Z</time>
    </trkpt>
    <trkpt lat="48.455789" lon="2.680525">
      <ele>103.0</ele>
      <time>2016-09-18T10:57:38Z</time>
    </trkpt>
    <trkpt lat="48.455877" lon="2.680476">
      <ele>102.686</ele>
      <time>2016-09-18T10:57:40Z</time>
    </trkpt>
    <trkpt lat="48.456001" lon="2.680399">
      <ele>101.793</ele>
      <time>2016-09-18T10:57:43Z</time>
    </trkpt>
    <trkpt lat="48.456101" lon="2.680347">
      <ele>101.073</ele>
      <time>2016-09-18T10:57:45Z</time>
    </trkpt>
    <trkpt lat="48.4562" lon="2.680295">
      <ele>100.68</ele>
      <time>2016-09-18T10:57:47Z</time>
    </trkpt>
    <trkpt lat="48.456318" lon="2.680289">
      <ele>100.255</ele>
      <time>2016-09-18T10:57:49Z</time>
    </trkpt>
    <trkpt lat="48.456408" lon="2.680225">
      <ele>99.617</ele>
      <time>2016-09-18T10:57:52Z</time>
    </trkpt>
    <trkpt lat="48.456506" lon="2.680139">
      <ele>98.446</ele>
      <time>2016-09-18T10:57:54Z</time>
    </trkpt>
    <trkpt lat="48.4566" lon="2.680082">
      <ele>97.551</ele>
      <time>2016-09-18T10:57:55Z</time>
    </trkpt>
    <trkpt lat="48.456758" lon="2.679996">
      <ele>97.0</ele>
      <time>2016-09-18T10:57:57Z</time>
    </trkpt>
    <trkpt lat="48.456868" lon="2.679943">
      <ele>97.0</ele>
      <time>2016-09-18T10:57:59Z</time>
    </trkpt>
    <trkpt lat="48.456997" lon="2.679884">
      <ele>97.0</ele>
      <time>2016-09-18T10:58:01Z</time>
    </trkpt>
    <trkpt lat="48.457094" lon="2.679823">
      <ele>97.0</ele>
      <time>2016-09-18T10:58:04Z</time>
    </trkpt>
    <trkpt lat="48.457189" lon="2.679768">
      <ele>97.0</ele>
      <time>2016-09-18T10:58:06Z</time>
    </trkpt>
    <trkpt lat="48.45729" lon="2.679678">
      <ele>96.756</ele>
      <time>2016-09-18T10:58:08Z</time>
    </trkpt>
    <trkpt lat="48.4574" lon="2.679602">
      <ele>96.36</ele>
      <time>2016-09-18T10:58:10Z</time>
    </trkpt>
    <trkpt lat="48.457532" lon="2.679523">
      <ele>95.802</ele>
      <time>2016-09-18T10:58:12Z</time>
    </trkpt>
    <trkpt lat="48.457635" lon="2.679467">
      <ele>95.067</ele>
      <time>2016-09-18T10:58:14Z</time>
    </trkpt>
    <trkpt lat="48.457799" lon="2.679366">
      <ele>94.055</ele>
      <time>2016-09-18T10:58:16Z</time>
    </trkpt>
    <trkpt lat="48.457919" lon="2.679249">
      <ele>94.151</ele>
      <time>2016-09-18T10:58:18Z</time>
    </trkpt>
    <trkpt lat="48.458029" lon="2.679193">
      <ele>94.086</ele>
      <time>2016-09-18T10:58:20Z</time>
    </trkpt>
    <trkpt lat="48.458119" lon="2.679099">
      <ele>94.0</ele>
      <time>2016-09-18T10:58:23Z</time>
    </trkpt>
    <trkpt lat="48.458215" lon="2.679026">
      <ele>94.0</ele>
      <time>2016-09-18T10:58:25Z</time>
    </trkpt>
    <trkpt lat="48.458342" lon="2.67894">
      <ele>94.006</ele>
      <time>2016-09-18T10:58:28Z</time>
    </trkpt>
    <trkpt lat="48.458491" lon="2.678826">
      <ele>94.226</ele>
      <time>2016-09-18T10:58:30Z</time>
    </trkpt>
    <trkpt lat="48.458604" lon="2.678753">
      <ele>94.489</ele>
      <time>2016-09-18T10:58:31Z</time>
    </trkpt>
    <trkpt lat="48.458733" lon="2.678658">
      <ele>95.344</ele>
      <time>2016-09-18T10:58:34Z</time>
    </trkpt>
    <trkpt lat="48.458852" lon="2.678593">
      <ele>95.885</ele>
      <time>2016-09-18T10:58:37Z</time>
    </trkpt>
    <trkpt lat="48.458993" lon="2.678551">
      <ele>96.294</ele>
      <time>2016-09-18T10:58:40Z</time>
    </trkpt>
    <trkpt lat="48.459083" lon="2.678486">
      <ele>96.384</ele>
      <time>2016-09-18T10:58:42Z</time>
    </trkpt>
    <trkpt lat="48.459192" lon="2.678389">
      <ele>96.219</ele>
      <time>2016-09-18T10:58:44Z</time>
    </trkpt>
    <trkpt lat="48.459329" lon="2.67831">
      <ele>96.035</ele>
      <time>2016-09-18T10:58:46Z</time>
    </trkpt>
    <trkpt lat="48.459481" lon="2.678231">
      <ele>96.048</ele>
      <time>2016-09-18T10:58:48Z</time>
    </trkpt>
    <trkpt lat="48.459592" lon="2.678176">
      <ele>96.301</ele>
      <time>2016-09-18T10:58:50Z</time>
    </trkpt>
    <trkpt lat="48.459701" lon="2.678103">
      <ele>96.766</ele>
      <time>2016-09-18T10:58:52Z</time>
    </trkpt>
    <trkpt lat="48.459801" lon="2.678071">
      <ele>96.393</ele>
      <time>2016-09-18T10:58:55Z</time>
    </trkpt>
    <trkpt lat="48.459889" lon="2.678015">
      <ele>95.887</ele>
      <time>2016-09-18T10:58:57Z</time>
    </trkpt>
    <trkpt lat="48.460024" lon="2.677918">
      <ele>95.452</ele>
      <time>2016-09-18T10:58:59Z</time>
    </trkpt>
    <trkpt lat="48.46011" lon="2.677877">
      <ele>95.388</ele>
      <time>2016-09-18T10:59:00Z</time>
    </trkpt>
    <trkpt lat="48.460238" lon="2.677786">
      <ele>95.139</ele>
      <time>2016-09-18T10:59:02Z</time>
    </trkpt>
    <trkpt lat="48.460385" lon="2.677704">
      <ele>93.962</ele>
      <time>2016-09-18T10:59:04Z</time>
    </trkpt>
    <trkpt lat="48.460476" lon="2.677639">
      <ele>93.073</ele>
      <time>2016-09-18T10:59:06Z</time>
    </trkpt>
    <trkpt lat="48.460569" lon="2.677579">
      <ele>92.236</ele>
      <time>2016-09-18T10:59:08Z</time>
    </trkpt>
    <trkpt lat="48.460684" lon="2.677458">
      <ele>91.538</ele>
      <time>2016-09-18T10:59:10Z</time>
    </trkpt>
    <trkpt lat="48.460798" lon="2.677375">
      <ele>91.127</ele>
      <time>2016-09-18T10:59:12Z</time>
    </trkpt>
    <trkpt lat="48.460925" lon="2.677337">
      <ele>91.0</ele>
      <time>2016-09-18T10:59:14Z</time>
    </trkpt>
    <trkpt lat="48.46101" lon="2.677281">
      <ele>91.0</ele>
      <time>2016-09-18T10:59:15Z</time>
    </trkpt>
    <trkpt lat="48.461096" lon="2.677133">
      <ele>91.321</ele>
      <time>2016-09-18T10:59:17Z</time>
    </trkpt>
    <trkpt lat="48.461194" lon="2.677169">
      <ele>91.433</ele>
      <time>2016-09-18T10:59:19Z</time>
    </trkpt>
    <trkpt lat="48.461316" lon="2.677097">
      <ele>91.856</ele>
      <time>2016-09-18T10:59:21Z</time>
    </trkpt>
    <trkpt lat="48.461411" lon="2.677108">
      <ele>92.159</ele>
      <time>2016-09-18T10:59:23Z</time>
    </trkpt>
    <trkpt lat="48.461528" lon="2.677006">
      <ele>93.002</ele>
      <time>2016-09-18T10:59:26Z</time>
    </trkpt>
    <trkpt lat="48.46164" lon="2.676937">
      <ele>93.76</ele>
      <time>2016-09-18T10:59:28Z</time>
    </trkpt>
    <trkpt lat="48.461779" lon="2.676871">
      <ele>93.174</ele>
      <time>2016-09-18T10:59:31Z</time>
    </trkpt>
    <trkpt lat="48.461888" lon="2.676828">
      <ele>92.699</ele>
      <time>2016-09-18T10:59:33Z</time>
    </trkpt>
    <trkpt lat="48.461966" lon="2.676727">
      <ele>92.106</ele>
      <time>2016-09-18T10:59:35Z</time>
    </trkpt>
    <trkpt lat="48.462072" lon="2.676664">
      <ele>91.526</ele>
      <time>2016-09-18T10:59:37Z</time>
    </trkpt>
    <trkpt lat="48.46222" lon="2.676549">
      <ele>90.581</ele>
      <time>2016-09-18T10:59:40Z</time>
    </trkpt>
    <trkpt lat="48.4623" lon="2.676484">
      <ele>89.967</ele>
      <time>2016-09-18T10:59:41Z</time>
    </trkpt>
    <trkpt lat="48.462378" lon="2.67636">
      <ele>89.231</ele>
      <time>2016-09-18T10:59:43Z</time>
    </trkpt>
    <trkpt lat="48.462469" lon="2.676355">
      <ele>88.868</ele>
      <time>2016-09-18T10:59:44Z</time>
    </trkpt>
    <trkpt lat="48.462575" lon="2.676313">
      <ele>87.987</ele>
      <time>2016-09-18T10:59:46Z</time>
    </trkpt>
    <trkpt lat="48.462676" lon="2.676186">
      <ele>86.735</ele>
      <time>2016-09-18T10:59:48Z</time>
    </trkpt>
    <trkpt lat="48.462796" lon="2.676083">
      <ele>86.0</ele>
      <time>2016-09-18T10:59:50Z</time>
    </trkpt>
    <trkpt lat="48.462883" lon="2.676038">
      <ele>86.0</ele>
      <time>2016-09-18T10:59:52Z</time>
    </trkpt>
    <trkpt lat="48.462986" lon="2.675985">
      <ele>86.0</ele>
      <time>2016-09-18T10:59:54Z</time>
    </trkpt>
    <trkpt lat="48.463102" lon="2.675881">
      <ele>86.306</ele>
      <time>2016-09-18T10:59:56Z</time>
    </trkpt>
    <trkpt lat="48.463207" lon="2.675824">
      <ele>87.124</ele>
      <time>2016-09-18T10:59:58Z</time>
    </trkpt>
    <trkpt lat="48.463332" lon="2.675804">
      <ele>88.096</ele>
      <time>2016-09-18T11:00:01Z</time>
    </trkpt>
    <trkpt lat="48.463428" lon="2.675727">
      <ele>89.064</ele>
      <time>2016-09-18T11:00:03Z</time>
    </trkpt>
    <trkpt lat="48.463545" lon="2.675623">
      <ele>90.281</ele>
      <time>2016-09-18T11:00:06Z</time>
    </trkpt>
    <trkpt lat="48.463655" lon="2.675513">
      <ele>91.914</ele>
      <time>2016-09-18T11:00:08Z</time>
    </trkpt>
    <trkpt lat="48.463775" lon="2.675399">
      <ele>94.155</ele>
      <time>2016-09-18T11:00:11Z</time>
    </trkpt>
    <trkpt lat="48.463865" lon="2.675401">
      <ele>95.26</ele>
      <time>2016-09-18T11:00:13Z</time>
    </trkpt>
    <trkpt lat="48.463964" lon="2.675336">
      <ele>96.331</ele>
      <time>2016-09-18T11:00:16Z</time>
    </trkpt>
    <trkpt lat="48.464073" lon="2.675303">
      <ele>97.235</ele>
      <time>2016-09-18T11:00:19Z</time>
    </trkpt>
    <trkpt lat="48.464174" lon="2.675237">
      <ele>97.831</ele>
      <time>2016-09-18T11:00:21Z</time>
    </trkpt>
    <trkpt lat="48.464269" lon="2.67518">
      <ele>97.409</ele>
      <time>2016-09-18T11:00:23Z</time>
    </trkpt>
    <trkpt lat="48.464368" lon="2.675106">
      <ele>97.105</ele>
      <time>2016-09-18T11:00:25Z</time>
    </trkpt>
    <trkpt lat="48.464462" lon="2.675078">
      <ele>96.81</ele>
      <time>2016-09-18T11:00:27Z</time>
    </trkpt>
    <trkpt lat="48.464557" lon="2.67505">
      <ele>95.784</ele>
      <time>2016-09-18T11:00:30Z</time>
    </trkpt>
    <trkpt lat="48.464656" lon="2.674991">
      <ele>94.683</ele>
      <time>2016-09-18T11:00:32Z</time>
    </trkpt>
    <trkpt lat="48.46475" lon="2.674922">
      <ele>93.391</ele>
      <time>2016-09-18T11:00:34Z</time>
    </trkpt>
    <trkpt lat="48.464865" lon="2.674833">
      <ele>91.548</ele>
      <time>2016-09-18T11:00:36Z</time>
    </trkpt>
    <trkpt lat="48.464997" lon="2.674783">
      <ele>89.478</ele>
      <time>2016-09-18T11:00:39Z</time>
    </trkpt>
    <trkpt lat="48.465118" lon="2.674741">
      <ele>88.257</ele>
      <time>2016-09-18T11:00:41Z</time>
    </trkpt>
    <trkpt lat="48.465255" lon="2.674706">
      <ele>87.106</ele>
      <time>2016-09-18T11:00:43Z</time>
    </trkpt>
    <trkpt lat="48.465364" lon="2.674636">
      <ele>86.379</ele>
      <time>2016-09-18T11:00:44Z</time>
    </trkpt>
    <trkpt lat="48.465468" lon="2.674543">
      <ele>85.67</ele>
      <time>2016-09-18T11:00:46Z</time>
    </trkpt>
    <trkpt lat="48.465545" lon="2.674472">
      <ele>85.137</ele>
      <time>2016-09-18T11:00:47Z</time>
    </trkpt>
    <trkpt lat="48.465644" lon="2.674419">
      <ele>84.33</ele>
      <time>2016-09-18T11:00:49Z</time>
    </trkpt>
    <trkpt lat="48.465748" lon="2.674332">
      <ele>83.77</ele>
      <time>2016-09-18T11:00:51Z</time>
    </trkpt>
    <trkpt lat="48.465857" lon="2.674274">
      <ele>83.561</ele>
      <time>2016-09-18T11:00:53Z</time>
    </trkpt>
    <trkpt lat="48.465979" lon="2.674163">
      <ele>83.469</ele>
      <time>2016-09-18T11:00:56Z</time>
    </trkpt>
    <trkpt lat="48.466078" lon="2.674103">
      <ele>83.092</ele>
      <time>2016-09-18T11:00:58Z</time>
    </trkpt>
    <trkpt lat="48.466189" lon="2.674054">
      <ele>83.0</ele>
      <time>2016-09-18T11:01:01Z</time>
    </trkpt>
    <trkpt lat="48.46628" lon="2.673959">
      <ele>83.0</ele>
      <time>2016-09-18T11:01:03Z</time>
    </trkpt>
    <trkpt lat="48.466366" lon="2.673901">
      <ele>83.0</ele>
      <time>2016-09-18T11:01:05Z</time>
    </trkpt>
    <trkpt lat="48.466488" lon="2.673836">
      <ele>83.479</ele>
      <time>2016-09-18T11:01:07Z</time>
    </trkpt>
    <trkpt lat="48.466578" lon="2.673735">
      <ele>83.858</ele>
      <time>2016-09-18T11:01:08Z</time>
    </trkpt>
    <trkpt lat="48.466717" lon="2.673678">
      <ele>84.044</ele>
      <time>2016-09-18T11:01:11Z</time>
    </trkpt>
    <trkpt lat="48.466824" lon="2.673632">
      <ele>84.043</ele>
      <time>2016-09-18T11:01:15Z</time>
    </trkpt>
    <trkpt lat="48.466926" lon="2.673564">
      <ele>83.989</ele>
      <time>2016-09-18T11:01:17Z</time>
    </trkpt>
    <trkpt lat="48.46701" lon="2.673498">
      <ele>84.236</ele>
      <time>2016-09-18T11:01:19Z</time>
    </trkpt>
    <trkpt lat="48.467098" lon="2.67343">
      <ele>84.553</ele>
      <time>2016-09-18T11:01:21Z</time>
    </trkpt>
    <trkpt lat="48.467201" lon="2.673379">
      <ele>84.924</ele>
      <time>2016-09-18T11:01:23Z</time>
    </trkpt>
    <trkpt lat="48.467315" lon="2.673292">
      <ele>85.334</ele>
      <time>2016-09-18T11:01:25Z</time>
    </trkpt>
    <trkpt lat="48.467417" lon="2.673213">
      <ele>85.701</ele>
      <time>2016-09-18T11:01:27Z</time>
    </trkpt>
    <trkpt lat="48.467549" lon="2.673103">
      <ele>85.854</ele>
      <time>2016-09-18T11:01:30Z</time>
    </trkpt>
    <trkpt lat="48.467663" lon="2.673007">
      <ele>85.341</ele>
      <time>2016-09-18T11:01:32Z</time>
    </trkpt>
    <trkpt lat="48.467773" lon="2.672976">
      <ele>85.012</ele>
      <time>2016-09-18T11:01:34Z</time>
    </trkpt>
    <trkpt lat="48.467877" lon="2.672853">
      <ele>84.74</ele>
      <time>2016-09-18T11:01:38Z</time>
    </trkpt>
    <trkpt lat="48.468022" lon="2.672761">
      <ele>84.174</ele>
      <time>2016-09-18T11:01:40Z</time>
    </trkpt>
    <trkpt lat="48.468109" lon="2.672721">
      <ele>84.703</ele>
      <time>2016-09-18T11:01:42Z</time>
    </trkpt>
    <trkpt lat="48.468204" lon="2.672711">
      <ele>85.587</ele>
      <time>2016-09-18T11:01:44Z</time>
    </trkpt>
    <trkpt lat="48.468295" lon="2.672658">
      <ele>86.274</ele>
      <time>2016-09-18T11:01:46Z</time>
    </trkpt>
    <trkpt lat="48.468374" lon="2.672584">
      <ele>86.639</ele>
      <time>2016-09-18T11:01:48Z</time>
    </trkpt>
    <trkpt lat="48.468496" lon="2.672533">
      <ele>87.36</ele>
      <time>2016-09-18T11:01:51Z</time>
    </trkpt>
    <trkpt lat="48.468606" lon="2.672512">
      <ele>88.049</ele>
      <time>2016-09-18T11:01:54Z</time>
    </trkpt>
    <trkpt lat="48.468746" lon="2.672441">
      <ele>88.17</ele>
      <time>2016-09-18T11:01:57Z</time>
    </trkpt>
    <trkpt lat="48.468823" lon="2.672357">
      <ele>87.855</ele>
      <time>2016-09-18T11:01:59Z</time>
    </trkpt>
    <trkpt lat="48.468938" lon="2.672269">
      <ele>87.337</ele>
      <time>2016-09-18T11:02:02Z</time>
    </trkpt>
    <trkpt lat="48.469023" lon="2.672199">
      <ele>86.833</ele>
      <time>2016-09-18T11:02:04Z</time>
    </trkpt>
    <trkpt lat="48.469132" lon="2.672092">
      <ele>86.062</ele>
      <time>2016-09-18T11:02:07Z</time>
    </trkpt>
    <trkpt lat="48.46925" lon="2.672024">
      <ele>85.573</ele>
      <time>2016-09-18T11:02:10Z</time>
    </trkpt>
    <trkpt lat="48.469358" lon="2.671976">
      <ele>85.227</ele>
      <time>2016-09-18T11:02:13Z</time>
    </trkpt>
    <trkpt lat="48.46948" lon="2.67195">
      <ele>85.293</ele>
      <time>2016-09-18T11:02:17Z</time>
    </trkpt>
    <trkpt lat="48.469587" lon="2.671934">
      <ele>85.989</ele>
      <time>2016-09-18T11:02:20Z</time>
    </trkpt>
    <trkpt lat="48.469665" lon="2.671861">
      <ele>86.288</ele>
      <time>2016-09-18T11:02:22Z</time>
    </trkpt>
    <trkpt lat="48.46975" lon="2.671787">
      <ele>86.49</ele>
      <time>2016-09-18T11:02:24Z</time>
    </trkpt>
    <trkpt lat="48.469852" lon="2.671704">
      <ele>86.539</ele>
      <time>2016-09-18T11:02:27Z</time>
    </trkpt>
    <trkpt lat="48.469939" lon="2.671653">
      <ele>86.731</ele>
      <time>2016-09-18T11:02:29Z</time>
    </trkpt>
    <trkpt lat="48.470039" lon="2.671599">
      <ele>86.65</ele>
      <time>2016-09-18T11:02:32Z</time>
    </trkpt>
    <trkpt lat="48.470128" lon="2.671562">
      <ele>86.336</ele>
      <time>2016-09-18T11:02:34Z</time>
    </trkpt>
    <trkpt lat="48.470223" lon="2.671511">
      <ele>86.087</ele>
      <time>2016-09-18T11:02:36Z</time>
    </trkpt>
    <trkpt lat="48.470305" lon="2.671451">
      <ele>86.098</ele>
      <time>2016-09-18T11:02:38Z</time>
    </trkpt>
    <trkpt lat="48.470389" lon="2.671401">
      <ele>86.4</ele>
      <time>2016-09-18T11:02:40Z</time>
    </trkpt>
    <trkpt lat="48.470482" lon="2.671302">
      <ele>86.735</ele>
      <time>2016-09-18T11:02:43Z</time>
    </trkpt>
    <trkpt lat="48.470605" lon="2.671188">
      <ele>87.129</ele>
      <time>2016-09-18T11:02:46Z</time>
    </trkpt>
    <trkpt lat="48.470725" lon="2.671128">
      <ele>87.573</ele>
      <time>2016-09-18T11:02:49Z</time>
    </trkpt>
    <trkpt lat="48.470839" lon="2.671048">
      <ele>88.248</ele>
      <time>2016-09-18T11:02:52Z</time>
    </trkpt>
    <trkpt lat="48.470906" lon="2.670926">
      <ele>88.928</ele>
      <time>2016-09-18T11:02:54Z</time>
    </trkpt>
    <trkpt lat="48.471022" lon="2.670836">
      <ele>89.67</ele>
      <time>2016-09-18T11:02:57Z</time>
    </trkpt>
    <trkpt lat="48.471116" lon="2.670791">
      <ele>90.167</ele>
      <time>2016-09-18T11:03:00Z</time>
    </trkpt>
    <trkpt lat="48.471249" lon="2.670705">
      <ele>90.729</ele>
      <time>2016-09-18T11:03:03Z</time>
    </trkpt>
    <trkpt lat="48.471387" lon="2.670608">
      <ele>90.999</ele>
      <time>2016-09-18T11:03:06Z</time>
    </trkpt>
    <trkpt lat="48.471493" lon="2.670531">
      <ele>90.625</ele>
      <time>2016-09-18T11:03:09Z</time>
    </trkpt>
    <trkpt lat="48.471575" lon="2.670472">
      <ele>90.33</ele>
      <time>2016-09-18T11:03:11Z</time>
    </trkpt>
    <trkpt lat="48.471687" lon="2.670425">
      <ele>89.927</ele>
      <time>2016-09-18T11:03:14Z</time>
    </trkpt>
    <trkpt lat="48.471772" lon="2.670376">
      <ele>89.621</ele>
      <time>2016-09-18T11:03:16Z</time>
    </trkpt>
    <trkpt lat="48.471859" lon="2.67034">
      <ele>89.308</ele>
      <time>2016-09-18T11:03:18Z</time>
    </trkpt>
    <trkpt lat="48.47195" lon="2.670261">
      <ele>89.0</ele>
      <time>2016-09-18T11:03:21Z</time>
    </trkpt>
    <trkpt lat="48.472038" lon="2.670204">
      <ele>89.0</ele>
      <time>2016-09-18T11:03:24Z</time>
    </trkpt>
    <trkpt lat="48.472145" lon="2.670159">
      <ele>89.0</ele>
      <time>2016-09-18T11:03:27Z</time>
    </trkpt>
    <trkpt lat="48.472256" lon="2.670076">
      <ele>89.033</ele>
      <time>2016-09-18T11:03:30Z</time>
    </trkpt>
    <trkpt lat="48.472368" lon="2.669965">
      <ele>89.0</ele>
      <time>2016-09-18T11:03:34Z</time>
    </trkpt>
    <trkpt lat="48.472459" lon="2.669915">
      <ele>89.0</ele>
      <time>2016-09-18T11:03:36Z</time>
    </trkpt>
    <trkpt lat="48.472573" lon="2.669875">
      <ele>89.407</ele>
      <time>2016-09-18T11:03:39Z</time>
    </trkpt>
    <trkpt lat="48.472692" lon="2.669829">
      <ele>89.957</ele>
      <time>2016-09-18T11:03:42Z</time>
    </trkpt>
    <trkpt lat="48.472778" lon="2.669764">
      <ele>90.153</ele>
      <time>2016-09-18T11:03:44Z</time>
    </trkpt>
    <trkpt lat="48.47286" lon="2.669705">
      <ele>90.87</ele>
      <time>2016-09-18T11:03:46Z</time>
    </trkpt>
    <trkpt lat="48.472968" lon="2.669639">
      <ele>91.849</ele>
      <time>2016-09-18T11:03:49Z</time>
    </trkpt>
    <trkpt lat="48.473053" lon="2.669528">
      <ele>92.28</ele>
      <time>2016-09-18T11:03:51Z</time>
    </trkpt>
    <trkpt lat="48.473147" lon="2.66948">
      <ele>92.128</ele>
      <time>2016-09-18T11:03:53Z</time>
    </trkpt>
    <trkpt lat="48.473225" lon="2.669389">
      <ele>92.122</ele>
      <time>2016-09-18T11:03:56Z</time>
    </trkpt>
    <trkpt lat="48.473315" lon="2.669374">
      <ele>92.237</ele>
      <time>2016-09-18T11:03:59Z</time>
    </trkpt>
    <trkpt lat="48.473404" lon="2.669323">
      <ele>92.469</ele>
      <time>2016-09-18T11:04:02Z</time>
    </trkpt>
    <trkpt lat="48.473495" lon="2.669292">
      <ele>92.492</ele>
      <time>2016-09-18T11:04:07Z</time>
    </trkpt>
    <trkpt lat="48.473565" lon="2.669187">
      <ele>92.215</ele>
      <time>2016-09-18T11:04:09Z</time>
    </trkpt>
    <trkpt lat="48.473658" lon="2.669109">
      <ele>92.303</ele>
      <time>2016-09-18T11:04:11Z</time>
    </trkpt>
    <trkpt lat="48.473749" lon="2.669028">
      <ele>92.745</ele>
      <time>2016-09-18T11:04:15Z</time>
    </trkpt>
    <trkpt lat="48.473848" lon="2.66901">
      <ele>93.225</ele>
      <time>2016-09-18T11:04:19Z</time>
    </trkpt>
    <trkpt lat="48.47395" lon="2.669">
      <ele>93.62</ele>
      <time>2016-09-18T11:04:21Z</time>
    </trkpt>
    <trkpt lat="48.474079" lon="2.668911">
      <ele>93.764</ele>
      <time>2016-09-18T11:04:24Z</time>
    </trkpt>
    <trkpt lat="48.474162" lon="2.668818">
      <ele>93.983</ele>
      <time>2016-09-18T11:04:26Z</time>
    </trkpt>
    <trkpt lat="48.474294" lon="2.668745">
      <ele>94.696</ele>
      <time>2016-09-18T11:04:30Z</time>
    </trkpt>
    <trkpt lat="48.474389" lon="2.668703">
      <ele>95.336</ele>
      <time>2016-09-18T11:04:34Z</time>
    </trkpt>
    <trkpt lat="48.474485" lon="2.668618">
      <ele>95.982</ele>
      <time>2016-09-18T11:04:38Z</time>
    </trkpt>
    <trkpt lat="48.474594" lon="2.668554">
      <ele>96.0</ele>
      <time>2016-09-18T11:04:40Z</time>
    </trkpt>
    <trkpt lat="48.474679" lon="2.668496">
      <ele>96.0</ele>
      <time>2016-09-18T11:04:43Z</time>
    </trkpt>
    <trkpt lat="48.474773" lon="2.668388">
      <ele>95.67</ele>
      <time>2016-09-18T11:04:45Z</time>
    </trkpt>
    <trkpt lat="48.474877" lon="2.668323">
      <ele>94.886</ele>
      <time>2016-09-18T11:04:47Z</time>
    </trkpt>
    <trkpt lat="48.474973" lon="2.668213">
      <ele>94.194</ele>
      <time>2016-09-18T11:04:50Z</time>
    </trkpt>
    <trkpt lat="48.475015" lon="2.668078">
      <ele>94.0</ele>
      <time>2016-09-18T11:04:53Z</time>
    </trkpt>
    <trkpt lat="48.475089" lon="2.667988">
      <ele>94.165</ele>
      <time>2016-09-18T11:04:56Z</time>
    </trkpt>
    <trkpt lat="48.475158" lon="2.667862">
      <ele>94.3</ele>
      <time>2016-09-18T11:05:00Z</time>
    </trkpt>
    <trkpt lat="48.475222" lon="2.667739">
      <ele>94.173</ele>
      <time>2016-09-18T11:05:04Z</time>
    </trkpt>
    <trkpt lat="48.4753" lon="2.667644">
      <ele>94.039</ele>
      <time>2016-09-18T11:05:07Z</time>
    </trkpt>
    <trkpt lat="48.47539" lon="2.667502">
      <ele>94.401</ele>
      <time>2016-09-18T11:05:12Z</time>
    </trkpt>
    <trkpt lat="48.475445" lon="2.667383">
      <ele>94.77</ele>
      <time>2016-09-18T11:05:18Z</time>
    </trkpt>
    <trkpt lat="48.475514" lon="2.667294">
      <ele>94.961</ele>
      <time>2016-09-18T11:05:24Z</time>
    </trkpt>
    <trkpt lat="48.475548" lon="2.667122">
      <ele>95.361</ele>
      <time>2016-09-18T11:05:53Z</time>
    </trkpt>
    <trkpt lat="48.475595" lon="2.666961">
      <ele>95.94</ele>
      <time>2016-09-18T11:05:56Z</time>
    </trkpt>
    <trkpt lat="48.475621" lon="2.666819">
      <ele>96.106</ele>
      <time>2016-09-18T11:06:00Z</time>
    </trkpt>
    <trkpt lat="48.475666" lon="2.666687">
      <ele>96.368</ele>
      <time>2016-09-18T11:06:03Z</time>
    </trkpt>
    <trkpt lat="48.475679" lon="2.666529">
      <ele>96.444</ele>
      <time>2016-09-18T11:06:06Z</time>
    </trkpt>
    <trkpt lat="48.475703" lon="2.666345">
      <ele>96.531</ele>
      <time>2016-09-18T11:06:08Z</time>
    </trkpt>
    <trkpt lat="48.475786" lon="2.666144">
      <ele>96.83</ele>
      <time>2016-09-18T11:06:10Z</time>
    </trkpt>
    <trkpt lat="48.475822" lon="2.665952">
      <ele>96.386</ele>
      <time>2016-09-18T11:06:13Z</time>
    </trkpt>
    <trkpt lat="48.475848" lon="2.665793">
      <ele>95.855</ele>
      <time>2016-09-18T11:06:15Z</time>
    </trkpt>
    <trkpt lat="48.47589" lon="2.665645">
      <ele>95.322</ele>
      <time>2016-09-18T11:06:17Z</time>
    </trkpt>
    <trkpt lat="48.475961" lon="2.665472">
      <ele>94.862</ele>
      <time>2016-09-18T11:06:20Z</time>
    </trkpt>
    <trkpt lat="48.475986" lon="2.665304">
      <ele>94.502</ele>
      <time>2016-09-18T11:06:23Z</time>
    </trkpt>
    <trkpt lat="48.476017" lon="2.665098">
      <ele>94.339</ele>
      <time>2016-09-18T11:06:26Z</time>
    </trkpt>
    <trkpt lat="48.476077" lon="2.664914">
      <ele>94.394</ele>
      <time>2016-09-18T11:06:29Z</time>
    </trkpt>
    <trkpt lat="48.476106" lon="2.66475">
      <ele>94.902</ele>
      <time>2016-09-18T11:06:31Z</time>
    </trkpt>
    <trkpt lat="48.476132" lon="2.664561">
      <ele>95.044</ele>
      <time>2016-09-18T11:06:33Z</time>
    </trkpt>
    <trkpt lat="48.476182" lon="2.664357">
      <ele>95.57</ele>
      <time>2016-09-18T11:06:36Z</time>
    </trkpt>
    <trkpt lat="48.476206" lon="2.664226">
      <ele>96.128</ele>
      <time>2016-09-18T11:06:38Z</time>
    </trkpt>
    <trkpt lat="48.476241" lon="2.664068">
      <ele>96.302</ele>
      <time>2016-09-18T11:06:40Z</time>
    </trkpt>
    <trkpt lat="48.476258" lon="2.663908">
      <ele>96.036</ele>
      <time>2016-09-18T11:06:43Z</time>
    </trkpt>
    <trkpt lat="48.476295" lon="2.663762">
      <ele>96.0</ele>
      <time>2016-09-18T11:06:45Z</time>
    </trkpt>
    <trkpt lat="48.476351" lon="2.663546">
      <ele>95.766</ele>
      <time>2016-09-18T11:06:48Z</time>
    </trkpt>
    <trkpt lat="48.476382" lon="2.663402">
      <ele>95.247</ele>
      <time>2016-09-18T11:06:50Z</time>
    </trkpt>
    <trkpt lat="48.4764" lon="2.663246">
      <ele>94.658</ele>
      <time>2016-09-18T11:06:53Z</time>
    </trkpt>
    <trkpt lat="48.476464" lon="2.663084">
      <ele>94.075</ele>
      <time>2016-09-18T11:06:55Z</time>
    </trkpt>
    <trkpt lat="48.476512" lon="2.662891">
      <ele>94.33</ele>
      <time>2016-09-18T11:06:59Z</time>
    </trkpt>
    <trkpt lat="48.476556" lon="2.662728">
      <ele>94.506</ele>
      <time>2016-09-18T11:07:01Z</time>
    </trkpt>
    <trkpt lat="48.476591" lon="2.662583">
      <ele>94.783</ele>
      <time>2016-09-18T11:07:03Z</time>
    </trkpt>
    <trkpt lat="48.476614" lon="2.662434">
      <ele>95.0</ele>
      <time>2016-09-18T11:07:05Z</time>
    </trkpt>
    <trkpt lat="48.476677" lon="2.662238">
      <ele>95.0</ele>
      <time>2016-09-18T11:07:08Z</time>
    </trkpt>
    <trkpt lat="48.476719" lon="2.662062">
      <ele>95.468</ele>
      <time>2016-09-18T11:07:11Z</time>
    </trkpt>
    <trkpt lat="48.47678" lon="2.661848">
      <ele>95.386</ele>
      <time>2016-09-18T11:07:14Z</time>
    </trkpt>
    <trkpt lat="48.476798" lon="2.661624">
      <ele>94.765</ele>
      <time>2016-09-18T11:07:19Z</time>
    </trkpt>
    <trkpt lat="48.476902" lon="2.661561">
      <ele>94.561</ele>
      <time>2016-09-18T11:07:23Z</time>
    </trkpt>
    <trkpt lat="48.476999" lon="2.661566">
      <ele>94.584</ele>
      <time>2016-09-18T11:07:26Z</time>
    </trkpt>
    <trkpt lat="48.47711" lon="2.661566">
      <ele>94.474</ele>
      <time>2016-09-18T11:07:29Z</time>
    </trkpt>
    <trkpt lat="48.477214" lon="2.661517">
      <ele>94.537</ele>
      <time>2016-09-18T11:07:33Z</time>
    </trkpt>
    <trkpt lat="48.477324" lon="2.661565">
      <ele>94.232</ele>
      <time>2016-09-18T11:07:36Z</time>
    </trkpt>
    <trkpt lat="48.477431" lon="2.661548">
      <ele>94.106</ele>
      <time>2016-09-18T11:07:39Z</time>
    </trkpt>
    <trkpt lat="48.477523" lon="2.661522">
      <ele>94.04</ele>
      <time>2016-09-18T11:07:41Z</time>
    </trkpt>
    <trkpt lat="48.477616" lon="2.661538">
      <ele>94.224</ele>
      <time>2016-09-18T11:07:43Z</time>
    </trkpt>
    <trkpt lat="48.477727" lon="2.661585">
      <ele>94.577</ele>
      <time>2016-09-18T11:07:46Z</time>
    </trkpt>
    <trkpt lat="48.477827" lon="2.661649">
      <ele>94.948</ele>
      <time>2016-09-18T11:07:49Z</time>
    </trkpt>
    <trkpt lat="48.47791" lon="2.661704">
      <ele>95.0</ele>
      <time>2016-09-18T11:07:51Z</time>
    </trkpt>
    <trkpt lat="48.47802" lon="2.661688">
      <ele>95.0</ele>
      <time>2016-09-18T11:07:53Z</time>
    </trkpt>
    <trkpt lat="48.478136" lon="2.66163">
      <ele>95.0</ele>
      <time>2016-09-18T11:07:56Z</time>
    </trkpt>
    <trkpt lat="48.478235" lon="2.661601">
      <ele>95.0</ele>
      <time>2016-09-18T11:07:59Z</time>
    </trkpt>
    <trkpt lat="48.478328" lon="2.661607">
      <ele>95.0</ele>
      <time>2016-09-18T11:08:02Z</time>
    </trkpt>
    <trkpt lat="48.478423" lon="2.661585">
      <ele>95.095</ele>
      <time>2016-09-18T11:08:04Z</time>
    </trkpt>
    <trkpt lat="48.478524" lon="2.66163">
      <ele>95.091</ele>
      <time>2016-09-18T11:08:07Z</time>
    </trkpt>
    <trkpt lat="48.478609" lon="2.661684">
      <ele>94.938</ele>
      <time>2016-09-18T11:08:09Z</time>
    </trkpt>
    <trkpt lat="48.478729" lon="2.6617">
      <ele>95.304</ele>
      <time>2016-09-18T11:08:12Z</time>
    </trkpt>
    <trkpt lat="48.478834" lon="2.661751">
      <ele>95.499</ele>
      <time>2016-09-18T11:08:16Z</time>
    </trkpt>
    <trkpt lat="48.478954" lon="2.661769">
      <ele>95.718</ele>
      <time>2016-09-18T11:08:20Z</time>
    </trkpt>
    <trkpt lat="48.479058" lon="2.661799">
      <ele>95.814</ele>
      <time>2016-09-18T11:08:23Z</time>
    </trkpt>
    <trkpt lat="48.479176" lon="2.661787">
      <ele>96.0</ele>
      <time>2016-09-18T11:08:27Z</time>
    </trkpt>
    <trkpt lat="48.47929" lon="2.661815">
      <ele>96.0</ele>
      <time>2016-09-18T11:08:30Z</time>
    </trkpt>
    <trkpt lat="48.479381" lon="2.661782">
      <ele>96.0</ele>
      <time>2016-09-18T11:08:33Z</time>
    </trkpt>
    <trkpt lat="48.479488" lon="2.661752">
      <ele>96.0</ele>
      <time>2016-09-18T11:08:36Z</time>
    </trkpt>
    <trkpt lat="48.479586" lon="2.661745">
      <ele>96.0</ele>
      <time>2016-09-18T11:08:38Z</time>
    </trkpt>
    <trkpt lat="48.479695" lon="2.661813">
      <ele>96.0</ele>
      <time>2016-09-18T11:08:42Z</time>
    </trkpt>
    <trkpt lat="48.479805" lon="2.661812">
      <ele>95.702</ele>
      <time>2016-09-18T11:08:45Z</time>
    </trkpt>
    <trkpt lat="48.479905" lon="2.661791">
      <ele>95.342</ele>
      <time>2016-09-18T11:08:47Z</time>
    </trkpt>
    <trkpt lat="48.480017" lon="2.661743">
      <ele>94.956</ele>
      <time>2016-09-18T11:08:50Z</time>
    </trkpt>
    <trkpt lat="48.480145" lon="2.661801">
      <ele>94.73</ele>
      <time>2016-09-18T11:08:53Z</time>
    </trkpt>
    <trkpt lat="48.480242" lon="2.661819">
      <ele>94.607</ele>
      <time>2016-09-18T11:08:55Z</time>
    </trkpt>
    <trkpt lat="48.480347" lon="2.661832">
      <ele>94.696</ele>
      <time>2016-09-18T11:08:58Z</time>
    </trkpt>
    <trkpt lat="48.480441" lon="2.661878">
      <ele>94.901</ele>
      <time>2016-09-18T11:09:00Z</time>
    </trkpt>
    <trkpt lat="48.480535" lon="2.661877">
      <ele>94.982</ele>
      <time>2016-09-18T11:09:02Z</time>
    </trkpt>
    <trkpt lat="48.480627" lon="2.661873">
      <ele>95.0</ele>
      <time>2016-09-18T11:09:05Z</time>
    </trkpt>
    <trkpt lat="48.48072" lon="2.661906">
      <ele>95.0</ele>
      <time>2016-09-18T11:09:08Z</time>
    </trkpt>
    <trkpt lat="48.480828" lon="2.661913">
      <ele>95.0</ele>
      <time>2016-09-18T11:09:11Z</time>
    </trkpt>
    <trkpt lat="48.480926" lon="2.661981">
      <ele>95.0</ele>
      <time>2016-09-18T11:09:14Z</time>
    </trkpt>
    <trkpt lat="48.481017" lon="2.662022">
      <ele>95.0</ele>
      <time>2016-09-18T11:09:18Z</time>
    </trkpt>
    <trkpt lat="48.481129" lon="2.661977">
      <ele>95.064</ele>
      <time>2016-09-18T11:09:22Z</time>
    </trkpt>
    <trkpt lat="48.481221" lon="2.662">
      <ele>95.396</ele>
      <time>2016-09-18T11:09:26Z</time>
    </trkpt>
    <trkpt lat="48.481326" lon="2.661988">
      <ele>95.774</ele>
      <time>2016-09-18T11:09:32Z</time>
    </trkpt>
    <trkpt lat="48.481412" lon="2.661947">
      <ele>96.25</ele>
      <time>2016-09-18T11:09:35Z</time>
    </trkpt>
    <trkpt lat="48.481514" lon="2.66197">
      <ele>97.393</ele>
      <time>2016-09-18T11:09:40Z</time>
    </trkpt>
    <trkpt lat="48.481608" lon="2.662018">
      <ele>98.575</ele>
      <time>2016-09-18T11:09:44Z</time>
    </trkpt>
    <trkpt lat="48.481721" lon="2.662002">
      <ele>99.753</ele>
      <time>2016-09-18T11:09:48Z</time>
    </trkpt>
    <trkpt lat="48.481813" lon="2.662047">
      <ele>100.755</ele>
      <time>2016-09-18T11:09:52Z</time>
    </trkpt>
    <trkpt lat="48.481903" lon="2.662037">
      <ele>101.602</ele>
      <time>2016-09-18T11:09:56Z</time>
    </trkpt>
    <trkpt lat="48.482019" lon="2.662014">
      <ele>102.268</ele>
      <time>2016-09-18T11:09:59Z</time>
    </trkpt>
    <trkpt lat="48.482108" lon="2.661966">
      <ele>102.589</ele>
      <time>2016-09-18T11:10:04Z</time>
    </trkpt>
    <trkpt lat="48.482204" lon="2.661946">
      <ele>102.934</ele>
      <time>2016-09-18T11:10:08Z</time>
    </trkpt>
    <trkpt lat="48.482296" lon="2.661929">
      <ele>103.015</ele>
      <time>2016-09-18T11:10:12Z</time>
    </trkpt>
    <trkpt lat="48.482386" lon="2.661869">
      <ele>103.16</ele>
      <time>2016-09-18T11:10:17Z</time>
    </trkpt>
    <trkpt lat="48.482467" lon="2.66181">
      <ele>103.427</ele>
      <time>2016-09-18T11:10:20Z</time>
    </trkpt>
    <trkpt lat="48.482549" lon="2.661749">
      <ele>103.932</ele>
      <time>2016-09-18T11:10:23Z</time>
    </trkpt>
    <trkpt lat="48.482637" lon="2.66169">
      <ele>104.451</ele>
      <time>2016-09-18T11:10:26Z</time>
    </trkpt>
    <trkpt lat="48.482731" lon="2.661642">
      <ele>104.832</ele>
      <time>2016-09-18T11:10:30Z</time>
    </trkpt>
    <trkpt lat="48.482826" lon="2.661593">
      <ele>105.174</ele>
      <time>2016-09-18T11:10:34Z</time>
    </trkpt>
    <trkpt lat="48.482913" lon="2.66148">
      <ele>105.487</ele>
      <time>2016-09-18T11:10:38Z</time>
    </trkpt>
    <trkpt lat="48.483014" lon="2.66141">
      <ele>105.85</ele>
      <time>2016-09-18T11:10:43Z</time>
    </trkpt>
    <trkpt lat="48.483113" lon="2.661352">
      <ele>105.376</ele>
      <time>2016-09-18T11:10:48Z</time>
    </trkpt>
    <trkpt lat="48.483207" lon="2.661309">
      <ele>104.648</ele>
      <time>2016-09-18T11:10:51Z</time>
    </trkpt>
    <trkpt lat="48.483312" lon="2.661263">
      <ele>104.084</ele>
      <time>2016-09-18T11:10:54Z</time>
    </trkpt>
    <trkpt lat="48.483386" lon="2.661136">
      <ele>104.0</ele>
      <time>2016-09-18T11:10:55Z</time>
    </trkpt>
    <trkpt lat="48.483483" lon="2.661048">
      <ele>103.895</ele>
      <time>2016-09-18T11:10:59Z</time>
    </trkpt>
    <trkpt lat="48.483602" lon="2.660949">
      <ele>103.981</ele>
      <time>2016-09-18T11:11:02Z</time>
    </trkpt>
    <trkpt lat="48.483704" lon="2.660842">
      <ele>104.334</ele>
      <time>2016-09-18T11:11:04Z</time>
    </trkpt>
    <trkpt lat="48.483791" lon="2.660758">
      <ele>104.648</ele>
      <time>2016-09-18T11:11:07Z</time>
    </trkpt>
    <trkpt lat="48.483865" lon="2.660658">
      <ele>104.914</ele>
      <time>2016-09-18T11:11:09Z</time>
    </trkpt>
    <trkpt lat="48.483954" lon="2.66056">
      <ele>104.769</ele>
      <time>2016-09-18T11:11:11Z</time>
    </trkpt>
    <trkpt lat="48.484048" lon="2.660471">
      <ele>104.123</ele>
      <time>2016-09-18T11:11:14Z</time>
    </trkpt>
    <trkpt lat="48.484124" lon="2.660395">
      <ele>103.576</ele>
      <time>2016-09-18T11:11:16Z</time>
    </trkpt>
    <trkpt lat="48.484196" lon="2.6603">
      <ele>103.08</ele>
      <time>2016-09-18T11:11:18Z</time>
    </trkpt>
    <trkpt lat="48.484301" lon="2.66021">
      <ele>102.756</ele>
      <time>2016-09-18T11:11:23Z</time>
    </trkpt>
    <trkpt lat="48.484403" lon="2.660101">
      <ele>102.364</ele>
      <time>2016-09-18T11:11:27Z</time>
    </trkpt>
    <trkpt lat="48.484477" lon="2.660009">
      <ele>102.032</ele>
      <time>2016-09-18T11:11:29Z</time>
    </trkpt>
    <trkpt lat="48.484542" lon="2.659879">
      <ele>101.282</ele>
      <time>2016-09-18T11:11:32Z</time>
    </trkpt>
    <trkpt lat="48.484594" lon="2.659718">
      <ele>100.531</ele>
      <time>2016-09-18T11:11:36Z</time>
    </trkpt>
    <trkpt lat="48.484629" lon="2.659562">
      <ele>100.471</ele>
      <time>2016-09-18T11:11:39Z</time>
    </trkpt>
    <trkpt lat="48.484653" lon="2.659422">
      <ele>100.441</ele>
      <time>2016-09-18T11:11:41Z</time>
    </trkpt>
    <trkpt lat="48.484633" lon="2.659288">
      <ele>99.975</ele>
      <time>2016-09-18T11:11:44Z</time>
    </trkpt>
    <trkpt lat="48.484704" lon="2.659136">
      <ele>99.824</ele>
      <time>2016-09-18T11:11:47Z</time>
    </trkpt>
    <trkpt lat="48.484747" lon="2.65896">
      <ele>99.345</ele>
      <time>2016-09-18T11:11:48Z</time>
    </trkpt>
    <trkpt lat="48.484679" lon="2.658844">
      <ele>98.844</ele>
      <time>2016-09-18T11:11:52Z</time>
    </trkpt>
    <trkpt lat="48.484682" lon="2.658704">
      <ele>98.855</ele>
      <time>2016-09-18T11:11:54Z</time>
    </trkpt>
    <trkpt lat="48.484701" lon="2.658547">
      <ele>98.728</ele>
      <time>2016-09-18T11:11:57Z</time>
    </trkpt>
    <trkpt lat="48.484753" lon="2.658372">
      <ele>98.345</ele>
      <time>2016-09-18T11:12:00Z</time>
    </trkpt>
    <trkpt lat="48.48479" lon="2.658165">
      <ele>98.798</ele>
      <time>2016-09-18T11:12:04Z</time>
    </trkpt>
    <trkpt lat="48.484836" lon="2.65803">
      <ele>99.0</ele>
      <time>2016-09-18T11:12:06Z</time>
    </trkpt>
    <trkpt lat="48.484837" lon="2.657887">
      <ele>99.0</ele>
      <time>2016-09-18T11:12:10Z</time>
    </trkpt>
    <trkpt lat="48.484896" lon="2.657746">
      <ele>99.114</ele>
      <time>2016-09-18T11:12:13Z</time>
    </trkpt>
    <trkpt lat="48.484882" lon="2.657573">
      <ele>99.737</ele>
      <time>2016-09-18T11:12:16Z</time>
    </trkpt>
    <trkpt lat="48.484881" lon="2.657433">
      <ele>100.138</ele>
      <time>2016-09-18T11:12:18Z</time>
    </trkpt>
    <trkpt lat="48.484879" lon="2.657283">
      <ele>100.441</ele>
      <time>2016-09-18T11:12:20Z</time>
    </trkpt>
    <trkpt lat="48.48489" lon="2.657125">
      <ele>100.604</ele>
      <time>2016-09-18T11:12:21Z</time>
    </trkpt>
    <trkpt lat="48.48493" lon="2.656981">
      <ele>100.748</ele>
      <time>2016-09-18T11:12:22Z</time>
    </trkpt>
    <trkpt lat="48.484964" lon="2.656797">
      <ele>100.939</ele>
      <time>2016-09-18T11:12:23Z</time>
    </trkpt>
    <trkpt lat="48.484988" lon="2.656574">
      <ele>101.0</ele>
      <time>2016-09-18T11:12:27Z</time>
    </trkpt>
    <trkpt lat="48.485018" lon="2.656391">
      <ele>101.13</ele>
      <time>2016-09-18T11:12:29Z</time>
    </trkpt>
    <trkpt lat="48.485046" lon="2.656225">
      <ele>101.823</ele>
      <time>2016-09-18T11:12:33Z</time>
    </trkpt>
    <trkpt lat="48.485019" lon="2.656015">
      <ele>102.391</ele>
      <time>2016-09-18T11:12:38Z</time>
    </trkpt>
    <trkpt lat="48.485077" lon="2.655869">
      <ele>102.907</ele>
      <time>2016-09-18T11:12:41Z</time>
    </trkpt>
    <trkpt lat="48.485099" lon="2.655704">
      <ele>102.7</ele>
      <time>2016-09-18T11:12:43Z</time>
    </trkpt>
    <trkpt lat="48.485129" lon="2.655522">
      <ele>102.408</ele>
      <time>2016-09-18T11:12:45Z</time>
    </trkpt>
    <trkpt lat="48.485182" lon="2.655386">
      <ele>102.255</ele>
      <time>2016-09-18T11:12:47Z</time>
    </trkpt>
    <trkpt lat="48.485197" lon="2.655224">
      <ele>101.806</ele>
      <time>2016-09-18T11:12:50Z</time>
    </trkpt>
    <trkpt lat="48.48527" lon="2.655001">
      <ele>101.004</ele>
      <time>2016-09-18T11:12:52Z</time>
    </trkpt>
    <trkpt lat="48.485271" lon="2.654849">
      <ele>101.0</ele>
      <time>2016-09-18T11:12:54Z</time>
    </trkpt>
    <trkpt lat="48.485299" lon="2.654711">
      <ele>101.0</ele>
      <time>2016-09-18T11:12:56Z</time>
    </trkpt>
    <trkpt lat="48.485336" lon="2.654538">
      <ele>101.0</ele>
      <time>2016-09-18T11:12:58Z</time>
    </trkpt>
    <trkpt lat="48.485329" lon="2.654329">
      <ele>101.077</ele>
      <time>2016-09-18T11:13:00Z</time>
    </trkpt>
    <trkpt lat="48.48534" lon="2.654157">
      <ele>101.224</ele>
      <time>2016-09-18T11:13:04Z</time>
    </trkpt>
    <trkpt lat="48.485371" lon="2.653906">
      <ele>101.336</ele>
      <time>2016-09-18T11:13:07Z</time>
    </trkpt>
    <trkpt lat="48.485413" lon="2.65374">
      <ele>101.487</ele>
      <time>2016-09-18T11:13:09Z</time>
    </trkpt>
    <trkpt lat="48.485445" lon="2.65359">
      <ele>101.556</ele>
      <time>2016-09-18T11:13:14Z</time>
    </trkpt>
    <trkpt lat="48.485485" lon="2.653447">
      <ele>101.305</ele>
      <time>2016-09-18T11:13:17Z</time>
    </trkpt>
    <trkpt lat="48.485519" lon="2.653313">
      <ele>100.927</ele>
      <time>2016-09-18T11:13:19Z</time>
    </trkpt>
    <trkpt lat="48.485654" lon="2.653144">
      <ele>101.269</ele>
      <time>2016-09-18T11:13:22Z</time>
    </trkpt>
    <trkpt lat="48.485745" lon="2.653005">
      <ele>101.74</ele>
      <time>2016-09-18T11:13:29Z</time>
    </trkpt>
    <trkpt lat="48.485816" lon="2.652886">
      <ele>101.63</ele>
      <time>2016-09-18T11:13:32Z</time>
    </trkpt>
    <trkpt lat="48.48588" lon="2.652717">
      <ele>101.117</ele>
      <time>2016-09-18T11:13:36Z</time>
    </trkpt>
    <trkpt lat="48.48595" lon="2.652547">
      <ele>101.009</ele>
      <time>2016-09-18T11:13:39Z</time>
    </trkpt>
    <trkpt lat="48.486054" lon="2.652323">
      <ele>100.952</ele>
      <time>2016-09-18T11:13:41Z</time>
    </trkpt>
    <trkpt lat="48.486142" lon="2.652159">
      <ele>100.772</ele>
      <time>2016-09-18T11:13:43Z</time>
    </trkpt>
    <trkpt lat="48.48622" lon="2.652046">
      <ele>100.366</ele>
      <time>2016-09-18T11:13:45Z</time>
    </trkpt>
    <trkpt lat="48.486301" lon="2.65182">
      <ele>99.858</ele>
      <time>2016-09-18T11:13:48Z</time>
    </trkpt>
    <trkpt lat="48.486354" lon="2.651708">
      <ele>99.893</ele>
      <time>2016-09-18T11:13:50Z</time>
    </trkpt>
    <trkpt lat="48.486433" lon="2.651533">
      <ele>99.678</ele>
      <time>2016-09-18T11:13:52Z</time>
    </trkpt>
    <trkpt lat="48.486532" lon="2.651344">
      <ele>99.354</ele>
      <time>2016-09-18T11:13:54Z</time>
    </trkpt>
    <trkpt lat="48.486607" lon="2.65122">
      <ele>99.177</ele>
      <time>2016-09-18T11:13:56Z</time>
    </trkpt>
    <trkpt lat="48.486664" lon="2.651107">
      <ele>98.976</ele>
      <time>2016-09-18T11:13:59Z</time>
    </trkpt>
    <trkpt lat="48.486735" lon="2.650979">
      <ele>98.653</ele>
      <time>2016-09-18T11:14:01Z</time>
    </trkpt>
    <trkpt lat="48.486816" lon="2.650783">
      <ele>97.735</ele>
      <time>2016-09-18T11:14:03Z</time>
    </trkpt>
    <trkpt lat="48.4869" lon="2.65062">
      <ele>97.109</ele>
      <time>2016-09-18T11:14:06Z</time>
    </trkpt>
    <trkpt lat="48.48699" lon="2.650448">
      <ele>97.328</ele>
      <time>2016-09-18T11:14:08Z</time>
    </trkpt>
    <trkpt lat="48.487061" lon="2.650287">
      <ele>97.839</ele>
      <time>2016-09-18T11:14:10Z</time>
    </trkpt>
    <trkpt lat="48.487113" lon="2.650113">
      <ele>98.214</ele>
      <time>2016-09-18T11:14:13Z</time>
    </trkpt>
    <trkpt lat="48.487194" lon="2.65">
      <ele>98.797</ele>
      <time>2016-09-18T11:14:15Z</time>
    </trkpt>
    <trkpt lat="48.487272" lon="2.649872">
      <ele>98.622</ele>
      <time>2016-09-18T11:14:17Z</time>
    </trkpt>
    <trkpt lat="48.487345" lon="2.649694">
      <ele>98.34</ele>
      <time>2016-09-18T11:14:19Z</time>
    </trkpt>
    <trkpt lat="48.487478" lon="2.649496">
      <ele>98.106</ele>
      <time>2016-09-18T11:14:21Z</time>
    </trkpt>
    <trkpt lat="48.487565" lon="2.649348">
      <ele>97.968</ele>
      <time>2016-09-18T11:14:23Z</time>
    </trkpt>
    <trkpt lat="48.48764" lon="2.649201">
      <ele>98.069</ele>
      <time>2016-09-18T11:14:26Z</time>
    </trkpt>
    <trkpt lat="48.487738" lon="2.648991">
      <ele>97.991</ele>
      <time>2016-09-18T11:14:28Z</time>
    </trkpt>
    <trkpt lat="48.487808" lon="2.648828">
      <ele>97.913</ele>
      <time>2016-09-18T11:14:33Z</time>
    </trkpt>
    <trkpt lat="48.487849" lon="2.648685">
      <ele>97.711</ele>
      <time>2016-09-18T11:14:35Z</time>
    </trkpt>
    <trkpt lat="48.487921" lon="2.648572">
      <ele>97.89</ele>
      <time>2016-09-18T11:14:37Z</time>
    </trkpt>
    <trkpt lat="48.487983" lon="2.648435">
      <ele>97.844</ele>
      <time>2016-09-18T11:14:39Z</time>
    </trkpt>
    <trkpt lat="48.488062" lon="2.648291">
      <ele>98.023</ele>
      <time>2016-09-18T11:14:42Z</time>
    </trkpt>
    <trkpt lat="48.488126" lon="2.648165">
      <ele>98.254</ele>
      <time>2016-09-18T11:14:44Z</time>
    </trkpt>
    <trkpt lat="48.488193" lon="2.648009">
      <ele>98.495</ele>
      <time>2016-09-18T11:14:46Z</time>
    </trkpt>
    <trkpt lat="48.488276" lon="2.647786">
      <ele>98.794</ele>
      <time>2016-09-18T11:14:48Z</time>
    </trkpt>
    <trkpt lat="48.488356" lon="2.647594">
      <ele>98.502</ele>
      <time>2016-09-18T11:14:51Z</time>
    </trkpt>
    <trkpt lat="48.488459" lon="2.647407">
      <ele>98.57</ele>
      <time>2016-09-18T11:14:53Z</time>
    </trkpt>
    <trkpt lat="48.488552" lon="2.647238">
      <ele>98.631</ele>
      <time>2016-09-18T11:14:56Z</time>
    </trkpt>
    <trkpt lat="48.48862" lon="2.647001">
      <ele>98.236</ele>
      <time>2016-09-18T11:14:58Z</time>
    </trkpt>
    <trkpt lat="48.488713" lon="2.646914">
      <ele>98.297</ele>
      <time>2016-09-18T11:15:03Z</time>
    </trkpt>
    <trkpt lat="48.488787" lon="2.646754">
      <ele>98.382</ele>
      <time>2016-09-18T11:15:06Z</time>
    </trkpt>
    <trkpt lat="48.488823" lon="2.646609">
      <ele>98.526</ele>
      <time>2016-09-18T11:15:08Z</time>
    </trkpt>
    <trkpt lat="48.488929" lon="2.646381">
      <ele>99.169</ele>
      <time>2016-09-18T11:15:10Z</time>
    </trkpt>
    <trkpt lat="48.488959" lon="2.646196">
      <ele>99.772</ele>
      <time>2016-09-18T11:15:15Z</time>
    </trkpt>
    <trkpt lat="48.488982" lon="2.64603">
      <ele>99.806</ele>
      <time>2016-09-18T11:15:18Z</time>
    </trkpt>
    <trkpt lat="48.488999" lon="2.645858">
      <ele>99.45</ele>
      <time>2016-09-18T11:15:20Z</time>
    </trkpt>
    <trkpt lat="48.489049" lon="2.645704">
      <ele>98.574</ele>
      <time>2016-09-18T11:15:22Z</time>
    </trkpt>
    <trkpt lat="48.489092" lon="2.645543">
      <ele>97.211</ele>
      <time>2016-09-18T11:15:25Z</time>
    </trkpt>
    <trkpt lat="48.48914" lon="2.645353">
      <ele>96.297</ele>
      <time>2016-09-18T11:15:27Z</time>
    </trkpt>
    <trkpt lat="48.489184" lon="2.645179">
      <ele>95.769</ele>
      <time>2016-09-18T11:15:29Z</time>
    </trkpt>
    <trkpt lat="48.489258" lon="2.644947">
      <ele>95.848</ele>
      <time>2016-09-18T11:15:31Z</time>
    </trkpt>
    <trkpt lat="48.489316" lon="2.644787">
      <ele>96.842</ele>
      <time>2016-09-18T11:15:34Z</time>
    </trkpt>
    <trkpt lat="48.48937" lon="2.644603">
      <ele>97.778</ele>
      <time>2016-09-18T11:15:36Z</time>
    </trkpt>
    <trkpt lat="48.489441" lon="2.644468">
      <ele>98.879</ele>
      <time>2016-09-18T11:15:39Z</time>
    </trkpt>
    <trkpt lat="48.489487" lon="2.644328">
      <ele>99.572</ele>
      <time>2016-09-18T11:15:42Z</time>
    </trkpt>
    <trkpt lat="48.489558" lon="2.644171">
      <ele>100.393</ele>
      <time>2016-09-18T11:15:45Z</time>
    </trkpt>
    <trkpt lat="48.489567" lon="2.644034">
      <ele>100.441</ele>
      <time>2016-09-18T11:15:47Z</time>
    </trkpt>
    <trkpt lat="48.48965" lon="2.643869">
      <ele>100.793</ele>
      <time>2016-09-18T11:15:50Z</time>
    </trkpt>
    <trkpt lat="48.489708" lon="2.643707">
      <ele>101.57</ele>
      <time>2016-09-18T11:15:52Z</time>
    </trkpt>
    <trkpt lat="48.489779" lon="2.643545">
      <ele>102.049</ele>
      <time>2016-09-18T11:15:55Z</time>
    </trkpt>
    <trkpt lat="48.489852" lon="2.643431">
      <ele>102.303</ele>
      <time>2016-09-18T11:15:58Z</time>
    </trkpt>
    <trkpt lat="48.489925" lon="2.643334">
      <ele>102.728</ele>
      <time>2016-09-18T11:16:00Z</time>
    </trkpt>
    <trkpt lat="48.490009" lon="2.643236">
      <ele>102.661</ele>
      <time>2016-09-18T11:16:02Z</time>
    </trkpt>
    <trkpt lat="48.490082" lon="2.643119">
      <ele>102.456</ele>
      <time>2016-09-18T11:16:05Z</time>
    </trkpt>
    <trkpt lat="48.490153" lon="2.643026">
      <ele>102.444</ele>
      <time>2016-09-18T11:16:07Z</time>
    </trkpt>
    <trkpt lat="48.490223" lon="2.642927">
      <ele>102.34</ele>
      <time>2016-09-18T11:16:09Z</time>
    </trkpt>
    <trkpt lat="48.490306" lon="2.642798">
      <ele>102.073</ele>
      <time>2016-09-18T11:16:13Z</time>
    </trkpt>
    <trkpt lat="48.490407" lon="2.642642">
      <ele>102.0</ele>
      <time>2016-09-18T11:16:16Z</time>
    </trkpt>
    <trkpt lat="48.490504" lon="2.642503">
      <ele>102.0</ele>
      <time>2016-09-18T11:16:18Z</time>
    </trkpt>
    <trkpt lat="48.490585" lon="2.642386">
      <ele>101.527</ele>
      <time>2016-09-18T11:16:20Z</time>
    </trkpt>
    <trkpt lat="48.490666" lon="2.642256">
      <ele>101.073</ele>
      <time>2016-09-18T11:16:22Z</time>
    </trkpt>
    <trkpt lat="48.490747" lon="2.642134">
      <ele>100.901</ele>
      <time>2016-09-18T11:16:24Z</time>
    </trkpt>
    <trkpt lat="48.490861" lon="2.641999">
      <ele>101.1</ele>
      <time>2016-09-18T11:16:28Z</time>
    </trkpt>
    <trkpt lat="48.490904" lon="2.641855">
      <ele>101.254</ele>
      <time>2016-09-18T11:16:30Z</time>
    </trkpt>
    <trkpt lat="48.490982" lon="2.641775">
      <ele>101.535</ele>
      <time>2016-09-18T11:16:34Z</time>
    </trkpt>
    <trkpt lat="48.491064" lon="2.641628">
      <ele>101.97</ele>
      <time>2016-09-18T11:16:36Z</time>
    </trkpt>
    <trkpt lat="48.491176" lon="2.641573">
      <ele>102.258</ele>
      <time>2016-09-18T11:16:40Z</time>
    </trkpt>
    <trkpt lat="48.491269" lon="2.641474">
      <ele>102.299</ele>
      <time>2016-09-18T11:16:42Z</time>
    </trkpt>
    <trkpt lat="48.491391" lon="2.641317">
      <ele>102.251</ele>
      <time>2016-09-18T11:16:44Z</time>
    </trkpt>
    <trkpt lat="48.49149" lon="2.641242">
      <ele>102.165</ele>
      <time>2016-09-18T11:16:46Z</time>
    </trkpt>
    <trkpt lat="48.491573" lon="2.64111">
      <ele>102.336</ele>
      <time>2016-09-18T11:16:48Z</time>
    </trkpt>
    <trkpt lat="48.491681" lon="2.640976">
      <ele>101.973</ele>
      <time>2016-09-18T11:16:50Z</time>
    </trkpt>
    <trkpt lat="48.491753" lon="2.640863">
      <ele>101.967</ele>
      <time>2016-09-18T11:16:52Z</time>
    </trkpt>
    <trkpt lat="48.491836" lon="2.640806">
      <ele>102.038</ele>
      <time>2016-09-18T11:16:54Z</time>
    </trkpt>
    <trkpt lat="48.491941" lon="2.640691">
      <ele>102.006</ele>
      <time>2016-09-18T11:16:57Z</time>
    </trkpt>
    <trkpt lat="48.49205" lon="2.640619">
      <ele>101.62</ele>
      <time>2016-09-18T11:17:00Z</time>
    </trkpt>
    <trkpt lat="48.49213" lon="2.640533">
      <ele>101.332</ele>
      <time>2016-09-18T11:17:03Z</time>
    </trkpt>
    <trkpt lat="48.492238" lon="2.640385">
      <ele>101.0</ele>
      <time>2016-09-18T11:17:05Z</time>
    </trkpt>
    <trkpt lat="48.492327" lon="2.640245">
      <ele>100.882</ele>
      <time>2016-09-18T11:17:07Z</time>
    </trkpt>
    <trkpt lat="48.49243" lon="2.64012">
      <ele>100.432</ele>
      <time>2016-09-18T11:17:10Z</time>
    </trkpt>
    <trkpt lat="48.492551" lon="2.640036">
      <ele>100.13</ele>
      <time>2016-09-18T11:17:13Z</time>
    </trkpt>
    <trkpt lat="48.49264" lon="2.639948">
      <ele>100.0</ele>
      <time>2016-09-18T11:17:15Z</time>
    </trkpt>
    <trkpt lat="48.492722" lon="2.639791">
      <ele>100.0</ele>
      <time>2016-09-18T11:17:17Z</time>
    </trkpt>
    <trkpt lat="48.492804" lon="2.639676">
      <ele>99.906</ele>
      <time>2016-09-18T11:17:19Z</time>
    </trkpt>
    <trkpt lat="48.49287" lon="2.639569">
      <ele>99.668</ele>
      <time>2016-09-18T11:17:22Z</time>
    </trkpt>
    <trkpt lat="48.492974" lon="2.639441">
      <ele>99.297</ele>
      <time>2016-09-18T11:17:25Z</time>
    </trkpt>
    <trkpt lat="48.493073" lon="2.639378">
      <ele>98.874</ele>
      <time>2016-09-18T11:17:28Z</time>
    </trkpt>
    <trkpt lat="48.493185" lon="2.639261">
      <ele>98.068</ele>
      <time>2016-09-18T11:17:30Z</time>
    </trkpt>
    <trkpt lat="48.493295" lon="2.639171">
      <ele>97.276</ele>
      <time>2016-09-18T11:17:32Z</time>
    </trkpt>
    <trkpt lat="48.493366" lon="2.639085">
      <ele>97.294</ele>
      <time>2016-09-18T11:17:33Z</time>
    </trkpt>
    <trkpt lat="48.493448" lon="2.63897">
      <ele>97.708</ele>
      <time>2016-09-18T11:17:34Z</time>
    </trkpt>
    <trkpt lat="48.493517" lon="2.638865">
      <ele>98.029</ele>
      <time>2016-09-18T11:17:35Z</time>
    </trkpt>
    <trkpt lat="48.493613" lon="2.638752">
      <ele>97.993</ele>
      <time>2016-09-18T11:17:37Z</time>
    </trkpt>
    <trkpt lat="48.493715" lon="2.638618">
      <ele>97.626</ele>
      <time>2016-09-18T11:17:39Z</time>
    </trkpt>
    <trkpt lat="48.49381" lon="2.638514">
      <ele>97.185</ele>
      <time>2016-09-18T11:17:41Z</time>
    </trkpt>
    <trkpt lat="48.49387" lon="2.638406">
      <ele>97.018</ele>
      <time>2016-09-18T11:17:43Z</time>
    </trkpt>
    <trkpt lat="48.49395" lon="2.6383">
      <ele>96.66</ele>
      <time>2016-09-18T11:17:45Z</time>
    </trkpt>
    <trkpt lat="48.494027" lon="2.638212">
      <ele>96.066</ele>
      <time>2016-09-18T11:17:47Z</time>
    </trkpt>
    <trkpt lat="48.494123" lon="2.638095">
      <ele>95.299</ele>
      <time>2016-09-18T11:17:49Z</time>
    </trkpt>
    <trkpt lat="48.494217" lon="2.637991">
      <ele>94.768</ele>
      <time>2016-09-18T11:17:51Z</time>
    </trkpt>
    <trkpt lat="48.49434" lon="2.637804">
      <ele>94.094</ele>
      <time>2016-09-18T11:17:53Z</time>
    </trkpt>
    <trkpt lat="48.494454" lon="2.637619">
      <ele>93.448</ele>
      <time>2016-09-18T11:17:55Z</time>
    </trkpt>
    <trkpt lat="48.494563" lon="2.637512">
      <ele>93.452</ele>
      <time>2016-09-18T11:17:57Z</time>
    </trkpt>
    <trkpt lat="48.494651" lon="2.637449">
      <ele>93.744</ele>
      <time>2016-09-18T11:17:59Z</time>
    </trkpt>
    <trkpt lat="48.494735" lon="2.637315">
      <ele>93.985</ele>
      <time>2016-09-18T11:18:01Z</time>
    </trkpt>
    <trkpt lat="48.494824" lon="2.637196">
      <ele>93.975</ele>
      <time>2016-09-18T11:18:03Z</time>
    </trkpt>
    <trkpt lat="48.494923" lon="2.637062">
      <ele>94.257</ele>
      <time>2016-09-18T11:18:05Z</time>
    </trkpt>
    <trkpt lat="48.495004" lon="2.63698">
      <ele>94.872</ele>
      <time>2016-09-18T11:18:06Z</time>
    </trkpt>
    <trkpt lat="48.495139" lon="2.636807">
      <ele>95.0</ele>
      <time>2016-09-18T11:18:08Z</time>
    </trkpt>
    <trkpt lat="48.495268" lon="2.636598">
      <ele>94.762</ele>
      <time>2016-09-18T11:18:10Z</time>
    </trkpt>
    <trkpt lat="48.495355" lon="2.636495">
      <ele>93.932</ele>
      <time>2016-09-18T11:18:11Z</time>
    </trkpt>
    <trkpt lat="48.495455" lon="2.636333">
      <ele>92.651</ele>
      <time>2016-09-18T11:18:13Z</time>
    </trkpt>
    <trkpt lat="48.495547" lon="2.636189">
      <ele>92.039</ele>
      <time>2016-09-18T11:18:14Z</time>
    </trkpt>
    <trkpt lat="48.49566" lon="2.636118">
      <ele>91.633</ele>
      <time>2016-09-18T11:18:17Z</time>
    </trkpt>
    <trkpt lat="48.49575" lon="2.636048">
      <ele>91.232</ele>
      <time>2016-09-18T11:18:19Z</time>
    </trkpt>
    <trkpt lat="48.495857" lon="2.635986">
      <ele>91.047</ele>
      <time>2016-09-18T11:18:22Z</time>
    </trkpt>
    <trkpt lat="48.495969" lon="2.635877">
      <ele>91.077</ele>
      <time>2016-09-18T11:18:26Z</time>
    </trkpt>
    <trkpt lat="48.496074" lon="2.635732">
      <ele>91.0</ele>
      <time>2016-09-18T11:18:28Z</time>
    </trkpt>
    <trkpt lat="48.496174" lon="2.635653">
      <ele>91.147</ele>
      <time>2016-09-18T11:18:31Z</time>
    </trkpt>
    <trkpt lat="48.496261" lon="2.63554">
      <ele>91.54</ele>
      <time>2016-09-18T11:18:34Z</time>
    </trkpt>
    <trkpt lat="48.496345" lon="2.635407">
      <ele>91.842</ele>
      <time>2016-09-18T11:18:37Z</time>
    </trkpt>
    <trkpt lat="48.496418" lon="2.635278">
      <ele>92.105</ele>
      <time>2016-09-18T11:18:38Z</time>
    </trkpt>
    <trkpt lat="48.496535" lon="2.635199">
      <ele>92.526</ele>
      <time>2016-09-18T11:18:41Z</time>
    </trkpt>
    <trkpt lat="48.496647" lon="2.635096">
      <ele>92.929</ele>
      <time>2016-09-18T11:18:43Z</time>
    </trkpt>
    <trkpt lat="48.496728" lon="2.634919">
      <ele>93.15</ele>
      <time>2016-09-18T11:18:46Z</time>
    </trkpt>
    <trkpt lat="48.496661" lon="2.635025">
      <ele>92.98</ele>
      <time>2016-09-18T11:18:48Z</time>
    </trkpt>
    <trkpt lat="48.496725" lon="2.634914">
      <ele>93.11</ele>
      <time>2016-09-18T11:19:04Z</time>
    </trkpt>
    <trkpt lat="48.496685" lon="2.634957">
      <ele>92.977</ele>
      <time>2016-09-18T11:23:46Z</time>
    </trkpt>
  </trkseg>
</trk>
</gpx>
